<?xml version="1.0" encoding="UTF-8" standalone="no" ?>
<gpx xmlns="http://www.topografix.com/GPX/1/1" xmlns:xsi="http://www.w3.org/2001/XMLSchema-instance" xsi:schemaLocation="http://www.topografix.com/GPX/1/1 http://www.topografix.com/GPX/1/1/gpx.xsd" version="1.1" creator="VisuGPX - https://www.visugpx.com">
  <metadata>
    <name>PEYRE - MOULIBEZ - CASTELMUS</name>
    <desc><![CDATA[rando tres agréable pour une journée]]></desc>
  </metadata>
  <trk>
    <name><![CDATA[18 mars 2014 08:47:22]]></name>
    <cmt><![CDATA[18 mars 2014 08:47:22]]></cmt>
    <trkseg>
      <trkpt lat="44.08795" lon="2.99436">
        <ele>352</ele>
        <time>2014-03-18T07:47:22Z</time>
      </trkpt>
      <trkpt lat="44.08792" lon="2.99441">
        <ele>351</ele>
        <time>2014-03-18T07:48:18Z</time>
      </trkpt>
      <trkpt lat="44.08791" lon="2.99447">
        <ele>351</ele>
        <time>2014-03-18T07:48:22Z</time>
      </trkpt>
      <trkpt lat="44.08791" lon="2.99455">
        <ele>352</ele>
        <time>2014-03-18T07:48:26Z</time>
      </trkpt>
      <trkpt lat="44.08794" lon="2.99462">
        <ele>353</ele>
        <time>2014-03-18T07:48:29Z</time>
      </trkpt>
      <trkpt lat="44.08797" lon="2.99468">
        <ele>354</ele>
        <time>2014-03-18T07:48:33Z</time>
      </trkpt>
      <trkpt lat="44.08798" lon="2.99474">
        <ele>354</ele>
        <time>2014-03-18T07:48:38Z</time>
      </trkpt>
      <trkpt lat="44.088" lon="2.9948">
        <ele>355</ele>
        <time>2014-03-18T07:48:44Z</time>
      </trkpt>
      <trkpt lat="44.08802" lon="2.99488">
        <ele>355</ele>
        <time>2014-03-18T07:48:48Z</time>
      </trkpt>
      <trkpt lat="44.08803" lon="2.99492">
        <ele>354</ele>
        <time>2014-03-18T07:48:55Z</time>
      </trkpt>
      <trkpt lat="44.08806" lon="2.99497">
        <ele>351</ele>
        <time>2014-03-18T07:49:13Z</time>
      </trkpt>
      <trkpt lat="44.08808" lon="2.99506">
        <ele>350</ele>
        <time>2014-03-18T07:49:17Z</time>
      </trkpt>
      <trkpt lat="44.08809" lon="2.99513">
        <ele>349</ele>
        <time>2014-03-18T07:49:20Z</time>
      </trkpt>
      <trkpt lat="44.0881" lon="2.9952">
        <ele>348</ele>
        <time>2014-03-18T07:49:24Z</time>
      </trkpt>
      <trkpt lat="44.08812" lon="2.99528">
        <ele>348</ele>
        <time>2014-03-18T07:49:28Z</time>
      </trkpt>
      <trkpt lat="44.08815" lon="2.99532">
        <ele>348</ele>
        <time>2014-03-18T07:49:31Z</time>
      </trkpt>
      <trkpt lat="44.08816" lon="2.99532">
        <ele>347</ele>
        <time>2014-03-18T07:49:47Z</time>
      </trkpt>
      <trkpt lat="44.08814" lon="2.99524">
        <ele>348</ele>
        <time>2014-03-18T07:49:51Z</time>
      </trkpt>
      <trkpt lat="44.08812" lon="2.99516">
        <ele>348</ele>
        <time>2014-03-18T07:49:54Z</time>
      </trkpt>
      <trkpt lat="44.08811" lon="2.9951">
        <ele>347</ele>
        <time>2014-03-18T07:49:56Z</time>
      </trkpt>
      <trkpt lat="44.0881" lon="2.99503">
        <ele>346</ele>
        <time>2014-03-18T07:49:58Z</time>
      </trkpt>
      <trkpt lat="44.08808" lon="2.99496">
        <ele>345</ele>
        <time>2014-03-18T07:50:00Z</time>
      </trkpt>
      <trkpt lat="44.08805" lon="2.99487">
        <ele>345</ele>
        <time>2014-03-18T07:50:03Z</time>
      </trkpt>
      <trkpt lat="44.08803" lon="2.99479">
        <ele>345</ele>
        <time>2014-03-18T07:50:06Z</time>
      </trkpt>
      <trkpt lat="44.08802" lon="2.99473">
        <ele>345</ele>
        <time>2014-03-18T07:50:08Z</time>
      </trkpt>
      <trkpt lat="44.088" lon="2.99467">
        <ele>345</ele>
        <time>2014-03-18T07:50:10Z</time>
      </trkpt>
      <trkpt lat="44.08799" lon="2.99461">
        <ele>345</ele>
        <time>2014-03-18T07:50:12Z</time>
      </trkpt>
      <trkpt lat="44.08797" lon="2.99453">
        <ele>345</ele>
        <time>2014-03-18T07:50:15Z</time>
      </trkpt>
      <trkpt lat="44.08796" lon="2.99446">
        <ele>345</ele>
        <time>2014-03-18T07:50:18Z</time>
      </trkpt>
      <trkpt lat="44.08793" lon="2.99448">
        <ele>345</ele>
        <time>2014-03-18T07:50:25Z</time>
      </trkpt>
      <trkpt lat="44.08795" lon="2.99458">
        <ele>345</ele>
        <time>2014-03-18T07:50:27Z</time>
      </trkpt>
      <trkpt lat="44.08797" lon="2.99467">
        <ele>346</ele>
        <time>2014-03-18T07:50:29Z</time>
      </trkpt>
      <trkpt lat="44.08799" lon="2.99475">
        <ele>348</ele>
        <time>2014-03-18T07:50:31Z</time>
      </trkpt>
      <trkpt lat="44.088" lon="2.99479">
        <ele>348</ele>
        <time>2014-03-18T07:50:32Z</time>
      </trkpt>
      <trkpt lat="44.08801" lon="2.99482">
        <ele>348</ele>
        <time>2014-03-18T07:50:33Z</time>
      </trkpt>
      <trkpt lat="44.08804" lon="2.99485">
        <ele>348</ele>
        <time>2014-03-18T07:50:35Z</time>
      </trkpt>
      <trkpt lat="44.08809" lon="2.9949">
        <ele>347</ele>
        <time>2014-03-18T07:50:40Z</time>
      </trkpt>
      <trkpt lat="44.08811" lon="2.99496">
        <ele>347</ele>
        <time>2014-03-18T07:50:43Z</time>
      </trkpt>
      <trkpt lat="44.08813" lon="2.99503">
        <ele>348</ele>
        <time>2014-03-18T07:50:45Z</time>
      </trkpt>
      <trkpt lat="44.08814" lon="2.9951">
        <ele>348</ele>
        <time>2014-03-18T07:50:47Z</time>
      </trkpt>
      <trkpt lat="44.08817" lon="2.99517">
        <ele>348</ele>
        <time>2014-03-18T07:50:49Z</time>
      </trkpt>
      <trkpt lat="44.08819" lon="2.99526">
        <ele>349</ele>
        <time>2014-03-18T07:50:51Z</time>
      </trkpt>
      <trkpt lat="44.0882" lon="2.9953">
        <ele>349</ele>
        <time>2014-03-18T07:50:52Z</time>
      </trkpt>
      <trkpt lat="44.08821" lon="2.99534">
        <ele>350</ele>
        <time>2014-03-18T07:50:53Z</time>
      </trkpt>
      <trkpt lat="44.08822" lon="2.99539">
        <ele>350</ele>
        <time>2014-03-18T07:50:54Z</time>
      </trkpt>
      <trkpt lat="44.08823" lon="2.99543">
        <ele>350</ele>
        <time>2014-03-18T07:50:55Z</time>
      </trkpt>
      <trkpt lat="44.08824" lon="2.99547">
        <ele>350</ele>
        <time>2014-03-18T07:50:56Z</time>
      </trkpt>
      <trkpt lat="44.08825" lon="2.9955">
        <ele>350</ele>
        <time>2014-03-18T07:50:57Z</time>
      </trkpt>
      <trkpt lat="44.08826" lon="2.99552">
        <ele>350</ele>
        <time>2014-03-18T07:50:58Z</time>
      </trkpt>
      <trkpt lat="44.08828" lon="2.99558">
        <ele>351</ele>
        <time>2014-03-18T07:51:00Z</time>
      </trkpt>
      <trkpt lat="44.0883" lon="2.99562">
        <ele>351</ele>
        <time>2014-03-18T07:51:02Z</time>
      </trkpt>
      <trkpt lat="44.08831" lon="2.99567">
        <ele>351</ele>
        <time>2014-03-18T07:51:04Z</time>
      </trkpt>
      <trkpt lat="44.08833" lon="2.9957">
        <ele>350</ele>
        <time>2014-03-18T07:51:07Z</time>
      </trkpt>
      <trkpt lat="44.08836" lon="2.99578">
        <ele>350</ele>
        <time>2014-03-18T07:51:13Z</time>
      </trkpt>
      <trkpt lat="44.08839" lon="2.99583">
        <ele>350</ele>
        <time>2014-03-18T07:51:16Z</time>
      </trkpt>
      <trkpt lat="44.08842" lon="2.9959">
        <ele>349</ele>
        <time>2014-03-18T07:51:20Z</time>
      </trkpt>
      <trkpt lat="44.08846" lon="2.99597">
        <ele>349</ele>
        <time>2014-03-18T07:51:25Z</time>
      </trkpt>
      <trkpt lat="44.08851" lon="2.99607">
        <ele>349</ele>
        <time>2014-03-18T07:51:33Z</time>
      </trkpt>
      <trkpt lat="44.08855" lon="2.99613">
        <ele>349</ele>
        <time>2014-03-18T07:51:38Z</time>
      </trkpt>
      <trkpt lat="44.08858" lon="2.99618">
        <ele>348</ele>
        <time>2014-03-18T07:51:41Z</time>
      </trkpt>
      <trkpt lat="44.08861" lon="2.99625">
        <ele>348</ele>
        <time>2014-03-18T07:51:44Z</time>
      </trkpt>
      <trkpt lat="44.08864" lon="2.99632">
        <ele>348</ele>
        <time>2014-03-18T07:51:47Z</time>
      </trkpt>
      <trkpt lat="44.08868" lon="2.99638">
        <ele>349</ele>
        <time>2014-03-18T07:51:50Z</time>
      </trkpt>
      <trkpt lat="44.08871" lon="2.99642">
        <ele>350</ele>
        <time>2014-03-18T07:51:53Z</time>
      </trkpt>
      <trkpt lat="44.08875" lon="2.99647">
        <ele>350</ele>
        <time>2014-03-18T07:51:57Z</time>
      </trkpt>
      <trkpt lat="44.08879" lon="2.99652">
        <ele>349</ele>
        <time>2014-03-18T07:52:00Z</time>
      </trkpt>
      <trkpt lat="44.08883" lon="2.99658">
        <ele>350</ele>
        <time>2014-03-18T07:52:04Z</time>
      </trkpt>
      <trkpt lat="44.08887" lon="2.99661">
        <ele>351</ele>
        <time>2014-03-18T07:52:06Z</time>
      </trkpt>
      <trkpt lat="44.08892" lon="2.99666">
        <ele>351</ele>
        <time>2014-03-18T07:52:09Z</time>
      </trkpt>
      <trkpt lat="44.08896" lon="2.99668">
        <ele>351</ele>
        <time>2014-03-18T07:52:12Z</time>
      </trkpt>
      <trkpt lat="44.08901" lon="2.9967">
        <ele>351</ele>
        <time>2014-03-18T07:52:17Z</time>
      </trkpt>
      <trkpt lat="44.08906" lon="2.99668">
        <ele>352</ele>
        <time>2014-03-18T07:52:21Z</time>
      </trkpt>
      <trkpt lat="44.0891" lon="2.99673">
        <ele>352</ele>
        <time>2014-03-18T07:52:26Z</time>
      </trkpt>
      <trkpt lat="44.08913" lon="2.99678">
        <ele>353</ele>
        <time>2014-03-18T07:52:31Z</time>
      </trkpt>
      <trkpt lat="44.08917" lon="2.99682">
        <ele>353</ele>
        <time>2014-03-18T07:52:35Z</time>
      </trkpt>
      <trkpt lat="44.08922" lon="2.99685">
        <ele>354</ele>
        <time>2014-03-18T07:52:39Z</time>
      </trkpt>
      <trkpt lat="44.08924" lon="2.9969">
        <ele>354</ele>
        <time>2014-03-18T07:52:42Z</time>
      </trkpt>
      <trkpt lat="44.08928" lon="2.99694">
        <ele>355</ele>
        <time>2014-03-18T07:52:45Z</time>
      </trkpt>
      <trkpt lat="44.08933" lon="2.99695">
        <ele>355</ele>
        <time>2014-03-18T07:52:49Z</time>
      </trkpt>
      <trkpt lat="44.08937" lon="2.99696">
        <ele>355</ele>
        <time>2014-03-18T07:52:53Z</time>
      </trkpt>
      <trkpt lat="44.08942" lon="2.997">
        <ele>355</ele>
        <time>2014-03-18T07:52:57Z</time>
      </trkpt>
      <trkpt lat="44.08947" lon="2.99704">
        <ele>356</ele>
        <time>2014-03-18T07:53:01Z</time>
      </trkpt>
      <trkpt lat="44.08951" lon="2.99708">
        <ele>356</ele>
        <time>2014-03-18T07:53:04Z</time>
      </trkpt>
      <trkpt lat="44.08955" lon="2.99711">
        <ele>356</ele>
        <time>2014-03-18T07:53:08Z</time>
      </trkpt>
      <trkpt lat="44.0896" lon="2.99714">
        <ele>356</ele>
        <time>2014-03-18T07:53:12Z</time>
      </trkpt>
      <trkpt lat="44.08964" lon="2.99717">
        <ele>356</ele>
        <time>2014-03-18T07:53:16Z</time>
      </trkpt>
      <trkpt lat="44.08968" lon="2.99721">
        <ele>357</ele>
        <time>2014-03-18T07:53:19Z</time>
      </trkpt>
      <trkpt lat="44.08971" lon="2.99725">
        <ele>359</ele>
        <time>2014-03-18T07:53:22Z</time>
      </trkpt>
      <trkpt lat="44.08975" lon="2.99727">
        <ele>359</ele>
        <time>2014-03-18T07:53:26Z</time>
      </trkpt>
      <trkpt lat="44.0898" lon="2.99729">
        <ele>359</ele>
        <time>2014-03-18T07:53:30Z</time>
      </trkpt>
      <trkpt lat="44.08985" lon="2.99731">
        <ele>358</ele>
        <time>2014-03-18T07:53:33Z</time>
      </trkpt>
      <trkpt lat="44.08989" lon="2.99735">
        <ele>355</ele>
        <time>2014-03-18T07:53:39Z</time>
      </trkpt>
      <trkpt lat="44.08993" lon="2.9974">
        <ele>354</ele>
        <time>2014-03-18T07:53:43Z</time>
      </trkpt>
      <trkpt lat="44.08999" lon="2.99742">
        <ele>353</ele>
        <time>2014-03-18T07:53:47Z</time>
      </trkpt>
      <trkpt lat="44.09003" lon="2.99744">
        <ele>353</ele>
        <time>2014-03-18T07:53:52Z</time>
      </trkpt>
      <trkpt lat="44.09007" lon="2.99749">
        <ele>352</ele>
        <time>2014-03-18T07:53:58Z</time>
      </trkpt>
      <trkpt lat="44.09011" lon="2.99753">
        <ele>352</ele>
        <time>2014-03-18T07:54:02Z</time>
      </trkpt>
      <trkpt lat="44.09015" lon="2.99757">
        <ele>352</ele>
        <time>2014-03-18T07:54:06Z</time>
      </trkpt>
      <trkpt lat="44.09019" lon="2.99762">
        <ele>353</ele>
        <time>2014-03-18T07:54:10Z</time>
      </trkpt>
      <trkpt lat="44.09022" lon="2.99766">
        <ele>354</ele>
        <time>2014-03-18T07:54:13Z</time>
      </trkpt>
      <trkpt lat="44.09027" lon="2.99769">
        <ele>354</ele>
        <time>2014-03-18T07:54:18Z</time>
      </trkpt>
      <trkpt lat="44.09032" lon="2.99771">
        <ele>353</ele>
        <time>2014-03-18T07:54:24Z</time>
      </trkpt>
      <trkpt lat="44.09037" lon="2.9977">
        <ele>353</ele>
        <time>2014-03-18T07:54:28Z</time>
      </trkpt>
      <trkpt lat="44.09042" lon="2.9977">
        <ele>353</ele>
        <time>2014-03-18T07:54:31Z</time>
      </trkpt>
      <trkpt lat="44.09047" lon="2.99772">
        <ele>353</ele>
        <time>2014-03-18T07:54:35Z</time>
      </trkpt>
      <trkpt lat="44.0905" lon="2.99776">
        <ele>353</ele>
        <time>2014-03-18T07:54:38Z</time>
      </trkpt>
      <trkpt lat="44.09054" lon="2.9978">
        <ele>353</ele>
        <time>2014-03-18T07:54:43Z</time>
      </trkpt>
      <trkpt lat="44.09058" lon="2.99785">
        <ele>354</ele>
        <time>2014-03-18T07:54:47Z</time>
      </trkpt>
      <trkpt lat="44.09062" lon="2.99788">
        <ele>355</ele>
        <time>2014-03-18T07:54:51Z</time>
      </trkpt>
      <trkpt lat="44.09067" lon="2.99792">
        <ele>356</ele>
        <time>2014-03-18T07:54:55Z</time>
      </trkpt>
      <trkpt lat="44.09071" lon="2.99795">
        <ele>357</ele>
        <time>2014-03-18T07:55:02Z</time>
      </trkpt>
      <trkpt lat="44.09074" lon="2.99801">
        <ele>357</ele>
        <time>2014-03-18T07:55:06Z</time>
      </trkpt>
      <trkpt lat="44.09078" lon="2.99803">
        <ele>358</ele>
        <time>2014-03-18T07:55:14Z</time>
      </trkpt>
      <trkpt lat="44.0908" lon="2.9981">
        <ele>359</ele>
        <time>2014-03-18T07:55:18Z</time>
      </trkpt>
      <trkpt lat="44.0908" lon="2.99817">
        <ele>360</ele>
        <time>2014-03-18T07:55:23Z</time>
      </trkpt>
      <trkpt lat="44.09085" lon="2.99821">
        <ele>361</ele>
        <time>2014-03-18T07:55:29Z</time>
      </trkpt>
      <trkpt lat="44.0909" lon="2.99824">
        <ele>362</ele>
        <time>2014-03-18T07:55:34Z</time>
      </trkpt>
      <trkpt lat="44.09094" lon="2.99821">
        <ele>362</ele>
        <time>2014-03-18T07:55:41Z</time>
      </trkpt>
      <trkpt lat="44.09098" lon="2.99817">
        <ele>363</ele>
        <time>2014-03-18T07:55:46Z</time>
      </trkpt>
      <trkpt lat="44.09103" lon="2.99816">
        <ele>366</ele>
        <time>2014-03-18T07:55:55Z</time>
      </trkpt>
      <trkpt lat="44.09108" lon="2.99818">
        <ele>367</ele>
        <time>2014-03-18T07:56:00Z</time>
      </trkpt>
      <trkpt lat="44.09113" lon="2.9982">
        <ele>367</ele>
        <time>2014-03-18T07:56:04Z</time>
      </trkpt>
      <trkpt lat="44.09118" lon="2.99821">
        <ele>369</ele>
        <time>2014-03-18T07:56:07Z</time>
      </trkpt>
      <trkpt lat="44.09122" lon="2.99825">
        <ele>370</ele>
        <time>2014-03-18T07:56:10Z</time>
      </trkpt>
      <trkpt lat="44.09143" lon="2.99872">
        <ele>385</ele>
        <time>2014-03-18T07:56:42Z</time>
      </trkpt>
      <trkpt lat="44.09145" lon="2.99879">
        <ele>386</ele>
        <time>2014-03-18T07:56:47Z</time>
      </trkpt>
      <trkpt lat="44.09144" lon="2.99885">
        <ele>388</ele>
        <time>2014-03-18T07:56:51Z</time>
      </trkpt>
      <trkpt lat="44.09146" lon="2.99891">
        <ele>390</ele>
        <time>2014-03-18T07:56:59Z</time>
      </trkpt>
      <trkpt lat="44.09149" lon="2.99897">
        <ele>390</ele>
        <time>2014-03-18T07:57:02Z</time>
      </trkpt>
      <trkpt lat="44.09152" lon="2.99901">
        <ele>390</ele>
        <time>2014-03-18T07:57:07Z</time>
      </trkpt>
      <trkpt lat="44.09157" lon="2.99904">
        <ele>389</ele>
        <time>2014-03-18T07:57:12Z</time>
      </trkpt>
      <trkpt lat="44.09162" lon="2.99906">
        <ele>388</ele>
        <time>2014-03-18T07:57:18Z</time>
      </trkpt>
      <trkpt lat="44.09165" lon="2.99911">
        <ele>388</ele>
        <time>2014-03-18T07:57:23Z</time>
      </trkpt>
      <trkpt lat="44.09169" lon="2.99915">
        <ele>388</ele>
        <time>2014-03-18T07:57:30Z</time>
      </trkpt>
      <trkpt lat="44.09175" lon="2.99914">
        <ele>387</ele>
        <time>2014-03-18T07:57:35Z</time>
      </trkpt>
      <trkpt lat="44.0918" lon="2.99915">
        <ele>386</ele>
        <time>2014-03-18T07:57:39Z</time>
      </trkpt>
      <trkpt lat="44.09185" lon="2.99917">
        <ele>385</ele>
        <time>2014-03-18T07:57:44Z</time>
      </trkpt>
      <trkpt lat="44.09189" lon="2.99916">
        <ele>384</ele>
        <time>2014-03-18T07:57:50Z</time>
      </trkpt>
      <trkpt lat="44.09194" lon="2.99915">
        <ele>384</ele>
        <time>2014-03-18T07:57:54Z</time>
      </trkpt>
      <trkpt lat="44.092" lon="2.99918">
        <ele>384</ele>
        <time>2014-03-18T07:57:59Z</time>
      </trkpt>
      <trkpt lat="44.09204" lon="2.99922">
        <ele>384</ele>
        <time>2014-03-18T07:58:03Z</time>
      </trkpt>
      <trkpt lat="44.09209" lon="2.99922">
        <ele>384</ele>
        <time>2014-03-18T07:58:07Z</time>
      </trkpt>
      <trkpt lat="44.09214" lon="2.99922">
        <ele>382</ele>
        <time>2014-03-18T07:58:17Z</time>
      </trkpt>
      <trkpt lat="44.09219" lon="2.99923">
        <ele>382</ele>
        <time>2014-03-18T07:58:20Z</time>
      </trkpt>
      <trkpt lat="44.09225" lon="2.99926">
        <ele>382</ele>
        <time>2014-03-18T07:58:23Z</time>
      </trkpt>
      <trkpt lat="44.0923" lon="2.99929">
        <ele>382</ele>
        <time>2014-03-18T07:58:26Z</time>
      </trkpt>
      <trkpt lat="44.09234" lon="2.99932">
        <ele>383</ele>
        <time>2014-03-18T07:58:29Z</time>
      </trkpt>
      <trkpt lat="44.09238" lon="2.99939">
        <ele>385</ele>
        <time>2014-03-18T07:58:32Z</time>
      </trkpt>
      <trkpt lat="44.09244" lon="2.99941">
        <ele>386</ele>
        <time>2014-03-18T07:58:38Z</time>
      </trkpt>
      <trkpt lat="44.09248" lon="2.99943">
        <ele>389</ele>
        <time>2014-03-18T07:58:42Z</time>
      </trkpt>
      <trkpt lat="44.09252" lon="2.99946">
        <ele>390</ele>
        <time>2014-03-18T07:58:48Z</time>
      </trkpt>
      <trkpt lat="44.09258" lon="2.99947">
        <ele>391</ele>
        <time>2014-03-18T07:58:53Z</time>
      </trkpt>
      <trkpt lat="44.09263" lon="2.9995">
        <ele>391</ele>
        <time>2014-03-18T07:58:57Z</time>
      </trkpt>
      <trkpt lat="44.09268" lon="2.99954">
        <ele>392</ele>
        <time>2014-03-18T07:59:02Z</time>
      </trkpt>
      <trkpt lat="44.09273" lon="2.99956">
        <ele>393</ele>
        <time>2014-03-18T07:59:05Z</time>
      </trkpt>
      <trkpt lat="44.09277" lon="2.9996">
        <ele>393</ele>
        <time>2014-03-18T07:59:09Z</time>
      </trkpt>
      <trkpt lat="44.09282" lon="2.99963">
        <ele>395</ele>
        <time>2014-03-18T07:59:12Z</time>
      </trkpt>
      <trkpt lat="44.09287" lon="2.99966">
        <ele>396</ele>
        <time>2014-03-18T07:59:16Z</time>
      </trkpt>
      <trkpt lat="44.09292" lon="2.9997">
        <ele>398</ele>
        <time>2014-03-18T07:59:19Z</time>
      </trkpt>
      <trkpt lat="44.09295" lon="2.99974">
        <ele>399</ele>
        <time>2014-03-18T07:59:23Z</time>
      </trkpt>
      <trkpt lat="44.09298" lon="2.9998">
        <ele>400</ele>
        <time>2014-03-18T07:59:27Z</time>
      </trkpt>
      <trkpt lat="44.09302" lon="2.99985">
        <ele>401</ele>
        <time>2014-03-18T07:59:31Z</time>
      </trkpt>
      <trkpt lat="44.09306" lon="2.99991">
        <ele>402</ele>
        <time>2014-03-18T07:59:35Z</time>
      </trkpt>
      <trkpt lat="44.09308" lon="2.99996">
        <ele>402</ele>
        <time>2014-03-18T07:59:38Z</time>
      </trkpt>
      <trkpt lat="44.09314" lon="2.99999">
        <ele>403</ele>
        <time>2014-03-18T07:59:42Z</time>
      </trkpt>
      <trkpt lat="44.09317" lon="2.99995">
        <ele>403</ele>
        <time>2014-03-18T07:59:47Z</time>
      </trkpt>
      <trkpt lat="44.09314" lon="2.99988">
        <ele>403</ele>
        <time>2014-03-18T07:59:50Z</time>
      </trkpt>
      <trkpt lat="44.09311" lon="2.99983">
        <ele>403</ele>
        <time>2014-03-18T07:59:53Z</time>
      </trkpt>
      <trkpt lat="44.0931" lon="2.99976">
        <ele>402</ele>
        <time>2014-03-18T07:59:58Z</time>
      </trkpt>
      <trkpt lat="44.09309" lon="2.99967">
        <ele>402</ele>
        <time>2014-03-18T08:00:05Z</time>
      </trkpt>
      <trkpt lat="44.09309" lon="2.99961">
        <ele>403</ele>
        <time>2014-03-18T08:00:08Z</time>
      </trkpt>
      <trkpt lat="44.09308" lon="2.99954">
        <ele>404</ele>
        <time>2014-03-18T08:00:12Z</time>
      </trkpt>
      <trkpt lat="44.09309" lon="2.99946">
        <ele>406</ele>
        <time>2014-03-18T08:00:17Z</time>
      </trkpt>
      <trkpt lat="44.09308" lon="2.9994">
        <ele>407</ele>
        <time>2014-03-18T08:00:23Z</time>
      </trkpt>
      <trkpt lat="44.09305" lon="2.99934">
        <ele>408</ele>
        <time>2014-03-18T08:00:28Z</time>
      </trkpt>
      <trkpt lat="44.09303" lon="2.99928">
        <ele>408</ele>
        <time>2014-03-18T08:00:32Z</time>
      </trkpt>
      <trkpt lat="44.09302" lon="2.99922">
        <ele>408</ele>
        <time>2014-03-18T08:00:40Z</time>
      </trkpt>
      <trkpt lat="44.09301" lon="2.99917">
        <ele>410</ele>
        <time>2014-03-18T08:00:49Z</time>
      </trkpt>
      <trkpt lat="44.093" lon="2.99911">
        <ele>411</ele>
        <time>2014-03-18T08:01:25Z</time>
      </trkpt>
      <trkpt lat="44.09297" lon="2.99906">
        <ele>411</ele>
        <time>2014-03-18T08:01:31Z</time>
      </trkpt>
      <trkpt lat="44.09297" lon="2.99898">
        <ele>411</ele>
        <time>2014-03-18T08:01:35Z</time>
      </trkpt>
      <trkpt lat="44.09301" lon="2.99893">
        <ele>414</ele>
        <time>2014-03-18T08:01:39Z</time>
      </trkpt>
      <trkpt lat="44.09304" lon="2.99888">
        <ele>417</ele>
        <time>2014-03-18T08:01:45Z</time>
      </trkpt>
      <trkpt lat="44.09309" lon="2.99888">
        <ele>418</ele>
        <time>2014-03-18T08:01:51Z</time>
      </trkpt>
      <trkpt lat="44.09313" lon="2.99885">
        <ele>419</ele>
        <time>2014-03-18T08:01:59Z</time>
      </trkpt>
      <trkpt lat="44.09317" lon="2.9988">
        <ele>420</ele>
        <time>2014-03-18T08:02:07Z</time>
      </trkpt>
      <trkpt lat="44.0932" lon="2.99875">
        <ele>421</ele>
        <time>2014-03-18T08:02:12Z</time>
      </trkpt>
      <trkpt lat="44.09319" lon="2.99868">
        <ele>422</ele>
        <time>2014-03-18T08:02:17Z</time>
      </trkpt>
      <trkpt lat="44.09318" lon="2.99861">
        <ele>423</ele>
        <time>2014-03-18T08:02:23Z</time>
      </trkpt>
      <trkpt lat="44.09321" lon="2.99855">
        <ele>424</ele>
        <time>2014-03-18T08:02:28Z</time>
      </trkpt>
      <trkpt lat="44.09323" lon="2.99849">
        <ele>424</ele>
        <time>2014-03-18T08:02:34Z</time>
      </trkpt>
      <trkpt lat="44.09327" lon="2.99844">
        <ele>424</ele>
        <time>2014-03-18T08:02:39Z</time>
      </trkpt>
      <trkpt lat="44.0933" lon="2.99838">
        <ele>423</ele>
        <time>2014-03-18T08:02:43Z</time>
      </trkpt>
      <trkpt lat="44.09332" lon="2.99832">
        <ele>422</ele>
        <time>2014-03-18T08:02:48Z</time>
      </trkpt>
      <trkpt lat="44.09334" lon="2.99826">
        <ele>421</ele>
        <time>2014-03-18T08:02:51Z</time>
      </trkpt>
      <trkpt lat="44.09338" lon="2.99821">
        <ele>421</ele>
        <time>2014-03-18T08:02:55Z</time>
      </trkpt>
      <trkpt lat="44.09341" lon="2.99827">
        <ele>422</ele>
        <time>2014-03-18T08:03:00Z</time>
      </trkpt>
      <trkpt lat="44.09342" lon="2.99833">
        <ele>423</ele>
        <time>2014-03-18T08:03:03Z</time>
      </trkpt>
      <trkpt lat="44.09346" lon="2.99837">
        <ele>426</ele>
        <time>2014-03-18T08:03:07Z</time>
      </trkpt>
      <trkpt lat="44.09347" lon="2.99843">
        <ele>427</ele>
        <time>2014-03-18T08:03:12Z</time>
      </trkpt>
      <trkpt lat="44.0935" lon="2.9985">
        <ele>428</ele>
        <time>2014-03-18T08:03:16Z</time>
      </trkpt>
      <trkpt lat="44.09352" lon="2.99856">
        <ele>429</ele>
        <time>2014-03-18T08:03:20Z</time>
      </trkpt>
      <trkpt lat="44.09354" lon="2.99862">
        <ele>431</ele>
        <time>2014-03-18T08:03:24Z</time>
      </trkpt>
      <trkpt lat="44.09355" lon="2.9987">
        <ele>433</ele>
        <time>2014-03-18T08:03:28Z</time>
      </trkpt>
      <trkpt lat="44.09356" lon="2.99876">
        <ele>434</ele>
        <time>2014-03-18T08:03:32Z</time>
      </trkpt>
      <trkpt lat="44.09358" lon="2.99881">
        <ele>435</ele>
        <time>2014-03-18T08:03:37Z</time>
      </trkpt>
      <trkpt lat="44.09361" lon="2.99886">
        <ele>436</ele>
        <time>2014-03-18T08:03:42Z</time>
      </trkpt>
      <trkpt lat="44.09364" lon="2.99891">
        <ele>436</ele>
        <time>2014-03-18T08:03:48Z</time>
      </trkpt>
      <trkpt lat="44.09369" lon="2.99895">
        <ele>436</ele>
        <time>2014-03-18T08:03:52Z</time>
      </trkpt>
      <trkpt lat="44.09373" lon="2.99897">
        <ele>435</ele>
        <time>2014-03-18T08:04:00Z</time>
      </trkpt>
      <trkpt lat="44.09377" lon="2.99902">
        <ele>434</ele>
        <time>2014-03-18T08:04:07Z</time>
      </trkpt>
      <trkpt lat="44.09381" lon="2.99905">
        <ele>435</ele>
        <time>2014-03-18T08:04:11Z</time>
      </trkpt>
      <trkpt lat="44.09386" lon="2.99907">
        <ele>436</ele>
        <time>2014-03-18T08:04:20Z</time>
      </trkpt>
      <trkpt lat="44.09391" lon="2.9991">
        <ele>437</ele>
        <time>2014-03-18T08:04:27Z</time>
      </trkpt>
      <trkpt lat="44.09396" lon="2.99909">
        <ele>438</ele>
        <time>2014-03-18T08:04:33Z</time>
      </trkpt>
      <trkpt lat="44.094" lon="2.99911">
        <ele>439</ele>
        <time>2014-03-18T08:04:38Z</time>
      </trkpt>
      <trkpt lat="44.09405" lon="2.99911">
        <ele>440</ele>
        <time>2014-03-18T08:04:44Z</time>
      </trkpt>
      <trkpt lat="44.09407" lon="2.99909">
        <ele>443</ele>
        <time>2014-03-18T08:05:18Z</time>
      </trkpt>
      <trkpt lat="44.09411" lon="2.99908">
        <ele>445</ele>
        <time>2014-03-18T08:05:24Z</time>
      </trkpt>
      <trkpt lat="44.09416" lon="2.99905">
        <ele>446</ele>
        <time>2014-03-18T08:05:30Z</time>
      </trkpt>
      <trkpt lat="44.09418" lon="2.99907">
        <ele>448</ele>
        <time>2014-03-18T08:05:52Z</time>
      </trkpt>
      <trkpt lat="44.09423" lon="2.99906">
        <ele>448</ele>
        <time>2014-03-18T08:06:00Z</time>
      </trkpt>
      <trkpt lat="44.09427" lon="2.99902">
        <ele>450</ele>
        <time>2014-03-18T08:06:04Z</time>
      </trkpt>
      <trkpt lat="44.09431" lon="2.99898">
        <ele>452</ele>
        <time>2014-03-18T08:06:09Z</time>
      </trkpt>
      <trkpt lat="44.09433" lon="2.999">
        <ele>452</ele>
        <time>2014-03-18T08:06:14Z</time>
      </trkpt>
      <trkpt lat="44.09438" lon="2.99898">
        <ele>454</ele>
        <time>2014-03-18T08:06:19Z</time>
      </trkpt>
      <trkpt lat="44.09443" lon="2.99896">
        <ele>454</ele>
        <time>2014-03-18T08:06:23Z</time>
      </trkpt>
      <trkpt lat="44.0945" lon="2.99896">
        <ele>454</ele>
        <time>2014-03-18T08:06:34Z</time>
      </trkpt>
      <trkpt lat="44.09455" lon="2.99896">
        <ele>454</ele>
        <time>2014-03-18T08:06:39Z</time>
      </trkpt>
      <trkpt lat="44.09459" lon="2.99898">
        <ele>454</ele>
        <time>2014-03-18T08:06:45Z</time>
      </trkpt>
      <trkpt lat="44.09465" lon="2.99898">
        <ele>455</ele>
        <time>2014-03-18T08:06:50Z</time>
      </trkpt>
      <trkpt lat="44.0947" lon="2.99898">
        <ele>456</ele>
        <time>2014-03-18T08:06:54Z</time>
      </trkpt>
      <trkpt lat="44.09476" lon="2.99898">
        <ele>458</ele>
        <time>2014-03-18T08:06:58Z</time>
      </trkpt>
      <trkpt lat="44.0948" lon="2.99897">
        <ele>459</ele>
        <time>2014-03-18T08:07:02Z</time>
      </trkpt>
      <trkpt lat="44.09485" lon="2.99896">
        <ele>461</ele>
        <time>2014-03-18T08:07:06Z</time>
      </trkpt>
      <trkpt lat="44.0949" lon="2.99894">
        <ele>462</ele>
        <time>2014-03-18T08:07:10Z</time>
      </trkpt>
      <trkpt lat="44.09493" lon="2.99896">
        <ele>460</ele>
        <time>2014-03-18T08:08:03Z</time>
      </trkpt>
      <trkpt lat="44.09497" lon="2.99893">
        <ele>460</ele>
        <time>2014-03-18T08:08:25Z</time>
      </trkpt>
      <trkpt lat="44.095" lon="2.99899">
        <ele>460</ele>
        <time>2014-03-18T08:08:38Z</time>
      </trkpt>
      <trkpt lat="44.09503" lon="2.99893">
        <ele>460</ele>
        <time>2014-03-18T08:08:52Z</time>
      </trkpt>
      <trkpt lat="44.09508" lon="2.99892">
        <ele>461</ele>
        <time>2014-03-18T08:08:58Z</time>
      </trkpt>
      <trkpt lat="44.0951" lon="2.99892">
        <ele>462</ele>
        <time>2014-03-18T08:09:04Z</time>
      </trkpt>
      <trkpt lat="44.09515" lon="2.99893">
        <ele>462</ele>
        <time>2014-03-18T08:09:10Z</time>
      </trkpt>
      <trkpt lat="44.09519" lon="2.99895">
        <ele>464</ele>
        <time>2014-03-18T08:09:14Z</time>
      </trkpt>
      <trkpt lat="44.09524" lon="2.99895">
        <ele>464</ele>
        <time>2014-03-18T08:09:19Z</time>
      </trkpt>
      <trkpt lat="44.09529" lon="2.99898">
        <ele>463</ele>
        <time>2014-03-18T08:09:23Z</time>
      </trkpt>
      <trkpt lat="44.09533" lon="2.99901">
        <ele>463</ele>
        <time>2014-03-18T08:09:27Z</time>
      </trkpt>
      <trkpt lat="44.09538" lon="2.99902">
        <ele>462</ele>
        <time>2014-03-18T08:09:31Z</time>
      </trkpt>
      <trkpt lat="44.09543" lon="2.999">
        <ele>463</ele>
        <time>2014-03-18T08:09:36Z</time>
      </trkpt>
      <trkpt lat="44.09548" lon="2.999">
        <ele>464</ele>
        <time>2014-03-18T08:09:40Z</time>
      </trkpt>
      <trkpt lat="44.09554" lon="2.999">
        <ele>464</ele>
        <time>2014-03-18T08:09:44Z</time>
      </trkpt>
      <trkpt lat="44.09558" lon="2.99897">
        <ele>464</ele>
        <time>2014-03-18T08:09:48Z</time>
      </trkpt>
      <trkpt lat="44.09563" lon="2.99893">
        <ele>464</ele>
        <time>2014-03-18T08:09:52Z</time>
      </trkpt>
      <trkpt lat="44.09567" lon="2.99889">
        <ele>465</ele>
        <time>2014-03-18T08:09:55Z</time>
      </trkpt>
      <trkpt lat="44.09572" lon="2.99888">
        <ele>466</ele>
        <time>2014-03-18T08:10:00Z</time>
      </trkpt>
      <trkpt lat="44.09578" lon="2.99886">
        <ele>466</ele>
        <time>2014-03-18T08:10:05Z</time>
      </trkpt>
      <trkpt lat="44.09582" lon="2.99885">
        <ele>466</ele>
        <time>2014-03-18T08:10:08Z</time>
      </trkpt>
      <trkpt lat="44.09587" lon="2.99881">
        <ele>466</ele>
        <time>2014-03-18T08:10:12Z</time>
      </trkpt>
      <trkpt lat="44.09592" lon="2.99878">
        <ele>466</ele>
        <time>2014-03-18T08:10:17Z</time>
      </trkpt>
      <trkpt lat="44.09597" lon="2.99876">
        <ele>466</ele>
        <time>2014-03-18T08:10:21Z</time>
      </trkpt>
      <trkpt lat="44.09602" lon="2.99874">
        <ele>466</ele>
        <time>2014-03-18T08:10:26Z</time>
      </trkpt>
      <trkpt lat="44.09606" lon="2.99872">
        <ele>466</ele>
        <time>2014-03-18T08:10:30Z</time>
      </trkpt>
      <trkpt lat="44.09611" lon="2.9987">
        <ele>466</ele>
        <time>2014-03-18T08:10:34Z</time>
      </trkpt>
      <trkpt lat="44.09616" lon="2.99868">
        <ele>466</ele>
        <time>2014-03-18T08:10:41Z</time>
      </trkpt>
      <trkpt lat="44.0962" lon="2.99866">
        <ele>466</ele>
        <time>2014-03-18T08:10:46Z</time>
      </trkpt>
      <trkpt lat="44.09626" lon="2.99863">
        <ele>466</ele>
        <time>2014-03-18T08:10:50Z</time>
      </trkpt>
      <trkpt lat="44.0963" lon="2.99861">
        <ele>466</ele>
        <time>2014-03-18T08:10:53Z</time>
      </trkpt>
      <trkpt lat="44.09635" lon="2.99859">
        <ele>465</ele>
        <time>2014-03-18T08:10:57Z</time>
      </trkpt>
      <trkpt lat="44.0964" lon="2.99855">
        <ele>465</ele>
        <time>2014-03-18T08:11:02Z</time>
      </trkpt>
      <trkpt lat="44.09645" lon="2.99851">
        <ele>465</ele>
        <time>2014-03-18T08:11:05Z</time>
      </trkpt>
      <trkpt lat="44.09649" lon="2.99848">
        <ele>465</ele>
        <time>2014-03-18T08:11:09Z</time>
      </trkpt>
      <trkpt lat="44.09654" lon="2.99845">
        <ele>465</ele>
        <time>2014-03-18T08:11:13Z</time>
      </trkpt>
      <trkpt lat="44.09659" lon="2.99843">
        <ele>464</ele>
        <time>2014-03-18T08:11:17Z</time>
      </trkpt>
      <trkpt lat="44.09664" lon="2.99842">
        <ele>465</ele>
        <time>2014-03-18T08:11:20Z</time>
      </trkpt>
      <trkpt lat="44.09669" lon="2.99841">
        <ele>465</ele>
        <time>2014-03-18T08:11:23Z</time>
      </trkpt>
      <trkpt lat="44.09674" lon="2.9984">
        <ele>466</ele>
        <time>2014-03-18T08:11:28Z</time>
      </trkpt>
      <trkpt lat="44.09679" lon="2.9984">
        <ele>465</ele>
        <time>2014-03-18T08:11:32Z</time>
      </trkpt>
      <trkpt lat="44.09685" lon="2.9984">
        <ele>465</ele>
        <time>2014-03-18T08:11:36Z</time>
      </trkpt>
      <trkpt lat="44.0969" lon="2.9984">
        <ele>464</ele>
        <time>2014-03-18T08:11:40Z</time>
      </trkpt>
      <trkpt lat="44.09694" lon="2.99842">
        <ele>462</ele>
        <time>2014-03-18T08:11:44Z</time>
      </trkpt>
      <trkpt lat="44.09699" lon="2.99841">
        <ele>462</ele>
        <time>2014-03-18T08:11:48Z</time>
      </trkpt>
      <trkpt lat="44.09704" lon="2.9984">
        <ele>461</ele>
        <time>2014-03-18T08:11:52Z</time>
      </trkpt>
      <trkpt lat="44.09709" lon="2.99839">
        <ele>461</ele>
        <time>2014-03-18T08:11:57Z</time>
      </trkpt>
      <trkpt lat="44.09714" lon="2.99839">
        <ele>461</ele>
        <time>2014-03-18T08:12:01Z</time>
      </trkpt>
      <trkpt lat="44.09719" lon="2.99838">
        <ele>461</ele>
        <time>2014-03-18T08:12:06Z</time>
      </trkpt>
      <trkpt lat="44.09724" lon="2.99836">
        <ele>461</ele>
        <time>2014-03-18T08:12:10Z</time>
      </trkpt>
      <trkpt lat="44.09729" lon="2.99833">
        <ele>461</ele>
        <time>2014-03-18T08:12:14Z</time>
      </trkpt>
      <trkpt lat="44.09733" lon="2.99829">
        <ele>461</ele>
        <time>2014-03-18T08:12:18Z</time>
      </trkpt>
      <trkpt lat="44.09738" lon="2.99825">
        <ele>461</ele>
        <time>2014-03-18T08:12:23Z</time>
      </trkpt>
      <trkpt lat="44.09741" lon="2.9982">
        <ele>461</ele>
        <time>2014-03-18T08:12:26Z</time>
      </trkpt>
      <trkpt lat="44.09745" lon="2.99815">
        <ele>462</ele>
        <time>2014-03-18T08:12:30Z</time>
      </trkpt>
      <trkpt lat="44.09749" lon="2.99812">
        <ele>464</ele>
        <time>2014-03-18T08:12:36Z</time>
      </trkpt>
      <trkpt lat="44.09754" lon="2.99807">
        <ele>464</ele>
        <time>2014-03-18T08:12:40Z</time>
      </trkpt>
      <trkpt lat="44.09758" lon="2.99804">
        <ele>464</ele>
        <time>2014-03-18T08:12:44Z</time>
      </trkpt>
      <trkpt lat="44.0976" lon="2.99799">
        <ele>464</ele>
        <time>2014-03-18T08:12:47Z</time>
      </trkpt>
      <trkpt lat="44.09763" lon="2.99793">
        <ele>464</ele>
        <time>2014-03-18T08:12:52Z</time>
      </trkpt>
      <trkpt lat="44.09766" lon="2.99789">
        <ele>463</ele>
        <time>2014-03-18T08:12:56Z</time>
      </trkpt>
      <trkpt lat="44.0977" lon="2.99784">
        <ele>461</ele>
        <time>2014-03-18T08:13:03Z</time>
      </trkpt>
      <trkpt lat="44.09773" lon="2.99779">
        <ele>461</ele>
        <time>2014-03-18T08:13:07Z</time>
      </trkpt>
      <trkpt lat="44.09776" lon="2.99773">
        <ele>459</ele>
        <time>2014-03-18T08:13:11Z</time>
      </trkpt>
      <trkpt lat="44.09778" lon="2.99767">
        <ele>458</ele>
        <time>2014-03-18T08:13:16Z</time>
      </trkpt>
      <trkpt lat="44.09781" lon="2.99762">
        <ele>456</ele>
        <time>2014-03-18T08:13:21Z</time>
      </trkpt>
      <trkpt lat="44.09785" lon="2.99756">
        <ele>454</ele>
        <time>2014-03-18T08:13:26Z</time>
      </trkpt>
      <trkpt lat="44.09787" lon="2.9975">
        <ele>454</ele>
        <time>2014-03-18T08:13:30Z</time>
      </trkpt>
      <trkpt lat="44.09789" lon="2.99743">
        <ele>454</ele>
        <time>2014-03-18T08:13:34Z</time>
      </trkpt>
      <trkpt lat="44.09791" lon="2.99737">
        <ele>455</ele>
        <time>2014-03-18T08:13:38Z</time>
      </trkpt>
      <trkpt lat="44.09794" lon="2.99729">
        <ele>456</ele>
        <time>2014-03-18T08:13:42Z</time>
      </trkpt>
      <trkpt lat="44.09797" lon="2.99723">
        <ele>456</ele>
        <time>2014-03-18T08:13:47Z</time>
      </trkpt>
      <trkpt lat="44.09799" lon="2.99716">
        <ele>457</ele>
        <time>2014-03-18T08:13:51Z</time>
      </trkpt>
      <trkpt lat="44.09802" lon="2.9971">
        <ele>458</ele>
        <time>2014-03-18T08:13:56Z</time>
      </trkpt>
      <trkpt lat="44.09805" lon="2.99704">
        <ele>458</ele>
        <time>2014-03-18T08:14:00Z</time>
      </trkpt>
      <trkpt lat="44.09807" lon="2.99698">
        <ele>458</ele>
        <time>2014-03-18T08:14:03Z</time>
      </trkpt>
      <trkpt lat="44.09811" lon="2.99693">
        <ele>458</ele>
        <time>2014-03-18T08:14:08Z</time>
      </trkpt>
      <trkpt lat="44.09815" lon="2.99692">
        <ele>458</ele>
        <time>2014-03-18T08:14:12Z</time>
      </trkpt>
      <trkpt lat="44.0982" lon="2.9969">
        <ele>457</ele>
        <time>2014-03-18T08:14:15Z</time>
      </trkpt>
      <trkpt lat="44.09824" lon="2.99684">
        <ele>456</ele>
        <time>2014-03-18T08:14:19Z</time>
      </trkpt>
      <trkpt lat="44.09828" lon="2.99679">
        <ele>457</ele>
        <time>2014-03-18T08:14:23Z</time>
      </trkpt>
      <trkpt lat="44.09833" lon="2.99679">
        <ele>458</ele>
        <time>2014-03-18T08:14:27Z</time>
      </trkpt>
      <trkpt lat="44.09838" lon="2.99677">
        <ele>459</ele>
        <time>2014-03-18T08:14:31Z</time>
      </trkpt>
      <trkpt lat="44.09843" lon="2.99678">
        <ele>460</ele>
        <time>2014-03-18T08:14:36Z</time>
      </trkpt>
      <trkpt lat="44.09847" lon="2.99676">
        <ele>462</ele>
        <time>2014-03-18T08:14:41Z</time>
      </trkpt>
      <trkpt lat="44.09851" lon="2.99672">
        <ele>463</ele>
        <time>2014-03-18T08:14:47Z</time>
      </trkpt>
      <trkpt lat="44.09855" lon="2.9967">
        <ele>464</ele>
        <time>2014-03-18T08:14:50Z</time>
      </trkpt>
      <trkpt lat="44.0986" lon="2.99668">
        <ele>465</ele>
        <time>2014-03-18T08:14:54Z</time>
      </trkpt>
      <trkpt lat="44.09865" lon="2.99666">
        <ele>466</ele>
        <time>2014-03-18T08:14:58Z</time>
      </trkpt>
      <trkpt lat="44.09869" lon="2.99664">
        <ele>466</ele>
        <time>2014-03-18T08:15:02Z</time>
      </trkpt>
      <trkpt lat="44.09873" lon="2.99663">
        <ele>466</ele>
        <time>2014-03-18T08:15:06Z</time>
      </trkpt>
      <trkpt lat="44.09878" lon="2.99662">
        <ele>467</ele>
        <time>2014-03-18T08:15:10Z</time>
      </trkpt>
      <trkpt lat="44.09882" lon="2.99658">
        <ele>468</ele>
        <time>2014-03-18T08:15:14Z</time>
      </trkpt>
      <trkpt lat="44.09886" lon="2.99653">
        <ele>468</ele>
        <time>2014-03-18T08:15:18Z</time>
      </trkpt>
      <trkpt lat="44.09891" lon="2.99651">
        <ele>468</ele>
        <time>2014-03-18T08:15:23Z</time>
      </trkpt>
      <trkpt lat="44.09896" lon="2.99648">
        <ele>468</ele>
        <time>2014-03-18T08:15:26Z</time>
      </trkpt>
      <trkpt lat="44.099" lon="2.99646">
        <ele>469</ele>
        <time>2014-03-18T08:15:29Z</time>
      </trkpt>
      <trkpt lat="44.09905" lon="2.99644">
        <ele>469</ele>
        <time>2014-03-18T08:15:33Z</time>
      </trkpt>
      <trkpt lat="44.0991" lon="2.99643">
        <ele>468</ele>
        <time>2014-03-18T08:15:38Z</time>
      </trkpt>
      <trkpt lat="44.09915" lon="2.99642">
        <ele>468</ele>
        <time>2014-03-18T08:15:42Z</time>
      </trkpt>
      <trkpt lat="44.0992" lon="2.9964">
        <ele>469</ele>
        <time>2014-03-18T08:15:46Z</time>
      </trkpt>
      <trkpt lat="44.09924" lon="2.99639">
        <ele>469</ele>
        <time>2014-03-18T08:15:50Z</time>
      </trkpt>
      <trkpt lat="44.09929" lon="2.99638">
        <ele>469</ele>
        <time>2014-03-18T08:15:55Z</time>
      </trkpt>
      <trkpt lat="44.09935" lon="2.99638">
        <ele>470</ele>
        <time>2014-03-18T08:15:59Z</time>
      </trkpt>
      <trkpt lat="44.0994" lon="2.99637">
        <ele>471</ele>
        <time>2014-03-18T08:16:03Z</time>
      </trkpt>
      <trkpt lat="44.09945" lon="2.99635">
        <ele>471</ele>
        <time>2014-03-18T08:16:09Z</time>
      </trkpt>
      <trkpt lat="44.0995" lon="2.99632">
        <ele>471</ele>
        <time>2014-03-18T08:16:14Z</time>
      </trkpt>
      <trkpt lat="44.09956" lon="2.99632">
        <ele>471</ele>
        <time>2014-03-18T08:16:17Z</time>
      </trkpt>
      <trkpt lat="44.09962" lon="2.99631">
        <ele>471</ele>
        <time>2014-03-18T08:16:20Z</time>
      </trkpt>
      <trkpt lat="44.09966" lon="2.99633">
        <ele>471</ele>
        <time>2014-03-18T08:16:22Z</time>
      </trkpt>
      <trkpt lat="44.09971" lon="2.99633">
        <ele>470</ele>
        <time>2014-03-18T08:16:25Z</time>
      </trkpt>
      <trkpt lat="44.09977" lon="2.9963">
        <ele>470</ele>
        <time>2014-03-18T08:16:36Z</time>
      </trkpt>
      <trkpt lat="44.09982" lon="2.99627">
        <ele>471</ele>
        <time>2014-03-18T08:16:41Z</time>
      </trkpt>
      <trkpt lat="44.09987" lon="2.99623">
        <ele>471</ele>
        <time>2014-03-18T08:16:45Z</time>
      </trkpt>
      <trkpt lat="44.09991" lon="2.99619">
        <ele>473</ele>
        <time>2014-03-18T08:16:49Z</time>
      </trkpt>
      <trkpt lat="44.09995" lon="2.99614">
        <ele>474</ele>
        <time>2014-03-18T08:16:53Z</time>
      </trkpt>
      <trkpt lat="44.1" lon="2.99616">
        <ele>474</ele>
        <time>2014-03-18T08:16:57Z</time>
      </trkpt>
      <trkpt lat="44.10005" lon="2.99613">
        <ele>474</ele>
        <time>2014-03-18T08:17:01Z</time>
      </trkpt>
      <trkpt lat="44.1001" lon="2.99611">
        <ele>474</ele>
        <time>2014-03-18T08:17:05Z</time>
      </trkpt>
      <trkpt lat="44.10016" lon="2.99609">
        <ele>473</ele>
        <time>2014-03-18T08:17:09Z</time>
      </trkpt>
      <trkpt lat="44.10021" lon="2.99606">
        <ele>472</ele>
        <time>2014-03-18T08:17:12Z</time>
      </trkpt>
      <trkpt lat="44.10025" lon="2.99603">
        <ele>472</ele>
        <time>2014-03-18T08:17:15Z</time>
      </trkpt>
      <trkpt lat="44.1003" lon="2.99599">
        <ele>473</ele>
        <time>2014-03-18T08:17:18Z</time>
      </trkpt>
      <trkpt lat="44.10035" lon="2.99596">
        <ele>473</ele>
        <time>2014-03-18T08:17:22Z</time>
      </trkpt>
      <trkpt lat="44.10039" lon="2.99594">
        <ele>473</ele>
        <time>2014-03-18T08:17:26Z</time>
      </trkpt>
      <trkpt lat="44.10043" lon="2.99595">
        <ele>473</ele>
        <time>2014-03-18T08:17:30Z</time>
      </trkpt>
      <trkpt lat="44.10048" lon="2.99594">
        <ele>471</ele>
        <time>2014-03-18T08:17:36Z</time>
      </trkpt>
      <trkpt lat="44.10052" lon="2.99592">
        <ele>471</ele>
        <time>2014-03-18T08:17:39Z</time>
      </trkpt>
      <trkpt lat="44.10056" lon="2.99589">
        <ele>472</ele>
        <time>2014-03-18T08:17:42Z</time>
      </trkpt>
      <trkpt lat="44.1006" lon="2.99585">
        <ele>472</ele>
        <time>2014-03-18T08:17:45Z</time>
      </trkpt>
      <trkpt lat="44.10063" lon="2.9958">
        <ele>472</ele>
        <time>2014-03-18T08:17:49Z</time>
      </trkpt>
      <trkpt lat="44.10065" lon="2.99574">
        <ele>472</ele>
        <time>2014-03-18T08:17:53Z</time>
      </trkpt>
      <trkpt lat="44.10069" lon="2.9957">
        <ele>471</ele>
        <time>2014-03-18T08:17:58Z</time>
      </trkpt>
      <trkpt lat="44.10072" lon="2.99565">
        <ele>471</ele>
        <time>2014-03-18T08:18:03Z</time>
      </trkpt>
      <trkpt lat="44.10075" lon="2.99558">
        <ele>470</ele>
        <time>2014-03-18T08:18:07Z</time>
      </trkpt>
      <trkpt lat="44.10078" lon="2.99553">
        <ele>470</ele>
        <time>2014-03-18T08:18:11Z</time>
      </trkpt>
      <trkpt lat="44.10081" lon="2.99549">
        <ele>471</ele>
        <time>2014-03-18T08:18:15Z</time>
      </trkpt>
      <trkpt lat="44.10085" lon="2.99544">
        <ele>470</ele>
        <time>2014-03-18T08:18:19Z</time>
      </trkpt>
      <trkpt lat="44.10088" lon="2.99539">
        <ele>469</ele>
        <time>2014-03-18T08:18:23Z</time>
      </trkpt>
      <trkpt lat="44.10093" lon="2.99537">
        <ele>469</ele>
        <time>2014-03-18T08:18:28Z</time>
      </trkpt>
      <trkpt lat="44.10095" lon="2.9953">
        <ele>470</ele>
        <time>2014-03-18T08:18:33Z</time>
      </trkpt>
      <trkpt lat="44.10097" lon="2.99524">
        <ele>471</ele>
        <time>2014-03-18T08:18:37Z</time>
      </trkpt>
      <trkpt lat="44.101" lon="2.99519">
        <ele>471</ele>
        <time>2014-03-18T08:18:40Z</time>
      </trkpt>
      <trkpt lat="44.10104" lon="2.99514">
        <ele>472</ele>
        <time>2014-03-18T08:18:44Z</time>
      </trkpt>
      <trkpt lat="44.10108" lon="2.9951">
        <ele>472</ele>
        <time>2014-03-18T08:18:47Z</time>
      </trkpt>
      <trkpt lat="44.10113" lon="2.99506">
        <ele>473</ele>
        <time>2014-03-18T08:18:50Z</time>
      </trkpt>
      <trkpt lat="44.10117" lon="2.99502">
        <ele>474</ele>
        <time>2014-03-18T08:18:55Z</time>
      </trkpt>
      <trkpt lat="44.1012" lon="2.99498">
        <ele>474</ele>
        <time>2014-03-18T08:18:59Z</time>
      </trkpt>
      <trkpt lat="44.10125" lon="2.99495">
        <ele>474</ele>
        <time>2014-03-18T08:19:03Z</time>
      </trkpt>
      <trkpt lat="44.10128" lon="2.9949">
        <ele>475</ele>
        <time>2014-03-18T08:19:08Z</time>
      </trkpt>
      <trkpt lat="44.10133" lon="2.99487">
        <ele>475</ele>
        <time>2014-03-18T08:19:12Z</time>
      </trkpt>
      <trkpt lat="44.10138" lon="2.99483">
        <ele>475</ele>
        <time>2014-03-18T08:19:16Z</time>
      </trkpt>
      <trkpt lat="44.10142" lon="2.99479">
        <ele>475</ele>
        <time>2014-03-18T08:19:22Z</time>
      </trkpt>
      <trkpt lat="44.10146" lon="2.99475">
        <ele>474</ele>
        <time>2014-03-18T08:19:26Z</time>
      </trkpt>
      <trkpt lat="44.10152" lon="2.99472">
        <ele>474</ele>
        <time>2014-03-18T08:19:30Z</time>
      </trkpt>
      <trkpt lat="44.10157" lon="2.9947">
        <ele>474</ele>
        <time>2014-03-18T08:19:34Z</time>
      </trkpt>
      <trkpt lat="44.10161" lon="2.99465">
        <ele>474</ele>
        <time>2014-03-18T08:19:38Z</time>
      </trkpt>
      <trkpt lat="44.10165" lon="2.99463">
        <ele>472</ele>
        <time>2014-03-18T08:19:42Z</time>
      </trkpt>
      <trkpt lat="44.1017" lon="2.99461">
        <ele>472</ele>
        <time>2014-03-18T08:19:45Z</time>
      </trkpt>
      <trkpt lat="44.10175" lon="2.9946">
        <ele>472</ele>
        <time>2014-03-18T08:19:48Z</time>
      </trkpt>
      <trkpt lat="44.1018" lon="2.99458">
        <ele>472</ele>
        <time>2014-03-18T08:19:52Z</time>
      </trkpt>
      <trkpt lat="44.10185" lon="2.99456">
        <ele>471</ele>
        <time>2014-03-18T08:19:57Z</time>
      </trkpt>
      <trkpt lat="44.1019" lon="2.99454">
        <ele>471</ele>
        <time>2014-03-18T08:20:02Z</time>
      </trkpt>
      <trkpt lat="44.10196" lon="2.99453">
        <ele>470</ele>
        <time>2014-03-18T08:20:08Z</time>
      </trkpt>
      <trkpt lat="44.102" lon="2.99451">
        <ele>470</ele>
        <time>2014-03-18T08:20:12Z</time>
      </trkpt>
      <trkpt lat="44.10205" lon="2.9945">
        <ele>469</ele>
        <time>2014-03-18T08:20:16Z</time>
      </trkpt>
      <trkpt lat="44.1021" lon="2.99448">
        <ele>469</ele>
        <time>2014-03-18T08:20:20Z</time>
      </trkpt>
      <trkpt lat="44.10216" lon="2.99447">
        <ele>468</ele>
        <time>2014-03-18T08:20:24Z</time>
      </trkpt>
      <trkpt lat="44.10221" lon="2.99444">
        <ele>469</ele>
        <time>2014-03-18T08:20:28Z</time>
      </trkpt>
      <trkpt lat="44.10226" lon="2.99443">
        <ele>469</ele>
        <time>2014-03-18T08:20:32Z</time>
      </trkpt>
      <trkpt lat="44.10231" lon="2.99443">
        <ele>470</ele>
        <time>2014-03-18T08:20:37Z</time>
      </trkpt>
      <trkpt lat="44.10236" lon="2.99442">
        <ele>470</ele>
        <time>2014-03-18T08:20:41Z</time>
      </trkpt>
      <trkpt lat="44.10241" lon="2.9944">
        <ele>470</ele>
        <time>2014-03-18T08:20:44Z</time>
      </trkpt>
      <trkpt lat="44.10245" lon="2.99438">
        <ele>471</ele>
        <time>2014-03-18T08:20:47Z</time>
      </trkpt>
      <trkpt lat="44.10251" lon="2.99437">
        <ele>471</ele>
        <time>2014-03-18T08:20:50Z</time>
      </trkpt>
      <trkpt lat="44.10256" lon="2.99435">
        <ele>471</ele>
        <time>2014-03-18T08:20:54Z</time>
      </trkpt>
      <trkpt lat="44.10261" lon="2.99433">
        <ele>471</ele>
        <time>2014-03-18T08:20:58Z</time>
      </trkpt>
      <trkpt lat="44.10266" lon="2.99432">
        <ele>471</ele>
        <time>2014-03-18T08:21:02Z</time>
      </trkpt>
      <trkpt lat="44.1027" lon="2.99429">
        <ele>471</ele>
        <time>2014-03-18T08:21:06Z</time>
      </trkpt>
      <trkpt lat="44.10274" lon="2.99426">
        <ele>471</ele>
        <time>2014-03-18T08:21:11Z</time>
      </trkpt>
      <trkpt lat="44.10278" lon="2.99424">
        <ele>471</ele>
        <time>2014-03-18T08:21:14Z</time>
      </trkpt>
      <trkpt lat="44.10285" lon="2.99425">
        <ele>472</ele>
        <time>2014-03-18T08:21:18Z</time>
      </trkpt>
      <trkpt lat="44.1029" lon="2.99426">
        <ele>471</ele>
        <time>2014-03-18T08:21:22Z</time>
      </trkpt>
      <trkpt lat="44.10295" lon="2.99426">
        <ele>471</ele>
        <time>2014-03-18T08:21:26Z</time>
      </trkpt>
      <trkpt lat="44.10299" lon="2.99425">
        <ele>471</ele>
        <time>2014-03-18T08:21:29Z</time>
      </trkpt>
      <trkpt lat="44.10304" lon="2.99424">
        <ele>471</ele>
        <time>2014-03-18T08:21:32Z</time>
      </trkpt>
      <trkpt lat="44.10309" lon="2.99423">
        <ele>471</ele>
        <time>2014-03-18T08:21:37Z</time>
      </trkpt>
      <trkpt lat="44.10315" lon="2.99421">
        <ele>472</ele>
        <time>2014-03-18T08:21:41Z</time>
      </trkpt>
      <trkpt lat="44.1032" lon="2.99419">
        <ele>472</ele>
        <time>2014-03-18T08:21:44Z</time>
      </trkpt>
      <trkpt lat="44.10325" lon="2.99418">
        <ele>473</ele>
        <time>2014-03-18T08:21:47Z</time>
      </trkpt>
      <trkpt lat="44.10329" lon="2.99417">
        <ele>474</ele>
        <time>2014-03-18T08:21:51Z</time>
      </trkpt>
      <trkpt lat="44.10333" lon="2.99415">
        <ele>473</ele>
        <time>2014-03-18T08:21:56Z</time>
      </trkpt>
      <trkpt lat="44.10338" lon="2.99414">
        <ele>473</ele>
        <time>2014-03-18T08:22:01Z</time>
      </trkpt>
      <trkpt lat="44.10344" lon="2.99412">
        <ele>474</ele>
        <time>2014-03-18T08:22:08Z</time>
      </trkpt>
      <trkpt lat="44.10349" lon="2.99411">
        <ele>474</ele>
        <time>2014-03-18T08:22:12Z</time>
      </trkpt>
      <trkpt lat="44.10354" lon="2.99411">
        <ele>474</ele>
        <time>2014-03-18T08:22:15Z</time>
      </trkpt>
      <trkpt lat="44.10359" lon="2.99409">
        <ele>474</ele>
        <time>2014-03-18T08:22:19Z</time>
      </trkpt>
      <trkpt lat="44.10364" lon="2.9941">
        <ele>474</ele>
        <time>2014-03-18T08:22:23Z</time>
      </trkpt>
      <trkpt lat="44.10369" lon="2.99408">
        <ele>473</ele>
        <time>2014-03-18T08:22:26Z</time>
      </trkpt>
      <trkpt lat="44.10375" lon="2.99406">
        <ele>472</ele>
        <time>2014-03-18T08:22:30Z</time>
      </trkpt>
      <trkpt lat="44.1038" lon="2.99406">
        <ele>471</ele>
        <time>2014-03-18T08:22:34Z</time>
      </trkpt>
      <trkpt lat="44.10385" lon="2.99406">
        <ele>470</ele>
        <time>2014-03-18T08:22:38Z</time>
      </trkpt>
      <trkpt lat="44.1039" lon="2.99403">
        <ele>471</ele>
        <time>2014-03-18T08:22:43Z</time>
      </trkpt>
      <trkpt lat="44.10395" lon="2.99402">
        <ele>471</ele>
        <time>2014-03-18T08:22:47Z</time>
      </trkpt>
      <trkpt lat="44.104" lon="2.99401">
        <ele>472</ele>
        <time>2014-03-18T08:22:50Z</time>
      </trkpt>
      <trkpt lat="44.10404" lon="2.99397">
        <ele>473</ele>
        <time>2014-03-18T08:22:54Z</time>
      </trkpt>
      <trkpt lat="44.1041" lon="2.99395">
        <ele>473</ele>
        <time>2014-03-18T08:22:57Z</time>
      </trkpt>
      <trkpt lat="44.10416" lon="2.99393">
        <ele>474</ele>
        <time>2014-03-18T08:23:01Z</time>
      </trkpt>
      <trkpt lat="44.10417" lon="2.99391">
        <ele>474</ele>
        <time>2014-03-18T08:23:07Z</time>
      </trkpt>
      <trkpt lat="44.10422" lon="2.99392">
        <ele>474</ele>
        <time>2014-03-18T08:23:11Z</time>
      </trkpt>
      <trkpt lat="44.10428" lon="2.99392">
        <ele>475</ele>
        <time>2014-03-18T08:23:15Z</time>
      </trkpt>
      <trkpt lat="44.10432" lon="2.99392">
        <ele>475</ele>
        <time>2014-03-18T08:23:18Z</time>
      </trkpt>
      <trkpt lat="44.10437" lon="2.99393">
        <ele>476</ele>
        <time>2014-03-18T08:23:21Z</time>
      </trkpt>
      <trkpt lat="44.10442" lon="2.99391">
        <ele>475</ele>
        <time>2014-03-18T08:23:25Z</time>
      </trkpt>
      <trkpt lat="44.10447" lon="2.99389">
        <ele>475</ele>
        <time>2014-03-18T08:23:29Z</time>
      </trkpt>
      <trkpt lat="44.10452" lon="2.99389">
        <ele>475</ele>
        <time>2014-03-18T08:23:33Z</time>
      </trkpt>
      <trkpt lat="44.10457" lon="2.99389">
        <ele>475</ele>
        <time>2014-03-18T08:23:36Z</time>
      </trkpt>
      <trkpt lat="44.10462" lon="2.99388">
        <ele>474</ele>
        <time>2014-03-18T08:23:39Z</time>
      </trkpt>
      <trkpt lat="44.10467" lon="2.99387">
        <ele>474</ele>
        <time>2014-03-18T08:23:42Z</time>
      </trkpt>
      <trkpt lat="44.10472" lon="2.99386">
        <ele>473</ele>
        <time>2014-03-18T08:23:46Z</time>
      </trkpt>
      <trkpt lat="44.10476" lon="2.99387">
        <ele>473</ele>
        <time>2014-03-18T08:23:50Z</time>
      </trkpt>
      <trkpt lat="44.10482" lon="2.99386">
        <ele>473</ele>
        <time>2014-03-18T08:23:54Z</time>
      </trkpt>
      <trkpt lat="44.10487" lon="2.99385">
        <ele>474</ele>
        <time>2014-03-18T08:23:57Z</time>
      </trkpt>
      <trkpt lat="44.10493" lon="2.99386">
        <ele>475</ele>
        <time>2014-03-18T08:24:01Z</time>
      </trkpt>
      <trkpt lat="44.10498" lon="2.99384">
        <ele>475</ele>
        <time>2014-03-18T08:24:05Z</time>
      </trkpt>
      <trkpt lat="44.10502" lon="2.99383">
        <ele>475</ele>
        <time>2014-03-18T08:24:09Z</time>
      </trkpt>
      <trkpt lat="44.10508" lon="2.99381">
        <ele>476</ele>
        <time>2014-03-18T08:24:13Z</time>
      </trkpt>
      <trkpt lat="44.10512" lon="2.99379">
        <ele>476</ele>
        <time>2014-03-18T08:24:17Z</time>
      </trkpt>
      <trkpt lat="44.10517" lon="2.99381">
        <ele>476</ele>
        <time>2014-03-18T08:24:21Z</time>
      </trkpt>
      <trkpt lat="44.10522" lon="2.99381">
        <ele>475</ele>
        <time>2014-03-18T08:24:26Z</time>
      </trkpt>
      <trkpt lat="44.10527" lon="2.99382">
        <ele>475</ele>
        <time>2014-03-18T08:24:31Z</time>
      </trkpt>
      <trkpt lat="44.10532" lon="2.99382">
        <ele>475</ele>
        <time>2014-03-18T08:24:35Z</time>
      </trkpt>
      <trkpt lat="44.10538" lon="2.99381">
        <ele>475</ele>
        <time>2014-03-18T08:24:38Z</time>
      </trkpt>
      <trkpt lat="44.10543" lon="2.99381">
        <ele>474</ele>
        <time>2014-03-18T08:24:42Z</time>
      </trkpt>
      <trkpt lat="44.10548" lon="2.99382">
        <ele>475</ele>
        <time>2014-03-18T08:24:46Z</time>
      </trkpt>
      <trkpt lat="44.10553" lon="2.99383">
        <ele>476</ele>
        <time>2014-03-18T08:24:51Z</time>
      </trkpt>
      <trkpt lat="44.10559" lon="2.99383">
        <ele>477</ele>
        <time>2014-03-18T08:24:55Z</time>
      </trkpt>
      <trkpt lat="44.10563" lon="2.99384">
        <ele>477</ele>
        <time>2014-03-18T08:24:58Z</time>
      </trkpt>
      <trkpt lat="44.10568" lon="2.99386">
        <ele>477</ele>
        <time>2014-03-18T08:25:03Z</time>
      </trkpt>
      <trkpt lat="44.10573" lon="2.99387">
        <ele>478</ele>
        <time>2014-03-18T08:25:07Z</time>
      </trkpt>
      <trkpt lat="44.10578" lon="2.99386">
        <ele>477</ele>
        <time>2014-03-18T08:25:10Z</time>
      </trkpt>
      <trkpt lat="44.10584" lon="2.99385">
        <ele>476</ele>
        <time>2014-03-18T08:25:15Z</time>
      </trkpt>
      <trkpt lat="44.10589" lon="2.99384">
        <ele>476</ele>
        <time>2014-03-18T08:25:18Z</time>
      </trkpt>
      <trkpt lat="44.10594" lon="2.99383">
        <ele>477</ele>
        <time>2014-03-18T08:25:22Z</time>
      </trkpt>
      <trkpt lat="44.10598" lon="2.99384">
        <ele>479</ele>
        <time>2014-03-18T08:25:27Z</time>
      </trkpt>
      <trkpt lat="44.10604" lon="2.99384">
        <ele>479</ele>
        <time>2014-03-18T08:25:31Z</time>
      </trkpt>
      <trkpt lat="44.10608" lon="2.99385">
        <ele>480</ele>
        <time>2014-03-18T08:25:35Z</time>
      </trkpt>
      <trkpt lat="44.10613" lon="2.99386">
        <ele>480</ele>
        <time>2014-03-18T08:25:38Z</time>
      </trkpt>
      <trkpt lat="44.10618" lon="2.99387">
        <ele>480</ele>
        <time>2014-03-18T08:25:41Z</time>
      </trkpt>
      <trkpt lat="44.10623" lon="2.99387">
        <ele>481</ele>
        <time>2014-03-18T08:25:44Z</time>
      </trkpt>
      <trkpt lat="44.10628" lon="2.99388">
        <ele>481</ele>
        <time>2014-03-18T08:25:47Z</time>
      </trkpt>
      <trkpt lat="44.10634" lon="2.99388">
        <ele>482</ele>
        <time>2014-03-18T08:25:51Z</time>
      </trkpt>
      <trkpt lat="44.10639" lon="2.99387">
        <ele>484</ele>
        <time>2014-03-18T08:25:57Z</time>
      </trkpt>
      <trkpt lat="44.10645" lon="2.99388">
        <ele>483</ele>
        <time>2014-03-18T08:26:00Z</time>
      </trkpt>
      <trkpt lat="44.1065" lon="2.99389">
        <ele>483</ele>
        <time>2014-03-18T08:26:05Z</time>
      </trkpt>
      <trkpt lat="44.10655" lon="2.99388">
        <ele>482</ele>
        <time>2014-03-18T08:26:09Z</time>
      </trkpt>
      <trkpt lat="44.1066" lon="2.9939">
        <ele>482</ele>
        <time>2014-03-18T08:26:13Z</time>
      </trkpt>
      <trkpt lat="44.10665" lon="2.99391">
        <ele>482</ele>
        <time>2014-03-18T08:26:17Z</time>
      </trkpt>
      <trkpt lat="44.10671" lon="2.9939">
        <ele>482</ele>
        <time>2014-03-18T08:26:20Z</time>
      </trkpt>
      <trkpt lat="44.10676" lon="2.99391">
        <ele>482</ele>
        <time>2014-03-18T08:26:23Z</time>
      </trkpt>
      <trkpt lat="44.10682" lon="2.99391">
        <ele>482</ele>
        <time>2014-03-18T08:26:27Z</time>
      </trkpt>
      <trkpt lat="44.10688" lon="2.99389">
        <ele>481</ele>
        <time>2014-03-18T08:26:33Z</time>
      </trkpt>
      <trkpt lat="44.10693" lon="2.99392">
        <ele>481</ele>
        <time>2014-03-18T08:26:36Z</time>
      </trkpt>
      <trkpt lat="44.10698" lon="2.99395">
        <ele>480</ele>
        <time>2014-03-18T08:26:40Z</time>
      </trkpt>
      <trkpt lat="44.10704" lon="2.99394">
        <ele>480</ele>
        <time>2014-03-18T08:26:44Z</time>
      </trkpt>
      <trkpt lat="44.10708" lon="2.99393">
        <ele>480</ele>
        <time>2014-03-18T08:26:48Z</time>
      </trkpt>
      <trkpt lat="44.10714" lon="2.99392">
        <ele>481</ele>
        <time>2014-03-18T08:26:54Z</time>
      </trkpt>
      <trkpt lat="44.10719" lon="2.99395">
        <ele>480</ele>
        <time>2014-03-18T08:26:58Z</time>
      </trkpt>
      <trkpt lat="44.10723" lon="2.99399">
        <ele>479</ele>
        <time>2014-03-18T08:27:03Z</time>
      </trkpt>
      <trkpt lat="44.10728" lon="2.99397">
        <ele>479</ele>
        <time>2014-03-18T08:27:06Z</time>
      </trkpt>
      <trkpt lat="44.10734" lon="2.99396">
        <ele>479</ele>
        <time>2014-03-18T08:27:10Z</time>
      </trkpt>
      <trkpt lat="44.10739" lon="2.99395">
        <ele>478</ele>
        <time>2014-03-18T08:27:14Z</time>
      </trkpt>
      <trkpt lat="44.10744" lon="2.99393">
        <ele>478</ele>
        <time>2014-03-18T08:27:18Z</time>
      </trkpt>
      <trkpt lat="44.10749" lon="2.99392">
        <ele>479</ele>
        <time>2014-03-18T08:27:24Z</time>
      </trkpt>
      <trkpt lat="44.10754" lon="2.99393">
        <ele>481</ele>
        <time>2014-03-18T08:27:29Z</time>
      </trkpt>
      <trkpt lat="44.10759" lon="2.99395">
        <ele>482</ele>
        <time>2014-03-18T08:27:33Z</time>
      </trkpt>
      <trkpt lat="44.10764" lon="2.99396">
        <ele>482</ele>
        <time>2014-03-18T08:27:36Z</time>
      </trkpt>
      <trkpt lat="44.10769" lon="2.99397">
        <ele>481</ele>
        <time>2014-03-18T08:27:39Z</time>
      </trkpt>
      <trkpt lat="44.10774" lon="2.99398">
        <ele>481</ele>
        <time>2014-03-18T08:27:44Z</time>
      </trkpt>
      <trkpt lat="44.10779" lon="2.99396">
        <ele>480</ele>
        <time>2014-03-18T08:27:48Z</time>
      </trkpt>
      <trkpt lat="44.10784" lon="2.99396">
        <ele>480</ele>
        <time>2014-03-18T08:27:52Z</time>
      </trkpt>
      <trkpt lat="44.10789" lon="2.99398">
        <ele>479</ele>
        <time>2014-03-18T08:27:56Z</time>
      </trkpt>
      <trkpt lat="44.10794" lon="2.994">
        <ele>479</ele>
        <time>2014-03-18T08:27:59Z</time>
      </trkpt>
      <trkpt lat="44.10799" lon="2.99401">
        <ele>478</ele>
        <time>2014-03-18T08:28:01Z</time>
      </trkpt>
      <trkpt lat="44.10803" lon="2.99403">
        <ele>477</ele>
        <time>2014-03-18T08:28:03Z</time>
      </trkpt>
      <trkpt lat="44.10808" lon="2.99402">
        <ele>477</ele>
        <time>2014-03-18T08:28:06Z</time>
      </trkpt>
      <trkpt lat="44.10814" lon="2.99401">
        <ele>477</ele>
        <time>2014-03-18T08:28:10Z</time>
      </trkpt>
      <trkpt lat="44.10819" lon="2.99401">
        <ele>478</ele>
        <time>2014-03-18T08:28:15Z</time>
      </trkpt>
      <trkpt lat="44.10824" lon="2.99401">
        <ele>478</ele>
        <time>2014-03-18T08:28:19Z</time>
      </trkpt>
      <trkpt lat="44.10828" lon="2.99401">
        <ele>479</ele>
        <time>2014-03-18T08:28:23Z</time>
      </trkpt>
      <trkpt lat="44.10834" lon="2.994">
        <ele>479</ele>
        <time>2014-03-18T08:28:28Z</time>
      </trkpt>
      <trkpt lat="44.10839" lon="2.99401">
        <ele>480</ele>
        <time>2014-03-18T08:28:32Z</time>
      </trkpt>
      <trkpt lat="44.10844" lon="2.99402">
        <ele>481</ele>
        <time>2014-03-18T08:28:35Z</time>
      </trkpt>
      <trkpt lat="44.10849" lon="2.99405">
        <ele>481</ele>
        <time>2014-03-18T08:28:41Z</time>
      </trkpt>
      <trkpt lat="44.10853" lon="2.99406">
        <ele>482</ele>
        <time>2014-03-18T08:28:46Z</time>
      </trkpt>
      <trkpt lat="44.10859" lon="2.99407">
        <ele>482</ele>
        <time>2014-03-18T08:28:50Z</time>
      </trkpt>
      <trkpt lat="44.10863" lon="2.99408">
        <ele>483</ele>
        <time>2014-03-18T08:28:53Z</time>
      </trkpt>
      <trkpt lat="44.10868" lon="2.99411">
        <ele>484</ele>
        <time>2014-03-18T08:28:57Z</time>
      </trkpt>
      <trkpt lat="44.10873" lon="2.99411">
        <ele>484</ele>
        <time>2014-03-18T08:29:01Z</time>
      </trkpt>
      <trkpt lat="44.10878" lon="2.99411">
        <ele>485</ele>
        <time>2014-03-18T08:29:05Z</time>
      </trkpt>
      <trkpt lat="44.10883" lon="2.99411">
        <ele>485</ele>
        <time>2014-03-18T08:29:09Z</time>
      </trkpt>
      <trkpt lat="44.10888" lon="2.99411">
        <ele>485</ele>
        <time>2014-03-18T08:29:14Z</time>
      </trkpt>
      <trkpt lat="44.10893" lon="2.99411">
        <ele>486</ele>
        <time>2014-03-18T08:29:19Z</time>
      </trkpt>
      <trkpt lat="44.10897" lon="2.99412">
        <ele>485</ele>
        <time>2014-03-18T08:29:22Z</time>
      </trkpt>
      <trkpt lat="44.10902" lon="2.99413">
        <ele>485</ele>
        <time>2014-03-18T08:29:25Z</time>
      </trkpt>
      <trkpt lat="44.10907" lon="2.99415">
        <ele>485</ele>
        <time>2014-03-18T08:29:28Z</time>
      </trkpt>
      <trkpt lat="44.10911" lon="2.99416">
        <ele>486</ele>
        <time>2014-03-18T08:29:31Z</time>
      </trkpt>
      <trkpt lat="44.10916" lon="2.99418">
        <ele>485</ele>
        <time>2014-03-18T08:29:34Z</time>
      </trkpt>
      <trkpt lat="44.10921" lon="2.9942">
        <ele>485</ele>
        <time>2014-03-18T08:29:38Z</time>
      </trkpt>
      <trkpt lat="44.10925" lon="2.99425">
        <ele>486</ele>
        <time>2014-03-18T08:29:42Z</time>
      </trkpt>
      <trkpt lat="44.1093" lon="2.99427">
        <ele>487</ele>
        <time>2014-03-18T08:29:46Z</time>
      </trkpt>
      <trkpt lat="44.10935" lon="2.99428">
        <ele>489</ele>
        <time>2014-03-18T08:29:50Z</time>
      </trkpt>
      <trkpt lat="44.1094" lon="2.99428">
        <ele>489</ele>
        <time>2014-03-18T08:29:53Z</time>
      </trkpt>
      <trkpt lat="44.10945" lon="2.99429">
        <ele>489</ele>
        <time>2014-03-18T08:29:58Z</time>
      </trkpt>
      <trkpt lat="44.1095" lon="2.99429">
        <ele>489</ele>
        <time>2014-03-18T08:30:01Z</time>
      </trkpt>
      <trkpt lat="44.10955" lon="2.99428">
        <ele>489</ele>
        <time>2014-03-18T08:30:05Z</time>
      </trkpt>
      <trkpt lat="44.1096" lon="2.99427">
        <ele>488</ele>
        <time>2014-03-18T08:30:09Z</time>
      </trkpt>
      <trkpt lat="44.10965" lon="2.99429">
        <ele>489</ele>
        <time>2014-03-18T08:30:14Z</time>
      </trkpt>
      <trkpt lat="44.1097" lon="2.99431">
        <ele>488</ele>
        <time>2014-03-18T08:30:18Z</time>
      </trkpt>
      <trkpt lat="44.10975" lon="2.9943">
        <ele>489</ele>
        <time>2014-03-18T08:30:22Z</time>
      </trkpt>
      <trkpt lat="44.1098" lon="2.99429">
        <ele>489</ele>
        <time>2014-03-18T08:30:26Z</time>
      </trkpt>
      <trkpt lat="44.10985" lon="2.9943">
        <ele>491</ele>
        <time>2014-03-18T08:30:30Z</time>
      </trkpt>
      <trkpt lat="44.10989" lon="2.99431">
        <ele>491</ele>
        <time>2014-03-18T08:30:34Z</time>
      </trkpt>
      <trkpt lat="44.10994" lon="2.99432">
        <ele>492</ele>
        <time>2014-03-18T08:30:39Z</time>
      </trkpt>
      <trkpt lat="44.10998" lon="2.99436">
        <ele>492</ele>
        <time>2014-03-18T08:30:43Z</time>
      </trkpt>
      <trkpt lat="44.11004" lon="2.99437">
        <ele>493</ele>
        <time>2014-03-18T08:30:47Z</time>
      </trkpt>
      <trkpt lat="44.11009" lon="2.99437">
        <ele>493</ele>
        <time>2014-03-18T08:30:52Z</time>
      </trkpt>
      <trkpt lat="44.11014" lon="2.99441">
        <ele>493</ele>
        <time>2014-03-18T08:30:57Z</time>
      </trkpt>
      <trkpt lat="44.11018" lon="2.99447">
        <ele>492</ele>
        <time>2014-03-18T08:31:00Z</time>
      </trkpt>
      <trkpt lat="44.11022" lon="2.99451">
        <ele>492</ele>
        <time>2014-03-18T08:31:03Z</time>
      </trkpt>
      <trkpt lat="44.11026" lon="2.99455">
        <ele>491</ele>
        <time>2014-03-18T08:31:06Z</time>
      </trkpt>
      <trkpt lat="44.1103" lon="2.99459">
        <ele>491</ele>
        <time>2014-03-18T08:31:10Z</time>
      </trkpt>
      <trkpt lat="44.11034" lon="2.99463">
        <ele>491</ele>
        <time>2014-03-18T08:31:14Z</time>
      </trkpt>
      <trkpt lat="44.11037" lon="2.99468">
        <ele>491</ele>
        <time>2014-03-18T08:31:18Z</time>
      </trkpt>
      <trkpt lat="44.11042" lon="2.99472">
        <ele>489</ele>
        <time>2014-03-18T08:31:23Z</time>
      </trkpt>
      <trkpt lat="44.11046" lon="2.99476">
        <ele>490</ele>
        <time>2014-03-18T08:31:27Z</time>
      </trkpt>
      <trkpt lat="44.1105" lon="2.99482">
        <ele>490</ele>
        <time>2014-03-18T08:31:31Z</time>
      </trkpt>
      <trkpt lat="44.11052" lon="2.99487">
        <ele>490</ele>
        <time>2014-03-18T08:31:34Z</time>
      </trkpt>
      <trkpt lat="44.11056" lon="2.99493">
        <ele>491</ele>
        <time>2014-03-18T08:31:38Z</time>
      </trkpt>
      <trkpt lat="44.1106" lon="2.99498">
        <ele>491</ele>
        <time>2014-03-18T08:31:43Z</time>
      </trkpt>
      <trkpt lat="44.11064" lon="2.99503">
        <ele>491</ele>
        <time>2014-03-18T08:31:48Z</time>
      </trkpt>
      <trkpt lat="44.11067" lon="2.99508">
        <ele>491</ele>
        <time>2014-03-18T08:31:52Z</time>
      </trkpt>
      <trkpt lat="44.11071" lon="2.99513">
        <ele>492</ele>
        <time>2014-03-18T08:31:56Z</time>
      </trkpt>
      <trkpt lat="44.11075" lon="2.99517">
        <ele>492</ele>
        <time>2014-03-18T08:32:00Z</time>
      </trkpt>
      <trkpt lat="44.11079" lon="2.9952">
        <ele>492</ele>
        <time>2014-03-18T08:32:04Z</time>
      </trkpt>
      <trkpt lat="44.11084" lon="2.99525">
        <ele>493</ele>
        <time>2014-03-18T08:32:08Z</time>
      </trkpt>
      <trkpt lat="44.11088" lon="2.9953">
        <ele>494</ele>
        <time>2014-03-18T08:32:12Z</time>
      </trkpt>
      <trkpt lat="44.11093" lon="2.99535">
        <ele>495</ele>
        <time>2014-03-18T08:32:16Z</time>
      </trkpt>
      <trkpt lat="44.11097" lon="2.9954">
        <ele>496</ele>
        <time>2014-03-18T08:32:20Z</time>
      </trkpt>
      <trkpt lat="44.11101" lon="2.99545">
        <ele>497</ele>
        <time>2014-03-18T08:32:24Z</time>
      </trkpt>
      <trkpt lat="44.11105" lon="2.99551">
        <ele>497</ele>
        <time>2014-03-18T08:32:28Z</time>
      </trkpt>
      <trkpt lat="44.11109" lon="2.99557">
        <ele>496</ele>
        <time>2014-03-18T08:32:32Z</time>
      </trkpt>
      <trkpt lat="44.11112" lon="2.99563">
        <ele>496</ele>
        <time>2014-03-18T08:32:36Z</time>
      </trkpt>
      <trkpt lat="44.11115" lon="2.99568">
        <ele>494</ele>
        <time>2014-03-18T08:32:40Z</time>
      </trkpt>
      <trkpt lat="44.11118" lon="2.99574">
        <ele>494</ele>
        <time>2014-03-18T08:32:44Z</time>
      </trkpt>
      <trkpt lat="44.11121" lon="2.9958">
        <ele>494</ele>
        <time>2014-03-18T08:32:49Z</time>
      </trkpt>
      <trkpt lat="44.11124" lon="2.99585">
        <ele>494</ele>
        <time>2014-03-18T08:32:53Z</time>
      </trkpt>
      <trkpt lat="44.11127" lon="2.99591">
        <ele>495</ele>
        <time>2014-03-18T08:32:57Z</time>
      </trkpt>
      <trkpt lat="44.1113" lon="2.99597">
        <ele>495</ele>
        <time>2014-03-18T08:33:01Z</time>
      </trkpt>
      <trkpt lat="44.11133" lon="2.99602">
        <ele>495</ele>
        <time>2014-03-18T08:33:04Z</time>
      </trkpt>
      <trkpt lat="44.11135" lon="2.99607">
        <ele>496</ele>
        <time>2014-03-18T08:33:07Z</time>
      </trkpt>
      <trkpt lat="44.11139" lon="2.99612">
        <ele>496</ele>
        <time>2014-03-18T08:33:11Z</time>
      </trkpt>
      <trkpt lat="44.11142" lon="2.99617">
        <ele>495</ele>
        <time>2014-03-18T08:33:16Z</time>
      </trkpt>
      <trkpt lat="44.11146" lon="2.99621">
        <ele>494</ele>
        <time>2014-03-18T08:33:21Z</time>
      </trkpt>
      <trkpt lat="44.11149" lon="2.99626">
        <ele>493</ele>
        <time>2014-03-18T08:33:26Z</time>
      </trkpt>
      <trkpt lat="44.11153" lon="2.99628">
        <ele>492</ele>
        <time>2014-03-18T08:33:31Z</time>
      </trkpt>
      <trkpt lat="44.11158" lon="2.99629">
        <ele>492</ele>
        <time>2014-03-18T08:33:36Z</time>
      </trkpt>
      <trkpt lat="44.11163" lon="2.99629">
        <ele>491</ele>
        <time>2014-03-18T08:33:40Z</time>
      </trkpt>
      <trkpt lat="44.11168" lon="2.9963">
        <ele>491</ele>
        <time>2014-03-18T08:33:45Z</time>
      </trkpt>
      <trkpt lat="44.1117" lon="2.99629">
        <ele>489</ele>
        <time>2014-03-18T08:33:52Z</time>
      </trkpt>
      <trkpt lat="44.1117" lon="2.99628">
        <ele>493</ele>
        <time>2014-03-18T08:34:35Z</time>
      </trkpt>
      <trkpt lat="44.11169" lon="2.99622">
        <ele>492</ele>
        <time>2014-03-18T08:35:06Z</time>
      </trkpt>
      <trkpt lat="44.11173" lon="2.99622">
        <ele>492</ele>
        <time>2014-03-18T08:36:21Z</time>
      </trkpt>
      <trkpt lat="44.11175" lon="2.99623">
        <ele>491</ele>
        <time>2014-03-18T08:36:33Z</time>
      </trkpt>
      <trkpt lat="44.11179" lon="2.99618">
        <ele>491</ele>
        <time>2014-03-18T08:36:39Z</time>
      </trkpt>
      <trkpt lat="44.11184" lon="2.99617">
        <ele>491</ele>
        <time>2014-03-18T08:36:45Z</time>
      </trkpt>
      <trkpt lat="44.11188" lon="2.99613">
        <ele>492</ele>
        <time>2014-03-18T08:36:50Z</time>
      </trkpt>
      <trkpt lat="44.11192" lon="2.99607">
        <ele>494</ele>
        <time>2014-03-18T08:36:54Z</time>
      </trkpt>
      <trkpt lat="44.11195" lon="2.99602">
        <ele>495</ele>
        <time>2014-03-18T08:36:57Z</time>
      </trkpt>
      <trkpt lat="44.112" lon="2.99598">
        <ele>496</ele>
        <time>2014-03-18T08:37:01Z</time>
      </trkpt>
      <trkpt lat="44.11204" lon="2.99594">
        <ele>496</ele>
        <time>2014-03-18T08:37:06Z</time>
      </trkpt>
      <trkpt lat="44.11209" lon="2.99591">
        <ele>495</ele>
        <time>2014-03-18T08:37:12Z</time>
      </trkpt>
      <trkpt lat="44.11213" lon="2.99588">
        <ele>493</ele>
        <time>2014-03-18T08:37:18Z</time>
      </trkpt>
      <trkpt lat="44.11218" lon="2.99584">
        <ele>493</ele>
        <time>2014-03-18T08:37:22Z</time>
      </trkpt>
      <trkpt lat="44.11222" lon="2.99581">
        <ele>492</ele>
        <time>2014-03-18T08:37:26Z</time>
      </trkpt>
      <trkpt lat="44.11228" lon="2.99578">
        <ele>492</ele>
        <time>2014-03-18T08:37:30Z</time>
      </trkpt>
      <trkpt lat="44.11232" lon="2.99575">
        <ele>487</ele>
        <time>2014-03-18T08:37:39Z</time>
      </trkpt>
      <trkpt lat="44.11237" lon="2.99572">
        <ele>486</ele>
        <time>2014-03-18T08:37:46Z</time>
      </trkpt>
      <trkpt lat="44.11241" lon="2.99565">
        <ele>486</ele>
        <time>2014-03-18T08:37:50Z</time>
      </trkpt>
      <trkpt lat="44.11243" lon="2.99558">
        <ele>487</ele>
        <time>2014-03-18T08:37:54Z</time>
      </trkpt>
      <trkpt lat="44.11244" lon="2.99551">
        <ele>488</ele>
        <time>2014-03-18T08:37:57Z</time>
      </trkpt>
      <trkpt lat="44.11246" lon="2.99545">
        <ele>489</ele>
        <time>2014-03-18T08:38:00Z</time>
      </trkpt>
      <trkpt lat="44.11249" lon="2.99538">
        <ele>491</ele>
        <time>2014-03-18T08:38:04Z</time>
      </trkpt>
      <trkpt lat="44.11252" lon="2.99532">
        <ele>491</ele>
        <time>2014-03-18T08:38:07Z</time>
      </trkpt>
      <trkpt lat="44.11253" lon="2.99524">
        <ele>492</ele>
        <time>2014-03-18T08:38:10Z</time>
      </trkpt>
      <trkpt lat="44.11256" lon="2.99519">
        <ele>492</ele>
        <time>2014-03-18T08:38:15Z</time>
      </trkpt>
      <trkpt lat="44.11256" lon="2.99511">
        <ele>492</ele>
        <time>2014-03-18T08:38:21Z</time>
      </trkpt>
      <trkpt lat="44.11257" lon="2.99504">
        <ele>491</ele>
        <time>2014-03-18T08:38:24Z</time>
      </trkpt>
      <trkpt lat="44.11259" lon="2.99499">
        <ele>492</ele>
        <time>2014-03-18T08:38:27Z</time>
      </trkpt>
      <trkpt lat="44.1126" lon="2.99492">
        <ele>492</ele>
        <time>2014-03-18T08:38:32Z</time>
      </trkpt>
      <trkpt lat="44.1126" lon="2.99485">
        <ele>492</ele>
        <time>2014-03-18T08:38:36Z</time>
      </trkpt>
      <trkpt lat="44.11262" lon="2.99477">
        <ele>492</ele>
        <time>2014-03-18T08:38:40Z</time>
      </trkpt>
      <trkpt lat="44.11264" lon="2.99472">
        <ele>493</ele>
        <time>2014-03-18T08:38:44Z</time>
      </trkpt>
      <trkpt lat="44.11265" lon="2.99466">
        <ele>494</ele>
        <time>2014-03-18T08:38:47Z</time>
      </trkpt>
      <trkpt lat="44.11268" lon="2.9946">
        <ele>495</ele>
        <time>2014-03-18T08:38:51Z</time>
      </trkpt>
      <trkpt lat="44.11271" lon="2.99455">
        <ele>496</ele>
        <time>2014-03-18T08:38:55Z</time>
      </trkpt>
      <trkpt lat="44.11274" lon="2.9945">
        <ele>497</ele>
        <time>2014-03-18T08:38:59Z</time>
      </trkpt>
      <trkpt lat="44.11276" lon="2.99443">
        <ele>497</ele>
        <time>2014-03-18T08:39:03Z</time>
      </trkpt>
      <trkpt lat="44.1128" lon="2.99438">
        <ele>496</ele>
        <time>2014-03-18T08:39:08Z</time>
      </trkpt>
      <trkpt lat="44.11285" lon="2.99433">
        <ele>495</ele>
        <time>2014-03-18T08:39:12Z</time>
      </trkpt>
      <trkpt lat="44.11289" lon="2.9943">
        <ele>495</ele>
        <time>2014-03-18T08:39:17Z</time>
      </trkpt>
      <trkpt lat="44.11293" lon="2.99427">
        <ele>494</ele>
        <time>2014-03-18T08:39:21Z</time>
      </trkpt>
      <trkpt lat="44.11298" lon="2.99423">
        <ele>494</ele>
        <time>2014-03-18T08:39:24Z</time>
      </trkpt>
      <trkpt lat="44.11302" lon="2.9942">
        <ele>495</ele>
        <time>2014-03-18T08:39:27Z</time>
      </trkpt>
      <trkpt lat="44.11307" lon="2.99414">
        <ele>494</ele>
        <time>2014-03-18T08:39:30Z</time>
      </trkpt>
      <trkpt lat="44.11312" lon="2.99409">
        <ele>494</ele>
        <time>2014-03-18T08:39:32Z</time>
      </trkpt>
      <trkpt lat="44.11315" lon="2.99402">
        <ele>494</ele>
        <time>2014-03-18T08:39:35Z</time>
      </trkpt>
      <trkpt lat="44.11321" lon="2.99399">
        <ele>496</ele>
        <time>2014-03-18T08:39:45Z</time>
      </trkpt>
      <trkpt lat="44.11326" lon="2.99397">
        <ele>497</ele>
        <time>2014-03-18T08:39:49Z</time>
      </trkpt>
      <trkpt lat="44.11331" lon="2.99395">
        <ele>497</ele>
        <time>2014-03-18T08:39:53Z</time>
      </trkpt>
      <trkpt lat="44.11335" lon="2.99393">
        <ele>497</ele>
        <time>2014-03-18T08:39:57Z</time>
      </trkpt>
      <trkpt lat="44.1134" lon="2.99389">
        <ele>497</ele>
        <time>2014-03-18T08:40:01Z</time>
      </trkpt>
      <trkpt lat="44.11344" lon="2.99386">
        <ele>498</ele>
        <time>2014-03-18T08:40:05Z</time>
      </trkpt>
      <trkpt lat="44.11348" lon="2.99382">
        <ele>498</ele>
        <time>2014-03-18T08:40:09Z</time>
      </trkpt>
      <trkpt lat="44.11353" lon="2.9938">
        <ele>498</ele>
        <time>2014-03-18T08:40:12Z</time>
      </trkpt>
      <trkpt lat="44.11357" lon="2.99377">
        <ele>498</ele>
        <time>2014-03-18T08:40:17Z</time>
      </trkpt>
      <trkpt lat="44.11362" lon="2.99375">
        <ele>497</ele>
        <time>2014-03-18T08:40:22Z</time>
      </trkpt>
      <trkpt lat="44.11367" lon="2.99373">
        <ele>497</ele>
        <time>2014-03-18T08:40:28Z</time>
      </trkpt>
      <trkpt lat="44.11373" lon="2.99371">
        <ele>496</ele>
        <time>2014-03-18T08:40:32Z</time>
      </trkpt>
      <trkpt lat="44.11375" lon="2.99363">
        <ele>495</ele>
        <time>2014-03-18T08:40:36Z</time>
      </trkpt>
      <trkpt lat="44.11378" lon="2.9936">
        <ele>495</ele>
        <time>2014-03-18T08:40:39Z</time>
      </trkpt>
      <trkpt lat="44.11383" lon="2.99357">
        <ele>495</ele>
        <time>2014-03-18T08:40:42Z</time>
      </trkpt>
      <trkpt lat="44.11388" lon="2.99356">
        <ele>496</ele>
        <time>2014-03-18T08:40:45Z</time>
      </trkpt>
      <trkpt lat="44.11393" lon="2.99355">
        <ele>497</ele>
        <time>2014-03-18T08:40:48Z</time>
      </trkpt>
      <trkpt lat="44.11398" lon="2.9935">
        <ele>498</ele>
        <time>2014-03-18T08:40:52Z</time>
      </trkpt>
      <trkpt lat="44.11404" lon="2.9935">
        <ele>498</ele>
        <time>2014-03-18T08:40:56Z</time>
      </trkpt>
      <trkpt lat="44.1141" lon="2.9935">
        <ele>498</ele>
        <time>2014-03-18T08:40:59Z</time>
      </trkpt>
      <trkpt lat="44.11415" lon="2.99349">
        <ele>498</ele>
        <time>2014-03-18T08:41:02Z</time>
      </trkpt>
      <trkpt lat="44.1142" lon="2.99346">
        <ele>497</ele>
        <time>2014-03-18T08:41:07Z</time>
      </trkpt>
      <trkpt lat="44.11425" lon="2.99343">
        <ele>497</ele>
        <time>2014-03-18T08:41:12Z</time>
      </trkpt>
      <trkpt lat="44.1143" lon="2.99342">
        <ele>496</ele>
        <time>2014-03-18T08:41:14Z</time>
      </trkpt>
      <trkpt lat="44.11434" lon="2.99342">
        <ele>495</ele>
        <time>2014-03-18T08:41:17Z</time>
      </trkpt>
      <trkpt lat="44.11439" lon="2.9934">
        <ele>495</ele>
        <time>2014-03-18T08:41:22Z</time>
      </trkpt>
      <trkpt lat="44.11444" lon="2.99336">
        <ele>495</ele>
        <time>2014-03-18T08:41:27Z</time>
      </trkpt>
      <trkpt lat="44.11448" lon="2.99332">
        <ele>496</ele>
        <time>2014-03-18T08:41:31Z</time>
      </trkpt>
      <trkpt lat="44.11451" lon="2.99327">
        <ele>497</ele>
        <time>2014-03-18T08:41:35Z</time>
      </trkpt>
      <trkpt lat="44.11457" lon="2.99324">
        <ele>499</ele>
        <time>2014-03-18T08:41:40Z</time>
      </trkpt>
      <trkpt lat="44.11462" lon="2.99322">
        <ele>500</ele>
        <time>2014-03-18T08:41:44Z</time>
      </trkpt>
      <trkpt lat="44.11467" lon="2.9932">
        <ele>500</ele>
        <time>2014-03-18T08:41:49Z</time>
      </trkpt>
      <trkpt lat="44.11472" lon="2.99319">
        <ele>500</ele>
        <time>2014-03-18T08:41:53Z</time>
      </trkpt>
      <trkpt lat="44.11476" lon="2.99317">
        <ele>500</ele>
        <time>2014-03-18T08:41:58Z</time>
      </trkpt>
      <trkpt lat="44.11482" lon="2.99315">
        <ele>500</ele>
        <time>2014-03-18T08:42:02Z</time>
      </trkpt>
      <trkpt lat="44.11486" lon="2.99313">
        <ele>500</ele>
        <time>2014-03-18T08:42:06Z</time>
      </trkpt>
      <trkpt lat="44.1149" lon="2.99309">
        <ele>502</ele>
        <time>2014-03-18T08:42:10Z</time>
      </trkpt>
      <trkpt lat="44.11496" lon="2.99307">
        <ele>502</ele>
        <time>2014-03-18T08:42:15Z</time>
      </trkpt>
      <trkpt lat="44.11501" lon="2.99309">
        <ele>503</ele>
        <time>2014-03-18T08:42:18Z</time>
      </trkpt>
      <trkpt lat="44.11506" lon="2.99309">
        <ele>504</ele>
        <time>2014-03-18T08:42:22Z</time>
      </trkpt>
      <trkpt lat="44.11511" lon="2.99307">
        <ele>504</ele>
        <time>2014-03-18T08:42:27Z</time>
      </trkpt>
      <trkpt lat="44.11515" lon="2.99305">
        <ele>505</ele>
        <time>2014-03-18T08:42:33Z</time>
      </trkpt>
      <trkpt lat="44.11521" lon="2.99302">
        <ele>504</ele>
        <time>2014-03-18T08:42:36Z</time>
      </trkpt>
      <trkpt lat="44.11525" lon="2.993">
        <ele>503</ele>
        <time>2014-03-18T08:42:39Z</time>
      </trkpt>
      <trkpt lat="44.11529" lon="2.99295">
        <ele>502</ele>
        <time>2014-03-18T08:42:43Z</time>
      </trkpt>
      <trkpt lat="44.11534" lon="2.9929">
        <ele>502</ele>
        <time>2014-03-18T08:42:47Z</time>
      </trkpt>
      <trkpt lat="44.11539" lon="2.99288">
        <ele>502</ele>
        <time>2014-03-18T08:42:50Z</time>
      </trkpt>
      <trkpt lat="44.11544" lon="2.99288">
        <ele>502</ele>
        <time>2014-03-18T08:42:54Z</time>
      </trkpt>
      <trkpt lat="44.11549" lon="2.99287">
        <ele>502</ele>
        <time>2014-03-18T08:42:58Z</time>
      </trkpt>
      <trkpt lat="44.11554" lon="2.99284">
        <ele>501</ele>
        <time>2014-03-18T08:43:02Z</time>
      </trkpt>
      <trkpt lat="44.11559" lon="2.99284">
        <ele>500</ele>
        <time>2014-03-18T08:43:05Z</time>
      </trkpt>
      <trkpt lat="44.11563" lon="2.99283">
        <ele>498</ele>
        <time>2014-03-18T08:43:09Z</time>
      </trkpt>
      <trkpt lat="44.11567" lon="2.99276">
        <ele>499</ele>
        <time>2014-03-18T08:43:15Z</time>
      </trkpt>
      <trkpt lat="44.11569" lon="2.99269">
        <ele>501</ele>
        <time>2014-03-18T08:43:18Z</time>
      </trkpt>
      <trkpt lat="44.11574" lon="2.99265">
        <ele>503</ele>
        <time>2014-03-18T08:43:21Z</time>
      </trkpt>
      <trkpt lat="44.11579" lon="2.99263">
        <ele>503</ele>
        <time>2014-03-18T08:43:25Z</time>
      </trkpt>
      <trkpt lat="44.11584" lon="2.99262">
        <ele>505</ele>
        <time>2014-03-18T08:43:29Z</time>
      </trkpt>
      <trkpt lat="44.11588" lon="2.9926">
        <ele>505</ele>
        <time>2014-03-18T08:43:34Z</time>
      </trkpt>
      <trkpt lat="44.11593" lon="2.99257">
        <ele>506</ele>
        <time>2014-03-18T08:43:40Z</time>
      </trkpt>
      <trkpt lat="44.11598" lon="2.99254">
        <ele>507</ele>
        <time>2014-03-18T08:43:44Z</time>
      </trkpt>
      <trkpt lat="44.11603" lon="2.99253">
        <ele>507</ele>
        <time>2014-03-18T08:43:48Z</time>
      </trkpt>
      <trkpt lat="44.11607" lon="2.9925">
        <ele>509</ele>
        <time>2014-03-18T08:43:51Z</time>
      </trkpt>
      <trkpt lat="44.11609" lon="2.99242">
        <ele>510</ele>
        <time>2014-03-18T08:43:56Z</time>
      </trkpt>
      <trkpt lat="44.11614" lon="2.9924">
        <ele>510</ele>
        <time>2014-03-18T08:43:59Z</time>
      </trkpt>
      <trkpt lat="44.1162" lon="2.99237">
        <ele>509</ele>
        <time>2014-03-18T08:44:03Z</time>
      </trkpt>
      <trkpt lat="44.11623" lon="2.99233">
        <ele>508</ele>
        <time>2014-03-18T08:44:06Z</time>
      </trkpt>
      <trkpt lat="44.11628" lon="2.99227">
        <ele>508</ele>
        <time>2014-03-18T08:44:10Z</time>
      </trkpt>
      <trkpt lat="44.1163" lon="2.99222">
        <ele>508</ele>
        <time>2014-03-18T08:44:13Z</time>
      </trkpt>
      <trkpt lat="44.11634" lon="2.99216">
        <ele>509</ele>
        <time>2014-03-18T08:44:17Z</time>
      </trkpt>
      <trkpt lat="44.11638" lon="2.9921">
        <ele>510</ele>
        <time>2014-03-18T08:44:21Z</time>
      </trkpt>
      <trkpt lat="44.11642" lon="2.99207">
        <ele>510</ele>
        <time>2014-03-18T08:44:25Z</time>
      </trkpt>
      <trkpt lat="44.11645" lon="2.99199">
        <ele>510</ele>
        <time>2014-03-18T08:44:28Z</time>
      </trkpt>
      <trkpt lat="44.11649" lon="2.99194">
        <ele>509</ele>
        <time>2014-03-18T08:44:31Z</time>
      </trkpt>
      <trkpt lat="44.11654" lon="2.99194">
        <ele>508</ele>
        <time>2014-03-18T08:44:35Z</time>
      </trkpt>
      <trkpt lat="44.11659" lon="2.99195">
        <ele>507</ele>
        <time>2014-03-18T08:44:40Z</time>
      </trkpt>
      <trkpt lat="44.11664" lon="2.99191">
        <ele>507</ele>
        <time>2014-03-18T08:44:44Z</time>
      </trkpt>
      <trkpt lat="44.11669" lon="2.99189">
        <ele>507</ele>
        <time>2014-03-18T08:44:48Z</time>
      </trkpt>
      <trkpt lat="44.11673" lon="2.99186">
        <ele>507</ele>
        <time>2014-03-18T08:44:52Z</time>
      </trkpt>
      <trkpt lat="44.11678" lon="2.99184">
        <ele>506</ele>
        <time>2014-03-18T08:44:57Z</time>
      </trkpt>
      <trkpt lat="44.11683" lon="2.99183">
        <ele>506</ele>
        <time>2014-03-18T08:45:02Z</time>
      </trkpt>
      <trkpt lat="44.11688" lon="2.99181">
        <ele>506</ele>
        <time>2014-03-18T08:45:06Z</time>
      </trkpt>
      <trkpt lat="44.11693" lon="2.99178">
        <ele>507</ele>
        <time>2014-03-18T08:45:09Z</time>
      </trkpt>
      <trkpt lat="44.11696" lon="2.99172">
        <ele>508</ele>
        <time>2014-03-18T08:45:14Z</time>
      </trkpt>
      <trkpt lat="44.11701" lon="2.99171">
        <ele>508</ele>
        <time>2014-03-18T08:45:19Z</time>
      </trkpt>
      <trkpt lat="44.11707" lon="2.9917">
        <ele>507</ele>
        <time>2014-03-18T08:45:23Z</time>
      </trkpt>
      <trkpt lat="44.11712" lon="2.99166">
        <ele>506</ele>
        <time>2014-03-18T08:45:28Z</time>
      </trkpt>
      <trkpt lat="44.11716" lon="2.99159">
        <ele>506</ele>
        <time>2014-03-18T08:45:31Z</time>
      </trkpt>
      <trkpt lat="44.1172" lon="2.99155">
        <ele>506</ele>
        <time>2014-03-18T08:45:34Z</time>
      </trkpt>
      <trkpt lat="44.11726" lon="2.99155">
        <ele>504</ele>
        <time>2014-03-18T08:45:38Z</time>
      </trkpt>
      <trkpt lat="44.1173" lon="2.99152">
        <ele>504</ele>
        <time>2014-03-18T08:45:41Z</time>
      </trkpt>
      <trkpt lat="44.11735" lon="2.99147">
        <ele>505</ele>
        <time>2014-03-18T08:45:45Z</time>
      </trkpt>
      <trkpt lat="44.11739" lon="2.99144">
        <ele>506</ele>
        <time>2014-03-18T08:45:48Z</time>
      </trkpt>
      <trkpt lat="44.11744" lon="2.99142">
        <ele>507</ele>
        <time>2014-03-18T08:45:54Z</time>
      </trkpt>
      <trkpt lat="44.11747" lon="2.99137">
        <ele>507</ele>
        <time>2014-03-18T08:45:58Z</time>
      </trkpt>
      <trkpt lat="44.11752" lon="2.99138">
        <ele>507</ele>
        <time>2014-03-18T08:46:03Z</time>
      </trkpt>
      <trkpt lat="44.11757" lon="2.99138">
        <ele>507</ele>
        <time>2014-03-18T08:46:07Z</time>
      </trkpt>
      <trkpt lat="44.11762" lon="2.99136">
        <ele>507</ele>
        <time>2014-03-18T08:46:11Z</time>
      </trkpt>
      <trkpt lat="44.11766" lon="2.99135">
        <ele>507</ele>
        <time>2014-03-18T08:46:14Z</time>
      </trkpt>
      <trkpt lat="44.11772" lon="2.99134">
        <ele>507</ele>
        <time>2014-03-18T08:46:17Z</time>
      </trkpt>
      <trkpt lat="44.11778" lon="2.99132">
        <ele>509</ele>
        <time>2014-03-18T08:46:20Z</time>
      </trkpt>
      <trkpt lat="44.11783" lon="2.9913">
        <ele>509</ele>
        <time>2014-03-18T08:46:23Z</time>
      </trkpt>
      <trkpt lat="44.11787" lon="2.99127">
        <ele>510</ele>
        <time>2014-03-18T08:46:26Z</time>
      </trkpt>
      <trkpt lat="44.11792" lon="2.99126">
        <ele>510</ele>
        <time>2014-03-18T08:46:32Z</time>
      </trkpt>
      <trkpt lat="44.11797" lon="2.99123">
        <ele>511</ele>
        <time>2014-03-18T08:46:36Z</time>
      </trkpt>
      <trkpt lat="44.11803" lon="2.99122">
        <ele>511</ele>
        <time>2014-03-18T08:46:40Z</time>
      </trkpt>
      <trkpt lat="44.11807" lon="2.99119">
        <ele>512</ele>
        <time>2014-03-18T08:46:45Z</time>
      </trkpt>
      <trkpt lat="44.11812" lon="2.99115">
        <ele>514</ele>
        <time>2014-03-18T08:46:52Z</time>
      </trkpt>
      <trkpt lat="44.11817" lon="2.99113">
        <ele>514</ele>
        <time>2014-03-18T08:46:56Z</time>
      </trkpt>
      <trkpt lat="44.11822" lon="2.99112">
        <ele>515</ele>
        <time>2014-03-18T08:47:00Z</time>
      </trkpt>
      <trkpt lat="44.11824" lon="2.99107">
        <ele>516</ele>
        <time>2014-03-18T08:47:05Z</time>
      </trkpt>
      <trkpt lat="44.11829" lon="2.99102">
        <ele>518</ele>
        <time>2014-03-18T08:47:09Z</time>
      </trkpt>
      <trkpt lat="44.11834" lon="2.99099">
        <ele>518</ele>
        <time>2014-03-18T08:47:13Z</time>
      </trkpt>
      <trkpt lat="44.11839" lon="2.99099">
        <ele>518</ele>
        <time>2014-03-18T08:47:16Z</time>
      </trkpt>
      <trkpt lat="44.11845" lon="2.991">
        <ele>517</ele>
        <time>2014-03-18T08:47:20Z</time>
      </trkpt>
      <trkpt lat="44.1185" lon="2.99101">
        <ele>515</ele>
        <time>2014-03-18T08:47:24Z</time>
      </trkpt>
      <trkpt lat="44.11856" lon="2.991">
        <ele>515</ele>
        <time>2014-03-18T08:47:29Z</time>
      </trkpt>
      <trkpt lat="44.11861" lon="2.99101">
        <ele>515</ele>
        <time>2014-03-18T08:47:33Z</time>
      </trkpt>
      <trkpt lat="44.11867" lon="2.99101">
        <ele>515</ele>
        <time>2014-03-18T08:47:37Z</time>
      </trkpt>
      <trkpt lat="44.11871" lon="2.99099">
        <ele>515</ele>
        <time>2014-03-18T08:47:40Z</time>
      </trkpt>
      <trkpt lat="44.11875" lon="2.99095">
        <ele>514</ele>
        <time>2014-03-18T08:47:46Z</time>
      </trkpt>
      <trkpt lat="44.11881" lon="2.99094">
        <ele>513</ele>
        <time>2014-03-18T08:47:50Z</time>
      </trkpt>
      <trkpt lat="44.11886" lon="2.99092">
        <ele>514</ele>
        <time>2014-03-18T08:47:52Z</time>
      </trkpt>
      <trkpt lat="44.1189" lon="2.99091">
        <ele>514</ele>
        <time>2014-03-18T08:47:55Z</time>
      </trkpt>
      <trkpt lat="44.11895" lon="2.99093">
        <ele>515</ele>
        <time>2014-03-18T08:47:59Z</time>
      </trkpt>
      <trkpt lat="44.119" lon="2.99093">
        <ele>516</ele>
        <time>2014-03-18T08:48:05Z</time>
      </trkpt>
      <trkpt lat="44.11905" lon="2.9909">
        <ele>517</ele>
        <time>2014-03-18T08:48:10Z</time>
      </trkpt>
      <trkpt lat="44.11909" lon="2.99087">
        <ele>517</ele>
        <time>2014-03-18T08:48:14Z</time>
      </trkpt>
      <trkpt lat="44.11914" lon="2.9909">
        <ele>515</ele>
        <time>2014-03-18T08:48:18Z</time>
      </trkpt>
      <trkpt lat="44.11919" lon="2.9909">
        <ele>516</ele>
        <time>2014-03-18T08:48:21Z</time>
      </trkpt>
      <trkpt lat="44.11925" lon="2.99087">
        <ele>517</ele>
        <time>2014-03-18T08:48:24Z</time>
      </trkpt>
      <trkpt lat="44.1193" lon="2.99085">
        <ele>517</ele>
        <time>2014-03-18T08:48:28Z</time>
      </trkpt>
      <trkpt lat="44.11935" lon="2.99081">
        <ele>516</ele>
        <time>2014-03-18T08:48:32Z</time>
      </trkpt>
      <trkpt lat="44.1194" lon="2.99079">
        <ele>515</ele>
        <time>2014-03-18T08:48:35Z</time>
      </trkpt>
      <trkpt lat="44.11945" lon="2.99079">
        <ele>515</ele>
        <time>2014-03-18T08:48:39Z</time>
      </trkpt>
      <trkpt lat="44.11949" lon="2.99073">
        <ele>516</ele>
        <time>2014-03-18T08:48:43Z</time>
      </trkpt>
      <trkpt lat="44.11954" lon="2.99074">
        <ele>517</ele>
        <time>2014-03-18T08:48:45Z</time>
      </trkpt>
      <trkpt lat="44.11958" lon="2.99078">
        <ele>518</ele>
        <time>2014-03-18T08:48:49Z</time>
      </trkpt>
      <trkpt lat="44.11963" lon="2.99079">
        <ele>518</ele>
        <time>2014-03-18T08:48:53Z</time>
      </trkpt>
      <trkpt lat="44.11968" lon="2.99079">
        <ele>519</ele>
        <time>2014-03-18T08:48:56Z</time>
      </trkpt>
      <trkpt lat="44.11973" lon="2.99078">
        <ele>518</ele>
        <time>2014-03-18T08:49:02Z</time>
      </trkpt>
      <trkpt lat="44.11978" lon="2.99076">
        <ele>519</ele>
        <time>2014-03-18T08:49:07Z</time>
      </trkpt>
      <trkpt lat="44.11983" lon="2.99076">
        <ele>517</ele>
        <time>2014-03-18T08:49:13Z</time>
      </trkpt>
      <trkpt lat="44.11988" lon="2.99076">
        <ele>519</ele>
        <time>2014-03-18T08:49:16Z</time>
      </trkpt>
      <trkpt lat="44.11995" lon="2.99075">
        <ele>519</ele>
        <time>2014-03-18T08:49:19Z</time>
      </trkpt>
      <trkpt lat="44.12" lon="2.99072">
        <ele>520</ele>
        <time>2014-03-18T08:49:22Z</time>
      </trkpt>
      <trkpt lat="44.12005" lon="2.9907">
        <ele>519</ele>
        <time>2014-03-18T08:49:30Z</time>
      </trkpt>
      <trkpt lat="44.12009" lon="2.99067">
        <ele>519</ele>
        <time>2014-03-18T08:49:34Z</time>
      </trkpt>
      <trkpt lat="44.12014" lon="2.99066">
        <ele>520</ele>
        <time>2014-03-18T08:49:37Z</time>
      </trkpt>
      <trkpt lat="44.12018" lon="2.99067">
        <ele>521</ele>
        <time>2014-03-18T08:49:41Z</time>
      </trkpt>
      <trkpt lat="44.12023" lon="2.99068">
        <ele>522</ele>
        <time>2014-03-18T08:49:49Z</time>
      </trkpt>
      <trkpt lat="44.12029" lon="2.99068">
        <ele>523</ele>
        <time>2014-03-18T08:49:52Z</time>
      </trkpt>
      <trkpt lat="44.12035" lon="2.99066">
        <ele>522</ele>
        <time>2014-03-18T08:49:55Z</time>
      </trkpt>
      <trkpt lat="44.12038" lon="2.99072">
        <ele>520</ele>
        <time>2014-03-18T08:50:03Z</time>
      </trkpt>
      <trkpt lat="44.12042" lon="2.99076">
        <ele>516</ele>
        <time>2014-03-18T08:50:11Z</time>
      </trkpt>
      <trkpt lat="44.12047" lon="2.99077">
        <ele>516</ele>
        <time>2014-03-18T08:50:15Z</time>
      </trkpt>
      <trkpt lat="44.12052" lon="2.99078">
        <ele>516</ele>
        <time>2014-03-18T08:50:19Z</time>
      </trkpt>
      <trkpt lat="44.12058" lon="2.99078">
        <ele>516</ele>
        <time>2014-03-18T08:50:24Z</time>
      </trkpt>
      <trkpt lat="44.12062" lon="2.99073">
        <ele>516</ele>
        <time>2014-03-18T08:50:27Z</time>
      </trkpt>
      <trkpt lat="44.12068" lon="2.99072">
        <ele>517</ele>
        <time>2014-03-18T08:50:30Z</time>
      </trkpt>
      <trkpt lat="44.12073" lon="2.99072">
        <ele>517</ele>
        <time>2014-03-18T08:50:32Z</time>
      </trkpt>
      <trkpt lat="44.12078" lon="2.9907">
        <ele>517</ele>
        <time>2014-03-18T08:50:35Z</time>
      </trkpt>
      <trkpt lat="44.12083" lon="2.99073">
        <ele>518</ele>
        <time>2014-03-18T08:50:40Z</time>
      </trkpt>
      <trkpt lat="44.12087" lon="2.99076">
        <ele>519</ele>
        <time>2014-03-18T08:50:44Z</time>
      </trkpt>
      <trkpt lat="44.12091" lon="2.99079">
        <ele>518</ele>
        <time>2014-03-18T08:50:51Z</time>
      </trkpt>
      <trkpt lat="44.12096" lon="2.99078">
        <ele>518</ele>
        <time>2014-03-18T08:50:55Z</time>
      </trkpt>
      <trkpt lat="44.12103" lon="2.99078">
        <ele>519</ele>
        <time>2014-03-18T08:50:58Z</time>
      </trkpt>
      <trkpt lat="44.12108" lon="2.9908">
        <ele>520</ele>
        <time>2014-03-18T08:51:01Z</time>
      </trkpt>
      <trkpt lat="44.12113" lon="2.9908">
        <ele>519</ele>
        <time>2014-03-18T08:51:07Z</time>
      </trkpt>
      <trkpt lat="44.12119" lon="2.9908">
        <ele>520</ele>
        <time>2014-03-18T08:51:11Z</time>
      </trkpt>
      <trkpt lat="44.12125" lon="2.9908">
        <ele>520</ele>
        <time>2014-03-18T08:51:14Z</time>
      </trkpt>
      <trkpt lat="44.12129" lon="2.99078">
        <ele>520</ele>
        <time>2014-03-18T08:51:17Z</time>
      </trkpt>
      <trkpt lat="44.12134" lon="2.99077">
        <ele>519</ele>
        <time>2014-03-18T08:51:21Z</time>
      </trkpt>
      <trkpt lat="44.12139" lon="2.99075">
        <ele>519</ele>
        <time>2014-03-18T08:51:25Z</time>
      </trkpt>
      <trkpt lat="44.12144" lon="2.99072">
        <ele>519</ele>
        <time>2014-03-18T08:51:29Z</time>
      </trkpt>
      <trkpt lat="44.12149" lon="2.9907">
        <ele>521</ele>
        <time>2014-03-18T08:51:33Z</time>
      </trkpt>
      <trkpt lat="44.12151" lon="2.99064">
        <ele>521</ele>
        <time>2014-03-18T08:51:39Z</time>
      </trkpt>
      <trkpt lat="44.12153" lon="2.99058">
        <ele>520</ele>
        <time>2014-03-18T08:51:44Z</time>
      </trkpt>
      <trkpt lat="44.12157" lon="2.99052">
        <ele>520</ele>
        <time>2014-03-18T08:51:48Z</time>
      </trkpt>
      <trkpt lat="44.1216" lon="2.99046">
        <ele>520</ele>
        <time>2014-03-18T08:51:53Z</time>
      </trkpt>
      <trkpt lat="44.12162" lon="2.9904">
        <ele>520</ele>
        <time>2014-03-18T08:51:57Z</time>
      </trkpt>
      <trkpt lat="44.12165" lon="2.99035">
        <ele>521</ele>
        <time>2014-03-18T08:52:03Z</time>
      </trkpt>
      <trkpt lat="44.12169" lon="2.9903">
        <ele>522</ele>
        <time>2014-03-18T08:52:08Z</time>
      </trkpt>
      <trkpt lat="44.12171" lon="2.99023">
        <ele>523</ele>
        <time>2014-03-18T08:52:13Z</time>
      </trkpt>
      <trkpt lat="44.12172" lon="2.99017">
        <ele>522</ele>
        <time>2014-03-18T08:52:17Z</time>
      </trkpt>
      <trkpt lat="44.12175" lon="2.99011">
        <ele>523</ele>
        <time>2014-03-18T08:52:24Z</time>
      </trkpt>
      <trkpt lat="44.12178" lon="2.99004">
        <ele>524</ele>
        <time>2014-03-18T08:52:29Z</time>
      </trkpt>
      <trkpt lat="44.12184" lon="2.99006">
        <ele>524</ele>
        <time>2014-03-18T08:52:35Z</time>
      </trkpt>
      <trkpt lat="44.12189" lon="2.99009">
        <ele>525</ele>
        <time>2014-03-18T08:52:40Z</time>
      </trkpt>
      <trkpt lat="44.12194" lon="2.99012">
        <ele>525</ele>
        <time>2014-03-18T08:52:43Z</time>
      </trkpt>
      <trkpt lat="44.12199" lon="2.99015">
        <ele>525</ele>
        <time>2014-03-18T08:52:47Z</time>
      </trkpt>
      <trkpt lat="44.12204" lon="2.99018">
        <ele>525</ele>
        <time>2014-03-18T08:52:50Z</time>
      </trkpt>
      <trkpt lat="44.12209" lon="2.9902">
        <ele>526</ele>
        <time>2014-03-18T08:52:53Z</time>
      </trkpt>
      <trkpt lat="44.12214" lon="2.99021">
        <ele>526</ele>
        <time>2014-03-18T08:52:57Z</time>
      </trkpt>
      <trkpt lat="44.12218" lon="2.99021">
        <ele>527</ele>
        <time>2014-03-18T08:53:04Z</time>
      </trkpt>
      <trkpt lat="44.12223" lon="2.99022">
        <ele>528</ele>
        <time>2014-03-18T08:53:11Z</time>
      </trkpt>
      <trkpt lat="44.12227" lon="2.99024">
        <ele>528</ele>
        <time>2014-03-18T08:53:14Z</time>
      </trkpt>
      <trkpt lat="44.12233" lon="2.99027">
        <ele>527</ele>
        <time>2014-03-18T08:53:17Z</time>
      </trkpt>
      <trkpt lat="44.12238" lon="2.99028">
        <ele>528</ele>
        <time>2014-03-18T08:53:20Z</time>
      </trkpt>
      <trkpt lat="44.12242" lon="2.9903">
        <ele>528</ele>
        <time>2014-03-18T08:53:23Z</time>
      </trkpt>
      <trkpt lat="44.12247" lon="2.99033">
        <ele>528</ele>
        <time>2014-03-18T08:53:26Z</time>
      </trkpt>
      <trkpt lat="44.12252" lon="2.99035">
        <ele>527</ele>
        <time>2014-03-18T08:53:30Z</time>
      </trkpt>
      <trkpt lat="44.12256" lon="2.99038">
        <ele>527</ele>
        <time>2014-03-18T08:53:34Z</time>
      </trkpt>
      <trkpt lat="44.12261" lon="2.99037">
        <ele>527</ele>
        <time>2014-03-18T08:53:38Z</time>
      </trkpt>
      <trkpt lat="44.12266" lon="2.99036">
        <ele>527</ele>
        <time>2014-03-18T08:53:42Z</time>
      </trkpt>
      <trkpt lat="44.12271" lon="2.99035">
        <ele>527</ele>
        <time>2014-03-18T08:53:46Z</time>
      </trkpt>
      <trkpt lat="44.12276" lon="2.99037">
        <ele>526</ele>
        <time>2014-03-18T08:53:50Z</time>
      </trkpt>
      <trkpt lat="44.1228" lon="2.99038">
        <ele>527</ele>
        <time>2014-03-18T08:53:53Z</time>
      </trkpt>
      <trkpt lat="44.12285" lon="2.9904">
        <ele>527</ele>
        <time>2014-03-18T08:53:56Z</time>
      </trkpt>
      <trkpt lat="44.12291" lon="2.9904">
        <ele>527</ele>
        <time>2014-03-18T08:54:01Z</time>
      </trkpt>
      <trkpt lat="44.12295" lon="2.99039">
        <ele>526</ele>
        <time>2014-03-18T08:54:07Z</time>
      </trkpt>
      <trkpt lat="44.12301" lon="2.99038">
        <ele>527</ele>
        <time>2014-03-18T08:54:12Z</time>
      </trkpt>
      <trkpt lat="44.12306" lon="2.99036">
        <ele>528</ele>
        <time>2014-03-18T08:54:16Z</time>
      </trkpt>
      <trkpt lat="44.12311" lon="2.99034">
        <ele>529</ele>
        <time>2014-03-18T08:54:21Z</time>
      </trkpt>
      <trkpt lat="44.12317" lon="2.99036">
        <ele>530</ele>
        <time>2014-03-18T08:54:25Z</time>
      </trkpt>
      <trkpt lat="44.12322" lon="2.99037">
        <ele>532</ele>
        <time>2014-03-18T08:54:29Z</time>
      </trkpt>
      <trkpt lat="44.12331" lon="2.99038">
        <ele>532</ele>
        <time>2014-03-18T08:54:37Z</time>
      </trkpt>
      <trkpt lat="44.12336" lon="2.9904">
        <ele>532</ele>
        <time>2014-03-18T08:54:41Z</time>
      </trkpt>
      <trkpt lat="44.12342" lon="2.99041">
        <ele>532</ele>
        <time>2014-03-18T08:54:45Z</time>
      </trkpt>
      <trkpt lat="44.12347" lon="2.99043">
        <ele>532</ele>
        <time>2014-03-18T08:54:48Z</time>
      </trkpt>
      <trkpt lat="44.12352" lon="2.99045">
        <ele>534</ele>
        <time>2014-03-18T08:54:53Z</time>
      </trkpt>
      <trkpt lat="44.12356" lon="2.99047">
        <ele>535</ele>
        <time>2014-03-18T08:54:58Z</time>
      </trkpt>
      <trkpt lat="44.1236" lon="2.99052">
        <ele>535</ele>
        <time>2014-03-18T08:55:01Z</time>
      </trkpt>
      <trkpt lat="44.12364" lon="2.99054">
        <ele>536</ele>
        <time>2014-03-18T08:55:06Z</time>
      </trkpt>
      <trkpt lat="44.12369" lon="2.99052">
        <ele>537</ele>
        <time>2014-03-18T08:55:11Z</time>
      </trkpt>
      <trkpt lat="44.12373" lon="2.99054">
        <ele>537</ele>
        <time>2014-03-18T08:55:16Z</time>
      </trkpt>
      <trkpt lat="44.12379" lon="2.99056">
        <ele>537</ele>
        <time>2014-03-18T08:55:22Z</time>
      </trkpt>
      <trkpt lat="44.12385" lon="2.99058">
        <ele>537</ele>
        <time>2014-03-18T08:55:27Z</time>
      </trkpt>
      <trkpt lat="44.1239" lon="2.99057">
        <ele>537</ele>
        <time>2014-03-18T08:55:30Z</time>
      </trkpt>
      <trkpt lat="44.12395" lon="2.9906">
        <ele>536</ele>
        <time>2014-03-18T08:55:34Z</time>
      </trkpt>
      <trkpt lat="44.12399" lon="2.99057">
        <ele>535</ele>
        <time>2014-03-18T08:55:39Z</time>
      </trkpt>
      <trkpt lat="44.12404" lon="2.99054">
        <ele>534</ele>
        <time>2014-03-18T08:55:43Z</time>
      </trkpt>
      <trkpt lat="44.12409" lon="2.99055">
        <ele>534</ele>
        <time>2014-03-18T08:55:48Z</time>
      </trkpt>
      <trkpt lat="44.12414" lon="2.99056">
        <ele>533</ele>
        <time>2014-03-18T08:55:53Z</time>
      </trkpt>
      <trkpt lat="44.12418" lon="2.99058">
        <ele>534</ele>
        <time>2014-03-18T08:55:58Z</time>
      </trkpt>
      <trkpt lat="44.12423" lon="2.99061">
        <ele>534</ele>
        <time>2014-03-18T08:56:05Z</time>
      </trkpt>
      <trkpt lat="44.12428" lon="2.9906">
        <ele>532</ele>
        <time>2014-03-18T08:56:10Z</time>
      </trkpt>
      <trkpt lat="44.12433" lon="2.99061">
        <ele>530</ele>
        <time>2014-03-18T08:56:14Z</time>
      </trkpt>
      <trkpt lat="44.12438" lon="2.99061">
        <ele>529</ele>
        <time>2014-03-18T08:56:17Z</time>
      </trkpt>
      <trkpt lat="44.12444" lon="2.99061">
        <ele>529</ele>
        <time>2014-03-18T08:56:21Z</time>
      </trkpt>
      <trkpt lat="44.12448" lon="2.99061">
        <ele>529</ele>
        <time>2014-03-18T08:56:27Z</time>
      </trkpt>
      <trkpt lat="44.12453" lon="2.9906">
        <ele>530</ele>
        <time>2014-03-18T08:56:33Z</time>
      </trkpt>
      <trkpt lat="44.12458" lon="2.99061">
        <ele>531</ele>
        <time>2014-03-18T08:56:36Z</time>
      </trkpt>
      <trkpt lat="44.12463" lon="2.99062">
        <ele>531</ele>
        <time>2014-03-18T08:56:40Z</time>
      </trkpt>
      <trkpt lat="44.12468" lon="2.99061">
        <ele>532</ele>
        <time>2014-03-18T08:56:43Z</time>
      </trkpt>
      <trkpt lat="44.12472" lon="2.99062">
        <ele>532</ele>
        <time>2014-03-18T08:56:48Z</time>
      </trkpt>
      <trkpt lat="44.12477" lon="2.99062">
        <ele>531</ele>
        <time>2014-03-18T08:56:52Z</time>
      </trkpt>
      <trkpt lat="44.12482" lon="2.99064">
        <ele>531</ele>
        <time>2014-03-18T08:56:55Z</time>
      </trkpt>
      <trkpt lat="44.12486" lon="2.99066">
        <ele>530</ele>
        <time>2014-03-18T08:56:58Z</time>
      </trkpt>
      <trkpt lat="44.12491" lon="2.99068">
        <ele>530</ele>
        <time>2014-03-18T08:57:02Z</time>
      </trkpt>
      <trkpt lat="44.12496" lon="2.99071">
        <ele>531</ele>
        <time>2014-03-18T08:57:09Z</time>
      </trkpt>
      <trkpt lat="44.12502" lon="2.99072">
        <ele>532</ele>
        <time>2014-03-18T08:57:14Z</time>
      </trkpt>
      <trkpt lat="44.12507" lon="2.9907">
        <ele>533</ele>
        <time>2014-03-18T08:57:17Z</time>
      </trkpt>
      <trkpt lat="44.12512" lon="2.99071">
        <ele>535</ele>
        <time>2014-03-18T08:57:21Z</time>
      </trkpt>
      <trkpt lat="44.1252" lon="2.99072">
        <ele>537</ele>
        <time>2014-03-18T08:57:28Z</time>
      </trkpt>
      <trkpt lat="44.12524" lon="2.99073">
        <ele>537</ele>
        <time>2014-03-18T08:57:35Z</time>
      </trkpt>
      <trkpt lat="44.12529" lon="2.99075">
        <ele>537</ele>
        <time>2014-03-18T08:57:41Z</time>
      </trkpt>
      <trkpt lat="44.12533" lon="2.99071">
        <ele>538</ele>
        <time>2014-03-18T08:57:49Z</time>
      </trkpt>
      <trkpt lat="44.12538" lon="2.99074">
        <ele>538</ele>
        <time>2014-03-18T08:57:52Z</time>
      </trkpt>
      <trkpt lat="44.12543" lon="2.99077">
        <ele>539</ele>
        <time>2014-03-18T08:57:56Z</time>
      </trkpt>
      <trkpt lat="44.12548" lon="2.99077">
        <ele>540</ele>
        <time>2014-03-18T08:58:00Z</time>
      </trkpt>
      <trkpt lat="44.12553" lon="2.99078">
        <ele>540</ele>
        <time>2014-03-18T08:58:03Z</time>
      </trkpt>
      <trkpt lat="44.12558" lon="2.99079">
        <ele>541</ele>
        <time>2014-03-18T08:58:06Z</time>
      </trkpt>
      <trkpt lat="44.12564" lon="2.9908">
        <ele>541</ele>
        <time>2014-03-18T08:58:10Z</time>
      </trkpt>
      <trkpt lat="44.12568" lon="2.99082">
        <ele>540</ele>
        <time>2014-03-18T08:58:14Z</time>
      </trkpt>
      <trkpt lat="44.12573" lon="2.99084">
        <ele>540</ele>
        <time>2014-03-18T08:58:17Z</time>
      </trkpt>
      <trkpt lat="44.12578" lon="2.99085">
        <ele>541</ele>
        <time>2014-03-18T08:58:20Z</time>
      </trkpt>
      <trkpt lat="44.12584" lon="2.99085">
        <ele>542</ele>
        <time>2014-03-18T08:58:23Z</time>
      </trkpt>
      <trkpt lat="44.12588" lon="2.99085">
        <ele>542</ele>
        <time>2014-03-18T08:58:26Z</time>
      </trkpt>
      <trkpt lat="44.12593" lon="2.99087">
        <ele>543</ele>
        <time>2014-03-18T08:58:32Z</time>
      </trkpt>
      <trkpt lat="44.12598" lon="2.99088">
        <ele>543</ele>
        <time>2014-03-18T08:58:38Z</time>
      </trkpt>
      <trkpt lat="44.12603" lon="2.9909">
        <ele>543</ele>
        <time>2014-03-18T08:58:42Z</time>
      </trkpt>
      <trkpt lat="44.12609" lon="2.99092">
        <ele>543</ele>
        <time>2014-03-18T08:58:46Z</time>
      </trkpt>
      <trkpt lat="44.12613" lon="2.99095">
        <ele>544</ele>
        <time>2014-03-18T08:58:51Z</time>
      </trkpt>
      <trkpt lat="44.12618" lon="2.99093">
        <ele>544</ele>
        <time>2014-03-18T08:58:55Z</time>
      </trkpt>
      <trkpt lat="44.12624" lon="2.99094">
        <ele>544</ele>
        <time>2014-03-18T08:59:01Z</time>
      </trkpt>
      <trkpt lat="44.12629" lon="2.99095">
        <ele>544</ele>
        <time>2014-03-18T08:59:05Z</time>
      </trkpt>
      <trkpt lat="44.12634" lon="2.99095">
        <ele>545</ele>
        <time>2014-03-18T08:59:08Z</time>
      </trkpt>
      <trkpt lat="44.1264" lon="2.99093">
        <ele>544</ele>
        <time>2014-03-18T08:59:12Z</time>
      </trkpt>
      <trkpt lat="44.12646" lon="2.99094">
        <ele>544</ele>
        <time>2014-03-18T08:59:16Z</time>
      </trkpt>
      <trkpt lat="44.1265" lon="2.99094">
        <ele>544</ele>
        <time>2014-03-18T08:59:19Z</time>
      </trkpt>
      <trkpt lat="44.12655" lon="2.99094">
        <ele>543</ele>
        <time>2014-03-18T08:59:25Z</time>
      </trkpt>
      <trkpt lat="44.1266" lon="2.99091">
        <ele>542</ele>
        <time>2014-03-18T08:59:34Z</time>
      </trkpt>
      <trkpt lat="44.12665" lon="2.99089">
        <ele>543</ele>
        <time>2014-03-18T08:59:39Z</time>
      </trkpt>
      <trkpt lat="44.12671" lon="2.99091">
        <ele>544</ele>
        <time>2014-03-18T08:59:42Z</time>
      </trkpt>
      <trkpt lat="44.12677" lon="2.99092">
        <ele>545</ele>
        <time>2014-03-18T08:59:45Z</time>
      </trkpt>
      <trkpt lat="44.12683" lon="2.99093">
        <ele>546</ele>
        <time>2014-03-18T08:59:48Z</time>
      </trkpt>
      <trkpt lat="44.12688" lon="2.99092">
        <ele>547</ele>
        <time>2014-03-18T08:59:52Z</time>
      </trkpt>
      <trkpt lat="44.12693" lon="2.9909">
        <ele>549</ele>
        <time>2014-03-18T08:59:59Z</time>
      </trkpt>
      <trkpt lat="44.127" lon="2.9909">
        <ele>550</ele>
        <time>2014-03-18T09:00:11Z</time>
      </trkpt>
      <trkpt lat="44.12705" lon="2.99089">
        <ele>551</ele>
        <time>2014-03-18T09:00:14Z</time>
      </trkpt>
      <trkpt lat="44.1271" lon="2.99088">
        <ele>552</ele>
        <time>2014-03-18T09:00:18Z</time>
      </trkpt>
      <trkpt lat="44.12714" lon="2.99087">
        <ele>552</ele>
        <time>2014-03-18T09:00:22Z</time>
      </trkpt>
      <trkpt lat="44.12719" lon="2.99086">
        <ele>552</ele>
        <time>2014-03-18T09:00:29Z</time>
      </trkpt>
      <trkpt lat="44.12725" lon="2.99085">
        <ele>552</ele>
        <time>2014-03-18T09:00:35Z</time>
      </trkpt>
      <trkpt lat="44.1273" lon="2.99085">
        <ele>552</ele>
        <time>2014-03-18T09:00:39Z</time>
      </trkpt>
      <trkpt lat="44.12735" lon="2.99082">
        <ele>554</ele>
        <time>2014-03-18T09:00:44Z</time>
      </trkpt>
      <trkpt lat="44.1274" lon="2.99085">
        <ele>555</ele>
        <time>2014-03-18T09:00:48Z</time>
      </trkpt>
      <trkpt lat="44.12745" lon="2.99084">
        <ele>556</ele>
        <time>2014-03-18T09:00:52Z</time>
      </trkpt>
      <trkpt lat="44.12749" lon="2.99082">
        <ele>557</ele>
        <time>2014-03-18T09:00:56Z</time>
      </trkpt>
      <trkpt lat="44.12755" lon="2.9908">
        <ele>558</ele>
        <time>2014-03-18T09:01:01Z</time>
      </trkpt>
      <trkpt lat="44.1276" lon="2.99079">
        <ele>559</ele>
        <time>2014-03-18T09:01:05Z</time>
      </trkpt>
      <trkpt lat="44.12765" lon="2.99076">
        <ele>560</ele>
        <time>2014-03-18T09:01:10Z</time>
      </trkpt>
      <trkpt lat="44.12769" lon="2.99073">
        <ele>561</ele>
        <time>2014-03-18T09:01:13Z</time>
      </trkpt>
      <trkpt lat="44.12773" lon="2.99069">
        <ele>560</ele>
        <time>2014-03-18T09:01:19Z</time>
      </trkpt>
      <trkpt lat="44.12779" lon="2.99068">
        <ele>559</ele>
        <time>2014-03-18T09:01:23Z</time>
      </trkpt>
      <trkpt lat="44.12784" lon="2.99066">
        <ele>559</ele>
        <time>2014-03-18T09:01:28Z</time>
      </trkpt>
      <trkpt lat="44.12789" lon="2.99065">
        <ele>559</ele>
        <time>2014-03-18T09:01:32Z</time>
      </trkpt>
      <trkpt lat="44.12794" lon="2.99063">
        <ele>557</ele>
        <time>2014-03-18T09:01:36Z</time>
      </trkpt>
      <trkpt lat="44.12798" lon="2.99062">
        <ele>556</ele>
        <time>2014-03-18T09:01:41Z</time>
      </trkpt>
      <trkpt lat="44.12803" lon="2.99059">
        <ele>556</ele>
        <time>2014-03-18T09:01:45Z</time>
      </trkpt>
      <trkpt lat="44.12808" lon="2.99055">
        <ele>557</ele>
        <time>2014-03-18T09:01:48Z</time>
      </trkpt>
      <trkpt lat="44.12812" lon="2.99052">
        <ele>557</ele>
        <time>2014-03-18T09:01:51Z</time>
      </trkpt>
      <trkpt lat="44.12818" lon="2.99047">
        <ele>557</ele>
        <time>2014-03-18T09:01:55Z</time>
      </trkpt>
      <trkpt lat="44.12823" lon="2.99044">
        <ele>558</ele>
        <time>2014-03-18T09:01:58Z</time>
      </trkpt>
      <trkpt lat="44.12827" lon="2.9904">
        <ele>559</ele>
        <time>2014-03-18T09:02:01Z</time>
      </trkpt>
      <trkpt lat="44.1283" lon="2.99036">
        <ele>559</ele>
        <time>2014-03-18T09:02:08Z</time>
      </trkpt>
      <trkpt lat="44.12835" lon="2.99038">
        <ele>560</ele>
        <time>2014-03-18T09:02:13Z</time>
      </trkpt>
      <trkpt lat="44.12839" lon="2.99039">
        <ele>561</ele>
        <time>2014-03-18T09:02:21Z</time>
      </trkpt>
      <trkpt lat="44.12841" lon="2.99032">
        <ele>561</ele>
        <time>2014-03-18T09:02:35Z</time>
      </trkpt>
      <trkpt lat="44.12846" lon="2.99029">
        <ele>560</ele>
        <time>2014-03-18T09:02:38Z</time>
      </trkpt>
      <trkpt lat="44.1285" lon="2.9903">
        <ele>561</ele>
        <time>2014-03-18T09:02:47Z</time>
      </trkpt>
      <trkpt lat="44.12845" lon="2.99037">
        <ele>562</ele>
        <time>2014-03-18T09:02:58Z</time>
      </trkpt>
      <trkpt lat="44.1284" lon="2.99038">
        <ele>562</ele>
        <time>2014-03-18T09:03:05Z</time>
      </trkpt>
      <trkpt lat="44.12838" lon="2.99034">
        <ele>564</ele>
        <time>2014-03-18T09:03:28Z</time>
      </trkpt>
      <trkpt lat="44.12845" lon="2.99032">
        <ele>564</ele>
        <time>2014-03-18T09:03:32Z</time>
      </trkpt>
      <trkpt lat="44.12849" lon="2.99033">
        <ele>564</ele>
        <time>2014-03-18T09:03:34Z</time>
      </trkpt>
      <trkpt lat="44.12845" lon="2.99035">
        <ele>565</ele>
        <time>2014-03-18T09:03:53Z</time>
      </trkpt>
      <trkpt lat="44.12843" lon="2.99032">
        <ele>566</ele>
        <time>2014-03-18T09:04:02Z</time>
      </trkpt>
      <trkpt lat="44.12847" lon="2.99027">
        <ele>566</ele>
        <time>2014-03-18T09:04:24Z</time>
      </trkpt>
      <trkpt lat="44.12852" lon="2.99027">
        <ele>566</ele>
        <time>2014-03-18T09:04:29Z</time>
      </trkpt>
      <trkpt lat="44.12856" lon="2.99024">
        <ele>568</ele>
        <time>2014-03-18T09:04:35Z</time>
      </trkpt>
      <trkpt lat="44.12861" lon="2.99023">
        <ele>569</ele>
        <time>2014-03-18T09:04:40Z</time>
      </trkpt>
      <trkpt lat="44.12866" lon="2.99021">
        <ele>570</ele>
        <time>2014-03-18T09:04:45Z</time>
      </trkpt>
      <trkpt lat="44.1287" lon="2.99019">
        <ele>570</ele>
        <time>2014-03-18T09:04:50Z</time>
      </trkpt>
      <trkpt lat="44.12875" lon="2.99017">
        <ele>567</ele>
        <time>2014-03-18T09:04:56Z</time>
      </trkpt>
      <trkpt lat="44.12878" lon="2.99012">
        <ele>567</ele>
        <time>2014-03-18T09:05:00Z</time>
      </trkpt>
      <trkpt lat="44.12882" lon="2.99009">
        <ele>566</ele>
        <time>2014-03-18T09:05:06Z</time>
      </trkpt>
      <trkpt lat="44.12888" lon="2.99006">
        <ele>566</ele>
        <time>2014-03-18T09:05:09Z</time>
      </trkpt>
      <trkpt lat="44.12893" lon="2.99006">
        <ele>565</ele>
        <time>2014-03-18T09:05:13Z</time>
      </trkpt>
      <trkpt lat="44.12899" lon="2.99008">
        <ele>565</ele>
        <time>2014-03-18T09:05:17Z</time>
      </trkpt>
      <trkpt lat="44.12903" lon="2.99009">
        <ele>565</ele>
        <time>2014-03-18T09:05:21Z</time>
      </trkpt>
      <trkpt lat="44.12909" lon="2.99006">
        <ele>566</ele>
        <time>2014-03-18T09:05:26Z</time>
      </trkpt>
      <trkpt lat="44.12913" lon="2.99003">
        <ele>566</ele>
        <time>2014-03-18T09:05:29Z</time>
      </trkpt>
      <trkpt lat="44.12918" lon="2.99001">
        <ele>566</ele>
        <time>2014-03-18T09:05:34Z</time>
      </trkpt>
      <trkpt lat="44.12922" lon="2.98997">
        <ele>567</ele>
        <time>2014-03-18T09:05:39Z</time>
      </trkpt>
      <trkpt lat="44.12926" lon="2.98995">
        <ele>567</ele>
        <time>2014-03-18T09:05:43Z</time>
      </trkpt>
      <trkpt lat="44.12932" lon="2.98995">
        <ele>567</ele>
        <time>2014-03-18T09:05:47Z</time>
      </trkpt>
      <trkpt lat="44.12937" lon="2.98996">
        <ele>567</ele>
        <time>2014-03-18T09:05:50Z</time>
      </trkpt>
      <trkpt lat="44.12943" lon="2.98996">
        <ele>567</ele>
        <time>2014-03-18T09:05:54Z</time>
      </trkpt>
      <trkpt lat="44.12948" lon="2.98993">
        <ele>567</ele>
        <time>2014-03-18T09:05:58Z</time>
      </trkpt>
      <trkpt lat="44.12952" lon="2.98989">
        <ele>568</ele>
        <time>2014-03-18T09:06:02Z</time>
      </trkpt>
      <trkpt lat="44.12957" lon="2.98989">
        <ele>568</ele>
        <time>2014-03-18T09:06:07Z</time>
      </trkpt>
      <trkpt lat="44.12962" lon="2.98986">
        <ele>568</ele>
        <time>2014-03-18T09:06:13Z</time>
      </trkpt>
      <trkpt lat="44.12967" lon="2.98985">
        <ele>568</ele>
        <time>2014-03-18T09:06:16Z</time>
      </trkpt>
      <trkpt lat="44.12972" lon="2.98985">
        <ele>570</ele>
        <time>2014-03-18T09:06:19Z</time>
      </trkpt>
      <trkpt lat="44.12977" lon="2.98985">
        <ele>570</ele>
        <time>2014-03-18T09:06:22Z</time>
      </trkpt>
      <trkpt lat="44.12983" lon="2.98984">
        <ele>572</ele>
        <time>2014-03-18T09:06:26Z</time>
      </trkpt>
      <trkpt lat="44.12988" lon="2.98984">
        <ele>573</ele>
        <time>2014-03-18T09:06:29Z</time>
      </trkpt>
      <trkpt lat="44.12993" lon="2.98983">
        <ele>574</ele>
        <time>2014-03-18T09:06:34Z</time>
      </trkpt>
      <trkpt lat="44.12998" lon="2.9898">
        <ele>576</ele>
        <time>2014-03-18T09:06:39Z</time>
      </trkpt>
      <trkpt lat="44.13002" lon="2.98977">
        <ele>577</ele>
        <time>2014-03-18T09:06:43Z</time>
      </trkpt>
      <trkpt lat="44.13008" lon="2.98976">
        <ele>577</ele>
        <time>2014-03-18T09:06:48Z</time>
      </trkpt>
      <trkpt lat="44.13013" lon="2.98977">
        <ele>577</ele>
        <time>2014-03-18T09:06:53Z</time>
      </trkpt>
      <trkpt lat="44.13019" lon="2.98976">
        <ele>577</ele>
        <time>2014-03-18T09:06:58Z</time>
      </trkpt>
      <trkpt lat="44.13023" lon="2.98974">
        <ele>578</ele>
        <time>2014-03-18T09:07:01Z</time>
      </trkpt>
      <trkpt lat="44.13028" lon="2.98975">
        <ele>578</ele>
        <time>2014-03-18T09:07:04Z</time>
      </trkpt>
      <trkpt lat="44.13032" lon="2.98979">
        <ele>578</ele>
        <time>2014-03-18T09:07:06Z</time>
      </trkpt>
      <trkpt lat="44.13035" lon="2.98986">
        <ele>578</ele>
        <time>2014-03-18T09:07:08Z</time>
      </trkpt>
      <trkpt lat="44.13038" lon="2.98991">
        <ele>579</ele>
        <time>2014-03-18T09:07:10Z</time>
      </trkpt>
      <trkpt lat="44.1304" lon="2.98997">
        <ele>579</ele>
        <time>2014-03-18T09:07:13Z</time>
      </trkpt>
      <trkpt lat="44.13042" lon="2.99003">
        <ele>580</ele>
        <time>2014-03-18T09:07:18Z</time>
      </trkpt>
      <trkpt lat="44.13045" lon="2.99003">
        <ele>581</ele>
        <time>2014-03-18T09:07:24Z</time>
      </trkpt>
      <trkpt lat="44.13049" lon="2.99002">
        <ele>581</ele>
        <time>2014-03-18T09:07:28Z</time>
      </trkpt>
      <trkpt lat="44.13055" lon="2.99004">
        <ele>581</ele>
        <time>2014-03-18T09:07:32Z</time>
      </trkpt>
      <trkpt lat="44.1306" lon="2.99004">
        <ele>581</ele>
        <time>2014-03-18T09:07:35Z</time>
      </trkpt>
      <trkpt lat="44.13065" lon="2.99006">
        <ele>582</ele>
        <time>2014-03-18T09:07:38Z</time>
      </trkpt>
      <trkpt lat="44.13069" lon="2.99008">
        <ele>582</ele>
        <time>2014-03-18T09:07:41Z</time>
      </trkpt>
      <trkpt lat="44.13075" lon="2.99011">
        <ele>582</ele>
        <time>2014-03-18T09:07:45Z</time>
      </trkpt>
      <trkpt lat="44.1308" lon="2.99015">
        <ele>583</ele>
        <time>2014-03-18T09:07:48Z</time>
      </trkpt>
      <trkpt lat="44.13084" lon="2.99018">
        <ele>583</ele>
        <time>2014-03-18T09:07:50Z</time>
      </trkpt>
      <trkpt lat="44.13088" lon="2.9902">
        <ele>583</ele>
        <time>2014-03-18T09:07:53Z</time>
      </trkpt>
      <trkpt lat="44.13092" lon="2.99025">
        <ele>582</ele>
        <time>2014-03-18T09:07:57Z</time>
      </trkpt>
      <trkpt lat="44.13097" lon="2.99027">
        <ele>582</ele>
        <time>2014-03-18T09:08:00Z</time>
      </trkpt>
      <trkpt lat="44.13102" lon="2.99029">
        <ele>583</ele>
        <time>2014-03-18T09:08:04Z</time>
      </trkpt>
      <trkpt lat="44.13107" lon="2.9903">
        <ele>582</ele>
        <time>2014-03-18T09:08:08Z</time>
      </trkpt>
      <trkpt lat="44.13111" lon="2.99033">
        <ele>581</ele>
        <time>2014-03-18T09:08:11Z</time>
      </trkpt>
      <trkpt lat="44.13115" lon="2.99037">
        <ele>581</ele>
        <time>2014-03-18T09:08:14Z</time>
      </trkpt>
      <trkpt lat="44.13119" lon="2.99041">
        <ele>581</ele>
        <time>2014-03-18T09:08:17Z</time>
      </trkpt>
      <trkpt lat="44.13124" lon="2.99046">
        <ele>580</ele>
        <time>2014-03-18T09:08:21Z</time>
      </trkpt>
      <trkpt lat="44.13129" lon="2.99048">
        <ele>580</ele>
        <time>2014-03-18T09:08:24Z</time>
      </trkpt>
      <trkpt lat="44.13133" lon="2.99053">
        <ele>583</ele>
        <time>2014-03-18T09:08:30Z</time>
      </trkpt>
      <trkpt lat="44.13138" lon="2.99056">
        <ele>586</ele>
        <time>2014-03-18T09:08:34Z</time>
      </trkpt>
      <trkpt lat="44.13143" lon="2.9906">
        <ele>586</ele>
        <time>2014-03-18T09:08:38Z</time>
      </trkpt>
      <trkpt lat="44.13147" lon="2.99065">
        <ele>590</ele>
        <time>2014-03-18T09:08:46Z</time>
      </trkpt>
      <trkpt lat="44.13153" lon="2.99068">
        <ele>592</ele>
        <time>2014-03-18T09:08:50Z</time>
      </trkpt>
      <trkpt lat="44.13158" lon="2.9907">
        <ele>593</ele>
        <time>2014-03-18T09:08:54Z</time>
      </trkpt>
      <trkpt lat="44.1316" lon="2.99075">
        <ele>595</ele>
        <time>2014-03-18T09:08:59Z</time>
      </trkpt>
      <trkpt lat="44.13165" lon="2.99078">
        <ele>596</ele>
        <time>2014-03-18T09:09:03Z</time>
      </trkpt>
      <trkpt lat="44.1317" lon="2.9908">
        <ele>597</ele>
        <time>2014-03-18T09:09:06Z</time>
      </trkpt>
      <trkpt lat="44.13176" lon="2.99082">
        <ele>597</ele>
        <time>2014-03-18T09:09:10Z</time>
      </trkpt>
      <trkpt lat="44.13181" lon="2.99084">
        <ele>597</ele>
        <time>2014-03-18T09:09:13Z</time>
      </trkpt>
      <trkpt lat="44.13185" lon="2.99087">
        <ele>596</ele>
        <time>2014-03-18T09:09:16Z</time>
      </trkpt>
      <trkpt lat="44.13186" lon="2.99094">
        <ele>599</ele>
        <time>2014-03-18T09:09:22Z</time>
      </trkpt>
      <trkpt lat="44.13185" lon="2.99102">
        <ele>600</ele>
        <time>2014-03-18T09:09:26Z</time>
      </trkpt>
      <trkpt lat="44.13182" lon="2.99109">
        <ele>601</ele>
        <time>2014-03-18T09:09:31Z</time>
      </trkpt>
      <trkpt lat="44.13183" lon="2.99115">
        <ele>600</ele>
        <time>2014-03-18T09:09:35Z</time>
      </trkpt>
      <trkpt lat="44.13183" lon="2.99122">
        <ele>600</ele>
        <time>2014-03-18T09:09:39Z</time>
      </trkpt>
      <trkpt lat="44.13181" lon="2.9913">
        <ele>599</ele>
        <time>2014-03-18T09:09:43Z</time>
      </trkpt>
      <trkpt lat="44.13179" lon="2.99136">
        <ele>598</ele>
        <time>2014-03-18T09:09:46Z</time>
      </trkpt>
      <trkpt lat="44.13179" lon="2.99143">
        <ele>596</ele>
        <time>2014-03-18T09:09:50Z</time>
      </trkpt>
      <trkpt lat="44.13178" lon="2.9915">
        <ele>593</ele>
        <time>2014-03-18T09:09:57Z</time>
      </trkpt>
      <trkpt lat="44.13179" lon="2.99157">
        <ele>592</ele>
        <time>2014-03-18T09:10:01Z</time>
      </trkpt>
      <trkpt lat="44.13179" lon="2.99164">
        <ele>590</ele>
        <time>2014-03-18T09:10:05Z</time>
      </trkpt>
      <trkpt lat="44.13179" lon="2.99171">
        <ele>590</ele>
        <time>2014-03-18T09:10:07Z</time>
      </trkpt>
      <trkpt lat="44.13179" lon="2.99179">
        <ele>589</ele>
        <time>2014-03-18T09:10:10Z</time>
      </trkpt>
      <trkpt lat="44.13177" lon="2.99186">
        <ele>588</ele>
        <time>2014-03-18T09:10:15Z</time>
      </trkpt>
      <trkpt lat="44.13176" lon="2.99192">
        <ele>587</ele>
        <time>2014-03-18T09:10:22Z</time>
      </trkpt>
      <trkpt lat="44.13175" lon="2.99198">
        <ele>588</ele>
        <time>2014-03-18T09:10:27Z</time>
      </trkpt>
      <trkpt lat="44.13178" lon="2.99207">
        <ele>588</ele>
        <time>2014-03-18T09:10:31Z</time>
      </trkpt>
      <trkpt lat="44.13181" lon="2.99214">
        <ele>588</ele>
        <time>2014-03-18T09:10:34Z</time>
      </trkpt>
      <trkpt lat="44.13181" lon="2.9922">
        <ele>588</ele>
        <time>2014-03-18T09:10:37Z</time>
      </trkpt>
      <trkpt lat="44.13179" lon="2.99227">
        <ele>587</ele>
        <time>2014-03-18T09:10:40Z</time>
      </trkpt>
      <trkpt lat="44.13176" lon="2.99234">
        <ele>585</ele>
        <time>2014-03-18T09:10:43Z</time>
      </trkpt>
      <trkpt lat="44.13173" lon="2.99241">
        <ele>585</ele>
        <time>2014-03-18T09:10:46Z</time>
      </trkpt>
      <trkpt lat="44.13173" lon="2.99248">
        <ele>586</ele>
        <time>2014-03-18T09:10:53Z</time>
      </trkpt>
      <trkpt lat="44.13173" lon="2.99255">
        <ele>587</ele>
        <time>2014-03-18T09:11:00Z</time>
      </trkpt>
      <trkpt lat="44.13176" lon="2.99261">
        <ele>588</ele>
        <time>2014-03-18T09:11:04Z</time>
      </trkpt>
      <trkpt lat="44.1318" lon="2.99265">
        <ele>589</ele>
        <time>2014-03-18T09:11:07Z</time>
      </trkpt>
      <trkpt lat="44.13183" lon="2.99271">
        <ele>589</ele>
        <time>2014-03-18T09:11:10Z</time>
      </trkpt>
      <trkpt lat="44.13185" lon="2.99277">
        <ele>589</ele>
        <time>2014-03-18T09:11:15Z</time>
      </trkpt>
      <trkpt lat="44.13186" lon="2.99284">
        <ele>589</ele>
        <time>2014-03-18T09:11:20Z</time>
      </trkpt>
      <trkpt lat="44.13186" lon="2.99292">
        <ele>589</ele>
        <time>2014-03-18T09:11:24Z</time>
      </trkpt>
      <trkpt lat="44.13185" lon="2.99298">
        <ele>588</ele>
        <time>2014-03-18T09:11:29Z</time>
      </trkpt>
      <trkpt lat="44.13185" lon="2.99305">
        <ele>586</ele>
        <time>2014-03-18T09:11:33Z</time>
      </trkpt>
      <trkpt lat="44.13185" lon="2.99312">
        <ele>586</ele>
        <time>2014-03-18T09:11:38Z</time>
      </trkpt>
      <trkpt lat="44.13187" lon="2.99317">
        <ele>585</ele>
        <time>2014-03-18T09:11:42Z</time>
      </trkpt>
      <trkpt lat="44.13189" lon="2.99324">
        <ele>585</ele>
        <time>2014-03-18T09:11:45Z</time>
      </trkpt>
      <trkpt lat="44.13191" lon="2.99331">
        <ele>585</ele>
        <time>2014-03-18T09:11:49Z</time>
      </trkpt>
      <trkpt lat="44.13193" lon="2.99336">
        <ele>585</ele>
        <time>2014-03-18T09:11:53Z</time>
      </trkpt>
      <trkpt lat="44.13194" lon="2.99343">
        <ele>585</ele>
        <time>2014-03-18T09:11:56Z</time>
      </trkpt>
      <trkpt lat="44.13195" lon="2.99351">
        <ele>586</ele>
        <time>2014-03-18T09:12:00Z</time>
      </trkpt>
      <trkpt lat="44.13197" lon="2.99357">
        <ele>586</ele>
        <time>2014-03-18T09:12:06Z</time>
      </trkpt>
      <trkpt lat="44.13199" lon="2.99362">
        <ele>585</ele>
        <time>2014-03-18T09:12:12Z</time>
      </trkpt>
      <trkpt lat="44.13202" lon="2.99368">
        <ele>583</ele>
        <time>2014-03-18T09:12:16Z</time>
      </trkpt>
      <trkpt lat="44.13206" lon="2.99372">
        <ele>584</ele>
        <time>2014-03-18T09:12:22Z</time>
      </trkpt>
      <trkpt lat="44.13209" lon="2.99378">
        <ele>584</ele>
        <time>2014-03-18T09:12:26Z</time>
      </trkpt>
      <trkpt lat="44.1321" lon="2.99384">
        <ele>585</ele>
        <time>2014-03-18T09:12:29Z</time>
      </trkpt>
      <trkpt lat="44.1321" lon="2.99391">
        <ele>585</ele>
        <time>2014-03-18T09:12:32Z</time>
      </trkpt>
      <trkpt lat="44.13213" lon="2.99399">
        <ele>585</ele>
        <time>2014-03-18T09:12:38Z</time>
      </trkpt>
      <trkpt lat="44.13216" lon="2.99405">
        <ele>586</ele>
        <time>2014-03-18T09:12:41Z</time>
      </trkpt>
      <trkpt lat="44.13219" lon="2.99411">
        <ele>586</ele>
        <time>2014-03-18T09:12:45Z</time>
      </trkpt>
      <trkpt lat="44.13222" lon="2.99416">
        <ele>586</ele>
        <time>2014-03-18T09:12:48Z</time>
      </trkpt>
      <trkpt lat="44.13226" lon="2.9942">
        <ele>587</ele>
        <time>2014-03-18T09:12:51Z</time>
      </trkpt>
      <trkpt lat="44.1323" lon="2.99426">
        <ele>588</ele>
        <time>2014-03-18T09:12:54Z</time>
      </trkpt>
      <trkpt lat="44.13233" lon="2.99433">
        <ele>588</ele>
        <time>2014-03-18T09:12:58Z</time>
      </trkpt>
      <trkpt lat="44.13232" lon="2.99439">
        <ele>589</ele>
        <time>2014-03-18T09:13:04Z</time>
      </trkpt>
      <trkpt lat="44.13233" lon="2.99446">
        <ele>590</ele>
        <time>2014-03-18T09:13:11Z</time>
      </trkpt>
      <trkpt lat="44.13239" lon="2.9945">
        <ele>590</ele>
        <time>2014-03-18T09:13:15Z</time>
      </trkpt>
      <trkpt lat="44.13244" lon="2.99453">
        <ele>590</ele>
        <time>2014-03-18T09:13:18Z</time>
      </trkpt>
      <trkpt lat="44.13248" lon="2.99457">
        <ele>591</ele>
        <time>2014-03-18T09:13:21Z</time>
      </trkpt>
      <trkpt lat="44.1325" lon="2.99463">
        <ele>592</ele>
        <time>2014-03-18T09:13:24Z</time>
      </trkpt>
      <trkpt lat="44.13251" lon="2.9947">
        <ele>593</ele>
        <time>2014-03-18T09:13:27Z</time>
      </trkpt>
      <trkpt lat="44.13251" lon="2.99477">
        <ele>595</ele>
        <time>2014-03-18T09:13:31Z</time>
      </trkpt>
      <trkpt lat="44.13253" lon="2.99484">
        <ele>595</ele>
        <time>2014-03-18T09:13:37Z</time>
      </trkpt>
      <trkpt lat="44.13256" lon="2.99489">
        <ele>596</ele>
        <time>2014-03-18T09:13:40Z</time>
      </trkpt>
      <trkpt lat="44.13259" lon="2.99494">
        <ele>596</ele>
        <time>2014-03-18T09:13:44Z</time>
      </trkpt>
      <trkpt lat="44.1326" lon="2.995">
        <ele>597</ele>
        <time>2014-03-18T09:13:48Z</time>
      </trkpt>
      <trkpt lat="44.13261" lon="2.99506">
        <ele>598</ele>
        <time>2014-03-18T09:13:51Z</time>
      </trkpt>
      <trkpt lat="44.13265" lon="2.99514">
        <ele>601</ele>
        <time>2014-03-18T09:13:55Z</time>
      </trkpt>
      <trkpt lat="44.13266" lon="2.99521">
        <ele>603</ele>
        <time>2014-03-18T09:13:59Z</time>
      </trkpt>
      <trkpt lat="44.13265" lon="2.99528">
        <ele>605</ele>
        <time>2014-03-18T09:14:04Z</time>
      </trkpt>
      <trkpt lat="44.13268" lon="2.99536">
        <ele>607</ele>
        <time>2014-03-18T09:14:08Z</time>
      </trkpt>
      <trkpt lat="44.1327" lon="2.99542">
        <ele>607</ele>
        <time>2014-03-18T09:14:11Z</time>
      </trkpt>
      <trkpt lat="44.13273" lon="2.99548">
        <ele>608</ele>
        <time>2014-03-18T09:14:15Z</time>
      </trkpt>
      <trkpt lat="44.13277" lon="2.99555">
        <ele>609</ele>
        <time>2014-03-18T09:14:19Z</time>
      </trkpt>
      <trkpt lat="44.13282" lon="2.99559">
        <ele>608</ele>
        <time>2014-03-18T09:14:23Z</time>
      </trkpt>
      <trkpt lat="44.13284" lon="2.99565">
        <ele>607</ele>
        <time>2014-03-18T09:14:27Z</time>
      </trkpt>
      <trkpt lat="44.13287" lon="2.99572">
        <ele>606</ele>
        <time>2014-03-18T09:14:31Z</time>
      </trkpt>
      <trkpt lat="44.1329" lon="2.99578">
        <ele>604</ele>
        <time>2014-03-18T09:14:35Z</time>
      </trkpt>
      <trkpt lat="44.13294" lon="2.99581">
        <ele>603</ele>
        <time>2014-03-18T09:14:40Z</time>
      </trkpt>
      <trkpt lat="44.13298" lon="2.99585">
        <ele>603</ele>
        <time>2014-03-18T09:14:43Z</time>
      </trkpt>
      <trkpt lat="44.13303" lon="2.99592">
        <ele>602</ele>
        <time>2014-03-18T09:14:47Z</time>
      </trkpt>
      <trkpt lat="44.13308" lon="2.99597">
        <ele>601</ele>
        <time>2014-03-18T09:14:49Z</time>
      </trkpt>
      <trkpt lat="44.13313" lon="2.99598">
        <ele>600</ele>
        <time>2014-03-18T09:14:52Z</time>
      </trkpt>
      <trkpt lat="44.13318" lon="2.996">
        <ele>599</ele>
        <time>2014-03-18T09:14:55Z</time>
      </trkpt>
      <trkpt lat="44.13321" lon="2.99605">
        <ele>599</ele>
        <time>2014-03-18T09:15:03Z</time>
      </trkpt>
      <trkpt lat="44.13323" lon="2.99611">
        <ele>601</ele>
        <time>2014-03-18T09:15:11Z</time>
      </trkpt>
      <trkpt lat="44.13328" lon="2.99614">
        <ele>602</ele>
        <time>2014-03-18T09:15:17Z</time>
      </trkpt>
      <trkpt lat="44.13333" lon="2.99616">
        <ele>603</ele>
        <time>2014-03-18T09:15:20Z</time>
      </trkpt>
      <trkpt lat="44.13338" lon="2.9962">
        <ele>603</ele>
        <time>2014-03-18T09:15:24Z</time>
      </trkpt>
      <trkpt lat="44.13343" lon="2.99624">
        <ele>605</ele>
        <time>2014-03-18T09:15:28Z</time>
      </trkpt>
      <trkpt lat="44.13347" lon="2.99625">
        <ele>606</ele>
        <time>2014-03-18T09:15:36Z</time>
      </trkpt>
      <trkpt lat="44.13352" lon="2.99627">
        <ele>607</ele>
        <time>2014-03-18T09:15:41Z</time>
      </trkpt>
      <trkpt lat="44.13357" lon="2.99631">
        <ele>608</ele>
        <time>2014-03-18T09:15:45Z</time>
      </trkpt>
      <trkpt lat="44.13362" lon="2.99634">
        <ele>609</ele>
        <time>2014-03-18T09:15:50Z</time>
      </trkpt>
      <trkpt lat="44.13366" lon="2.99638">
        <ele>608</ele>
        <time>2014-03-18T09:15:55Z</time>
      </trkpt>
      <trkpt lat="44.13371" lon="2.99638">
        <ele>608</ele>
        <time>2014-03-18T09:15:59Z</time>
      </trkpt>
      <trkpt lat="44.13376" lon="2.99638">
        <ele>607</ele>
        <time>2014-03-18T09:16:03Z</time>
      </trkpt>
      <trkpt lat="44.13382" lon="2.99638">
        <ele>606</ele>
        <time>2014-03-18T09:16:06Z</time>
      </trkpt>
      <trkpt lat="44.13387" lon="2.99638">
        <ele>606</ele>
        <time>2014-03-18T09:16:09Z</time>
      </trkpt>
      <trkpt lat="44.13391" lon="2.99641">
        <ele>606</ele>
        <time>2014-03-18T09:16:13Z</time>
      </trkpt>
      <trkpt lat="44.13395" lon="2.99645">
        <ele>607</ele>
        <time>2014-03-18T09:16:17Z</time>
      </trkpt>
      <trkpt lat="44.13399" lon="2.99649">
        <ele>607</ele>
        <time>2014-03-18T09:16:20Z</time>
      </trkpt>
      <trkpt lat="44.13403" lon="2.99654">
        <ele>608</ele>
        <time>2014-03-18T09:16:23Z</time>
      </trkpt>
      <trkpt lat="44.13407" lon="2.99657">
        <ele>608</ele>
        <time>2014-03-18T09:16:26Z</time>
      </trkpt>
      <trkpt lat="44.13411" lon="2.99661">
        <ele>608</ele>
        <time>2014-03-18T09:16:32Z</time>
      </trkpt>
      <trkpt lat="44.13413" lon="2.99666">
        <ele>608</ele>
        <time>2014-03-18T09:16:40Z</time>
      </trkpt>
      <trkpt lat="44.13418" lon="2.99668">
        <ele>608</ele>
        <time>2014-03-18T09:16:45Z</time>
      </trkpt>
      <trkpt lat="44.13423" lon="2.99671">
        <ele>608</ele>
        <time>2014-03-18T09:16:52Z</time>
      </trkpt>
      <trkpt lat="44.13426" lon="2.99675">
        <ele>608</ele>
        <time>2014-03-18T09:16:56Z</time>
      </trkpt>
      <trkpt lat="44.13431" lon="2.99678">
        <ele>609</ele>
        <time>2014-03-18T09:17:00Z</time>
      </trkpt>
      <trkpt lat="44.13427" lon="2.9968">
        <ele>610</ele>
        <time>2014-03-18T09:17:32Z</time>
      </trkpt>
      <trkpt lat="44.13427" lon="2.99678">
        <ele>614</ele>
        <time>2014-03-18T09:18:11Z</time>
      </trkpt>
      <trkpt lat="44.13429" lon="2.9968">
        <ele>618</ele>
        <time>2014-03-18T09:18:39Z</time>
      </trkpt>
      <trkpt lat="44.13431" lon="2.99682">
        <ele>618</ele>
        <time>2014-03-18T09:19:37Z</time>
      </trkpt>
      <trkpt lat="44.13433" lon="2.99686">
        <ele>617</ele>
        <time>2014-03-18T09:19:45Z</time>
      </trkpt>
      <trkpt lat="44.13431" lon="2.99681">
        <ele>609</ele>
        <time>2014-03-18T09:20:05Z</time>
      </trkpt>
      <trkpt lat="44.13431" lon="2.99681">
        <ele>608</ele>
        <time>2014-03-18T09:21:09Z</time>
      </trkpt>
      <trkpt lat="44.13437" lon="2.99683">
        <ele>608</ele>
        <time>2014-03-18T09:21:18Z</time>
      </trkpt>
      <trkpt lat="44.13446" lon="2.99686">
        <ele>615</ele>
        <time>2014-03-18T09:21:27Z</time>
      </trkpt>
      <trkpt lat="44.13451" lon="2.99685">
        <ele>618</ele>
        <time>2014-03-18T09:21:33Z</time>
      </trkpt>
      <trkpt lat="44.13456" lon="2.99684">
        <ele>619</ele>
        <time>2014-03-18T09:21:36Z</time>
      </trkpt>
      <trkpt lat="44.13462" lon="2.99683">
        <ele>620</ele>
        <time>2014-03-18T09:21:40Z</time>
      </trkpt>
      <trkpt lat="44.13467" lon="2.99681">
        <ele>619</ele>
        <time>2014-03-18T09:21:44Z</time>
      </trkpt>
      <trkpt lat="44.13472" lon="2.99681">
        <ele>620</ele>
        <time>2014-03-18T09:21:52Z</time>
      </trkpt>
      <trkpt lat="44.13477" lon="2.99678">
        <ele>618</ele>
        <time>2014-03-18T09:22:02Z</time>
      </trkpt>
      <trkpt lat="44.13482" lon="2.99677">
        <ele>617</ele>
        <time>2014-03-18T09:22:06Z</time>
      </trkpt>
      <trkpt lat="44.13487" lon="2.99678">
        <ele>616</ele>
        <time>2014-03-18T09:22:10Z</time>
      </trkpt>
      <trkpt lat="44.13493" lon="2.99678">
        <ele>617</ele>
        <time>2014-03-18T09:22:14Z</time>
      </trkpt>
      <trkpt lat="44.13498" lon="2.9968">
        <ele>617</ele>
        <time>2014-03-18T09:22:17Z</time>
      </trkpt>
      <trkpt lat="44.13502" lon="2.9968">
        <ele>618</ele>
        <time>2014-03-18T09:22:20Z</time>
      </trkpt>
      <trkpt lat="44.13507" lon="2.99681">
        <ele>618</ele>
        <time>2014-03-18T09:22:26Z</time>
      </trkpt>
      <trkpt lat="44.13511" lon="2.9968">
        <ele>618</ele>
        <time>2014-03-18T09:22:31Z</time>
      </trkpt>
      <trkpt lat="44.13516" lon="2.99683">
        <ele>617</ele>
        <time>2014-03-18T09:22:35Z</time>
      </trkpt>
      <trkpt lat="44.13521" lon="2.99685">
        <ele>617</ele>
        <time>2014-03-18T09:22:39Z</time>
      </trkpt>
      <trkpt lat="44.13525" lon="2.99687">
        <ele>617</ele>
        <time>2014-03-18T09:22:42Z</time>
      </trkpt>
      <trkpt lat="44.1353" lon="2.99691">
        <ele>617</ele>
        <time>2014-03-18T09:22:46Z</time>
      </trkpt>
      <trkpt lat="44.13531" lon="2.99698">
        <ele>618</ele>
        <time>2014-03-18T09:22:51Z</time>
      </trkpt>
      <trkpt lat="44.13532" lon="2.99705">
        <ele>616</ele>
        <time>2014-03-18T09:22:57Z</time>
      </trkpt>
      <trkpt lat="44.13531" lon="2.99712">
        <ele>615</ele>
        <time>2014-03-18T09:23:01Z</time>
      </trkpt>
      <trkpt lat="44.13529" lon="2.99718">
        <ele>616</ele>
        <time>2014-03-18T09:23:05Z</time>
      </trkpt>
      <trkpt lat="44.1353" lon="2.99725">
        <ele>613</ele>
        <time>2014-03-18T09:23:11Z</time>
      </trkpt>
      <trkpt lat="44.13529" lon="2.99733">
        <ele>612</ele>
        <time>2014-03-18T09:23:17Z</time>
      </trkpt>
      <trkpt lat="44.13528" lon="2.9974">
        <ele>611</ele>
        <time>2014-03-18T09:23:22Z</time>
      </trkpt>
      <trkpt lat="44.13526" lon="2.99746">
        <ele>612</ele>
        <time>2014-03-18T09:23:28Z</time>
      </trkpt>
      <trkpt lat="44.13525" lon="2.99754">
        <ele>614</ele>
        <time>2014-03-18T09:23:33Z</time>
      </trkpt>
      <trkpt lat="44.13527" lon="2.99761">
        <ele>615</ele>
        <time>2014-03-18T09:23:37Z</time>
      </trkpt>
      <trkpt lat="44.13528" lon="2.99769">
        <ele>616</ele>
        <time>2014-03-18T09:23:41Z</time>
      </trkpt>
      <trkpt lat="44.13527" lon="2.99775">
        <ele>618</ele>
        <time>2014-03-18T09:23:45Z</time>
      </trkpt>
      <trkpt lat="44.13527" lon="2.99782">
        <ele>619</ele>
        <time>2014-03-18T09:23:49Z</time>
      </trkpt>
      <trkpt lat="44.13529" lon="2.99788">
        <ele>619</ele>
        <time>2014-03-18T09:23:54Z</time>
      </trkpt>
      <trkpt lat="44.13528" lon="2.99796">
        <ele>620</ele>
        <time>2014-03-18T09:23:59Z</time>
      </trkpt>
      <trkpt lat="44.13529" lon="2.99802">
        <ele>620</ele>
        <time>2014-03-18T09:24:05Z</time>
      </trkpt>
      <trkpt lat="44.1353" lon="2.99808">
        <ele>621</ele>
        <time>2014-03-18T09:24:11Z</time>
      </trkpt>
      <trkpt lat="44.1353" lon="2.99816">
        <ele>623</ele>
        <time>2014-03-18T09:24:17Z</time>
      </trkpt>
      <trkpt lat="44.13531" lon="2.99824">
        <ele>624</ele>
        <time>2014-03-18T09:24:22Z</time>
      </trkpt>
      <trkpt lat="44.13534" lon="2.99831">
        <ele>625</ele>
        <time>2014-03-18T09:24:25Z</time>
      </trkpt>
      <trkpt lat="44.13537" lon="2.99838">
        <ele>626</ele>
        <time>2014-03-18T09:24:28Z</time>
      </trkpt>
      <trkpt lat="44.13538" lon="2.99844">
        <ele>627</ele>
        <time>2014-03-18T09:24:31Z</time>
      </trkpt>
      <trkpt lat="44.1354" lon="2.99851">
        <ele>628</ele>
        <time>2014-03-18T09:24:37Z</time>
      </trkpt>
      <trkpt lat="44.13542" lon="2.99857">
        <ele>627</ele>
        <time>2014-03-18T09:24:42Z</time>
      </trkpt>
      <trkpt lat="44.13544" lon="2.99862">
        <ele>630</ele>
        <time>2014-03-18T09:24:47Z</time>
      </trkpt>
      <trkpt lat="44.13549" lon="2.99865">
        <ele>631</ele>
        <time>2014-03-18T09:24:51Z</time>
      </trkpt>
      <trkpt lat="44.13554" lon="2.99868">
        <ele>632</ele>
        <time>2014-03-18T09:24:54Z</time>
      </trkpt>
      <trkpt lat="44.13558" lon="2.99874">
        <ele>633</ele>
        <time>2014-03-18T09:24:58Z</time>
      </trkpt>
      <trkpt lat="44.1356" lon="2.99883">
        <ele>634</ele>
        <time>2014-03-18T09:25:01Z</time>
      </trkpt>
      <trkpt lat="44.13562" lon="2.9989">
        <ele>634</ele>
        <time>2014-03-18T09:25:03Z</time>
      </trkpt>
      <trkpt lat="44.13563" lon="2.99896">
        <ele>637</ele>
        <time>2014-03-18T09:25:08Z</time>
      </trkpt>
      <trkpt lat="44.13566" lon="2.99902">
        <ele>637</ele>
        <time>2014-03-18T09:25:15Z</time>
      </trkpt>
      <trkpt lat="44.1357" lon="2.99903">
        <ele>637</ele>
        <time>2014-03-18T09:25:22Z</time>
      </trkpt>
      <trkpt lat="44.13574" lon="2.99909">
        <ele>638</ele>
        <time>2014-03-18T09:25:29Z</time>
      </trkpt>
      <trkpt lat="44.13579" lon="2.9991">
        <ele>637</ele>
        <time>2014-03-18T09:25:34Z</time>
      </trkpt>
      <trkpt lat="44.13585" lon="2.9991">
        <ele>637</ele>
        <time>2014-03-18T09:25:38Z</time>
      </trkpt>
      <trkpt lat="44.13589" lon="2.99912">
        <ele>638</ele>
        <time>2014-03-18T09:25:43Z</time>
      </trkpt>
      <trkpt lat="44.13594" lon="2.9991">
        <ele>640</ele>
        <time>2014-03-18T09:25:50Z</time>
      </trkpt>
      <trkpt lat="44.136" lon="2.99911">
        <ele>641</ele>
        <time>2014-03-18T09:25:55Z</time>
      </trkpt>
      <trkpt lat="44.13605" lon="2.99913">
        <ele>639</ele>
        <time>2014-03-18T09:26:01Z</time>
      </trkpt>
      <trkpt lat="44.1361" lon="2.99912">
        <ele>639</ele>
        <time>2014-03-18T09:26:05Z</time>
      </trkpt>
      <trkpt lat="44.13615" lon="2.99911">
        <ele>640</ele>
        <time>2014-03-18T09:26:08Z</time>
      </trkpt>
      <trkpt lat="44.1362" lon="2.9991">
        <ele>640</ele>
        <time>2014-03-18T09:26:11Z</time>
      </trkpt>
      <trkpt lat="44.13625" lon="2.99911">
        <ele>641</ele>
        <time>2014-03-18T09:26:15Z</time>
      </trkpt>
      <trkpt lat="44.1363" lon="2.99913">
        <ele>643</ele>
        <time>2014-03-18T09:26:21Z</time>
      </trkpt>
      <trkpt lat="44.13635" lon="2.99913">
        <ele>644</ele>
        <time>2014-03-18T09:26:24Z</time>
      </trkpt>
      <trkpt lat="44.1364" lon="2.99915">
        <ele>645</ele>
        <time>2014-03-18T09:26:27Z</time>
      </trkpt>
      <trkpt lat="44.13644" lon="2.99918">
        <ele>645</ele>
        <time>2014-03-18T09:26:31Z</time>
      </trkpt>
      <trkpt lat="44.13649" lon="2.9992">
        <ele>645</ele>
        <time>2014-03-18T09:26:36Z</time>
      </trkpt>
      <trkpt lat="44.13654" lon="2.9992">
        <ele>646</ele>
        <time>2014-03-18T09:26:42Z</time>
      </trkpt>
      <trkpt lat="44.13659" lon="2.9992">
        <ele>646</ele>
        <time>2014-03-18T09:26:46Z</time>
      </trkpt>
      <trkpt lat="44.13664" lon="2.99923">
        <ele>647</ele>
        <time>2014-03-18T09:26:49Z</time>
      </trkpt>
      <trkpt lat="44.13669" lon="2.99925">
        <ele>648</ele>
        <time>2014-03-18T09:26:53Z</time>
      </trkpt>
      <trkpt lat="44.13674" lon="2.99925">
        <ele>648</ele>
        <time>2014-03-18T09:26:59Z</time>
      </trkpt>
      <trkpt lat="44.1368" lon="2.99924">
        <ele>648</ele>
        <time>2014-03-18T09:27:04Z</time>
      </trkpt>
      <trkpt lat="44.13685" lon="2.99923">
        <ele>648</ele>
        <time>2014-03-18T09:27:08Z</time>
      </trkpt>
      <trkpt lat="44.1369" lon="2.99924">
        <ele>648</ele>
        <time>2014-03-18T09:27:11Z</time>
      </trkpt>
      <trkpt lat="44.13694" lon="2.99922">
        <ele>649</ele>
        <time>2014-03-18T09:27:17Z</time>
      </trkpt>
      <trkpt lat="44.137" lon="2.99924">
        <ele>651</ele>
        <time>2014-03-18T09:27:21Z</time>
      </trkpt>
      <trkpt lat="44.13704" lon="2.99925">
        <ele>651</ele>
        <time>2014-03-18T09:27:26Z</time>
      </trkpt>
      <trkpt lat="44.13709" lon="2.99923">
        <ele>650</ele>
        <time>2014-03-18T09:27:31Z</time>
      </trkpt>
      <trkpt lat="44.13715" lon="2.99921">
        <ele>651</ele>
        <time>2014-03-18T09:27:36Z</time>
      </trkpt>
      <trkpt lat="44.1372" lon="2.99923">
        <ele>651</ele>
        <time>2014-03-18T09:27:40Z</time>
      </trkpt>
      <trkpt lat="44.13726" lon="2.99921">
        <ele>650</ele>
        <time>2014-03-18T09:27:45Z</time>
      </trkpt>
      <trkpt lat="44.1373" lon="2.99919">
        <ele>650</ele>
        <time>2014-03-18T09:27:50Z</time>
      </trkpt>
      <trkpt lat="44.13735" lon="2.99916">
        <ele>650</ele>
        <time>2014-03-18T09:27:55Z</time>
      </trkpt>
      <trkpt lat="44.1374" lon="2.99915">
        <ele>651</ele>
        <time>2014-03-18T09:28:00Z</time>
      </trkpt>
      <trkpt lat="44.13745" lon="2.99916">
        <ele>650</ele>
        <time>2014-03-18T09:28:04Z</time>
      </trkpt>
      <trkpt lat="44.13749" lon="2.99916">
        <ele>650</ele>
        <time>2014-03-18T09:28:07Z</time>
      </trkpt>
      <trkpt lat="44.13754" lon="2.99915">
        <ele>650</ele>
        <time>2014-03-18T09:28:10Z</time>
      </trkpt>
      <trkpt lat="44.13759" lon="2.99913">
        <ele>651</ele>
        <time>2014-03-18T09:28:14Z</time>
      </trkpt>
      <trkpt lat="44.13762" lon="2.99909">
        <ele>651</ele>
        <time>2014-03-18T09:28:20Z</time>
      </trkpt>
      <trkpt lat="44.13766" lon="2.99905">
        <ele>651</ele>
        <time>2014-03-18T09:28:24Z</time>
      </trkpt>
      <trkpt lat="44.13771" lon="2.99905">
        <ele>649</ele>
        <time>2014-03-18T09:28:27Z</time>
      </trkpt>
      <trkpt lat="44.13775" lon="2.99901">
        <ele>649</ele>
        <time>2014-03-18T09:28:31Z</time>
      </trkpt>
      <trkpt lat="44.1378" lon="2.99899">
        <ele>650</ele>
        <time>2014-03-18T09:28:35Z</time>
      </trkpt>
      <trkpt lat="44.13784" lon="2.99895">
        <ele>652</ele>
        <time>2014-03-18T09:28:40Z</time>
      </trkpt>
      <trkpt lat="44.13788" lon="2.99891">
        <ele>653</ele>
        <time>2014-03-18T09:28:43Z</time>
      </trkpt>
      <trkpt lat="44.13793" lon="2.99888">
        <ele>655</ele>
        <time>2014-03-18T09:28:46Z</time>
      </trkpt>
      <trkpt lat="44.13797" lon="2.99891">
        <ele>651</ele>
        <time>2014-03-18T09:28:50Z</time>
      </trkpt>
      <trkpt lat="44.13801" lon="2.99887">
        <ele>650</ele>
        <time>2014-03-18T09:28:55Z</time>
      </trkpt>
      <trkpt lat="44.13804" lon="2.99881">
        <ele>652</ele>
        <time>2014-03-18T09:29:03Z</time>
      </trkpt>
      <trkpt lat="44.13809" lon="2.99878">
        <ele>654</ele>
        <time>2014-03-18T09:29:05Z</time>
      </trkpt>
      <trkpt lat="44.13814" lon="2.99875">
        <ele>657</ele>
        <time>2014-03-18T09:29:08Z</time>
      </trkpt>
      <trkpt lat="44.1382" lon="2.99873">
        <ele>659</ele>
        <time>2014-03-18T09:29:12Z</time>
      </trkpt>
      <trkpt lat="44.13824" lon="2.99869">
        <ele>660</ele>
        <time>2014-03-18T09:29:17Z</time>
      </trkpt>
      <trkpt lat="44.13828" lon="2.99866">
        <ele>660</ele>
        <time>2014-03-18T09:29:20Z</time>
      </trkpt>
      <trkpt lat="44.13831" lon="2.9986">
        <ele>660</ele>
        <time>2014-03-18T09:29:25Z</time>
      </trkpt>
      <trkpt lat="44.13836" lon="2.99859">
        <ele>661</ele>
        <time>2014-03-18T09:29:30Z</time>
      </trkpt>
      <trkpt lat="44.1384" lon="2.99856">
        <ele>661</ele>
        <time>2014-03-18T09:29:34Z</time>
      </trkpt>
      <trkpt lat="44.13845" lon="2.99851">
        <ele>663</ele>
        <time>2014-03-18T09:29:39Z</time>
      </trkpt>
      <trkpt lat="44.1385" lon="2.99846">
        <ele>663</ele>
        <time>2014-03-18T09:29:43Z</time>
      </trkpt>
      <trkpt lat="44.13854" lon="2.99842">
        <ele>663</ele>
        <time>2014-03-18T09:29:47Z</time>
      </trkpt>
      <trkpt lat="44.13858" lon="2.99839">
        <ele>664</ele>
        <time>2014-03-18T09:29:51Z</time>
      </trkpt>
      <trkpt lat="44.13862" lon="2.99835">
        <ele>665</ele>
        <time>2014-03-18T09:29:55Z</time>
      </trkpt>
      <trkpt lat="44.13867" lon="2.99832">
        <ele>665</ele>
        <time>2014-03-18T09:29:59Z</time>
      </trkpt>
      <trkpt lat="44.13872" lon="2.99831">
        <ele>666</ele>
        <time>2014-03-18T09:30:02Z</time>
      </trkpt>
      <trkpt lat="44.13876" lon="2.99826">
        <ele>666</ele>
        <time>2014-03-18T09:30:06Z</time>
      </trkpt>
      <trkpt lat="44.13879" lon="2.99821">
        <ele>665</ele>
        <time>2014-03-18T09:30:12Z</time>
      </trkpt>
      <trkpt lat="44.13882" lon="2.99815">
        <ele>665</ele>
        <time>2014-03-18T09:30:19Z</time>
      </trkpt>
      <trkpt lat="44.13887" lon="2.99813">
        <ele>665</ele>
        <time>2014-03-18T09:30:23Z</time>
      </trkpt>
      <trkpt lat="44.13892" lon="2.99811">
        <ele>665</ele>
        <time>2014-03-18T09:30:26Z</time>
      </trkpt>
      <trkpt lat="44.13897" lon="2.99809">
        <ele>666</ele>
        <time>2014-03-18T09:30:29Z</time>
      </trkpt>
      <trkpt lat="44.13901" lon="2.99808">
        <ele>667</ele>
        <time>2014-03-18T09:30:33Z</time>
      </trkpt>
      <trkpt lat="44.13906" lon="2.99805">
        <ele>668</ele>
        <time>2014-03-18T09:30:37Z</time>
      </trkpt>
      <trkpt lat="44.1391" lon="2.99802">
        <ele>669</ele>
        <time>2014-03-18T09:30:43Z</time>
      </trkpt>
      <trkpt lat="44.13913" lon="2.99797">
        <ele>671</ele>
        <time>2014-03-18T09:30:44Z</time>
      </trkpt>
      <trkpt lat="44.13918" lon="2.99793">
        <ele>673</ele>
        <time>2014-03-18T09:30:48Z</time>
      </trkpt>
      <trkpt lat="44.13922" lon="2.99791">
        <ele>673</ele>
        <time>2014-03-18T09:30:51Z</time>
      </trkpt>
      <trkpt lat="44.13927" lon="2.99787">
        <ele>673</ele>
        <time>2014-03-18T09:30:56Z</time>
      </trkpt>
      <trkpt lat="44.13931" lon="2.99782">
        <ele>674</ele>
        <time>2014-03-18T09:31:00Z</time>
      </trkpt>
      <trkpt lat="44.13935" lon="2.99776">
        <ele>675</ele>
        <time>2014-03-18T09:31:04Z</time>
      </trkpt>
      <trkpt lat="44.13938" lon="2.99771">
        <ele>676</ele>
        <time>2014-03-18T09:31:09Z</time>
      </trkpt>
      <trkpt lat="44.13942" lon="2.99767">
        <ele>678</ele>
        <time>2014-03-18T09:31:14Z</time>
      </trkpt>
      <trkpt lat="44.13947" lon="2.99764">
        <ele>679</ele>
        <time>2014-03-18T09:31:19Z</time>
      </trkpt>
      <trkpt lat="44.13952" lon="2.99765">
        <ele>681</ele>
        <time>2014-03-18T09:31:23Z</time>
      </trkpt>
      <trkpt lat="44.13957" lon="2.99765">
        <ele>681</ele>
        <time>2014-03-18T09:31:26Z</time>
      </trkpt>
      <trkpt lat="44.13962" lon="2.99767">
        <ele>681</ele>
        <time>2014-03-18T09:31:30Z</time>
      </trkpt>
      <trkpt lat="44.13966" lon="2.99764">
        <ele>680</ele>
        <time>2014-03-18T09:31:34Z</time>
      </trkpt>
      <trkpt lat="44.13971" lon="2.99761">
        <ele>679</ele>
        <time>2014-03-18T09:31:39Z</time>
      </trkpt>
      <trkpt lat="44.13976" lon="2.99758">
        <ele>679</ele>
        <time>2014-03-18T09:31:44Z</time>
      </trkpt>
      <trkpt lat="44.1398" lon="2.99756">
        <ele>682</ele>
        <time>2014-03-18T09:31:48Z</time>
      </trkpt>
      <trkpt lat="44.13985" lon="2.99754">
        <ele>683</ele>
        <time>2014-03-18T09:31:52Z</time>
      </trkpt>
      <trkpt lat="44.1399" lon="2.99753">
        <ele>683</ele>
        <time>2014-03-18T09:31:57Z</time>
      </trkpt>
      <trkpt lat="44.13994" lon="2.9975">
        <ele>683</ele>
        <time>2014-03-18T09:32:02Z</time>
      </trkpt>
      <trkpt lat="44.13999" lon="2.99751">
        <ele>683</ele>
        <time>2014-03-18T09:32:12Z</time>
      </trkpt>
      <trkpt lat="44.14001" lon="2.99748">
        <ele>683</ele>
        <time>2014-03-18T09:32:19Z</time>
      </trkpt>
      <trkpt lat="44.13997" lon="2.99743">
        <ele>683</ele>
        <time>2014-03-18T09:32:30Z</time>
      </trkpt>
      <trkpt lat="44.13998" lon="2.99738">
        <ele>685</ele>
        <time>2014-03-18T09:33:08Z</time>
      </trkpt>
      <trkpt lat="44.14002" lon="2.99738">
        <ele>685</ele>
        <time>2014-03-18T09:33:17Z</time>
      </trkpt>
      <trkpt lat="44.14001" lon="2.99743">
        <ele>684</ele>
        <time>2014-03-18T09:33:26Z</time>
      </trkpt>
      <trkpt lat="44.13999" lon="2.99749">
        <ele>685</ele>
        <time>2014-03-18T09:33:31Z</time>
      </trkpt>
      <trkpt lat="44.13997" lon="2.99752">
        <ele>686</ele>
        <time>2014-03-18T09:33:39Z</time>
      </trkpt>
      <trkpt lat="44.13992" lon="2.99754">
        <ele>690</ele>
        <time>2014-03-18T09:33:54Z</time>
      </trkpt>
      <trkpt lat="44.13989" lon="2.99753">
        <ele>694</ele>
        <time>2014-03-18T09:34:03Z</time>
      </trkpt>
      <trkpt lat="44.13991" lon="2.99747">
        <ele>693</ele>
        <time>2014-03-18T09:34:08Z</time>
      </trkpt>
      <trkpt lat="44.13994" lon="2.99752">
        <ele>692</ele>
        <time>2014-03-18T09:34:24Z</time>
      </trkpt>
      <trkpt lat="44.13997" lon="2.99753">
        <ele>692</ele>
        <time>2014-03-18T09:34:31Z</time>
      </trkpt>
      <trkpt lat="44.13999" lon="2.99746">
        <ele>690</ele>
        <time>2014-03-18T09:34:45Z</time>
      </trkpt>
      <trkpt lat="44.14" lon="2.99746">
        <ele>683</ele>
        <time>2014-03-18T09:35:49Z</time>
      </trkpt>
      <trkpt lat="44.14004" lon="2.99742">
        <ele>683</ele>
        <time>2014-03-18T09:35:55Z</time>
      </trkpt>
      <trkpt lat="44.14007" lon="2.99738">
        <ele>682</ele>
        <time>2014-03-18T09:36:02Z</time>
      </trkpt>
      <trkpt lat="44.14011" lon="2.99735">
        <ele>683</ele>
        <time>2014-03-18T09:36:10Z</time>
      </trkpt>
      <trkpt lat="44.14016" lon="2.99731">
        <ele>683</ele>
        <time>2014-03-18T09:36:14Z</time>
      </trkpt>
      <trkpt lat="44.14017" lon="2.99725">
        <ele>682</ele>
        <time>2014-03-18T09:36:20Z</time>
      </trkpt>
      <trkpt lat="44.1402" lon="2.9972">
        <ele>682</ele>
        <time>2014-03-18T09:36:25Z</time>
      </trkpt>
      <trkpt lat="44.14024" lon="2.99718">
        <ele>683</ele>
        <time>2014-03-18T09:36:30Z</time>
      </trkpt>
      <trkpt lat="44.1403" lon="2.99716">
        <ele>683</ele>
        <time>2014-03-18T09:36:34Z</time>
      </trkpt>
      <trkpt lat="44.14035" lon="2.99715">
        <ele>683</ele>
        <time>2014-03-18T09:36:38Z</time>
      </trkpt>
      <trkpt lat="44.1404" lon="2.99712">
        <ele>682</ele>
        <time>2014-03-18T09:36:43Z</time>
      </trkpt>
      <trkpt lat="44.14045" lon="2.99712">
        <ele>683</ele>
        <time>2014-03-18T09:36:47Z</time>
      </trkpt>
      <trkpt lat="44.14049" lon="2.99711">
        <ele>683</ele>
        <time>2014-03-18T09:36:52Z</time>
      </trkpt>
      <trkpt lat="44.14055" lon="2.9971">
        <ele>684</ele>
        <time>2014-03-18T09:36:56Z</time>
      </trkpt>
      <trkpt lat="44.14059" lon="2.99708">
        <ele>684</ele>
        <time>2014-03-18T09:37:00Z</time>
      </trkpt>
      <trkpt lat="44.14064" lon="2.99704">
        <ele>683</ele>
        <time>2014-03-18T09:37:04Z</time>
      </trkpt>
      <trkpt lat="44.1407" lon="2.99701">
        <ele>683</ele>
        <time>2014-03-18T09:37:07Z</time>
      </trkpt>
      <trkpt lat="44.14075" lon="2.997">
        <ele>682</ele>
        <time>2014-03-18T09:37:10Z</time>
      </trkpt>
      <trkpt lat="44.1408" lon="2.99699">
        <ele>682</ele>
        <time>2014-03-18T09:37:13Z</time>
      </trkpt>
      <trkpt lat="44.14085" lon="2.99697">
        <ele>683</ele>
        <time>2014-03-18T09:37:16Z</time>
      </trkpt>
      <trkpt lat="44.1409" lon="2.99694">
        <ele>683</ele>
        <time>2014-03-18T09:37:20Z</time>
      </trkpt>
      <trkpt lat="44.14095" lon="2.99692">
        <ele>684</ele>
        <time>2014-03-18T09:37:23Z</time>
      </trkpt>
      <trkpt lat="44.14101" lon="2.99689">
        <ele>684</ele>
        <time>2014-03-18T09:37:26Z</time>
      </trkpt>
      <trkpt lat="44.14106" lon="2.99686">
        <ele>683</ele>
        <time>2014-03-18T09:37:30Z</time>
      </trkpt>
      <trkpt lat="44.14109" lon="2.99681">
        <ele>684</ele>
        <time>2014-03-18T09:37:33Z</time>
      </trkpt>
      <trkpt lat="44.14113" lon="2.99678">
        <ele>685</ele>
        <time>2014-03-18T09:37:36Z</time>
      </trkpt>
      <trkpt lat="44.14118" lon="2.99676">
        <ele>685</ele>
        <time>2014-03-18T09:37:40Z</time>
      </trkpt>
      <trkpt lat="44.14124" lon="2.99674">
        <ele>685</ele>
        <time>2014-03-18T09:37:44Z</time>
      </trkpt>
      <trkpt lat="44.14129" lon="2.99675">
        <ele>685</ele>
        <time>2014-03-18T09:37:47Z</time>
      </trkpt>
      <trkpt lat="44.14135" lon="2.99673">
        <ele>686</ele>
        <time>2014-03-18T09:37:50Z</time>
      </trkpt>
      <trkpt lat="44.14139" lon="2.99675">
        <ele>686</ele>
        <time>2014-03-18T09:37:57Z</time>
      </trkpt>
      <trkpt lat="44.14142" lon="2.99679">
        <ele>685</ele>
        <time>2014-03-18T09:38:06Z</time>
      </trkpt>
      <trkpt lat="44.14142" lon="2.99685">
        <ele>685</ele>
        <time>2014-03-18T09:38:12Z</time>
      </trkpt>
      <trkpt lat="44.14146" lon="2.9969">
        <ele>686</ele>
        <time>2014-03-18T09:38:17Z</time>
      </trkpt>
      <trkpt lat="44.14151" lon="2.99694">
        <ele>685</ele>
        <time>2014-03-18T09:38:22Z</time>
      </trkpt>
      <trkpt lat="44.14155" lon="2.997">
        <ele>685</ele>
        <time>2014-03-18T09:38:25Z</time>
      </trkpt>
      <trkpt lat="44.14158" lon="2.99705">
        <ele>685</ele>
        <time>2014-03-18T09:38:28Z</time>
      </trkpt>
      <trkpt lat="44.14159" lon="2.99711">
        <ele>685</ele>
        <time>2014-03-18T09:38:34Z</time>
      </trkpt>
      <trkpt lat="44.14163" lon="2.99717">
        <ele>684</ele>
        <time>2014-03-18T09:38:38Z</time>
      </trkpt>
      <trkpt lat="44.14167" lon="2.99722">
        <ele>683</ele>
        <time>2014-03-18T09:38:42Z</time>
      </trkpt>
      <trkpt lat="44.14171" lon="2.99727">
        <ele>684</ele>
        <time>2014-03-18T09:38:46Z</time>
      </trkpt>
      <trkpt lat="44.14175" lon="2.99732">
        <ele>686</ele>
        <time>2014-03-18T09:38:50Z</time>
      </trkpt>
      <trkpt lat="44.14175" lon="2.99739">
        <ele>686</ele>
        <time>2014-03-18T09:38:52Z</time>
      </trkpt>
      <trkpt lat="44.14178" lon="2.99746">
        <ele>687</ele>
        <time>2014-03-18T09:38:55Z</time>
      </trkpt>
      <trkpt lat="44.14182" lon="2.9975">
        <ele>687</ele>
        <time>2014-03-18T09:38:58Z</time>
      </trkpt>
      <trkpt lat="44.14187" lon="2.99754">
        <ele>687</ele>
        <time>2014-03-18T09:39:01Z</time>
      </trkpt>
      <trkpt lat="44.14191" lon="2.99757">
        <ele>688</ele>
        <time>2014-03-18T09:39:04Z</time>
      </trkpt>
      <trkpt lat="44.14195" lon="2.99762">
        <ele>688</ele>
        <time>2014-03-18T09:39:07Z</time>
      </trkpt>
      <trkpt lat="44.14199" lon="2.99766">
        <ele>689</ele>
        <time>2014-03-18T09:39:10Z</time>
      </trkpt>
      <trkpt lat="44.14204" lon="2.9977">
        <ele>689</ele>
        <time>2014-03-18T09:39:14Z</time>
      </trkpt>
      <trkpt lat="44.14208" lon="2.99775">
        <ele>688</ele>
        <time>2014-03-18T09:39:19Z</time>
      </trkpt>
      <trkpt lat="44.14212" lon="2.9978">
        <ele>687</ele>
        <time>2014-03-18T09:39:23Z</time>
      </trkpt>
      <trkpt lat="44.14217" lon="2.99785">
        <ele>687</ele>
        <time>2014-03-18T09:39:28Z</time>
      </trkpt>
      <trkpt lat="44.14223" lon="2.99785">
        <ele>686</ele>
        <time>2014-03-18T09:39:32Z</time>
      </trkpt>
      <trkpt lat="44.14228" lon="2.99783">
        <ele>685</ele>
        <time>2014-03-18T09:39:36Z</time>
      </trkpt>
      <trkpt lat="44.14231" lon="2.99778">
        <ele>683</ele>
        <time>2014-03-18T09:39:46Z</time>
      </trkpt>
      <trkpt lat="44.14235" lon="2.99772">
        <ele>681</ele>
        <time>2014-03-18T09:39:50Z</time>
      </trkpt>
      <trkpt lat="44.14239" lon="2.99767">
        <ele>680</ele>
        <time>2014-03-18T09:39:53Z</time>
      </trkpt>
      <trkpt lat="44.14242" lon="2.99761">
        <ele>680</ele>
        <time>2014-03-18T09:39:57Z</time>
      </trkpt>
      <trkpt lat="44.14242" lon="2.99754">
        <ele>680</ele>
        <time>2014-03-18T09:40:04Z</time>
      </trkpt>
      <trkpt lat="44.14243" lon="2.99747">
        <ele>681</ele>
        <time>2014-03-18T09:40:09Z</time>
      </trkpt>
      <trkpt lat="44.14245" lon="2.99741">
        <ele>682</ele>
        <time>2014-03-18T09:40:13Z</time>
      </trkpt>
      <trkpt lat="44.14244" lon="2.99727">
        <ele>689</ele>
        <time>2014-03-18T09:40:21Z</time>
      </trkpt>
      <trkpt lat="44.14241" lon="2.99725">
        <ele>689</ele>
        <time>2014-03-18T09:40:29Z</time>
      </trkpt>
      <trkpt lat="44.1424" lon="2.99719">
        <ele>688</ele>
        <time>2014-03-18T09:40:34Z</time>
      </trkpt>
      <trkpt lat="44.14243" lon="2.9971">
        <ele>687</ele>
        <time>2014-03-18T09:40:46Z</time>
      </trkpt>
      <trkpt lat="44.14244" lon="2.99701">
        <ele>685</ele>
        <time>2014-03-18T09:40:49Z</time>
      </trkpt>
      <trkpt lat="44.14244" lon="2.99695">
        <ele>684</ele>
        <time>2014-03-18T09:40:51Z</time>
      </trkpt>
      <trkpt lat="44.14245" lon="2.99688">
        <ele>683</ele>
        <time>2014-03-18T09:40:55Z</time>
      </trkpt>
      <trkpt lat="44.14245" lon="2.99681">
        <ele>681</ele>
        <time>2014-03-18T09:41:00Z</time>
      </trkpt>
      <trkpt lat="44.14249" lon="2.99675">
        <ele>681</ele>
        <time>2014-03-18T09:41:07Z</time>
      </trkpt>
      <trkpt lat="44.14252" lon="2.99669">
        <ele>682</ele>
        <time>2014-03-18T09:41:12Z</time>
      </trkpt>
      <trkpt lat="44.14252" lon="2.99661">
        <ele>682</ele>
        <time>2014-03-18T09:41:17Z</time>
      </trkpt>
      <trkpt lat="44.14253" lon="2.99654">
        <ele>682</ele>
        <time>2014-03-18T09:41:20Z</time>
      </trkpt>
      <trkpt lat="44.14255" lon="2.99646">
        <ele>683</ele>
        <time>2014-03-18T09:41:23Z</time>
      </trkpt>
      <trkpt lat="44.14258" lon="2.9964">
        <ele>684</ele>
        <time>2014-03-18T09:41:26Z</time>
      </trkpt>
      <trkpt lat="44.1426" lon="2.99634">
        <ele>684</ele>
        <time>2014-03-18T09:41:29Z</time>
      </trkpt>
      <trkpt lat="44.14261" lon="2.99627">
        <ele>684</ele>
        <time>2014-03-18T09:41:33Z</time>
      </trkpt>
      <trkpt lat="44.14263" lon="2.99619">
        <ele>684</ele>
        <time>2014-03-18T09:41:38Z</time>
      </trkpt>
      <trkpt lat="44.14264" lon="2.99612">
        <ele>684</ele>
        <time>2014-03-18T09:41:41Z</time>
      </trkpt>
      <trkpt lat="44.14266" lon="2.99605">
        <ele>685</ele>
        <time>2014-03-18T09:41:44Z</time>
      </trkpt>
      <trkpt lat="44.14268" lon="2.99599">
        <ele>686</ele>
        <time>2014-03-18T09:41:47Z</time>
      </trkpt>
      <trkpt lat="44.14268" lon="2.99591">
        <ele>686</ele>
        <time>2014-03-18T09:41:50Z</time>
      </trkpt>
      <trkpt lat="44.14269" lon="2.99584">
        <ele>685</ele>
        <time>2014-03-18T09:41:55Z</time>
      </trkpt>
      <trkpt lat="44.14273" lon="2.9958">
        <ele>684</ele>
        <time>2014-03-18T09:42:00Z</time>
      </trkpt>
      <trkpt lat="44.14276" lon="2.99575">
        <ele>682</ele>
        <time>2014-03-18T09:42:05Z</time>
      </trkpt>
      <trkpt lat="44.14278" lon="2.99569">
        <ele>681</ele>
        <time>2014-03-18T09:42:09Z</time>
      </trkpt>
      <trkpt lat="44.14281" lon="2.99562">
        <ele>680</ele>
        <time>2014-03-18T09:42:13Z</time>
      </trkpt>
      <trkpt lat="44.14284" lon="2.99557">
        <ele>680</ele>
        <time>2014-03-18T09:42:16Z</time>
      </trkpt>
      <trkpt lat="44.14286" lon="2.99549">
        <ele>680</ele>
        <time>2014-03-18T09:42:20Z</time>
      </trkpt>
      <trkpt lat="44.14286" lon="2.99543">
        <ele>679</ele>
        <time>2014-03-18T09:42:24Z</time>
      </trkpt>
      <trkpt lat="44.1429" lon="2.99539">
        <ele>679</ele>
        <time>2014-03-18T09:42:27Z</time>
      </trkpt>
      <trkpt lat="44.14294" lon="2.99535">
        <ele>680</ele>
        <time>2014-03-18T09:42:30Z</time>
      </trkpt>
      <trkpt lat="44.14298" lon="2.99529">
        <ele>679</ele>
        <time>2014-03-18T09:42:34Z</time>
      </trkpt>
      <trkpt lat="44.14301" lon="2.99523">
        <ele>680</ele>
        <time>2014-03-18T09:42:37Z</time>
      </trkpt>
      <trkpt lat="44.14302" lon="2.99517">
        <ele>680</ele>
        <time>2014-03-18T09:42:40Z</time>
      </trkpt>
      <trkpt lat="44.14304" lon="2.99511">
        <ele>680</ele>
        <time>2014-03-18T09:42:43Z</time>
      </trkpt>
      <trkpt lat="44.14304" lon="2.99503">
        <ele>680</ele>
        <time>2014-03-18T09:42:46Z</time>
      </trkpt>
      <trkpt lat="44.14309" lon="2.99501">
        <ele>681</ele>
        <time>2014-03-18T09:42:49Z</time>
      </trkpt>
      <trkpt lat="44.14314" lon="2.99501">
        <ele>682</ele>
        <time>2014-03-18T09:42:52Z</time>
      </trkpt>
      <trkpt lat="44.14318" lon="2.99497">
        <ele>683</ele>
        <time>2014-03-18T09:42:58Z</time>
      </trkpt>
      <trkpt lat="44.1432" lon="2.99491">
        <ele>684</ele>
        <time>2014-03-18T09:43:01Z</time>
      </trkpt>
      <trkpt lat="44.14324" lon="2.99487">
        <ele>683</ele>
        <time>2014-03-18T09:43:06Z</time>
      </trkpt>
      <trkpt lat="44.14329" lon="2.99485">
        <ele>682</ele>
        <time>2014-03-18T09:43:11Z</time>
      </trkpt>
      <trkpt lat="44.14334" lon="2.99483">
        <ele>681</ele>
        <time>2014-03-18T09:43:14Z</time>
      </trkpt>
      <trkpt lat="44.14339" lon="2.9948">
        <ele>682</ele>
        <time>2014-03-18T09:43:18Z</time>
      </trkpt>
      <trkpt lat="44.14344" lon="2.99478">
        <ele>682</ele>
        <time>2014-03-18T09:43:22Z</time>
      </trkpt>
      <trkpt lat="44.14349" lon="2.99476">
        <ele>683</ele>
        <time>2014-03-18T09:43:26Z</time>
      </trkpt>
      <trkpt lat="44.14354" lon="2.99474">
        <ele>684</ele>
        <time>2014-03-18T09:43:30Z</time>
      </trkpt>
      <trkpt lat="44.1436" lon="2.99472">
        <ele>686</ele>
        <time>2014-03-18T09:43:34Z</time>
      </trkpt>
      <trkpt lat="44.14365" lon="2.99471">
        <ele>688</ele>
        <time>2014-03-18T09:43:38Z</time>
      </trkpt>
      <trkpt lat="44.1437" lon="2.99468">
        <ele>688</ele>
        <time>2014-03-18T09:43:42Z</time>
      </trkpt>
      <trkpt lat="44.14375" lon="2.99467">
        <ele>688</ele>
        <time>2014-03-18T09:43:47Z</time>
      </trkpt>
      <trkpt lat="44.14379" lon="2.99464">
        <ele>688</ele>
        <time>2014-03-18T09:43:54Z</time>
      </trkpt>
      <trkpt lat="44.14385" lon="2.99464">
        <ele>688</ele>
        <time>2014-03-18T09:43:58Z</time>
      </trkpt>
      <trkpt lat="44.14389" lon="2.99464">
        <ele>688</ele>
        <time>2014-03-18T09:44:02Z</time>
      </trkpt>
      <trkpt lat="44.14394" lon="2.99463">
        <ele>689</ele>
        <time>2014-03-18T09:44:06Z</time>
      </trkpt>
      <trkpt lat="44.14399" lon="2.99459">
        <ele>689</ele>
        <time>2014-03-18T09:44:09Z</time>
      </trkpt>
      <trkpt lat="44.14403" lon="2.99455">
        <ele>690</ele>
        <time>2014-03-18T09:44:12Z</time>
      </trkpt>
      <trkpt lat="44.14407" lon="2.9945">
        <ele>689</ele>
        <time>2014-03-18T09:44:16Z</time>
      </trkpt>
      <trkpt lat="44.14411" lon="2.99446">
        <ele>687</ele>
        <time>2014-03-18T09:44:23Z</time>
      </trkpt>
      <trkpt lat="44.14415" lon="2.99441">
        <ele>687</ele>
        <time>2014-03-18T09:44:27Z</time>
      </trkpt>
      <trkpt lat="44.14418" lon="2.99436">
        <ele>686</ele>
        <time>2014-03-18T09:44:33Z</time>
      </trkpt>
      <trkpt lat="44.14414" lon="2.99432">
        <ele>687</ele>
        <time>2014-03-18T09:44:50Z</time>
      </trkpt>
      <trkpt lat="44.14415" lon="2.99425">
        <ele>685</ele>
        <time>2014-03-18T09:44:56Z</time>
      </trkpt>
      <trkpt lat="44.14416" lon="2.99421">
        <ele>683</ele>
        <time>2014-03-18T09:45:04Z</time>
      </trkpt>
      <trkpt lat="44.1442" lon="2.99425">
        <ele>682</ele>
        <time>2014-03-18T09:45:12Z</time>
      </trkpt>
      <trkpt lat="44.14423" lon="2.99418">
        <ele>683</ele>
        <time>2014-03-18T09:45:24Z</time>
      </trkpt>
      <trkpt lat="44.14424" lon="2.9941">
        <ele>683</ele>
        <time>2014-03-18T09:45:29Z</time>
      </trkpt>
      <trkpt lat="44.14423" lon="2.99403">
        <ele>684</ele>
        <time>2014-03-18T09:45:33Z</time>
      </trkpt>
      <trkpt lat="44.14425" lon="2.99396">
        <ele>683</ele>
        <time>2014-03-18T09:45:36Z</time>
      </trkpt>
      <trkpt lat="44.14425" lon="2.99389">
        <ele>682</ele>
        <time>2014-03-18T09:45:39Z</time>
      </trkpt>
      <trkpt lat="44.14426" lon="2.99381">
        <ele>682</ele>
        <time>2014-03-18T09:45:43Z</time>
      </trkpt>
      <trkpt lat="44.14427" lon="2.99375">
        <ele>681</ele>
        <time>2014-03-18T09:45:46Z</time>
      </trkpt>
      <trkpt lat="44.1443" lon="2.99368">
        <ele>681</ele>
        <time>2014-03-18T09:45:51Z</time>
      </trkpt>
      <trkpt lat="44.14432" lon="2.99362">
        <ele>682</ele>
        <time>2014-03-18T09:45:55Z</time>
      </trkpt>
      <trkpt lat="44.14435" lon="2.99358">
        <ele>682</ele>
        <time>2014-03-18T09:45:58Z</time>
      </trkpt>
      <trkpt lat="44.1444" lon="2.99352">
        <ele>682</ele>
        <time>2014-03-18T09:46:04Z</time>
      </trkpt>
      <trkpt lat="44.14442" lon="2.99347">
        <ele>682</ele>
        <time>2014-03-18T09:46:07Z</time>
      </trkpt>
      <trkpt lat="44.14445" lon="2.99342">
        <ele>682</ele>
        <time>2014-03-18T09:46:10Z</time>
      </trkpt>
      <trkpt lat="44.14449" lon="2.99337">
        <ele>682</ele>
        <time>2014-03-18T09:46:14Z</time>
      </trkpt>
      <trkpt lat="44.14454" lon="2.99335">
        <ele>681</ele>
        <time>2014-03-18T09:46:18Z</time>
      </trkpt>
      <trkpt lat="44.1446" lon="2.99333">
        <ele>680</ele>
        <time>2014-03-18T09:46:22Z</time>
      </trkpt>
      <trkpt lat="44.14465" lon="2.99329">
        <ele>680</ele>
        <time>2014-03-18T09:46:26Z</time>
      </trkpt>
      <trkpt lat="44.1447" lon="2.99327">
        <ele>680</ele>
        <time>2014-03-18T09:46:29Z</time>
      </trkpt>
      <trkpt lat="44.14474" lon="2.99325">
        <ele>679</ele>
        <time>2014-03-18T09:46:33Z</time>
      </trkpt>
      <trkpt lat="44.1448" lon="2.99323">
        <ele>678</ele>
        <time>2014-03-18T09:46:38Z</time>
      </trkpt>
      <trkpt lat="44.14485" lon="2.99321">
        <ele>678</ele>
        <time>2014-03-18T09:46:42Z</time>
      </trkpt>
      <trkpt lat="44.1449" lon="2.99317">
        <ele>679</ele>
        <time>2014-03-18T09:46:46Z</time>
      </trkpt>
      <trkpt lat="44.14493" lon="2.99312">
        <ele>679</ele>
        <time>2014-03-18T09:46:49Z</time>
      </trkpt>
      <trkpt lat="44.14497" lon="2.99306">
        <ele>679</ele>
        <time>2014-03-18T09:46:53Z</time>
      </trkpt>
      <trkpt lat="44.145" lon="2.99299">
        <ele>679</ele>
        <time>2014-03-18T09:46:57Z</time>
      </trkpt>
      <trkpt lat="44.14502" lon="2.99294">
        <ele>679</ele>
        <time>2014-03-18T09:47:00Z</time>
      </trkpt>
      <trkpt lat="44.14503" lon="2.99286">
        <ele>678</ele>
        <time>2014-03-18T09:47:05Z</time>
      </trkpt>
      <trkpt lat="44.14505" lon="2.99279">
        <ele>677</ele>
        <time>2014-03-18T09:47:10Z</time>
      </trkpt>
      <trkpt lat="44.14507" lon="2.99272">
        <ele>677</ele>
        <time>2014-03-18T09:47:13Z</time>
      </trkpt>
      <trkpt lat="44.14509" lon="2.99265">
        <ele>677</ele>
        <time>2014-03-18T09:47:17Z</time>
      </trkpt>
      <trkpt lat="44.14513" lon="2.9926">
        <ele>676</ele>
        <time>2014-03-18T09:47:20Z</time>
      </trkpt>
      <trkpt lat="44.14516" lon="2.99254">
        <ele>677</ele>
        <time>2014-03-18T09:47:23Z</time>
      </trkpt>
      <trkpt lat="44.14518" lon="2.99248">
        <ele>677</ele>
        <time>2014-03-18T09:47:26Z</time>
      </trkpt>
      <trkpt lat="44.1452" lon="2.99242">
        <ele>677</ele>
        <time>2014-03-18T09:47:31Z</time>
      </trkpt>
      <trkpt lat="44.1452" lon="2.99234">
        <ele>678</ele>
        <time>2014-03-18T09:47:35Z</time>
      </trkpt>
      <trkpt lat="44.14524" lon="2.99231">
        <ele>677</ele>
        <time>2014-03-18T09:47:42Z</time>
      </trkpt>
      <trkpt lat="44.14525" lon="2.99225">
        <ele>677</ele>
        <time>2014-03-18T09:47:45Z</time>
      </trkpt>
      <trkpt lat="44.14527" lon="2.99218">
        <ele>676</ele>
        <time>2014-03-18T09:47:48Z</time>
      </trkpt>
      <trkpt lat="44.14528" lon="2.9921">
        <ele>675</ele>
        <time>2014-03-18T09:47:51Z</time>
      </trkpt>
      <trkpt lat="44.14529" lon="2.99202">
        <ele>675</ele>
        <time>2014-03-18T09:47:54Z</time>
      </trkpt>
      <trkpt lat="44.1453" lon="2.99194">
        <ele>675</ele>
        <time>2014-03-18T09:47:58Z</time>
      </trkpt>
      <trkpt lat="44.1453" lon="2.99186">
        <ele>676</ele>
        <time>2014-03-18T09:48:01Z</time>
      </trkpt>
      <trkpt lat="44.14531" lon="2.99179">
        <ele>677</ele>
        <time>2014-03-18T09:48:05Z</time>
      </trkpt>
      <trkpt lat="44.14534" lon="2.99174">
        <ele>677</ele>
        <time>2014-03-18T09:48:09Z</time>
      </trkpt>
      <trkpt lat="44.14536" lon="2.99166">
        <ele>678</ele>
        <time>2014-03-18T09:48:13Z</time>
      </trkpt>
      <trkpt lat="44.14538" lon="2.9916">
        <ele>678</ele>
        <time>2014-03-18T09:48:17Z</time>
      </trkpt>
      <trkpt lat="44.14542" lon="2.99154">
        <ele>679</ele>
        <time>2014-03-18T09:48:21Z</time>
      </trkpt>
      <trkpt lat="44.14545" lon="2.99147">
        <ele>680</ele>
        <time>2014-03-18T09:48:24Z</time>
      </trkpt>
      <trkpt lat="44.14547" lon="2.99142">
        <ele>680</ele>
        <time>2014-03-18T09:48:28Z</time>
      </trkpt>
      <trkpt lat="44.14548" lon="2.99132">
        <ele>681</ele>
        <time>2014-03-18T09:48:35Z</time>
      </trkpt>
      <trkpt lat="44.1455" lon="2.99123">
        <ele>682</ele>
        <time>2014-03-18T09:48:38Z</time>
      </trkpt>
      <trkpt lat="44.14552" lon="2.99116">
        <ele>683</ele>
        <time>2014-03-18T09:48:41Z</time>
      </trkpt>
      <trkpt lat="44.14552" lon="2.99108">
        <ele>682</ele>
        <time>2014-03-18T09:48:45Z</time>
      </trkpt>
      <trkpt lat="44.14553" lon="2.99102">
        <ele>681</ele>
        <time>2014-03-18T09:48:50Z</time>
      </trkpt>
      <trkpt lat="44.14555" lon="2.99095">
        <ele>681</ele>
        <time>2014-03-18T09:48:56Z</time>
      </trkpt>
      <trkpt lat="44.14557" lon="2.99089">
        <ele>682</ele>
        <time>2014-03-18T09:48:59Z</time>
      </trkpt>
      <trkpt lat="44.14558" lon="2.99082">
        <ele>683</ele>
        <time>2014-03-18T09:49:03Z</time>
      </trkpt>
      <trkpt lat="44.14559" lon="2.99074">
        <ele>684</ele>
        <time>2014-03-18T09:49:08Z</time>
      </trkpt>
      <trkpt lat="44.14559" lon="2.99068">
        <ele>684</ele>
        <time>2014-03-18T09:49:15Z</time>
      </trkpt>
      <trkpt lat="44.14558" lon="2.9906">
        <ele>683</ele>
        <time>2014-03-18T09:49:21Z</time>
      </trkpt>
      <trkpt lat="44.14557" lon="2.99053">
        <ele>684</ele>
        <time>2014-03-18T09:49:24Z</time>
      </trkpt>
      <trkpt lat="44.14557" lon="2.99046">
        <ele>685</ele>
        <time>2014-03-18T09:49:27Z</time>
      </trkpt>
      <trkpt lat="44.14555" lon="2.99039">
        <ele>686</ele>
        <time>2014-03-18T09:49:30Z</time>
      </trkpt>
      <trkpt lat="44.14555" lon="2.9903">
        <ele>687</ele>
        <time>2014-03-18T09:49:33Z</time>
      </trkpt>
      <trkpt lat="44.14556" lon="2.99024">
        <ele>686</ele>
        <time>2014-03-18T09:49:36Z</time>
      </trkpt>
      <trkpt lat="44.14556" lon="2.99017">
        <ele>686</ele>
        <time>2014-03-18T09:49:39Z</time>
      </trkpt>
      <trkpt lat="44.14557" lon="2.9901">
        <ele>686</ele>
        <time>2014-03-18T09:49:41Z</time>
      </trkpt>
      <trkpt lat="44.14558" lon="2.99002">
        <ele>687</ele>
        <time>2014-03-18T09:49:44Z</time>
      </trkpt>
      <trkpt lat="44.14557" lon="2.98995">
        <ele>687</ele>
        <time>2014-03-18T09:49:47Z</time>
      </trkpt>
      <trkpt lat="44.14556" lon="2.98988">
        <ele>688</ele>
        <time>2014-03-18T09:49:50Z</time>
      </trkpt>
      <trkpt lat="44.14555" lon="2.98982">
        <ele>688</ele>
        <time>2014-03-18T09:49:53Z</time>
      </trkpt>
      <trkpt lat="44.14557" lon="2.98975">
        <ele>689</ele>
        <time>2014-03-18T09:49:58Z</time>
      </trkpt>
      <trkpt lat="44.14559" lon="2.98969">
        <ele>689</ele>
        <time>2014-03-18T09:50:02Z</time>
      </trkpt>
      <trkpt lat="44.1456" lon="2.98961">
        <ele>689</ele>
        <time>2014-03-18T09:50:07Z</time>
      </trkpt>
      <trkpt lat="44.14559" lon="2.98954">
        <ele>689</ele>
        <time>2014-03-18T09:50:11Z</time>
      </trkpt>
      <trkpt lat="44.14558" lon="2.98946">
        <ele>690</ele>
        <time>2014-03-18T09:50:15Z</time>
      </trkpt>
      <trkpt lat="44.14558" lon="2.98938">
        <ele>691</ele>
        <time>2014-03-18T09:50:19Z</time>
      </trkpt>
      <trkpt lat="44.14558" lon="2.9893">
        <ele>693</ele>
        <time>2014-03-18T09:50:25Z</time>
      </trkpt>
      <trkpt lat="44.14558" lon="2.98923">
        <ele>693</ele>
        <time>2014-03-18T09:50:29Z</time>
      </trkpt>
      <trkpt lat="44.14557" lon="2.98916">
        <ele>693</ele>
        <time>2014-03-18T09:50:32Z</time>
      </trkpt>
      <trkpt lat="44.14556" lon="2.98909">
        <ele>694</ele>
        <time>2014-03-18T09:50:36Z</time>
      </trkpt>
      <trkpt lat="44.14555" lon="2.98902">
        <ele>695</ele>
        <time>2014-03-18T09:50:40Z</time>
      </trkpt>
      <trkpt lat="44.14559" lon="2.98898">
        <ele>694</ele>
        <time>2014-03-18T09:50:45Z</time>
      </trkpt>
      <trkpt lat="44.14558" lon="2.98892">
        <ele>694</ele>
        <time>2014-03-18T09:50:49Z</time>
      </trkpt>
      <trkpt lat="44.14557" lon="2.98883">
        <ele>694</ele>
        <time>2014-03-18T09:50:53Z</time>
      </trkpt>
      <trkpt lat="44.14555" lon="2.98876">
        <ele>694</ele>
        <time>2014-03-18T09:50:56Z</time>
      </trkpt>
      <trkpt lat="44.14556" lon="2.98868">
        <ele>694</ele>
        <time>2014-03-18T09:51:01Z</time>
      </trkpt>
      <trkpt lat="44.14555" lon="2.98859">
        <ele>695</ele>
        <time>2014-03-18T09:51:05Z</time>
      </trkpt>
      <trkpt lat="44.14555" lon="2.98853">
        <ele>695</ele>
        <time>2014-03-18T09:51:09Z</time>
      </trkpt>
      <trkpt lat="44.14555" lon="2.98845">
        <ele>697</ele>
        <time>2014-03-18T09:51:14Z</time>
      </trkpt>
      <trkpt lat="44.14557" lon="2.98838">
        <ele>698</ele>
        <time>2014-03-18T09:51:18Z</time>
      </trkpt>
      <trkpt lat="44.1456" lon="2.98832">
        <ele>699</ele>
        <time>2014-03-18T09:51:23Z</time>
      </trkpt>
      <trkpt lat="44.14559" lon="2.98826">
        <ele>701</ele>
        <time>2014-03-18T09:51:27Z</time>
      </trkpt>
      <trkpt lat="44.14558" lon="2.98818">
        <ele>701</ele>
        <time>2014-03-18T09:51:32Z</time>
      </trkpt>
      <trkpt lat="44.14558" lon="2.98812">
        <ele>702</ele>
        <time>2014-03-18T09:51:35Z</time>
      </trkpt>
      <trkpt lat="44.14558" lon="2.98804">
        <ele>703</ele>
        <time>2014-03-18T09:51:38Z</time>
      </trkpt>
      <trkpt lat="44.14559" lon="2.98797">
        <ele>704</ele>
        <time>2014-03-18T09:51:47Z</time>
      </trkpt>
      <trkpt lat="44.14561" lon="2.98792">
        <ele>703</ele>
        <time>2014-03-18T09:51:54Z</time>
      </trkpt>
      <trkpt lat="44.14561" lon="2.98785">
        <ele>704</ele>
        <time>2014-03-18T09:51:57Z</time>
      </trkpt>
      <trkpt lat="44.14564" lon="2.98779">
        <ele>704</ele>
        <time>2014-03-18T09:52:01Z</time>
      </trkpt>
      <trkpt lat="44.14568" lon="2.98777">
        <ele>706</ele>
        <time>2014-03-18T09:52:07Z</time>
      </trkpt>
      <trkpt lat="44.14572" lon="2.98782">
        <ele>709</ele>
        <time>2014-03-18T09:52:11Z</time>
      </trkpt>
      <trkpt lat="44.14577" lon="2.98786">
        <ele>710</ele>
        <time>2014-03-18T09:52:14Z</time>
      </trkpt>
      <trkpt lat="44.1458" lon="2.9879">
        <ele>710</ele>
        <time>2014-03-18T09:52:17Z</time>
      </trkpt>
      <trkpt lat="44.14585" lon="2.98792">
        <ele>711</ele>
        <time>2014-03-18T09:52:22Z</time>
      </trkpt>
      <trkpt lat="44.14589" lon="2.98786">
        <ele>712</ele>
        <time>2014-03-18T09:52:28Z</time>
      </trkpt>
      <trkpt lat="44.14592" lon="2.98779">
        <ele>712</ele>
        <time>2014-03-18T09:52:31Z</time>
      </trkpt>
      <trkpt lat="44.14595" lon="2.98774">
        <ele>713</ele>
        <time>2014-03-18T09:52:36Z</time>
      </trkpt>
      <trkpt lat="44.146" lon="2.98775">
        <ele>713</ele>
        <time>2014-03-18T09:52:41Z</time>
      </trkpt>
      <trkpt lat="44.14605" lon="2.98774">
        <ele>715</ele>
        <time>2014-03-18T09:52:46Z</time>
      </trkpt>
      <trkpt lat="44.14611" lon="2.98773">
        <ele>716</ele>
        <time>2014-03-18T09:52:50Z</time>
      </trkpt>
      <trkpt lat="44.14615" lon="2.98772">
        <ele>716</ele>
        <time>2014-03-18T09:52:55Z</time>
      </trkpt>
      <trkpt lat="44.1462" lon="2.98767">
        <ele>715</ele>
        <time>2014-03-18T09:53:07Z</time>
      </trkpt>
      <trkpt lat="44.14625" lon="2.98767">
        <ele>714</ele>
        <time>2014-03-18T09:53:10Z</time>
      </trkpt>
      <trkpt lat="44.14634" lon="2.98764">
        <ele>715</ele>
        <time>2014-03-18T09:53:16Z</time>
      </trkpt>
      <trkpt lat="44.14638" lon="2.98759">
        <ele>715</ele>
        <time>2014-03-18T09:53:19Z</time>
      </trkpt>
      <trkpt lat="44.14644" lon="2.98754">
        <ele>718</ele>
        <time>2014-03-18T09:53:24Z</time>
      </trkpt>
      <trkpt lat="44.14649" lon="2.9875">
        <ele>718</ele>
        <time>2014-03-18T09:53:28Z</time>
      </trkpt>
      <trkpt lat="44.14652" lon="2.98745">
        <ele>719</ele>
        <time>2014-03-18T09:53:32Z</time>
      </trkpt>
      <trkpt lat="44.14652" lon="2.9874">
        <ele>719</ele>
        <time>2014-03-18T09:53:40Z</time>
      </trkpt>
      <trkpt lat="44.14648" lon="2.98739">
        <ele>719</ele>
        <time>2014-03-18T09:53:43Z</time>
      </trkpt>
      <trkpt lat="44.14647" lon="2.98733">
        <ele>717</ele>
        <time>2014-03-18T09:53:54Z</time>
      </trkpt>
      <trkpt lat="44.14647" lon="2.98738">
        <ele>717</ele>
        <time>2014-03-18T09:54:09Z</time>
      </trkpt>
      <trkpt lat="44.1465" lon="2.9874">
        <ele>719</ele>
        <time>2014-03-18T09:55:04Z</time>
      </trkpt>
      <trkpt lat="44.14654" lon="2.98736">
        <ele>720</ele>
        <time>2014-03-18T09:55:10Z</time>
      </trkpt>
      <trkpt lat="44.14658" lon="2.98731">
        <ele>721</ele>
        <time>2014-03-18T09:55:14Z</time>
      </trkpt>
      <trkpt lat="44.14661" lon="2.98726">
        <ele>722</ele>
        <time>2014-03-18T09:55:19Z</time>
      </trkpt>
      <trkpt lat="44.14665" lon="2.98724">
        <ele>722</ele>
        <time>2014-03-18T09:55:23Z</time>
      </trkpt>
      <trkpt lat="44.1467" lon="2.98724">
        <ele>722</ele>
        <time>2014-03-18T09:55:27Z</time>
      </trkpt>
      <trkpt lat="44.14675" lon="2.9872">
        <ele>722</ele>
        <time>2014-03-18T09:55:32Z</time>
      </trkpt>
      <trkpt lat="44.14679" lon="2.98717">
        <ele>721</ele>
        <time>2014-03-18T09:55:37Z</time>
      </trkpt>
      <trkpt lat="44.14685" lon="2.98715">
        <ele>721</ele>
        <time>2014-03-18T09:55:41Z</time>
      </trkpt>
      <trkpt lat="44.1469" lon="2.98715">
        <ele>720</ele>
        <time>2014-03-18T09:55:44Z</time>
      </trkpt>
      <trkpt lat="44.14694" lon="2.98713">
        <ele>719</ele>
        <time>2014-03-18T09:55:51Z</time>
      </trkpt>
      <trkpt lat="44.14699" lon="2.98712">
        <ele>716</ele>
        <time>2014-03-18T09:55:55Z</time>
      </trkpt>
      <trkpt lat="44.14703" lon="2.98713">
        <ele>716</ele>
        <time>2014-03-18T09:55:58Z</time>
      </trkpt>
      <trkpt lat="44.14708" lon="2.98715">
        <ele>717</ele>
        <time>2014-03-18T09:56:02Z</time>
      </trkpt>
      <trkpt lat="44.14712" lon="2.9872">
        <ele>717</ele>
        <time>2014-03-18T09:56:06Z</time>
      </trkpt>
      <trkpt lat="44.14715" lon="2.98725">
        <ele>717</ele>
        <time>2014-03-18T09:56:09Z</time>
      </trkpt>
      <trkpt lat="44.1472" lon="2.98726">
        <ele>717</ele>
        <time>2014-03-18T09:56:13Z</time>
      </trkpt>
      <trkpt lat="44.14726" lon="2.98723">
        <ele>716</ele>
        <time>2014-03-18T09:56:16Z</time>
      </trkpt>
      <trkpt lat="44.14731" lon="2.9872">
        <ele>715</ele>
        <time>2014-03-18T09:56:19Z</time>
      </trkpt>
      <trkpt lat="44.14736" lon="2.98717">
        <ele>715</ele>
        <time>2014-03-18T09:56:22Z</time>
      </trkpt>
      <trkpt lat="44.14742" lon="2.98716">
        <ele>714</ele>
        <time>2014-03-18T09:56:25Z</time>
      </trkpt>
      <trkpt lat="44.14746" lon="2.98712">
        <ele>712</ele>
        <time>2014-03-18T09:56:32Z</time>
      </trkpt>
      <trkpt lat="44.14751" lon="2.98711">
        <ele>710</ele>
        <time>2014-03-18T09:56:36Z</time>
      </trkpt>
      <trkpt lat="44.14757" lon="2.98709">
        <ele>710</ele>
        <time>2014-03-18T09:56:39Z</time>
      </trkpt>
      <trkpt lat="44.14763" lon="2.98707">
        <ele>711</ele>
        <time>2014-03-18T09:56:43Z</time>
      </trkpt>
      <trkpt lat="44.14767" lon="2.98704">
        <ele>711</ele>
        <time>2014-03-18T09:56:47Z</time>
      </trkpt>
      <trkpt lat="44.14772" lon="2.987">
        <ele>711</ele>
        <time>2014-03-18T09:56:50Z</time>
      </trkpt>
      <trkpt lat="44.14778" lon="2.98696">
        <ele>711</ele>
        <time>2014-03-18T09:56:54Z</time>
      </trkpt>
      <trkpt lat="44.14783" lon="2.98694">
        <ele>710</ele>
        <time>2014-03-18T09:56:58Z</time>
      </trkpt>
      <trkpt lat="44.14788" lon="2.98691">
        <ele>709</ele>
        <time>2014-03-18T09:57:01Z</time>
      </trkpt>
      <trkpt lat="44.14792" lon="2.98687">
        <ele>709</ele>
        <time>2014-03-18T09:57:04Z</time>
      </trkpt>
      <trkpt lat="44.14796" lon="2.98683">
        <ele>710</ele>
        <time>2014-03-18T09:57:11Z</time>
      </trkpt>
      <trkpt lat="44.14801" lon="2.9868">
        <ele>709</ele>
        <time>2014-03-18T09:57:14Z</time>
      </trkpt>
      <trkpt lat="44.14805" lon="2.98677">
        <ele>708</ele>
        <time>2014-03-18T09:57:19Z</time>
      </trkpt>
      <trkpt lat="44.14809" lon="2.98671">
        <ele>706</ele>
        <time>2014-03-18T09:57:23Z</time>
      </trkpt>
      <trkpt lat="44.14813" lon="2.98666">
        <ele>704</ele>
        <time>2014-03-18T09:57:26Z</time>
      </trkpt>
      <trkpt lat="44.14818" lon="2.98661">
        <ele>703</ele>
        <time>2014-03-18T09:57:30Z</time>
      </trkpt>
      <trkpt lat="44.14824" lon="2.98659">
        <ele>703</ele>
        <time>2014-03-18T09:57:34Z</time>
      </trkpt>
      <trkpt lat="44.14828" lon="2.98656">
        <ele>701</ele>
        <time>2014-03-18T09:57:39Z</time>
      </trkpt>
      <trkpt lat="44.14832" lon="2.98651">
        <ele>702</ele>
        <time>2014-03-18T09:57:42Z</time>
      </trkpt>
      <trkpt lat="44.14837" lon="2.98647">
        <ele>702</ele>
        <time>2014-03-18T09:57:45Z</time>
      </trkpt>
      <trkpt lat="44.14842" lon="2.98643">
        <ele>703</ele>
        <time>2014-03-18T09:57:48Z</time>
      </trkpt>
      <trkpt lat="44.14848" lon="2.9864">
        <ele>704</ele>
        <time>2014-03-18T09:57:51Z</time>
      </trkpt>
      <trkpt lat="44.14852" lon="2.98637">
        <ele>705</ele>
        <time>2014-03-18T09:57:53Z</time>
      </trkpt>
      <trkpt lat="44.14857" lon="2.98633">
        <ele>706</ele>
        <time>2014-03-18T09:57:56Z</time>
      </trkpt>
      <trkpt lat="44.14862" lon="2.98629">
        <ele>707</ele>
        <time>2014-03-18T09:57:59Z</time>
      </trkpt>
      <trkpt lat="44.14866" lon="2.98624">
        <ele>707</ele>
        <time>2014-03-18T09:58:03Z</time>
      </trkpt>
      <trkpt lat="44.14868" lon="2.98618">
        <ele>707</ele>
        <time>2014-03-18T09:58:08Z</time>
      </trkpt>
      <trkpt lat="44.14873" lon="2.98615">
        <ele>707</ele>
        <time>2014-03-18T09:58:10Z</time>
      </trkpt>
      <trkpt lat="44.14879" lon="2.98613">
        <ele>707</ele>
        <time>2014-03-18T09:58:13Z</time>
      </trkpt>
      <trkpt lat="44.14884" lon="2.98613">
        <ele>706</ele>
        <time>2014-03-18T09:58:16Z</time>
      </trkpt>
      <trkpt lat="44.14887" lon="2.98608">
        <ele>707</ele>
        <time>2014-03-18T09:58:20Z</time>
      </trkpt>
      <trkpt lat="44.1489" lon="2.98602">
        <ele>707</ele>
        <time>2014-03-18T09:58:24Z</time>
      </trkpt>
      <trkpt lat="44.14896" lon="2.986">
        <ele>707</ele>
        <time>2014-03-18T09:58:27Z</time>
      </trkpt>
      <trkpt lat="44.149" lon="2.98598">
        <ele>708</ele>
        <time>2014-03-18T09:58:30Z</time>
      </trkpt>
      <trkpt lat="44.14904" lon="2.98594">
        <ele>708</ele>
        <time>2014-03-18T09:58:33Z</time>
      </trkpt>
      <trkpt lat="44.14907" lon="2.98589">
        <ele>707</ele>
        <time>2014-03-18T09:58:36Z</time>
      </trkpt>
      <trkpt lat="44.1491" lon="2.98582">
        <ele>706</ele>
        <time>2014-03-18T09:58:40Z</time>
      </trkpt>
      <trkpt lat="44.14913" lon="2.9857">
        <ele>705</ele>
        <time>2014-03-18T09:58:47Z</time>
      </trkpt>
      <trkpt lat="44.14916" lon="2.98561">
        <ele>705</ele>
        <time>2014-03-18T09:58:50Z</time>
      </trkpt>
      <trkpt lat="44.14919" lon="2.98554">
        <ele>706</ele>
        <time>2014-03-18T09:58:53Z</time>
      </trkpt>
      <trkpt lat="44.14923" lon="2.98546">
        <ele>706</ele>
        <time>2014-03-18T09:58:56Z</time>
      </trkpt>
      <trkpt lat="44.14928" lon="2.98541">
        <ele>706</ele>
        <time>2014-03-18T09:58:59Z</time>
      </trkpt>
      <trkpt lat="44.14932" lon="2.98536">
        <ele>707</ele>
        <time>2014-03-18T09:59:02Z</time>
      </trkpt>
      <trkpt lat="44.14935" lon="2.98532">
        <ele>706</ele>
        <time>2014-03-18T09:59:06Z</time>
      </trkpt>
      <trkpt lat="44.1494" lon="2.98526">
        <ele>705</ele>
        <time>2014-03-18T09:59:11Z</time>
      </trkpt>
      <trkpt lat="44.14944" lon="2.98522">
        <ele>705</ele>
        <time>2014-03-18T09:59:15Z</time>
      </trkpt>
      <trkpt lat="44.14948" lon="2.98518">
        <ele>706</ele>
        <time>2014-03-18T09:59:17Z</time>
      </trkpt>
      <trkpt lat="44.14952" lon="2.98514">
        <ele>706</ele>
        <time>2014-03-18T09:59:20Z</time>
      </trkpt>
      <trkpt lat="44.14954" lon="2.98508">
        <ele>706</ele>
        <time>2014-03-18T09:59:24Z</time>
      </trkpt>
      <trkpt lat="44.14956" lon="2.98501">
        <ele>707</ele>
        <time>2014-03-18T09:59:27Z</time>
      </trkpt>
      <trkpt lat="44.14959" lon="2.98493">
        <ele>708</ele>
        <time>2014-03-18T09:59:31Z</time>
      </trkpt>
      <trkpt lat="44.14962" lon="2.98488">
        <ele>709</ele>
        <time>2014-03-18T09:59:33Z</time>
      </trkpt>
      <trkpt lat="44.14966" lon="2.98483">
        <ele>709</ele>
        <time>2014-03-18T09:59:36Z</time>
      </trkpt>
      <trkpt lat="44.14969" lon="2.98476">
        <ele>709</ele>
        <time>2014-03-18T09:59:41Z</time>
      </trkpt>
      <trkpt lat="44.14972" lon="2.9847">
        <ele>709</ele>
        <time>2014-03-18T09:59:45Z</time>
      </trkpt>
      <trkpt lat="44.14974" lon="2.98463">
        <ele>709</ele>
        <time>2014-03-18T09:59:50Z</time>
      </trkpt>
      <trkpt lat="44.14977" lon="2.98456">
        <ele>710</ele>
        <time>2014-03-18T09:59:55Z</time>
      </trkpt>
      <trkpt lat="44.14978" lon="2.9845">
        <ele>712</ele>
        <time>2014-03-18T09:59:58Z</time>
      </trkpt>
      <trkpt lat="44.14978" lon="2.98443">
        <ele>713</ele>
        <time>2014-03-18T10:00:01Z</time>
      </trkpt>
      <trkpt lat="44.14978" lon="2.98435">
        <ele>715</ele>
        <time>2014-03-18T10:00:04Z</time>
      </trkpt>
      <trkpt lat="44.14977" lon="2.98432">
        <ele>717</ele>
        <time>2014-03-18T10:00:11Z</time>
      </trkpt>
      <trkpt lat="44.14976" lon="2.98423">
        <ele>717</ele>
        <time>2014-03-18T10:00:22Z</time>
      </trkpt>
      <trkpt lat="44.14975" lon="2.98417">
        <ele>715</ele>
        <time>2014-03-18T10:00:25Z</time>
      </trkpt>
      <trkpt lat="44.14976" lon="2.9841">
        <ele>714</ele>
        <time>2014-03-18T10:00:28Z</time>
      </trkpt>
      <trkpt lat="44.14977" lon="2.98404">
        <ele>713</ele>
        <time>2014-03-18T10:00:31Z</time>
      </trkpt>
      <trkpt lat="44.1498" lon="2.98399">
        <ele>712</ele>
        <time>2014-03-18T10:00:36Z</time>
      </trkpt>
      <trkpt lat="44.14982" lon="2.98393">
        <ele>712</ele>
        <time>2014-03-18T10:00:41Z</time>
      </trkpt>
      <trkpt lat="44.14982" lon="2.98394">
        <ele>713</ele>
        <time>2014-03-18T10:00:56Z</time>
      </trkpt>
      <trkpt lat="44.14985" lon="2.98387">
        <ele>714</ele>
        <time>2014-03-18T10:01:09Z</time>
      </trkpt>
      <trkpt lat="44.14989" lon="2.98383">
        <ele>714</ele>
        <time>2014-03-18T10:01:14Z</time>
      </trkpt>
      <trkpt lat="44.14992" lon="2.98378">
        <ele>715</ele>
        <time>2014-03-18T10:01:22Z</time>
      </trkpt>
      <trkpt lat="44.14995" lon="2.98373">
        <ele>715</ele>
        <time>2014-03-18T10:01:28Z</time>
      </trkpt>
      <trkpt lat="44.15" lon="2.98368">
        <ele>714</ele>
        <time>2014-03-18T10:01:32Z</time>
      </trkpt>
      <trkpt lat="44.15004" lon="2.98364">
        <ele>711</ele>
        <time>2014-03-18T10:01:38Z</time>
      </trkpt>
      <trkpt lat="44.15008" lon="2.98359">
        <ele>710</ele>
        <time>2014-03-18T10:01:42Z</time>
      </trkpt>
      <trkpt lat="44.1501" lon="2.98354">
        <ele>710</ele>
        <time>2014-03-18T10:01:44Z</time>
      </trkpt>
      <trkpt lat="44.15014" lon="2.98348">
        <ele>710</ele>
        <time>2014-03-18T10:01:47Z</time>
      </trkpt>
      <trkpt lat="44.15018" lon="2.98343">
        <ele>711</ele>
        <time>2014-03-18T10:01:51Z</time>
      </trkpt>
      <trkpt lat="44.15021" lon="2.9834">
        <ele>711</ele>
        <time>2014-03-18T10:01:55Z</time>
      </trkpt>
      <trkpt lat="44.15024" lon="2.98334">
        <ele>709</ele>
        <time>2014-03-18T10:02:00Z</time>
      </trkpt>
      <trkpt lat="44.15027" lon="2.98328">
        <ele>709</ele>
        <time>2014-03-18T10:02:04Z</time>
      </trkpt>
      <trkpt lat="44.15032" lon="2.98323">
        <ele>710</ele>
        <time>2014-03-18T10:02:08Z</time>
      </trkpt>
      <trkpt lat="44.15035" lon="2.98319">
        <ele>711</ele>
        <time>2014-03-18T10:02:11Z</time>
      </trkpt>
      <trkpt lat="44.15039" lon="2.98316">
        <ele>711</ele>
        <time>2014-03-18T10:02:14Z</time>
      </trkpt>
      <trkpt lat="44.15044" lon="2.98312">
        <ele>711</ele>
        <time>2014-03-18T10:02:18Z</time>
      </trkpt>
      <trkpt lat="44.15047" lon="2.98305">
        <ele>709</ele>
        <time>2014-03-18T10:02:23Z</time>
      </trkpt>
      <trkpt lat="44.15049" lon="2.983">
        <ele>708</ele>
        <time>2014-03-18T10:02:27Z</time>
      </trkpt>
      <trkpt lat="44.15054" lon="2.98298">
        <ele>708</ele>
        <time>2014-03-18T10:02:30Z</time>
      </trkpt>
      <trkpt lat="44.15059" lon="2.98295">
        <ele>707</ele>
        <time>2014-03-18T10:02:36Z</time>
      </trkpt>
      <trkpt lat="44.15062" lon="2.98288">
        <ele>707</ele>
        <time>2014-03-18T10:02:40Z</time>
      </trkpt>
      <trkpt lat="44.15064" lon="2.98281">
        <ele>707</ele>
        <time>2014-03-18T10:02:44Z</time>
      </trkpt>
      <trkpt lat="44.15068" lon="2.98276">
        <ele>707</ele>
        <time>2014-03-18T10:02:47Z</time>
      </trkpt>
      <trkpt lat="44.15072" lon="2.98272">
        <ele>707</ele>
        <time>2014-03-18T10:02:50Z</time>
      </trkpt>
      <trkpt lat="44.15076" lon="2.98269">
        <ele>706</ele>
        <time>2014-03-18T10:02:54Z</time>
      </trkpt>
      <trkpt lat="44.15081" lon="2.98265">
        <ele>705</ele>
        <time>2014-03-18T10:02:59Z</time>
      </trkpt>
      <trkpt lat="44.15086" lon="2.9826">
        <ele>706</ele>
        <time>2014-03-18T10:03:15Z</time>
      </trkpt>
      <trkpt lat="44.1509" lon="2.98258">
        <ele>707</ele>
        <time>2014-03-18T10:03:18Z</time>
      </trkpt>
      <trkpt lat="44.15095" lon="2.98255">
        <ele>708</ele>
        <time>2014-03-18T10:03:22Z</time>
      </trkpt>
      <trkpt lat="44.15099" lon="2.98252">
        <ele>708</ele>
        <time>2014-03-18T10:03:26Z</time>
      </trkpt>
      <trkpt lat="44.15103" lon="2.98251">
        <ele>709</ele>
        <time>2014-03-18T10:03:47Z</time>
      </trkpt>
      <trkpt lat="44.15108" lon="2.98247">
        <ele>709</ele>
        <time>2014-03-18T10:03:51Z</time>
      </trkpt>
      <trkpt lat="44.15113" lon="2.98243">
        <ele>710</ele>
        <time>2014-03-18T10:03:54Z</time>
      </trkpt>
      <trkpt lat="44.15117" lon="2.9824">
        <ele>710</ele>
        <time>2014-03-18T10:04:00Z</time>
      </trkpt>
      <trkpt lat="44.15123" lon="2.98239">
        <ele>709</ele>
        <time>2014-03-18T10:04:04Z</time>
      </trkpt>
      <trkpt lat="44.15128" lon="2.98236">
        <ele>708</ele>
        <time>2014-03-18T10:04:08Z</time>
      </trkpt>
      <trkpt lat="44.15132" lon="2.98232">
        <ele>707</ele>
        <time>2014-03-18T10:04:11Z</time>
      </trkpt>
      <trkpt lat="44.15137" lon="2.98228">
        <ele>707</ele>
        <time>2014-03-18T10:04:14Z</time>
      </trkpt>
      <trkpt lat="44.15142" lon="2.98225">
        <ele>708</ele>
        <time>2014-03-18T10:04:18Z</time>
      </trkpt>
      <trkpt lat="44.15146" lon="2.98221">
        <ele>708</ele>
        <time>2014-03-18T10:04:22Z</time>
      </trkpt>
      <trkpt lat="44.1515" lon="2.98216">
        <ele>708</ele>
        <time>2014-03-18T10:04:26Z</time>
      </trkpt>
      <trkpt lat="44.15155" lon="2.98213">
        <ele>709</ele>
        <time>2014-03-18T10:04:30Z</time>
      </trkpt>
      <trkpt lat="44.15159" lon="2.9821">
        <ele>710</ele>
        <time>2014-03-18T10:04:33Z</time>
      </trkpt>
      <trkpt lat="44.15164" lon="2.98207">
        <ele>711</ele>
        <time>2014-03-18T10:04:36Z</time>
      </trkpt>
      <trkpt lat="44.15168" lon="2.98204">
        <ele>712</ele>
        <time>2014-03-18T10:04:39Z</time>
      </trkpt>
      <trkpt lat="44.15172" lon="2.982">
        <ele>712</ele>
        <time>2014-03-18T10:04:43Z</time>
      </trkpt>
      <trkpt lat="44.15177" lon="2.98196">
        <ele>712</ele>
        <time>2014-03-18T10:04:47Z</time>
      </trkpt>
      <trkpt lat="44.15182" lon="2.98193">
        <ele>712</ele>
        <time>2014-03-18T10:04:51Z</time>
      </trkpt>
      <trkpt lat="44.15187" lon="2.98188">
        <ele>712</ele>
        <time>2014-03-18T10:04:55Z</time>
      </trkpt>
      <trkpt lat="44.15191" lon="2.98185">
        <ele>712</ele>
        <time>2014-03-18T10:04:58Z</time>
      </trkpt>
      <trkpt lat="44.15196" lon="2.98181">
        <ele>713</ele>
        <time>2014-03-18T10:05:01Z</time>
      </trkpt>
      <trkpt lat="44.15201" lon="2.98177">
        <ele>713</ele>
        <time>2014-03-18T10:05:06Z</time>
      </trkpt>
      <trkpt lat="44.15205" lon="2.98174">
        <ele>712</ele>
        <time>2014-03-18T10:05:13Z</time>
      </trkpt>
      <trkpt lat="44.1521" lon="2.98172">
        <ele>712</ele>
        <time>2014-03-18T10:05:18Z</time>
      </trkpt>
      <trkpt lat="44.15213" lon="2.98166">
        <ele>710</ele>
        <time>2014-03-18T10:05:23Z</time>
      </trkpt>
      <trkpt lat="44.15216" lon="2.98161">
        <ele>710</ele>
        <time>2014-03-18T10:05:27Z</time>
      </trkpt>
      <trkpt lat="44.1522" lon="2.98156">
        <ele>709</ele>
        <time>2014-03-18T10:05:30Z</time>
      </trkpt>
      <trkpt lat="44.15224" lon="2.9815">
        <ele>709</ele>
        <time>2014-03-18T10:05:33Z</time>
      </trkpt>
      <trkpt lat="44.15228" lon="2.98146">
        <ele>709</ele>
        <time>2014-03-18T10:05:37Z</time>
      </trkpt>
      <trkpt lat="44.15232" lon="2.98141">
        <ele>709</ele>
        <time>2014-03-18T10:05:43Z</time>
      </trkpt>
      <trkpt lat="44.15236" lon="2.98137">
        <ele>708</ele>
        <time>2014-03-18T10:05:51Z</time>
      </trkpt>
      <trkpt lat="44.1524" lon="2.98134">
        <ele>707</ele>
        <time>2014-03-18T10:05:54Z</time>
      </trkpt>
      <trkpt lat="44.15238" lon="2.98128">
        <ele>706</ele>
        <time>2014-03-18T10:06:03Z</time>
      </trkpt>
      <trkpt lat="44.15237" lon="2.98121">
        <ele>707</ele>
        <time>2014-03-18T10:06:08Z</time>
      </trkpt>
      <trkpt lat="44.15237" lon="2.98114">
        <ele>708</ele>
        <time>2014-03-18T10:06:12Z</time>
      </trkpt>
      <trkpt lat="44.15236" lon="2.98106">
        <ele>708</ele>
        <time>2014-03-18T10:06:16Z</time>
      </trkpt>
      <trkpt lat="44.15235" lon="2.981">
        <ele>708</ele>
        <time>2014-03-18T10:06:19Z</time>
      </trkpt>
      <trkpt lat="44.15234" lon="2.98093">
        <ele>709</ele>
        <time>2014-03-18T10:06:22Z</time>
      </trkpt>
      <trkpt lat="44.15233" lon="2.98086">
        <ele>709</ele>
        <time>2014-03-18T10:06:25Z</time>
      </trkpt>
      <trkpt lat="44.15232" lon="2.9808">
        <ele>709</ele>
        <time>2014-03-18T10:06:30Z</time>
      </trkpt>
      <trkpt lat="44.15231" lon="2.98072">
        <ele>709</ele>
        <time>2014-03-18T10:06:35Z</time>
      </trkpt>
      <trkpt lat="44.15229" lon="2.98065">
        <ele>709</ele>
        <time>2014-03-18T10:06:40Z</time>
      </trkpt>
      <trkpt lat="44.15227" lon="2.98059">
        <ele>709</ele>
        <time>2014-03-18T10:06:43Z</time>
      </trkpt>
      <trkpt lat="44.15224" lon="2.98053">
        <ele>707</ele>
        <time>2014-03-18T10:06:47Z</time>
      </trkpt>
      <trkpt lat="44.15222" lon="2.98047">
        <ele>707</ele>
        <time>2014-03-18T10:06:50Z</time>
      </trkpt>
      <trkpt lat="44.15218" lon="2.98042">
        <ele>707</ele>
        <time>2014-03-18T10:06:54Z</time>
      </trkpt>
      <trkpt lat="44.15214" lon="2.98037">
        <ele>709</ele>
        <time>2014-03-18T10:06:58Z</time>
      </trkpt>
      <trkpt lat="44.1521" lon="2.98031">
        <ele>710</ele>
        <time>2014-03-18T10:07:02Z</time>
      </trkpt>
      <trkpt lat="44.15207" lon="2.98026">
        <ele>711</ele>
        <time>2014-03-18T10:07:05Z</time>
      </trkpt>
      <trkpt lat="44.15203" lon="2.98022">
        <ele>710</ele>
        <time>2014-03-18T10:07:09Z</time>
      </trkpt>
      <trkpt lat="44.15199" lon="2.98019">
        <ele>709</ele>
        <time>2014-03-18T10:07:14Z</time>
      </trkpt>
      <trkpt lat="44.15197" lon="2.98012">
        <ele>709</ele>
        <time>2014-03-18T10:07:18Z</time>
      </trkpt>
      <trkpt lat="44.15196" lon="2.98008">
        <ele>709</ele>
        <time>2014-03-18T10:07:26Z</time>
      </trkpt>
      <trkpt lat="44.15193" lon="2.98012">
        <ele>712</ele>
        <time>2014-03-18T10:08:08Z</time>
      </trkpt>
      <trkpt lat="44.15195" lon="2.98009">
        <ele>718</ele>
        <time>2014-03-18T10:10:06Z</time>
      </trkpt>
      <trkpt lat="44.15195" lon="2.97998">
        <ele>712</ele>
        <time>2014-03-18T10:10:31Z</time>
      </trkpt>
      <trkpt lat="44.15196" lon="2.97999">
        <ele>707</ele>
        <time>2014-03-18T10:12:07Z</time>
      </trkpt>
      <trkpt lat="44.15201" lon="2.97999">
        <ele>706</ele>
        <time>2014-03-18T10:12:14Z</time>
      </trkpt>
      <trkpt lat="44.15206" lon="2.97995">
        <ele>705</ele>
        <time>2014-03-18T10:12:18Z</time>
      </trkpt>
      <trkpt lat="44.15209" lon="2.97991">
        <ele>704</ele>
        <time>2014-03-18T10:12:20Z</time>
      </trkpt>
      <trkpt lat="44.15212" lon="2.97985">
        <ele>704</ele>
        <time>2014-03-18T10:12:24Z</time>
      </trkpt>
      <trkpt lat="44.15215" lon="2.97979">
        <ele>704</ele>
        <time>2014-03-18T10:12:28Z</time>
      </trkpt>
      <trkpt lat="44.15218" lon="2.97974">
        <ele>705</ele>
        <time>2014-03-18T10:12:31Z</time>
      </trkpt>
      <trkpt lat="44.15223" lon="2.9797">
        <ele>706</ele>
        <time>2014-03-18T10:12:34Z</time>
      </trkpt>
      <trkpt lat="44.15227" lon="2.97966">
        <ele>706</ele>
        <time>2014-03-18T10:12:37Z</time>
      </trkpt>
      <trkpt lat="44.1523" lon="2.97959">
        <ele>707</ele>
        <time>2014-03-18T10:12:41Z</time>
      </trkpt>
      <trkpt lat="44.15232" lon="2.97952">
        <ele>708</ele>
        <time>2014-03-18T10:12:45Z</time>
      </trkpt>
      <trkpt lat="44.15232" lon="2.97945">
        <ele>707</ele>
        <time>2014-03-18T10:12:51Z</time>
      </trkpt>
      <trkpt lat="44.15232" lon="2.97938">
        <ele>707</ele>
        <time>2014-03-18T10:12:56Z</time>
      </trkpt>
      <trkpt lat="44.15234" lon="2.97932">
        <ele>707</ele>
        <time>2014-03-18T10:13:01Z</time>
      </trkpt>
      <trkpt lat="44.15234" lon="2.97925">
        <ele>707</ele>
        <time>2014-03-18T10:13:05Z</time>
      </trkpt>
      <trkpt lat="44.15234" lon="2.97918">
        <ele>708</ele>
        <time>2014-03-18T10:13:08Z</time>
      </trkpt>
      <trkpt lat="44.15236" lon="2.9791">
        <ele>709</ele>
        <time>2014-03-18T10:13:11Z</time>
      </trkpt>
      <trkpt lat="44.1524" lon="2.97903">
        <ele>710</ele>
        <time>2014-03-18T10:13:14Z</time>
      </trkpt>
      <trkpt lat="44.15242" lon="2.97898">
        <ele>711</ele>
        <time>2014-03-18T10:13:18Z</time>
      </trkpt>
      <trkpt lat="44.15244" lon="2.97892">
        <ele>711</ele>
        <time>2014-03-18T10:13:22Z</time>
      </trkpt>
      <trkpt lat="44.15245" lon="2.97885">
        <ele>709</ele>
        <time>2014-03-18T10:13:27Z</time>
      </trkpt>
      <trkpt lat="44.15243" lon="2.97876">
        <ele>707</ele>
        <time>2014-03-18T10:13:32Z</time>
      </trkpt>
      <trkpt lat="44.15247" lon="2.97871">
        <ele>704</ele>
        <time>2014-03-18T10:13:35Z</time>
      </trkpt>
      <trkpt lat="44.15252" lon="2.97866">
        <ele>701</ele>
        <time>2014-03-18T10:13:38Z</time>
      </trkpt>
      <trkpt lat="44.15253" lon="2.97859">
        <ele>700</ele>
        <time>2014-03-18T10:13:42Z</time>
      </trkpt>
      <trkpt lat="44.15254" lon="2.97852">
        <ele>701</ele>
        <time>2014-03-18T10:13:46Z</time>
      </trkpt>
      <trkpt lat="44.15256" lon="2.97846">
        <ele>701</ele>
        <time>2014-03-18T10:13:51Z</time>
      </trkpt>
      <trkpt lat="44.15262" lon="2.9784">
        <ele>703</ele>
        <time>2014-03-18T10:13:55Z</time>
      </trkpt>
      <trkpt lat="44.15265" lon="2.97835">
        <ele>704</ele>
        <time>2014-03-18T10:13:58Z</time>
      </trkpt>
      <trkpt lat="44.15268" lon="2.9783">
        <ele>705</ele>
        <time>2014-03-18T10:14:02Z</time>
      </trkpt>
      <trkpt lat="44.15271" lon="2.97825">
        <ele>707</ele>
        <time>2014-03-18T10:14:05Z</time>
      </trkpt>
      <trkpt lat="44.15275" lon="2.97821">
        <ele>709</ele>
        <time>2014-03-18T10:14:08Z</time>
      </trkpt>
      <trkpt lat="44.15278" lon="2.97816">
        <ele>711</ele>
        <time>2014-03-18T10:14:13Z</time>
      </trkpt>
      <trkpt lat="44.15281" lon="2.97811">
        <ele>711</ele>
        <time>2014-03-18T10:14:17Z</time>
      </trkpt>
      <trkpt lat="44.15284" lon="2.97806">
        <ele>711</ele>
        <time>2014-03-18T10:14:21Z</time>
      </trkpt>
      <trkpt lat="44.15287" lon="2.97799">
        <ele>711</ele>
        <time>2014-03-18T10:14:25Z</time>
      </trkpt>
      <trkpt lat="44.15289" lon="2.97793">
        <ele>712</ele>
        <time>2014-03-18T10:14:29Z</time>
      </trkpt>
      <trkpt lat="44.15292" lon="2.97787">
        <ele>714</ele>
        <time>2014-03-18T10:14:33Z</time>
      </trkpt>
      <trkpt lat="44.15296" lon="2.9778">
        <ele>716</ele>
        <time>2014-03-18T10:14:36Z</time>
      </trkpt>
      <trkpt lat="44.15299" lon="2.97773">
        <ele>718</ele>
        <time>2014-03-18T10:14:39Z</time>
      </trkpt>
      <trkpt lat="44.15302" lon="2.97767">
        <ele>719</ele>
        <time>2014-03-18T10:14:44Z</time>
      </trkpt>
      <trkpt lat="44.15304" lon="2.9776">
        <ele>719</ele>
        <time>2014-03-18T10:14:50Z</time>
      </trkpt>
      <trkpt lat="44.15305" lon="2.97754">
        <ele>719</ele>
        <time>2014-03-18T10:14:53Z</time>
      </trkpt>
      <trkpt lat="44.15304" lon="2.97747">
        <ele>718</ele>
        <time>2014-03-18T10:14:55Z</time>
      </trkpt>
      <trkpt lat="44.15304" lon="2.9774">
        <ele>718</ele>
        <time>2014-03-18T10:14:58Z</time>
      </trkpt>
      <trkpt lat="44.15306" lon="2.97734">
        <ele>717</ele>
        <time>2014-03-18T10:15:02Z</time>
      </trkpt>
      <trkpt lat="44.15309" lon="2.97726">
        <ele>717</ele>
        <time>2014-03-18T10:15:06Z</time>
      </trkpt>
      <trkpt lat="44.1531" lon="2.97719">
        <ele>718</ele>
        <time>2014-03-18T10:15:09Z</time>
      </trkpt>
      <trkpt lat="44.15318" lon="2.97715">
        <ele>718</ele>
        <time>2014-03-18T10:15:15Z</time>
      </trkpt>
      <trkpt lat="44.15319" lon="2.97708">
        <ele>719</ele>
        <time>2014-03-18T10:15:19Z</time>
      </trkpt>
      <trkpt lat="44.15321" lon="2.97701">
        <ele>719</ele>
        <time>2014-03-18T10:15:22Z</time>
      </trkpt>
      <trkpt lat="44.15326" lon="2.97695">
        <ele>721</ele>
        <time>2014-03-18T10:15:25Z</time>
      </trkpt>
      <trkpt lat="44.15331" lon="2.97691">
        <ele>722</ele>
        <time>2014-03-18T10:15:27Z</time>
      </trkpt>
      <trkpt lat="44.15334" lon="2.97686">
        <ele>722</ele>
        <time>2014-03-18T10:15:31Z</time>
      </trkpt>
      <trkpt lat="44.15335" lon="2.9768">
        <ele>722</ele>
        <time>2014-03-18T10:15:36Z</time>
      </trkpt>
      <trkpt lat="44.15337" lon="2.97673">
        <ele>722</ele>
        <time>2014-03-18T10:15:40Z</time>
      </trkpt>
      <trkpt lat="44.15337" lon="2.97666">
        <ele>723</ele>
        <time>2014-03-18T10:15:43Z</time>
      </trkpt>
      <trkpt lat="44.15337" lon="2.97659">
        <ele>724</ele>
        <time>2014-03-18T10:15:46Z</time>
      </trkpt>
      <trkpt lat="44.15338" lon="2.97651">
        <ele>724</ele>
        <time>2014-03-18T10:15:50Z</time>
      </trkpt>
      <trkpt lat="44.1534" lon="2.97644">
        <ele>725</ele>
        <time>2014-03-18T10:15:54Z</time>
      </trkpt>
      <trkpt lat="44.15344" lon="2.97639">
        <ele>724</ele>
        <time>2014-03-18T10:16:02Z</time>
      </trkpt>
      <trkpt lat="44.15343" lon="2.97632">
        <ele>723</ele>
        <time>2014-03-18T10:16:05Z</time>
      </trkpt>
      <trkpt lat="44.15345" lon="2.97624">
        <ele>723</ele>
        <time>2014-03-18T10:16:09Z</time>
      </trkpt>
      <trkpt lat="44.15347" lon="2.97618">
        <ele>724</ele>
        <time>2014-03-18T10:16:11Z</time>
      </trkpt>
      <trkpt lat="44.1535" lon="2.97612">
        <ele>725</ele>
        <time>2014-03-18T10:16:14Z</time>
      </trkpt>
      <trkpt lat="44.15353" lon="2.97605">
        <ele>726</ele>
        <time>2014-03-18T10:16:18Z</time>
      </trkpt>
      <trkpt lat="44.15356" lon="2.97598">
        <ele>726</ele>
        <time>2014-03-18T10:16:24Z</time>
      </trkpt>
      <trkpt lat="44.1536" lon="2.97594">
        <ele>726</ele>
        <time>2014-03-18T10:16:30Z</time>
      </trkpt>
      <trkpt lat="44.15361" lon="2.9758">
        <ele>727</ele>
        <time>2014-03-18T10:16:35Z</time>
      </trkpt>
      <trkpt lat="44.15363" lon="2.97567">
        <ele>728</ele>
        <time>2014-03-18T10:16:41Z</time>
      </trkpt>
      <trkpt lat="44.15361" lon="2.97557">
        <ele>728</ele>
        <time>2014-03-18T10:16:47Z</time>
      </trkpt>
      <trkpt lat="44.15361" lon="2.97548">
        <ele>728</ele>
        <time>2014-03-18T10:16:50Z</time>
      </trkpt>
      <trkpt lat="44.15361" lon="2.9754">
        <ele>729</ele>
        <time>2014-03-18T10:16:53Z</time>
      </trkpt>
      <trkpt lat="44.1536" lon="2.9753">
        <ele>729</ele>
        <time>2014-03-18T10:16:56Z</time>
      </trkpt>
      <trkpt lat="44.1536" lon="2.97523">
        <ele>729</ele>
        <time>2014-03-18T10:17:00Z</time>
      </trkpt>
      <trkpt lat="44.15358" lon="2.97515">
        <ele>731</ele>
        <time>2014-03-18T10:17:03Z</time>
      </trkpt>
      <trkpt lat="44.15356" lon="2.97507">
        <ele>731</ele>
        <time>2014-03-18T10:17:06Z</time>
      </trkpt>
      <trkpt lat="44.15356" lon="2.975">
        <ele>732</ele>
        <time>2014-03-18T10:17:09Z</time>
      </trkpt>
      <trkpt lat="44.15354" lon="2.97493">
        <ele>731</ele>
        <time>2014-03-18T10:17:13Z</time>
      </trkpt>
      <trkpt lat="44.15351" lon="2.97486">
        <ele>730</ele>
        <time>2014-03-18T10:17:19Z</time>
      </trkpt>
      <trkpt lat="44.15349" lon="2.97479">
        <ele>730</ele>
        <time>2014-03-18T10:17:23Z</time>
      </trkpt>
      <trkpt lat="44.15347" lon="2.97473">
        <ele>733</ele>
        <time>2014-03-18T10:17:28Z</time>
      </trkpt>
      <trkpt lat="44.15344" lon="2.97467">
        <ele>734</ele>
        <time>2014-03-18T10:17:31Z</time>
      </trkpt>
      <trkpt lat="44.15337" lon="2.97449">
        <ele>741</ele>
        <time>2014-03-18T10:17:51Z</time>
      </trkpt>
      <trkpt lat="44.15336" lon="2.97446">
        <ele>741</ele>
        <time>2014-03-18T10:17:52Z</time>
      </trkpt>
      <trkpt lat="44.15335" lon="2.97442">
        <ele>742</ele>
        <time>2014-03-18T10:17:53Z</time>
      </trkpt>
      <trkpt lat="44.15334" lon="2.97438">
        <ele>742</ele>
        <time>2014-03-18T10:17:54Z</time>
      </trkpt>
      <trkpt lat="44.15331" lon="2.9743">
        <ele>744</ele>
        <time>2014-03-18T10:17:59Z</time>
      </trkpt>
      <trkpt lat="44.15329" lon="2.97424">
        <ele>745</ele>
        <time>2014-03-18T10:18:04Z</time>
      </trkpt>
      <trkpt lat="44.15327" lon="2.97417">
        <ele>746</ele>
        <time>2014-03-18T10:18:08Z</time>
      </trkpt>
      <trkpt lat="44.15325" lon="2.97411">
        <ele>747</ele>
        <time>2014-03-18T10:18:11Z</time>
      </trkpt>
      <trkpt lat="44.15324" lon="2.97403">
        <ele>748</ele>
        <time>2014-03-18T10:18:15Z</time>
      </trkpt>
      <trkpt lat="44.15322" lon="2.97396">
        <ele>749</ele>
        <time>2014-03-18T10:18:18Z</time>
      </trkpt>
      <trkpt lat="44.1532" lon="2.97389">
        <ele>750</ele>
        <time>2014-03-18T10:18:22Z</time>
      </trkpt>
      <trkpt lat="44.15317" lon="2.97382">
        <ele>750</ele>
        <time>2014-03-18T10:18:26Z</time>
      </trkpt>
      <trkpt lat="44.15314" lon="2.97377">
        <ele>750</ele>
        <time>2014-03-18T10:18:29Z</time>
      </trkpt>
      <trkpt lat="44.15312" lon="2.9737">
        <ele>749</ele>
        <time>2014-03-18T10:18:33Z</time>
      </trkpt>
      <trkpt lat="44.15309" lon="2.97363">
        <ele>748</ele>
        <time>2014-03-18T10:18:35Z</time>
      </trkpt>
      <trkpt lat="44.15307" lon="2.97356">
        <ele>747</ele>
        <time>2014-03-18T10:18:38Z</time>
      </trkpt>
      <trkpt lat="44.15306" lon="2.97349">
        <ele>747</ele>
        <time>2014-03-18T10:18:42Z</time>
      </trkpt>
      <trkpt lat="44.15305" lon="2.97342">
        <ele>746</ele>
        <time>2014-03-18T10:18:46Z</time>
      </trkpt>
      <trkpt lat="44.15304" lon="2.97335">
        <ele>746</ele>
        <time>2014-03-18T10:18:50Z</time>
      </trkpt>
      <trkpt lat="44.15302" lon="2.97329">
        <ele>745</ele>
        <time>2014-03-18T10:18:53Z</time>
      </trkpt>
      <trkpt lat="44.15299" lon="2.97323">
        <ele>747</ele>
        <time>2014-03-18T10:19:01Z</time>
      </trkpt>
      <trkpt lat="44.15298" lon="2.97315">
        <ele>746</ele>
        <time>2014-03-18T10:19:05Z</time>
      </trkpt>
      <trkpt lat="44.15297" lon="2.97308">
        <ele>746</ele>
        <time>2014-03-18T10:19:07Z</time>
      </trkpt>
      <trkpt lat="44.15296" lon="2.97301">
        <ele>746</ele>
        <time>2014-03-18T10:19:10Z</time>
      </trkpt>
      <trkpt lat="44.15295" lon="2.97292">
        <ele>747</ele>
        <time>2014-03-18T10:19:13Z</time>
      </trkpt>
      <trkpt lat="44.15294" lon="2.97286">
        <ele>747</ele>
        <time>2014-03-18T10:19:16Z</time>
      </trkpt>
      <trkpt lat="44.15292" lon="2.9728">
        <ele>747</ele>
        <time>2014-03-18T10:19:20Z</time>
      </trkpt>
      <trkpt lat="44.15289" lon="2.97273">
        <ele>746</ele>
        <time>2014-03-18T10:19:24Z</time>
      </trkpt>
      <trkpt lat="44.15287" lon="2.97268">
        <ele>746</ele>
        <time>2014-03-18T10:19:27Z</time>
      </trkpt>
      <trkpt lat="44.15284" lon="2.97262">
        <ele>744</ele>
        <time>2014-03-18T10:19:31Z</time>
      </trkpt>
      <trkpt lat="44.15282" lon="2.97255">
        <ele>743</ele>
        <time>2014-03-18T10:19:35Z</time>
      </trkpt>
      <trkpt lat="44.15281" lon="2.97249">
        <ele>742</ele>
        <time>2014-03-18T10:19:38Z</time>
      </trkpt>
      <trkpt lat="44.15278" lon="2.97242">
        <ele>742</ele>
        <time>2014-03-18T10:19:41Z</time>
      </trkpt>
      <trkpt lat="44.15275" lon="2.97236">
        <ele>742</ele>
        <time>2014-03-18T10:19:44Z</time>
      </trkpt>
      <trkpt lat="44.15273" lon="2.97229">
        <ele>742</ele>
        <time>2014-03-18T10:19:48Z</time>
      </trkpt>
      <trkpt lat="44.1527" lon="2.97221">
        <ele>742</ele>
        <time>2014-03-18T10:19:52Z</time>
      </trkpt>
      <trkpt lat="44.15268" lon="2.97216">
        <ele>742</ele>
        <time>2014-03-18T10:19:54Z</time>
      </trkpt>
      <trkpt lat="44.15266" lon="2.9721">
        <ele>742</ele>
        <time>2014-03-18T10:19:57Z</time>
      </trkpt>
      <trkpt lat="44.15264" lon="2.97203">
        <ele>743</ele>
        <time>2014-03-18T10:20:01Z</time>
      </trkpt>
      <trkpt lat="44.15262" lon="2.97197">
        <ele>744</ele>
        <time>2014-03-18T10:20:04Z</time>
      </trkpt>
      <trkpt lat="44.15259" lon="2.97191">
        <ele>744</ele>
        <time>2014-03-18T10:20:08Z</time>
      </trkpt>
      <trkpt lat="44.15257" lon="2.97185">
        <ele>743</ele>
        <time>2014-03-18T10:20:13Z</time>
      </trkpt>
      <trkpt lat="44.15254" lon="2.97179">
        <ele>743</ele>
        <time>2014-03-18T10:20:16Z</time>
      </trkpt>
      <trkpt lat="44.1525" lon="2.97172">
        <ele>744</ele>
        <time>2014-03-18T10:20:20Z</time>
      </trkpt>
      <trkpt lat="44.15248" lon="2.97166">
        <ele>746</ele>
        <time>2014-03-18T10:20:23Z</time>
      </trkpt>
      <trkpt lat="44.15246" lon="2.97159">
        <ele>746</ele>
        <time>2014-03-18T10:20:27Z</time>
      </trkpt>
      <trkpt lat="44.15243" lon="2.97151">
        <ele>746</ele>
        <time>2014-03-18T10:20:30Z</time>
      </trkpt>
      <trkpt lat="44.1524" lon="2.97145">
        <ele>747</ele>
        <time>2014-03-18T10:20:34Z</time>
      </trkpt>
      <trkpt lat="44.15238" lon="2.97138">
        <ele>747</ele>
        <time>2014-03-18T10:20:39Z</time>
      </trkpt>
      <trkpt lat="44.15236" lon="2.97129">
        <ele>746</ele>
        <time>2014-03-18T10:20:43Z</time>
      </trkpt>
      <trkpt lat="44.15234" lon="2.97123">
        <ele>746</ele>
        <time>2014-03-18T10:20:45Z</time>
      </trkpt>
      <trkpt lat="44.15233" lon="2.97118">
        <ele>746</ele>
        <time>2014-03-18T10:20:47Z</time>
      </trkpt>
      <trkpt lat="44.15231" lon="2.97112">
        <ele>746</ele>
        <time>2014-03-18T10:20:51Z</time>
      </trkpt>
      <trkpt lat="44.15228" lon="2.97105">
        <ele>746</ele>
        <time>2014-03-18T10:20:55Z</time>
      </trkpt>
      <trkpt lat="44.15226" lon="2.97096">
        <ele>745</ele>
        <time>2014-03-18T10:20:59Z</time>
      </trkpt>
      <trkpt lat="44.15227" lon="2.97099">
        <ele>744</ele>
        <time>2014-03-18T10:21:04Z</time>
      </trkpt>
      <trkpt lat="44.15228" lon="2.97089">
        <ele>740</ele>
        <time>2014-03-18T10:21:10Z</time>
      </trkpt>
      <trkpt lat="44.15225" lon="2.97079">
        <ele>739</ele>
        <time>2014-03-18T10:21:17Z</time>
      </trkpt>
      <trkpt lat="44.15221" lon="2.97071">
        <ele>744</ele>
        <time>2014-03-18T10:21:51Z</time>
      </trkpt>
      <trkpt lat="44.15226" lon="2.97067">
        <ele>749</ele>
        <time>2014-03-18T10:22:05Z</time>
      </trkpt>
      <trkpt lat="44.15221" lon="2.97064">
        <ele>752</ele>
        <time>2014-03-18T10:22:22Z</time>
      </trkpt>
      <trkpt lat="44.15221" lon="2.97069">
        <ele>753</ele>
        <time>2014-03-18T10:22:36Z</time>
      </trkpt>
      <trkpt lat="44.15224" lon="2.97065">
        <ele>757</ele>
        <time>2014-03-18T10:23:08Z</time>
      </trkpt>
      <trkpt lat="44.15227" lon="2.97067">
        <ele>761</ele>
        <time>2014-03-18T10:24:12Z</time>
      </trkpt>
      <trkpt lat="44.15226" lon="2.97073">
        <ele>762</ele>
        <time>2014-03-18T10:24:56Z</time>
      </trkpt>
      <trkpt lat="44.15232" lon="2.97068">
        <ele>761</ele>
        <time>2014-03-18T10:25:01Z</time>
      </trkpt>
      <trkpt lat="44.15237" lon="2.97071">
        <ele>761</ele>
        <time>2014-03-18T10:25:03Z</time>
      </trkpt>
      <trkpt lat="44.1524" lon="2.97072">
        <ele>761</ele>
        <time>2014-03-18T10:25:04Z</time>
      </trkpt>
      <trkpt lat="44.15233" lon="2.9707">
        <ele>755</ele>
        <time>2014-03-18T10:25:10Z</time>
      </trkpt>
      <trkpt lat="44.15228" lon="2.97067">
        <ele>753</ele>
        <time>2014-03-18T10:25:14Z</time>
      </trkpt>
      <trkpt lat="44.15222" lon="2.97067">
        <ele>754</ele>
        <time>2014-03-18T10:25:24Z</time>
      </trkpt>
      <trkpt lat="44.15219" lon="2.97067">
        <ele>757</ele>
        <time>2014-03-18T10:25:32Z</time>
      </trkpt>
      <trkpt lat="44.15222" lon="2.97064">
        <ele>756</ele>
        <time>2014-03-18T10:26:35Z</time>
      </trkpt>
      <trkpt lat="44.1522" lon="2.97061">
        <ele>756</ele>
        <time>2014-03-18T10:26:56Z</time>
      </trkpt>
      <trkpt lat="44.15221" lon="2.97053">
        <ele>756</ele>
        <time>2014-03-18T10:27:02Z</time>
      </trkpt>
      <trkpt lat="44.15219" lon="2.97045">
        <ele>757</ele>
        <time>2014-03-18T10:27:06Z</time>
      </trkpt>
      <trkpt lat="44.15218" lon="2.97039">
        <ele>757</ele>
        <time>2014-03-18T10:27:09Z</time>
      </trkpt>
      <trkpt lat="44.15215" lon="2.97032">
        <ele>757</ele>
        <time>2014-03-18T10:27:13Z</time>
      </trkpt>
      <trkpt lat="44.15214" lon="2.97025">
        <ele>756</ele>
        <time>2014-03-18T10:27:16Z</time>
      </trkpt>
      <trkpt lat="44.15212" lon="2.97018">
        <ele>756</ele>
        <time>2014-03-18T10:27:20Z</time>
      </trkpt>
      <trkpt lat="44.15211" lon="2.97012">
        <ele>755</ele>
        <time>2014-03-18T10:27:24Z</time>
      </trkpt>
      <trkpt lat="44.15209" lon="2.97005">
        <ele>755</ele>
        <time>2014-03-18T10:27:28Z</time>
      </trkpt>
      <trkpt lat="44.15209" lon="2.96999">
        <ele>754</ele>
        <time>2014-03-18T10:27:32Z</time>
      </trkpt>
      <trkpt lat="44.15207" lon="2.96991">
        <ele>754</ele>
        <time>2014-03-18T10:27:36Z</time>
      </trkpt>
      <trkpt lat="44.15205" lon="2.96985">
        <ele>753</ele>
        <time>2014-03-18T10:27:41Z</time>
      </trkpt>
      <trkpt lat="44.15204" lon="2.96978">
        <ele>753</ele>
        <time>2014-03-18T10:27:46Z</time>
      </trkpt>
      <trkpt lat="44.15203" lon="2.96971">
        <ele>752</ele>
        <time>2014-03-18T10:27:50Z</time>
      </trkpt>
      <trkpt lat="44.15203" lon="2.96964">
        <ele>752</ele>
        <time>2014-03-18T10:27:54Z</time>
      </trkpt>
      <trkpt lat="44.15202" lon="2.96957">
        <ele>753</ele>
        <time>2014-03-18T10:27:56Z</time>
      </trkpt>
      <trkpt lat="44.15202" lon="2.96948">
        <ele>754</ele>
        <time>2014-03-18T10:27:59Z</time>
      </trkpt>
      <trkpt lat="44.15203" lon="2.96941">
        <ele>754</ele>
        <time>2014-03-18T10:28:03Z</time>
      </trkpt>
      <trkpt lat="44.15202" lon="2.96932">
        <ele>757</ele>
        <time>2014-03-18T10:28:07Z</time>
      </trkpt>
      <trkpt lat="44.15201" lon="2.96926">
        <ele>758</ele>
        <time>2014-03-18T10:28:10Z</time>
      </trkpt>
      <trkpt lat="44.15202" lon="2.96919">
        <ele>757</ele>
        <time>2014-03-18T10:28:16Z</time>
      </trkpt>
      <trkpt lat="44.15203" lon="2.96912">
        <ele>757</ele>
        <time>2014-03-18T10:28:20Z</time>
      </trkpt>
      <trkpt lat="44.15202" lon="2.96905">
        <ele>755</ele>
        <time>2014-03-18T10:28:24Z</time>
      </trkpt>
      <trkpt lat="44.15202" lon="2.96898">
        <ele>754</ele>
        <time>2014-03-18T10:28:28Z</time>
      </trkpt>
      <trkpt lat="44.15201" lon="2.96889">
        <ele>753</ele>
        <time>2014-03-18T10:28:35Z</time>
      </trkpt>
      <trkpt lat="44.15199" lon="2.96881">
        <ele>753</ele>
        <time>2014-03-18T10:28:38Z</time>
      </trkpt>
      <trkpt lat="44.15197" lon="2.96874">
        <ele>752</ele>
        <time>2014-03-18T10:28:41Z</time>
      </trkpt>
      <trkpt lat="44.15195" lon="2.96866">
        <ele>751</ele>
        <time>2014-03-18T10:28:44Z</time>
      </trkpt>
      <trkpt lat="44.15193" lon="2.9686">
        <ele>750</ele>
        <time>2014-03-18T10:28:47Z</time>
      </trkpt>
      <trkpt lat="44.1519" lon="2.96853">
        <ele>746</ele>
        <time>2014-03-18T10:28:53Z</time>
      </trkpt>
      <trkpt lat="44.15187" lon="2.96846">
        <ele>745</ele>
        <time>2014-03-18T10:28:56Z</time>
      </trkpt>
      <trkpt lat="44.15184" lon="2.96839">
        <ele>744</ele>
        <time>2014-03-18T10:28:59Z</time>
      </trkpt>
      <trkpt lat="44.15181" lon="2.96834">
        <ele>744</ele>
        <time>2014-03-18T10:29:02Z</time>
      </trkpt>
      <trkpt lat="44.15179" lon="2.96828">
        <ele>742</ele>
        <time>2014-03-18T10:29:07Z</time>
      </trkpt>
      <trkpt lat="44.15176" lon="2.96822">
        <ele>742</ele>
        <time>2014-03-18T10:29:10Z</time>
      </trkpt>
      <trkpt lat="44.15173" lon="2.96815">
        <ele>740</ele>
        <time>2014-03-18T10:29:13Z</time>
      </trkpt>
      <trkpt lat="44.1517" lon="2.9681">
        <ele>740</ele>
        <time>2014-03-18T10:29:17Z</time>
      </trkpt>
      <trkpt lat="44.15167" lon="2.96803">
        <ele>741</ele>
        <time>2014-03-18T10:29:21Z</time>
      </trkpt>
      <trkpt lat="44.15165" lon="2.96797">
        <ele>741</ele>
        <time>2014-03-18T10:29:25Z</time>
      </trkpt>
      <trkpt lat="44.15161" lon="2.96791">
        <ele>741</ele>
        <time>2014-03-18T10:29:29Z</time>
      </trkpt>
      <trkpt lat="44.15158" lon="2.96786">
        <ele>742</ele>
        <time>2014-03-18T10:29:32Z</time>
      </trkpt>
      <trkpt lat="44.15155" lon="2.96779">
        <ele>742</ele>
        <time>2014-03-18T10:29:35Z</time>
      </trkpt>
      <trkpt lat="44.15153" lon="2.96773">
        <ele>742</ele>
        <time>2014-03-18T10:29:38Z</time>
      </trkpt>
      <trkpt lat="44.15151" lon="2.96767">
        <ele>742</ele>
        <time>2014-03-18T10:29:41Z</time>
      </trkpt>
      <trkpt lat="44.15148" lon="2.96762">
        <ele>742</ele>
        <time>2014-03-18T10:29:44Z</time>
      </trkpt>
      <trkpt lat="44.15145" lon="2.96756">
        <ele>741</ele>
        <time>2014-03-18T10:29:47Z</time>
      </trkpt>
      <trkpt lat="44.15142" lon="2.96749">
        <ele>742</ele>
        <time>2014-03-18T10:29:51Z</time>
      </trkpt>
      <trkpt lat="44.15139" lon="2.96744">
        <ele>743</ele>
        <time>2014-03-18T10:29:55Z</time>
      </trkpt>
      <trkpt lat="44.15136" lon="2.96738">
        <ele>744</ele>
        <time>2014-03-18T10:29:59Z</time>
      </trkpt>
      <trkpt lat="44.15133" lon="2.96732">
        <ele>744</ele>
        <time>2014-03-18T10:30:02Z</time>
      </trkpt>
      <trkpt lat="44.1513" lon="2.96726">
        <ele>744</ele>
        <time>2014-03-18T10:30:06Z</time>
      </trkpt>
      <trkpt lat="44.15127" lon="2.96719">
        <ele>743</ele>
        <time>2014-03-18T10:30:11Z</time>
      </trkpt>
      <trkpt lat="44.15115" lon="2.96704">
        <ele>736</ele>
        <time>2014-03-18T10:30:19Z</time>
      </trkpt>
      <trkpt lat="44.15112" lon="2.96698">
        <ele>735</ele>
        <time>2014-03-18T10:30:23Z</time>
      </trkpt>
      <trkpt lat="44.15108" lon="2.96692">
        <ele>735</ele>
        <time>2014-03-18T10:30:27Z</time>
      </trkpt>
      <trkpt lat="44.15105" lon="2.96686">
        <ele>736</ele>
        <time>2014-03-18T10:30:30Z</time>
      </trkpt>
      <trkpt lat="44.15102" lon="2.96681">
        <ele>736</ele>
        <time>2014-03-18T10:30:34Z</time>
      </trkpt>
      <trkpt lat="44.15098" lon="2.96677">
        <ele>736</ele>
        <time>2014-03-18T10:30:38Z</time>
      </trkpt>
      <trkpt lat="44.15093" lon="2.96672">
        <ele>735</ele>
        <time>2014-03-18T10:30:41Z</time>
      </trkpt>
      <trkpt lat="44.1509" lon="2.96667">
        <ele>736</ele>
        <time>2014-03-18T10:30:44Z</time>
      </trkpt>
      <trkpt lat="44.15085" lon="2.96667">
        <ele>736</ele>
        <time>2014-03-18T10:30:51Z</time>
      </trkpt>
      <trkpt lat="44.15081" lon="2.96664">
        <ele>738</ele>
        <time>2014-03-18T10:30:54Z</time>
      </trkpt>
      <trkpt lat="44.15077" lon="2.9666">
        <ele>739</ele>
        <time>2014-03-18T10:30:58Z</time>
      </trkpt>
      <trkpt lat="44.15072" lon="2.96655">
        <ele>739</ele>
        <time>2014-03-18T10:31:02Z</time>
      </trkpt>
      <trkpt lat="44.15068" lon="2.9665">
        <ele>739</ele>
        <time>2014-03-18T10:31:06Z</time>
      </trkpt>
      <trkpt lat="44.15063" lon="2.96645">
        <ele>739</ele>
        <time>2014-03-18T10:31:09Z</time>
      </trkpt>
      <trkpt lat="44.15059" lon="2.9664">
        <ele>738</ele>
        <time>2014-03-18T10:31:12Z</time>
      </trkpt>
      <trkpt lat="44.15055" lon="2.96635">
        <ele>738</ele>
        <time>2014-03-18T10:31:16Z</time>
      </trkpt>
      <trkpt lat="44.15051" lon="2.9663">
        <ele>739</ele>
        <time>2014-03-18T10:31:20Z</time>
      </trkpt>
      <trkpt lat="44.15048" lon="2.96625">
        <ele>739</ele>
        <time>2014-03-18T10:31:23Z</time>
      </trkpt>
      <trkpt lat="44.15044" lon="2.96621">
        <ele>739</ele>
        <time>2014-03-18T10:31:26Z</time>
      </trkpt>
      <trkpt lat="44.1504" lon="2.96616">
        <ele>740</ele>
        <time>2014-03-18T10:31:29Z</time>
      </trkpt>
      <trkpt lat="44.15037" lon="2.9661">
        <ele>741</ele>
        <time>2014-03-18T10:31:32Z</time>
      </trkpt>
      <trkpt lat="44.15034" lon="2.96604">
        <ele>742</ele>
        <time>2014-03-18T10:31:35Z</time>
      </trkpt>
      <trkpt lat="44.1503" lon="2.96599">
        <ele>742</ele>
        <time>2014-03-18T10:31:38Z</time>
      </trkpt>
      <trkpt lat="44.15027" lon="2.96594">
        <ele>743</ele>
        <time>2014-03-18T10:31:41Z</time>
      </trkpt>
      <trkpt lat="44.15023" lon="2.9659">
        <ele>743</ele>
        <time>2014-03-18T10:31:45Z</time>
      </trkpt>
      <trkpt lat="44.15018" lon="2.96586">
        <ele>743</ele>
        <time>2014-03-18T10:31:49Z</time>
      </trkpt>
      <trkpt lat="44.15013" lon="2.96583">
        <ele>744</ele>
        <time>2014-03-18T10:31:53Z</time>
      </trkpt>
      <trkpt lat="44.15009" lon="2.96579">
        <ele>744</ele>
        <time>2014-03-18T10:31:58Z</time>
      </trkpt>
      <trkpt lat="44.15008" lon="2.96573">
        <ele>740</ele>
        <time>2014-03-18T10:32:12Z</time>
      </trkpt>
      <trkpt lat="44.14991" lon="2.96558">
        <ele>731</ele>
        <time>2014-03-18T10:32:33Z</time>
      </trkpt>
      <trkpt lat="44.14988" lon="2.96552">
        <ele>733</ele>
        <time>2014-03-18T10:32:39Z</time>
      </trkpt>
      <trkpt lat="44.14985" lon="2.96547">
        <ele>735</ele>
        <time>2014-03-18T10:32:42Z</time>
      </trkpt>
      <trkpt lat="44.14982" lon="2.96542">
        <ele>734</ele>
        <time>2014-03-18T10:32:45Z</time>
      </trkpt>
      <trkpt lat="44.1498" lon="2.96537">
        <ele>733</ele>
        <time>2014-03-18T10:32:48Z</time>
      </trkpt>
      <trkpt lat="44.14978" lon="2.96531">
        <ele>733</ele>
        <time>2014-03-18T10:32:50Z</time>
      </trkpt>
      <trkpt lat="44.14976" lon="2.96524">
        <ele>732</ele>
        <time>2014-03-18T10:32:52Z</time>
      </trkpt>
      <trkpt lat="44.14973" lon="2.96519">
        <ele>731</ele>
        <time>2014-03-18T10:32:54Z</time>
      </trkpt>
      <trkpt lat="44.14972" lon="2.96515">
        <ele>730</ele>
        <time>2014-03-18T10:32:56Z</time>
      </trkpt>
      <trkpt lat="44.14968" lon="2.96507">
        <ele>727</ele>
        <time>2014-03-18T10:33:01Z</time>
      </trkpt>
      <trkpt lat="44.14965" lon="2.96502">
        <ele>726</ele>
        <time>2014-03-18T10:33:05Z</time>
      </trkpt>
      <trkpt lat="44.14964" lon="2.96498">
        <ele>727</ele>
        <time>2014-03-18T10:33:18Z</time>
      </trkpt>
      <trkpt lat="44.1496" lon="2.9649">
        <ele>727</ele>
        <time>2014-03-18T10:33:23Z</time>
      </trkpt>
      <trkpt lat="44.14958" lon="2.96485">
        <ele>727</ele>
        <time>2014-03-18T10:33:27Z</time>
      </trkpt>
      <trkpt lat="44.14956" lon="2.96477">
        <ele>728</ele>
        <time>2014-03-18T10:33:33Z</time>
      </trkpt>
      <trkpt lat="44.14952" lon="2.9647">
        <ele>729</ele>
        <time>2014-03-18T10:33:36Z</time>
      </trkpt>
      <trkpt lat="44.14949" lon="2.96465">
        <ele>729</ele>
        <time>2014-03-18T10:33:39Z</time>
      </trkpt>
      <trkpt lat="44.14946" lon="2.96459">
        <ele>728</ele>
        <time>2014-03-18T10:33:42Z</time>
      </trkpt>
      <trkpt lat="44.14943" lon="2.96454">
        <ele>727</ele>
        <time>2014-03-18T10:33:45Z</time>
      </trkpt>
      <trkpt lat="44.14941" lon="2.96449">
        <ele>728</ele>
        <time>2014-03-18T10:33:50Z</time>
      </trkpt>
      <trkpt lat="44.14938" lon="2.96438">
        <ele>728</ele>
        <time>2014-03-18T10:34:02Z</time>
      </trkpt>
      <trkpt lat="44.14936" lon="2.96433">
        <ele>727</ele>
        <time>2014-03-18T10:34:05Z</time>
      </trkpt>
      <trkpt lat="44.14933" lon="2.96426">
        <ele>726</ele>
        <time>2014-03-18T10:34:08Z</time>
      </trkpt>
      <trkpt lat="44.14931" lon="2.96419">
        <ele>726</ele>
        <time>2014-03-18T10:34:11Z</time>
      </trkpt>
      <trkpt lat="44.14927" lon="2.96412">
        <ele>726</ele>
        <time>2014-03-18T10:34:14Z</time>
      </trkpt>
      <trkpt lat="44.14924" lon="2.96405">
        <ele>726</ele>
        <time>2014-03-18T10:34:17Z</time>
      </trkpt>
      <trkpt lat="44.1492" lon="2.96399">
        <ele>726</ele>
        <time>2014-03-18T10:34:20Z</time>
      </trkpt>
      <trkpt lat="44.14918" lon="2.96394">
        <ele>726</ele>
        <time>2014-03-18T10:34:23Z</time>
      </trkpt>
      <trkpt lat="44.14916" lon="2.96387">
        <ele>725</ele>
        <time>2014-03-18T10:34:26Z</time>
      </trkpt>
      <trkpt lat="44.14914" lon="2.96381">
        <ele>725</ele>
        <time>2014-03-18T10:34:30Z</time>
      </trkpt>
      <trkpt lat="44.14911" lon="2.96375">
        <ele>725</ele>
        <time>2014-03-18T10:34:33Z</time>
      </trkpt>
      <trkpt lat="44.1491" lon="2.96369">
        <ele>727</ele>
        <time>2014-03-18T10:34:40Z</time>
      </trkpt>
      <trkpt lat="44.1491" lon="2.96362">
        <ele>727</ele>
        <time>2014-03-18T10:34:46Z</time>
      </trkpt>
      <trkpt lat="44.14909" lon="2.96356">
        <ele>727</ele>
        <time>2014-03-18T10:34:51Z</time>
      </trkpt>
      <trkpt lat="44.14906" lon="2.96348">
        <ele>727</ele>
        <time>2014-03-18T10:34:55Z</time>
      </trkpt>
      <trkpt lat="44.14903" lon="2.96342">
        <ele>725</ele>
        <time>2014-03-18T10:34:59Z</time>
      </trkpt>
      <trkpt lat="44.1489" lon="2.96331">
        <ele>717</ele>
        <time>2014-03-18T10:35:10Z</time>
      </trkpt>
      <trkpt lat="44.14887" lon="2.96326">
        <ele>717</ele>
        <time>2014-03-18T10:35:14Z</time>
      </trkpt>
      <trkpt lat="44.14883" lon="2.9632">
        <ele>718</ele>
        <time>2014-03-18T10:35:19Z</time>
      </trkpt>
      <trkpt lat="44.1488" lon="2.96314">
        <ele>718</ele>
        <time>2014-03-18T10:35:23Z</time>
      </trkpt>
      <trkpt lat="44.14876" lon="2.96308">
        <ele>718</ele>
        <time>2014-03-18T10:35:27Z</time>
      </trkpt>
      <trkpt lat="44.14872" lon="2.96303">
        <ele>718</ele>
        <time>2014-03-18T10:35:30Z</time>
      </trkpt>
      <trkpt lat="44.14868" lon="2.96297">
        <ele>718</ele>
        <time>2014-03-18T10:35:33Z</time>
      </trkpt>
      <trkpt lat="44.14865" lon="2.96291">
        <ele>718</ele>
        <time>2014-03-18T10:35:36Z</time>
      </trkpt>
      <trkpt lat="44.14861" lon="2.96286">
        <ele>719</ele>
        <time>2014-03-18T10:35:41Z</time>
      </trkpt>
      <trkpt lat="44.14857" lon="2.96282">
        <ele>720</ele>
        <time>2014-03-18T10:35:44Z</time>
      </trkpt>
      <trkpt lat="44.14853" lon="2.9628">
        <ele>720</ele>
        <time>2014-03-18T10:35:49Z</time>
      </trkpt>
      <trkpt lat="44.14849" lon="2.96278">
        <ele>717</ele>
        <time>2014-03-18T10:35:56Z</time>
      </trkpt>
      <trkpt lat="44.14845" lon="2.96275">
        <ele>716</ele>
        <time>2014-03-18T10:35:59Z</time>
      </trkpt>
      <trkpt lat="44.14841" lon="2.96271">
        <ele>714</ele>
        <time>2014-03-18T10:36:02Z</time>
      </trkpt>
      <trkpt lat="44.14837" lon="2.96265">
        <ele>714</ele>
        <time>2014-03-18T10:36:05Z</time>
      </trkpt>
      <trkpt lat="44.14833" lon="2.96261">
        <ele>714</ele>
        <time>2014-03-18T10:36:09Z</time>
      </trkpt>
      <trkpt lat="44.14828" lon="2.96259">
        <ele>713</ele>
        <time>2014-03-18T10:36:13Z</time>
      </trkpt>
      <trkpt lat="44.14823" lon="2.96258">
        <ele>712</ele>
        <time>2014-03-18T10:36:17Z</time>
      </trkpt>
      <trkpt lat="44.14818" lon="2.96256">
        <ele>711</ele>
        <time>2014-03-18T10:36:21Z</time>
      </trkpt>
      <trkpt lat="44.14813" lon="2.96253">
        <ele>710</ele>
        <time>2014-03-18T10:36:25Z</time>
      </trkpt>
      <trkpt lat="44.14809" lon="2.96253">
        <ele>709</ele>
        <time>2014-03-18T10:36:29Z</time>
      </trkpt>
      <trkpt lat="44.14804" lon="2.96252">
        <ele>707</ele>
        <time>2014-03-18T10:36:33Z</time>
      </trkpt>
      <trkpt lat="44.14798" lon="2.96252">
        <ele>704</ele>
        <time>2014-03-18T10:36:37Z</time>
      </trkpt>
      <trkpt lat="44.14792" lon="2.96252">
        <ele>702</ele>
        <time>2014-03-18T10:36:41Z</time>
      </trkpt>
      <trkpt lat="44.14788" lon="2.96251">
        <ele>701</ele>
        <time>2014-03-18T10:36:44Z</time>
      </trkpt>
      <trkpt lat="44.14783" lon="2.96252">
        <ele>699</ele>
        <time>2014-03-18T10:36:48Z</time>
      </trkpt>
      <trkpt lat="44.14777" lon="2.96252">
        <ele>699</ele>
        <time>2014-03-18T10:36:51Z</time>
      </trkpt>
      <trkpt lat="44.14771" lon="2.96256">
        <ele>699</ele>
        <time>2014-03-18T10:36:55Z</time>
      </trkpt>
      <trkpt lat="44.14766" lon="2.96257">
        <ele>697</ele>
        <time>2014-03-18T10:37:00Z</time>
      </trkpt>
      <trkpt lat="44.14761" lon="2.96255">
        <ele>697</ele>
        <time>2014-03-18T10:37:03Z</time>
      </trkpt>
      <trkpt lat="44.14755" lon="2.96255">
        <ele>697</ele>
        <time>2014-03-18T10:37:06Z</time>
      </trkpt>
      <trkpt lat="44.1475" lon="2.96257">
        <ele>696</ele>
        <time>2014-03-18T10:37:10Z</time>
      </trkpt>
      <trkpt lat="44.14746" lon="2.9626">
        <ele>696</ele>
        <time>2014-03-18T10:37:13Z</time>
      </trkpt>
      <trkpt lat="44.14744" lon="2.96265">
        <ele>697</ele>
        <time>2014-03-18T10:37:16Z</time>
      </trkpt>
      <trkpt lat="44.14739" lon="2.96269">
        <ele>697</ele>
        <time>2014-03-18T10:37:21Z</time>
      </trkpt>
      <trkpt lat="44.14735" lon="2.96271">
        <ele>698</ele>
        <time>2014-03-18T10:37:25Z</time>
      </trkpt>
      <trkpt lat="44.1473" lon="2.96272">
        <ele>699</ele>
        <time>2014-03-18T10:37:31Z</time>
      </trkpt>
      <trkpt lat="44.14725" lon="2.96275">
        <ele>699</ele>
        <time>2014-03-18T10:37:35Z</time>
      </trkpt>
      <trkpt lat="44.1472" lon="2.96276">
        <ele>700</ele>
        <time>2014-03-18T10:37:40Z</time>
      </trkpt>
      <trkpt lat="44.14716" lon="2.9628">
        <ele>698</ele>
        <time>2014-03-18T10:37:44Z</time>
      </trkpt>
      <trkpt lat="44.14711" lon="2.96283">
        <ele>697</ele>
        <time>2014-03-18T10:37:47Z</time>
      </trkpt>
      <trkpt lat="44.14706" lon="2.96284">
        <ele>696</ele>
        <time>2014-03-18T10:37:50Z</time>
      </trkpt>
      <trkpt lat="44.14702" lon="2.96286">
        <ele>695</ele>
        <time>2014-03-18T10:37:53Z</time>
      </trkpt>
      <trkpt lat="44.14693" lon="2.9629">
        <ele>688</ele>
        <time>2014-03-18T10:38:09Z</time>
      </trkpt>
      <trkpt lat="44.14684" lon="2.96288">
        <ele>680</ele>
        <time>2014-03-18T10:38:17Z</time>
      </trkpt>
      <trkpt lat="44.14679" lon="2.96285">
        <ele>678</ele>
        <time>2014-03-18T10:38:22Z</time>
      </trkpt>
      <trkpt lat="44.14673" lon="2.96285">
        <ele>677</ele>
        <time>2014-03-18T10:38:25Z</time>
      </trkpt>
      <trkpt lat="44.14669" lon="2.9629">
        <ele>677</ele>
        <time>2014-03-18T10:38:28Z</time>
      </trkpt>
      <trkpt lat="44.14665" lon="2.96294">
        <ele>678</ele>
        <time>2014-03-18T10:38:32Z</time>
      </trkpt>
      <trkpt lat="44.1466" lon="2.96296">
        <ele>678</ele>
        <time>2014-03-18T10:38:38Z</time>
      </trkpt>
      <trkpt lat="44.14655" lon="2.96295">
        <ele>678</ele>
        <time>2014-03-18T10:38:42Z</time>
      </trkpt>
      <trkpt lat="44.14651" lon="2.963">
        <ele>680</ele>
        <time>2014-03-18T10:38:47Z</time>
      </trkpt>
      <trkpt lat="44.14648" lon="2.96306">
        <ele>679</ele>
        <time>2014-03-18T10:38:52Z</time>
      </trkpt>
      <trkpt lat="44.14645" lon="2.96311">
        <ele>678</ele>
        <time>2014-03-18T10:38:57Z</time>
      </trkpt>
      <trkpt lat="44.1464" lon="2.96312">
        <ele>676</ele>
        <time>2014-03-18T10:39:02Z</time>
      </trkpt>
      <trkpt lat="44.14635" lon="2.96311">
        <ele>676</ele>
        <time>2014-03-18T10:39:04Z</time>
      </trkpt>
      <trkpt lat="44.14628" lon="2.9631">
        <ele>676</ele>
        <time>2014-03-18T10:39:07Z</time>
      </trkpt>
      <trkpt lat="44.14624" lon="2.96314">
        <ele>676</ele>
        <time>2014-03-18T10:39:12Z</time>
      </trkpt>
      <trkpt lat="44.14628" lon="2.96319">
        <ele>678</ele>
        <time>2014-03-18T10:39:26Z</time>
      </trkpt>
      <trkpt lat="44.14626" lon="2.96318">
        <ele>680</ele>
        <time>2014-03-18T10:40:00Z</time>
      </trkpt>
      <trkpt lat="44.14622" lon="2.96313">
        <ele>680</ele>
        <time>2014-03-18T10:40:04Z</time>
      </trkpt>
      <trkpt lat="44.14623" lon="2.96309">
        <ele>681</ele>
        <time>2014-03-18T10:40:11Z</time>
      </trkpt>
      <trkpt lat="44.14627" lon="2.96306">
        <ele>681</ele>
        <time>2014-03-18T10:40:21Z</time>
      </trkpt>
      <trkpt lat="44.14627" lon="2.96313">
        <ele>681</ele>
        <time>2014-03-18T10:40:26Z</time>
      </trkpt>
      <trkpt lat="44.14627" lon="2.96318">
        <ele>686</ele>
        <time>2014-03-18T10:42:35Z</time>
      </trkpt>
      <trkpt lat="44.14622" lon="2.96321">
        <ele>686</ele>
        <time>2014-03-18T10:42:38Z</time>
      </trkpt>
      <trkpt lat="44.14618" lon="2.96325">
        <ele>685</ele>
        <time>2014-03-18T10:42:43Z</time>
      </trkpt>
      <trkpt lat="44.14613" lon="2.96327">
        <ele>684</ele>
        <time>2014-03-18T10:42:50Z</time>
      </trkpt>
      <trkpt lat="44.14609" lon="2.96324">
        <ele>684</ele>
        <time>2014-03-18T10:42:59Z</time>
      </trkpt>
      <trkpt lat="44.14604" lon="2.96324">
        <ele>683</ele>
        <time>2014-03-18T10:43:07Z</time>
      </trkpt>
      <trkpt lat="44.146" lon="2.9633">
        <ele>682</ele>
        <time>2014-03-18T10:43:13Z</time>
      </trkpt>
      <trkpt lat="44.146" lon="2.96338">
        <ele>681</ele>
        <time>2014-03-18T10:43:19Z</time>
      </trkpt>
      <trkpt lat="44.14598" lon="2.96344">
        <ele>683</ele>
        <time>2014-03-18T10:43:23Z</time>
      </trkpt>
      <trkpt lat="44.14596" lon="2.96352">
        <ele>685</ele>
        <time>2014-03-18T10:43:35Z</time>
      </trkpt>
      <trkpt lat="44.14591" lon="2.96356">
        <ele>685</ele>
        <time>2014-03-18T10:43:38Z</time>
      </trkpt>
      <trkpt lat="44.14585" lon="2.96354">
        <ele>684</ele>
        <time>2014-03-18T10:43:42Z</time>
      </trkpt>
      <trkpt lat="44.1458" lon="2.96354">
        <ele>682</ele>
        <time>2014-03-18T10:43:45Z</time>
      </trkpt>
      <trkpt lat="44.14574" lon="2.96352">
        <ele>680</ele>
        <time>2014-03-18T10:43:48Z</time>
      </trkpt>
      <trkpt lat="44.14569" lon="2.96349">
        <ele>680</ele>
        <time>2014-03-18T10:43:51Z</time>
      </trkpt>
      <trkpt lat="44.14569" lon="2.96354">
        <ele>675</ele>
        <time>2014-03-18T10:44:18Z</time>
      </trkpt>
      <trkpt lat="44.14568" lon="2.96357">
        <ele>675</ele>
        <time>2014-03-18T10:44:30Z</time>
      </trkpt>
      <trkpt lat="44.1457" lon="2.96362">
        <ele>677</ele>
        <time>2014-03-18T10:44:46Z</time>
      </trkpt>
      <trkpt lat="44.14572" lon="2.96369">
        <ele>678</ele>
        <time>2014-03-18T10:44:48Z</time>
      </trkpt>
      <trkpt lat="44.14572" lon="2.96376">
        <ele>681</ele>
        <time>2014-03-18T10:44:52Z</time>
      </trkpt>
      <trkpt lat="44.14568" lon="2.9638">
        <ele>682</ele>
        <time>2014-03-18T10:46:07Z</time>
      </trkpt>
      <trkpt lat="44.14574" lon="2.96383">
        <ele>682</ele>
        <time>2014-03-18T10:46:10Z</time>
      </trkpt>
      <trkpt lat="44.14576" lon="2.96389">
        <ele>679</ele>
        <time>2014-03-18T10:46:16Z</time>
      </trkpt>
      <trkpt lat="44.1458" lon="2.96393">
        <ele>679</ele>
        <time>2014-03-18T10:46:20Z</time>
      </trkpt>
      <trkpt lat="44.14584" lon="2.96398">
        <ele>680</ele>
        <time>2014-03-18T10:46:26Z</time>
      </trkpt>
      <trkpt lat="44.14575" lon="2.96395">
        <ele>681</ele>
        <time>2014-03-18T10:46:52Z</time>
      </trkpt>
      <trkpt lat="44.14581" lon="2.96405">
        <ele>681</ele>
        <time>2014-03-18T10:47:00Z</time>
      </trkpt>
      <trkpt lat="44.14591" lon="2.9641">
        <ele>681</ele>
        <time>2014-03-18T10:47:04Z</time>
      </trkpt>
      <trkpt lat="44.14589" lon="2.96416">
        <ele>682</ele>
        <time>2014-03-18T10:47:24Z</time>
      </trkpt>
      <trkpt lat="44.14587" lon="2.96414">
        <ele>681</ele>
        <time>2014-03-18T10:47:31Z</time>
      </trkpt>
      <trkpt lat="44.14585" lon="2.9642">
        <ele>679</ele>
        <time>2014-03-18T10:47:35Z</time>
      </trkpt>
      <trkpt lat="44.14589" lon="2.96422">
        <ele>677</ele>
        <time>2014-03-18T10:47:49Z</time>
      </trkpt>
      <trkpt lat="44.14594" lon="2.96425">
        <ele>677</ele>
        <time>2014-03-18T10:47:52Z</time>
      </trkpt>
      <trkpt lat="44.14598" lon="2.96428">
        <ele>677</ele>
        <time>2014-03-18T10:47:54Z</time>
      </trkpt>
      <trkpt lat="44.14604" lon="2.96429">
        <ele>677</ele>
        <time>2014-03-18T10:47:56Z</time>
      </trkpt>
      <trkpt lat="44.14614" lon="2.9643">
        <ele>679</ele>
        <time>2014-03-18T10:48:01Z</time>
      </trkpt>
      <trkpt lat="44.14612" lon="2.96443">
        <ele>681</ele>
        <time>2014-03-18T10:48:06Z</time>
      </trkpt>
      <trkpt lat="44.14606" lon="2.96457">
        <ele>684</ele>
        <time>2014-03-18T10:48:10Z</time>
      </trkpt>
      <trkpt lat="44.14602" lon="2.96468">
        <ele>687</ele>
        <time>2014-03-18T10:48:14Z</time>
      </trkpt>
      <trkpt lat="44.14601" lon="2.96475">
        <ele>688</ele>
        <time>2014-03-18T10:48:17Z</time>
      </trkpt>
      <trkpt lat="44.14601" lon="2.96482">
        <ele>687</ele>
        <time>2014-03-18T10:48:21Z</time>
      </trkpt>
      <trkpt lat="44.14604" lon="2.96487">
        <ele>684</ele>
        <time>2014-03-18T10:48:28Z</time>
      </trkpt>
      <trkpt lat="44.14609" lon="2.96486">
        <ele>683</ele>
        <time>2014-03-18T10:48:30Z</time>
      </trkpt>
      <trkpt lat="44.14607" lon="2.96495">
        <ele>680</ele>
        <time>2014-03-18T10:48:33Z</time>
      </trkpt>
      <trkpt lat="44.14603" lon="2.96504">
        <ele>679</ele>
        <time>2014-03-18T10:48:35Z</time>
      </trkpt>
      <trkpt lat="44.14602" lon="2.96511">
        <ele>681</ele>
        <time>2014-03-18T10:48:42Z</time>
      </trkpt>
      <trkpt lat="44.146" lon="2.96517">
        <ele>681</ele>
        <time>2014-03-18T10:48:47Z</time>
      </trkpt>
      <trkpt lat="44.14598" lon="2.96524">
        <ele>679</ele>
        <time>2014-03-18T10:48:51Z</time>
      </trkpt>
      <trkpt lat="44.14596" lon="2.96537">
        <ele>673</ele>
        <time>2014-03-18T10:49:04Z</time>
      </trkpt>
      <trkpt lat="44.14597" lon="2.96544">
        <ele>669</ele>
        <time>2014-03-18T10:49:11Z</time>
      </trkpt>
      <trkpt lat="44.14599" lon="2.96547">
        <ele>664</ele>
        <time>2014-03-18T10:49:19Z</time>
      </trkpt>
      <trkpt lat="44.14597" lon="2.96557">
        <ele>660</ele>
        <time>2014-03-18T10:49:34Z</time>
      </trkpt>
      <trkpt lat="44.14596" lon="2.96564">
        <ele>658</ele>
        <time>2014-03-18T10:49:39Z</time>
      </trkpt>
      <trkpt lat="44.14593" lon="2.96571">
        <ele>655</ele>
        <time>2014-03-18T10:49:44Z</time>
      </trkpt>
      <trkpt lat="44.1459" lon="2.96576">
        <ele>655</ele>
        <time>2014-03-18T10:49:47Z</time>
      </trkpt>
      <trkpt lat="44.14589" lon="2.96589">
        <ele>648</ele>
        <time>2014-03-18T10:49:59Z</time>
      </trkpt>
      <trkpt lat="44.14587" lon="2.96596">
        <ele>647</ele>
        <time>2014-03-18T10:50:04Z</time>
      </trkpt>
      <trkpt lat="44.14587" lon="2.96603">
        <ele>647</ele>
        <time>2014-03-18T10:50:08Z</time>
      </trkpt>
      <trkpt lat="44.14585" lon="2.96611">
        <ele>647</ele>
        <time>2014-03-18T10:50:13Z</time>
      </trkpt>
      <trkpt lat="44.14582" lon="2.96617">
        <ele>648</ele>
        <time>2014-03-18T10:50:16Z</time>
      </trkpt>
      <trkpt lat="44.14577" lon="2.96619">
        <ele>646</ele>
        <time>2014-03-18T10:50:20Z</time>
      </trkpt>
      <trkpt lat="44.14576" lon="2.96626">
        <ele>647</ele>
        <time>2014-03-18T10:50:27Z</time>
      </trkpt>
      <trkpt lat="44.14575" lon="2.96632">
        <ele>646</ele>
        <time>2014-03-18T10:50:33Z</time>
      </trkpt>
      <trkpt lat="44.14571" lon="2.96638">
        <ele>646</ele>
        <time>2014-03-18T10:50:38Z</time>
      </trkpt>
      <trkpt lat="44.1457" lon="2.96647">
        <ele>647</ele>
        <time>2014-03-18T10:50:42Z</time>
      </trkpt>
      <trkpt lat="44.14568" lon="2.96653">
        <ele>647</ele>
        <time>2014-03-18T10:50:46Z</time>
      </trkpt>
      <trkpt lat="44.14567" lon="2.96661">
        <ele>649</ele>
        <time>2014-03-18T10:50:50Z</time>
      </trkpt>
      <trkpt lat="44.14565" lon="2.96668">
        <ele>649</ele>
        <time>2014-03-18T10:50:54Z</time>
      </trkpt>
      <trkpt lat="44.14564" lon="2.96674">
        <ele>650</ele>
        <time>2014-03-18T10:50:56Z</time>
      </trkpt>
      <trkpt lat="44.14562" lon="2.96682">
        <ele>651</ele>
        <time>2014-03-18T10:50:59Z</time>
      </trkpt>
      <trkpt lat="44.14559" lon="2.96689">
        <ele>651</ele>
        <time>2014-03-18T10:51:01Z</time>
      </trkpt>
      <trkpt lat="44.14558" lon="2.96695">
        <ele>649</ele>
        <time>2014-03-18T10:51:09Z</time>
      </trkpt>
      <trkpt lat="44.14558" lon="2.96702">
        <ele>648</ele>
        <time>2014-03-18T10:51:13Z</time>
      </trkpt>
      <trkpt lat="44.1456" lon="2.96708">
        <ele>647</ele>
        <time>2014-03-18T10:51:20Z</time>
      </trkpt>
      <trkpt lat="44.14557" lon="2.96715">
        <ele>647</ele>
        <time>2014-03-18T10:51:26Z</time>
      </trkpt>
      <trkpt lat="44.14556" lon="2.96721">
        <ele>648</ele>
        <time>2014-03-18T10:51:32Z</time>
      </trkpt>
      <trkpt lat="44.14554" lon="2.96727">
        <ele>648</ele>
        <time>2014-03-18T10:51:36Z</time>
      </trkpt>
      <trkpt lat="44.14552" lon="2.96734">
        <ele>647</ele>
        <time>2014-03-18T10:51:40Z</time>
      </trkpt>
      <trkpt lat="44.14551" lon="2.96741">
        <ele>646</ele>
        <time>2014-03-18T10:51:48Z</time>
      </trkpt>
      <trkpt lat="44.14548" lon="2.96747">
        <ele>645</ele>
        <time>2014-03-18T10:51:50Z</time>
      </trkpt>
      <trkpt lat="44.14547" lon="2.96753">
        <ele>644</ele>
        <time>2014-03-18T10:51:52Z</time>
      </trkpt>
      <trkpt lat="44.14545" lon="2.96759">
        <ele>643</ele>
        <time>2014-03-18T10:51:57Z</time>
      </trkpt>
      <trkpt lat="44.14543" lon="2.96765">
        <ele>643</ele>
        <time>2014-03-18T10:52:00Z</time>
      </trkpt>
      <trkpt lat="44.14539" lon="2.9677">
        <ele>642</ele>
        <time>2014-03-18T10:52:04Z</time>
      </trkpt>
      <trkpt lat="44.14535" lon="2.96771">
        <ele>640</ele>
        <time>2014-03-18T10:52:08Z</time>
      </trkpt>
      <trkpt lat="44.1453" lon="2.96768">
        <ele>636</ele>
        <time>2014-03-18T10:52:12Z</time>
      </trkpt>
      <trkpt lat="44.14526" lon="2.96764">
        <ele>635</ele>
        <time>2014-03-18T10:52:15Z</time>
      </trkpt>
      <trkpt lat="44.14523" lon="2.96758">
        <ele>634</ele>
        <time>2014-03-18T10:52:19Z</time>
      </trkpt>
      <trkpt lat="44.14521" lon="2.96752">
        <ele>633</ele>
        <time>2014-03-18T10:52:24Z</time>
      </trkpt>
      <trkpt lat="44.14518" lon="2.96747">
        <ele>632</ele>
        <time>2014-03-18T10:52:28Z</time>
      </trkpt>
      <trkpt lat="44.14515" lon="2.96742">
        <ele>631</ele>
        <time>2014-03-18T10:52:31Z</time>
      </trkpt>
      <trkpt lat="44.14512" lon="2.96735">
        <ele>632</ele>
        <time>2014-03-18T10:52:34Z</time>
      </trkpt>
      <trkpt lat="44.1451" lon="2.96728">
        <ele>633</ele>
        <time>2014-03-18T10:52:38Z</time>
      </trkpt>
      <trkpt lat="44.1451" lon="2.96721">
        <ele>634</ele>
        <time>2014-03-18T10:52:43Z</time>
      </trkpt>
      <trkpt lat="44.14507" lon="2.96714">
        <ele>635</ele>
        <time>2014-03-18T10:52:47Z</time>
      </trkpt>
      <trkpt lat="44.14504" lon="2.96707">
        <ele>634</ele>
        <time>2014-03-18T10:52:50Z</time>
      </trkpt>
      <trkpt lat="44.145" lon="2.96702">
        <ele>634</ele>
        <time>2014-03-18T10:52:53Z</time>
      </trkpt>
      <trkpt lat="44.14497" lon="2.96697">
        <ele>633</ele>
        <time>2014-03-18T10:52:57Z</time>
      </trkpt>
      <trkpt lat="44.14495" lon="2.9669">
        <ele>633</ele>
        <time>2014-03-18T10:53:01Z</time>
      </trkpt>
      <trkpt lat="44.14491" lon="2.96682">
        <ele>634</ele>
        <time>2014-03-18T10:53:04Z</time>
      </trkpt>
      <trkpt lat="44.14488" lon="2.96677">
        <ele>636</ele>
        <time>2014-03-18T10:53:07Z</time>
      </trkpt>
      <trkpt lat="44.14484" lon="2.96673">
        <ele>638</ele>
        <time>2014-03-18T10:53:12Z</time>
      </trkpt>
      <trkpt lat="44.14481" lon="2.96669">
        <ele>638</ele>
        <time>2014-03-18T10:53:16Z</time>
      </trkpt>
      <trkpt lat="44.14477" lon="2.96665">
        <ele>638</ele>
        <time>2014-03-18T10:53:19Z</time>
      </trkpt>
      <trkpt lat="44.14473" lon="2.96661">
        <ele>639</ele>
        <time>2014-03-18T10:53:23Z</time>
      </trkpt>
      <trkpt lat="44.14468" lon="2.96656">
        <ele>639</ele>
        <time>2014-03-18T10:53:26Z</time>
      </trkpt>
      <trkpt lat="44.14464" lon="2.96652">
        <ele>640</ele>
        <time>2014-03-18T10:53:28Z</time>
      </trkpt>
      <trkpt lat="44.1446" lon="2.96645">
        <ele>640</ele>
        <time>2014-03-18T10:53:30Z</time>
      </trkpt>
      <trkpt lat="44.14458" lon="2.96642">
        <ele>641</ele>
        <time>2014-03-18T10:53:32Z</time>
      </trkpt>
      <trkpt lat="44.14452" lon="2.96641">
        <ele>642</ele>
        <time>2014-03-18T10:53:38Z</time>
      </trkpt>
      <trkpt lat="44.1445" lon="2.96635">
        <ele>642</ele>
        <time>2014-03-18T10:53:41Z</time>
      </trkpt>
      <trkpt lat="44.14446" lon="2.96629">
        <ele>642</ele>
        <time>2014-03-18T10:53:44Z</time>
      </trkpt>
      <trkpt lat="44.14442" lon="2.96626">
        <ele>641</ele>
        <time>2014-03-18T10:53:47Z</time>
      </trkpt>
      <trkpt lat="44.14437" lon="2.96625">
        <ele>640</ele>
        <time>2014-03-18T10:53:52Z</time>
      </trkpt>
      <trkpt lat="44.14433" lon="2.96621">
        <ele>639</ele>
        <time>2014-03-18T10:53:56Z</time>
      </trkpt>
      <trkpt lat="44.14429" lon="2.96618">
        <ele>639</ele>
        <time>2014-03-18T10:54:02Z</time>
      </trkpt>
      <trkpt lat="44.14424" lon="2.96616">
        <ele>637</ele>
        <time>2014-03-18T10:54:06Z</time>
      </trkpt>
      <trkpt lat="44.14419" lon="2.96613">
        <ele>637</ele>
        <time>2014-03-18T10:54:10Z</time>
      </trkpt>
      <trkpt lat="44.14415" lon="2.96609">
        <ele>637</ele>
        <time>2014-03-18T10:54:14Z</time>
      </trkpt>
      <trkpt lat="44.14411" lon="2.96606">
        <ele>636</ele>
        <time>2014-03-18T10:54:22Z</time>
      </trkpt>
      <trkpt lat="44.14407" lon="2.96602">
        <ele>636</ele>
        <time>2014-03-18T10:54:26Z</time>
      </trkpt>
      <trkpt lat="44.14402" lon="2.96599">
        <ele>636</ele>
        <time>2014-03-18T10:54:29Z</time>
      </trkpt>
      <trkpt lat="44.14397" lon="2.96598">
        <ele>635</ele>
        <time>2014-03-18T10:54:33Z</time>
      </trkpt>
      <trkpt lat="44.14392" lon="2.96596">
        <ele>634</ele>
        <time>2014-03-18T10:54:38Z</time>
      </trkpt>
      <trkpt lat="44.1439" lon="2.9659">
        <ele>635</ele>
        <time>2014-03-18T10:54:41Z</time>
      </trkpt>
      <trkpt lat="44.14386" lon="2.96586">
        <ele>636</ele>
        <time>2014-03-18T10:54:44Z</time>
      </trkpt>
      <trkpt lat="44.14381" lon="2.96584">
        <ele>636</ele>
        <time>2014-03-18T10:54:48Z</time>
      </trkpt>
      <trkpt lat="44.14376" lon="2.96582">
        <ele>636</ele>
        <time>2014-03-18T10:54:52Z</time>
      </trkpt>
      <trkpt lat="44.14371" lon="2.96583">
        <ele>635</ele>
        <time>2014-03-18T10:54:55Z</time>
      </trkpt>
      <trkpt lat="44.14365" lon="2.96582">
        <ele>634</ele>
        <time>2014-03-18T10:54:59Z</time>
      </trkpt>
      <trkpt lat="44.1436" lon="2.96579">
        <ele>633</ele>
        <time>2014-03-18T10:55:03Z</time>
      </trkpt>
      <trkpt lat="44.14356" lon="2.96573">
        <ele>633</ele>
        <time>2014-03-18T10:55:07Z</time>
      </trkpt>
      <trkpt lat="44.14352" lon="2.96568">
        <ele>634</ele>
        <time>2014-03-18T10:55:10Z</time>
      </trkpt>
      <trkpt lat="44.14348" lon="2.96565">
        <ele>634</ele>
        <time>2014-03-18T10:55:14Z</time>
      </trkpt>
      <trkpt lat="44.14341" lon="2.96568">
        <ele>632</ele>
        <time>2014-03-18T10:55:18Z</time>
      </trkpt>
      <trkpt lat="44.14337" lon="2.9657">
        <ele>631</ele>
        <time>2014-03-18T10:55:20Z</time>
      </trkpt>
      <trkpt lat="44.14332" lon="2.96566">
        <ele>628</ele>
        <time>2014-03-18T10:55:26Z</time>
      </trkpt>
      <trkpt lat="44.14328" lon="2.9656">
        <ele>628</ele>
        <time>2014-03-18T10:55:29Z</time>
      </trkpt>
      <trkpt lat="44.14324" lon="2.96556">
        <ele>629</ele>
        <time>2014-03-18T10:55:32Z</time>
      </trkpt>
      <trkpt lat="44.14319" lon="2.96557">
        <ele>629</ele>
        <time>2014-03-18T10:55:35Z</time>
      </trkpt>
      <trkpt lat="44.14315" lon="2.96558">
        <ele>628</ele>
        <time>2014-03-18T10:55:39Z</time>
      </trkpt>
      <trkpt lat="44.14311" lon="2.96562">
        <ele>628</ele>
        <time>2014-03-18T10:55:43Z</time>
      </trkpt>
      <trkpt lat="44.14306" lon="2.96564">
        <ele>628</ele>
        <time>2014-03-18T10:55:47Z</time>
      </trkpt>
      <trkpt lat="44.14303" lon="2.9656">
        <ele>629</ele>
        <time>2014-03-18T10:55:52Z</time>
      </trkpt>
      <trkpt lat="44.14298" lon="2.96558">
        <ele>630</ele>
        <time>2014-03-18T10:55:55Z</time>
      </trkpt>
      <trkpt lat="44.14293" lon="2.96559">
        <ele>631</ele>
        <time>2014-03-18T10:55:58Z</time>
      </trkpt>
      <trkpt lat="44.14283" lon="2.96563">
        <ele>631</ele>
        <time>2014-03-18T10:56:02Z</time>
      </trkpt>
      <trkpt lat="44.14277" lon="2.96564">
        <ele>631</ele>
        <time>2014-03-18T10:56:05Z</time>
      </trkpt>
      <trkpt lat="44.14272" lon="2.96565">
        <ele>630</ele>
        <time>2014-03-18T10:56:09Z</time>
      </trkpt>
      <trkpt lat="44.14267" lon="2.96568">
        <ele>630</ele>
        <time>2014-03-18T10:56:13Z</time>
      </trkpt>
      <trkpt lat="44.14263" lon="2.96572">
        <ele>629</ele>
        <time>2014-03-18T10:56:15Z</time>
      </trkpt>
      <trkpt lat="44.14258" lon="2.96575">
        <ele>629</ele>
        <time>2014-03-18T10:56:18Z</time>
      </trkpt>
      <trkpt lat="44.14254" lon="2.96575">
        <ele>628</ele>
        <time>2014-03-18T10:56:21Z</time>
      </trkpt>
      <trkpt lat="44.14249" lon="2.96575">
        <ele>627</ele>
        <time>2014-03-18T10:56:24Z</time>
      </trkpt>
      <trkpt lat="44.14243" lon="2.96574">
        <ele>628</ele>
        <time>2014-03-18T10:56:27Z</time>
      </trkpt>
      <trkpt lat="44.14235" lon="2.9658">
        <ele>628</ele>
        <time>2014-03-18T10:56:33Z</time>
      </trkpt>
      <trkpt lat="44.1423" lon="2.96584">
        <ele>628</ele>
        <time>2014-03-18T10:56:37Z</time>
      </trkpt>
      <trkpt lat="44.14229" lon="2.96593">
        <ele>627</ele>
        <time>2014-03-18T10:56:40Z</time>
      </trkpt>
      <trkpt lat="44.14227" lon="2.96599">
        <ele>627</ele>
        <time>2014-03-18T10:56:44Z</time>
      </trkpt>
      <trkpt lat="44.14222" lon="2.96596">
        <ele>627</ele>
        <time>2014-03-18T10:56:49Z</time>
      </trkpt>
      <trkpt lat="44.14219" lon="2.96591">
        <ele>628</ele>
        <time>2014-03-18T10:56:52Z</time>
      </trkpt>
      <trkpt lat="44.14214" lon="2.96588">
        <ele>629</ele>
        <time>2014-03-18T10:56:56Z</time>
      </trkpt>
      <trkpt lat="44.1421" lon="2.96589">
        <ele>630</ele>
        <time>2014-03-18T10:56:59Z</time>
      </trkpt>
      <trkpt lat="44.14205" lon="2.96592">
        <ele>631</ele>
        <time>2014-03-18T10:57:02Z</time>
      </trkpt>
      <trkpt lat="44.142" lon="2.96592">
        <ele>632</ele>
        <time>2014-03-18T10:57:06Z</time>
      </trkpt>
      <trkpt lat="44.14195" lon="2.96594">
        <ele>632</ele>
        <time>2014-03-18T10:57:09Z</time>
      </trkpt>
      <trkpt lat="44.14191" lon="2.96596">
        <ele>634</ele>
        <time>2014-03-18T10:57:14Z</time>
      </trkpt>
      <trkpt lat="44.14187" lon="2.966">
        <ele>634</ele>
        <time>2014-03-18T10:57:18Z</time>
      </trkpt>
      <trkpt lat="44.14182" lon="2.96602">
        <ele>635</ele>
        <time>2014-03-18T10:57:21Z</time>
      </trkpt>
      <trkpt lat="44.14177" lon="2.96604">
        <ele>636</ele>
        <time>2014-03-18T10:57:24Z</time>
      </trkpt>
      <trkpt lat="44.14168" lon="2.96609">
        <ele>637</ele>
        <time>2014-03-18T10:57:30Z</time>
      </trkpt>
      <trkpt lat="44.14159" lon="2.96612">
        <ele>637</ele>
        <time>2014-03-18T10:57:34Z</time>
      </trkpt>
      <trkpt lat="44.14155" lon="2.96617">
        <ele>636</ele>
        <time>2014-03-18T10:57:38Z</time>
      </trkpt>
      <trkpt lat="44.1415" lon="2.9662">
        <ele>635</ele>
        <time>2014-03-18T10:57:41Z</time>
      </trkpt>
      <trkpt lat="44.14145" lon="2.96623">
        <ele>635</ele>
        <time>2014-03-18T10:57:45Z</time>
      </trkpt>
      <trkpt lat="44.14139" lon="2.96627">
        <ele>634</ele>
        <time>2014-03-18T10:57:48Z</time>
      </trkpt>
      <trkpt lat="44.14135" lon="2.9663">
        <ele>633</ele>
        <time>2014-03-18T10:57:51Z</time>
      </trkpt>
      <trkpt lat="44.14133" lon="2.96624">
        <ele>634</ele>
        <time>2014-03-18T10:57:58Z</time>
      </trkpt>
      <trkpt lat="44.14128" lon="2.96626">
        <ele>633</ele>
        <time>2014-03-18T10:58:03Z</time>
      </trkpt>
      <trkpt lat="44.14124" lon="2.96628">
        <ele>630</ele>
        <time>2014-03-18T10:58:08Z</time>
      </trkpt>
      <trkpt lat="44.14118" lon="2.96628">
        <ele>629</ele>
        <time>2014-03-18T10:58:12Z</time>
      </trkpt>
      <trkpt lat="44.14113" lon="2.96626">
        <ele>630</ele>
        <time>2014-03-18T10:58:15Z</time>
      </trkpt>
      <trkpt lat="44.14107" lon="2.96624">
        <ele>630</ele>
        <time>2014-03-18T10:58:18Z</time>
      </trkpt>
      <trkpt lat="44.14102" lon="2.96622">
        <ele>630</ele>
        <time>2014-03-18T10:58:23Z</time>
      </trkpt>
      <trkpt lat="44.14098" lon="2.96625">
        <ele>630</ele>
        <time>2014-03-18T10:58:27Z</time>
      </trkpt>
      <trkpt lat="44.14095" lon="2.96631">
        <ele>631</ele>
        <time>2014-03-18T10:58:31Z</time>
      </trkpt>
      <trkpt lat="44.14092" lon="2.96637">
        <ele>631</ele>
        <time>2014-03-18T10:58:40Z</time>
      </trkpt>
      <trkpt lat="44.14083" lon="2.96661">
        <ele>623</ele>
        <time>2014-03-18T10:59:04Z</time>
      </trkpt>
      <trkpt lat="44.14079" lon="2.96672">
        <ele>622</ele>
        <time>2014-03-18T10:59:08Z</time>
      </trkpt>
      <trkpt lat="44.14076" lon="2.9668">
        <ele>622</ele>
        <time>2014-03-18T10:59:11Z</time>
      </trkpt>
      <trkpt lat="44.14075" lon="2.96686">
        <ele>622</ele>
        <time>2014-03-18T10:59:14Z</time>
      </trkpt>
      <trkpt lat="44.14076" lon="2.96695">
        <ele>623</ele>
        <time>2014-03-18T10:59:20Z</time>
      </trkpt>
      <trkpt lat="44.14075" lon="2.96701">
        <ele>623</ele>
        <time>2014-03-18T10:59:25Z</time>
      </trkpt>
      <trkpt lat="44.14073" lon="2.96709">
        <ele>620</ele>
        <time>2014-03-18T10:59:29Z</time>
      </trkpt>
      <trkpt lat="44.14071" lon="2.96716">
        <ele>619</ele>
        <time>2014-03-18T10:59:33Z</time>
      </trkpt>
      <trkpt lat="44.14068" lon="2.96723">
        <ele>619</ele>
        <time>2014-03-18T10:59:37Z</time>
      </trkpt>
      <trkpt lat="44.14066" lon="2.96729">
        <ele>619</ele>
        <time>2014-03-18T10:59:42Z</time>
      </trkpt>
      <trkpt lat="44.14067" lon="2.96737">
        <ele>618</ele>
        <time>2014-03-18T10:59:50Z</time>
      </trkpt>
      <trkpt lat="44.14066" lon="2.96744">
        <ele>618</ele>
        <time>2014-03-18T10:59:53Z</time>
      </trkpt>
      <trkpt lat="44.14063" lon="2.96751">
        <ele>617</ele>
        <time>2014-03-18T10:59:56Z</time>
      </trkpt>
      <trkpt lat="44.14061" lon="2.96756">
        <ele>616</ele>
        <time>2014-03-18T10:59:58Z</time>
      </trkpt>
      <trkpt lat="44.14059" lon="2.96764">
        <ele>616</ele>
        <time>2014-03-18T11:00:01Z</time>
      </trkpt>
      <trkpt lat="44.14057" lon="2.96771">
        <ele>615</ele>
        <time>2014-03-18T11:00:04Z</time>
      </trkpt>
      <trkpt lat="44.14056" lon="2.96774">
        <ele>614</ele>
        <time>2014-03-18T11:00:10Z</time>
      </trkpt>
      <trkpt lat="44.14053" lon="2.9678">
        <ele>612</ele>
        <time>2014-03-18T11:00:16Z</time>
      </trkpt>
      <trkpt lat="44.14052" lon="2.96786">
        <ele>611</ele>
        <time>2014-03-18T11:00:20Z</time>
      </trkpt>
      <trkpt lat="44.14049" lon="2.96794">
        <ele>608</ele>
        <time>2014-03-18T11:00:26Z</time>
      </trkpt>
      <trkpt lat="44.14048" lon="2.968">
        <ele>606</ele>
        <time>2014-03-18T11:00:30Z</time>
      </trkpt>
      <trkpt lat="44.14046" lon="2.96807">
        <ele>604</ele>
        <time>2014-03-18T11:00:34Z</time>
      </trkpt>
      <trkpt lat="44.14044" lon="2.96813">
        <ele>603</ele>
        <time>2014-03-18T11:00:39Z</time>
      </trkpt>
      <trkpt lat="44.14049" lon="2.96811">
        <ele>603</ele>
        <time>2014-03-18T11:00:43Z</time>
      </trkpt>
      <trkpt lat="44.14046" lon="2.96819">
        <ele>604</ele>
        <time>2014-03-18T11:00:49Z</time>
      </trkpt>
      <trkpt lat="44.14042" lon="2.96825">
        <ele>604</ele>
        <time>2014-03-18T11:00:52Z</time>
      </trkpt>
      <trkpt lat="44.14038" lon="2.96833">
        <ele>604</ele>
        <time>2014-03-18T11:00:54Z</time>
      </trkpt>
      <trkpt lat="44.14036" lon="2.96839">
        <ele>605</ele>
        <time>2014-03-18T11:00:57Z</time>
      </trkpt>
      <trkpt lat="44.14032" lon="2.96845">
        <ele>605</ele>
        <time>2014-03-18T11:01:00Z</time>
      </trkpt>
      <trkpt lat="44.14028" lon="2.9685">
        <ele>608</ele>
        <time>2014-03-18T11:01:09Z</time>
      </trkpt>
      <trkpt lat="44.14026" lon="2.96859">
        <ele>609</ele>
        <time>2014-03-18T11:01:14Z</time>
      </trkpt>
      <trkpt lat="44.14023" lon="2.96866">
        <ele>609</ele>
        <time>2014-03-18T11:01:17Z</time>
      </trkpt>
      <trkpt lat="44.14021" lon="2.96873">
        <ele>608</ele>
        <time>2014-03-18T11:01:20Z</time>
      </trkpt>
      <trkpt lat="44.1402" lon="2.96879">
        <ele>607</ele>
        <time>2014-03-18T11:01:25Z</time>
      </trkpt>
      <trkpt lat="44.14017" lon="2.96886">
        <ele>604</ele>
        <time>2014-03-18T11:01:29Z</time>
      </trkpt>
      <trkpt lat="44.14015" lon="2.96893">
        <ele>602</ele>
        <time>2014-03-18T11:01:34Z</time>
      </trkpt>
      <trkpt lat="44.14012" lon="2.96899">
        <ele>602</ele>
        <time>2014-03-18T11:01:38Z</time>
      </trkpt>
      <trkpt lat="44.14012" lon="2.96906">
        <ele>600</ele>
        <time>2014-03-18T11:01:42Z</time>
      </trkpt>
      <trkpt lat="44.14009" lon="2.96913">
        <ele>599</ele>
        <time>2014-03-18T11:01:49Z</time>
      </trkpt>
      <trkpt lat="44.14006" lon="2.9692">
        <ele>598</ele>
        <time>2014-03-18T11:01:52Z</time>
      </trkpt>
      <trkpt lat="44.14004" lon="2.96926">
        <ele>597</ele>
        <time>2014-03-18T11:01:56Z</time>
      </trkpt>
      <trkpt lat="44.14001" lon="2.96931">
        <ele>595</ele>
        <time>2014-03-18T11:02:02Z</time>
      </trkpt>
      <trkpt lat="44.14" lon="2.96934">
        <ele>595</ele>
        <time>2014-03-18T11:02:09Z</time>
      </trkpt>
      <trkpt lat="44.13998" lon="2.96941">
        <ele>595</ele>
        <time>2014-03-18T11:02:13Z</time>
      </trkpt>
      <trkpt lat="44.13995" lon="2.96947">
        <ele>594</ele>
        <time>2014-03-18T11:02:16Z</time>
      </trkpt>
      <trkpt lat="44.13996" lon="2.96952">
        <ele>593</ele>
        <time>2014-03-18T11:02:28Z</time>
      </trkpt>
      <trkpt lat="44.13999" lon="2.96957">
        <ele>592</ele>
        <time>2014-03-18T11:02:36Z</time>
      </trkpt>
      <trkpt lat="44.13996" lon="2.96963">
        <ele>592</ele>
        <time>2014-03-18T11:02:39Z</time>
      </trkpt>
      <trkpt lat="44.13992" lon="2.96969">
        <ele>591</ele>
        <time>2014-03-18T11:02:43Z</time>
      </trkpt>
      <trkpt lat="44.1399" lon="2.96975">
        <ele>591</ele>
        <time>2014-03-18T11:02:49Z</time>
      </trkpt>
      <trkpt lat="44.13988" lon="2.96982">
        <ele>592</ele>
        <time>2014-03-18T11:02:53Z</time>
      </trkpt>
      <trkpt lat="44.13987" lon="2.96989">
        <ele>592</ele>
        <time>2014-03-18T11:02:57Z</time>
      </trkpt>
      <trkpt lat="44.13987" lon="2.96997">
        <ele>592</ele>
        <time>2014-03-18T11:03:03Z</time>
      </trkpt>
      <trkpt lat="44.13986" lon="2.97003">
        <ele>592</ele>
        <time>2014-03-18T11:03:09Z</time>
      </trkpt>
      <trkpt lat="44.13983" lon="2.9701">
        <ele>595</ele>
        <time>2014-03-18T11:03:14Z</time>
      </trkpt>
      <trkpt lat="44.13979" lon="2.97017">
        <ele>595</ele>
        <time>2014-03-18T11:03:17Z</time>
      </trkpt>
      <trkpt lat="44.13976" lon="2.97025">
        <ele>596</ele>
        <time>2014-03-18T11:03:20Z</time>
      </trkpt>
      <trkpt lat="44.13973" lon="2.97033">
        <ele>596</ele>
        <time>2014-03-18T11:03:23Z</time>
      </trkpt>
      <trkpt lat="44.13966" lon="2.97045">
        <ele>595</ele>
        <time>2014-03-18T11:03:31Z</time>
      </trkpt>
      <trkpt lat="44.13962" lon="2.97052">
        <ele>595</ele>
        <time>2014-03-18T11:03:32Z</time>
      </trkpt>
      <trkpt lat="44.13958" lon="2.97058">
        <ele>594</ele>
        <time>2014-03-18T11:03:35Z</time>
      </trkpt>
      <trkpt lat="44.13956" lon="2.97065">
        <ele>592</ele>
        <time>2014-03-18T11:03:41Z</time>
      </trkpt>
      <trkpt lat="44.13954" lon="2.97071">
        <ele>591</ele>
        <time>2014-03-18T11:03:45Z</time>
      </trkpt>
      <trkpt lat="44.13954" lon="2.97078">
        <ele>590</ele>
        <time>2014-03-18T11:03:49Z</time>
      </trkpt>
      <trkpt lat="44.1395" lon="2.97092">
        <ele>584</ele>
        <time>2014-03-18T11:04:00Z</time>
      </trkpt>
      <trkpt lat="44.13945" lon="2.97102">
        <ele>582</ele>
        <time>2014-03-18T11:04:07Z</time>
      </trkpt>
      <trkpt lat="44.13945" lon="2.9711">
        <ele>580</ele>
        <time>2014-03-18T11:04:11Z</time>
      </trkpt>
      <trkpt lat="44.1394" lon="2.97124">
        <ele>579</ele>
        <time>2014-03-18T11:04:16Z</time>
      </trkpt>
      <trkpt lat="44.1394" lon="2.9713">
        <ele>578</ele>
        <time>2014-03-18T11:04:21Z</time>
      </trkpt>
      <trkpt lat="44.1394" lon="2.97137">
        <ele>580</ele>
        <time>2014-03-18T11:04:30Z</time>
      </trkpt>
      <trkpt lat="44.13938" lon="2.97143">
        <ele>581</ele>
        <time>2014-03-18T11:04:34Z</time>
      </trkpt>
      <trkpt lat="44.13935" lon="2.97148">
        <ele>582</ele>
        <time>2014-03-18T11:04:40Z</time>
      </trkpt>
      <trkpt lat="44.1393" lon="2.97152">
        <ele>581</ele>
        <time>2014-03-18T11:04:45Z</time>
      </trkpt>
      <trkpt lat="44.13925" lon="2.97156">
        <ele>582</ele>
        <time>2014-03-18T11:04:48Z</time>
      </trkpt>
      <trkpt lat="44.13926" lon="2.97157">
        <ele>581</ele>
        <time>2014-03-18T11:05:01Z</time>
      </trkpt>
      <trkpt lat="44.13929" lon="2.97159">
        <ele>585</ele>
        <time>2014-03-18T11:05:29Z</time>
      </trkpt>
      <trkpt lat="44.13932" lon="2.97163">
        <ele>586</ele>
        <time>2014-03-18T11:05:44Z</time>
      </trkpt>
      <trkpt lat="44.13937" lon="2.9716">
        <ele>586</ele>
        <time>2014-03-18T11:05:48Z</time>
      </trkpt>
      <trkpt lat="44.13938" lon="2.97157">
        <ele>587</ele>
        <time>2014-03-18T11:05:54Z</time>
      </trkpt>
      <trkpt lat="44.1394" lon="2.97159">
        <ele>587</ele>
        <time>2014-03-18T11:06:08Z</time>
      </trkpt>
      <trkpt lat="44.13936" lon="2.97164">
        <ele>587</ele>
        <time>2014-03-18T11:06:19Z</time>
      </trkpt>
      <trkpt lat="44.13935" lon="2.97167">
        <ele>586</ele>
        <time>2014-03-18T11:06:25Z</time>
      </trkpt>
      <trkpt lat="44.1393" lon="2.97164">
        <ele>586</ele>
        <time>2014-03-18T11:06:28Z</time>
      </trkpt>
      <trkpt lat="44.13921" lon="2.97162">
        <ele>588</ele>
        <time>2014-03-18T11:06:35Z</time>
      </trkpt>
      <trkpt lat="44.13916" lon="2.97162">
        <ele>588</ele>
        <time>2014-03-18T11:06:37Z</time>
      </trkpt>
      <trkpt lat="44.13912" lon="2.97158">
        <ele>588</ele>
        <time>2014-03-18T11:06:41Z</time>
      </trkpt>
      <trkpt lat="44.13919" lon="2.97153">
        <ele>587</ele>
        <time>2014-03-18T11:06:51Z</time>
      </trkpt>
      <trkpt lat="44.13924" lon="2.97153">
        <ele>587</ele>
        <time>2014-03-18T11:06:54Z</time>
      </trkpt>
      <trkpt lat="44.13924" lon="2.97154">
        <ele>586</ele>
        <time>2014-03-18T11:07:40Z</time>
      </trkpt>
      <trkpt lat="44.1393" lon="2.97158">
        <ele>586</ele>
        <time>2014-03-18T11:07:47Z</time>
      </trkpt>
      <trkpt lat="44.13934" lon="2.9716">
        <ele>587</ele>
        <time>2014-03-18T11:07:52Z</time>
      </trkpt>
      <trkpt lat="44.13932" lon="2.97166">
        <ele>587</ele>
        <time>2014-03-18T11:07:56Z</time>
      </trkpt>
      <trkpt lat="44.13927" lon="2.97166">
        <ele>588</ele>
        <time>2014-03-18T11:08:00Z</time>
      </trkpt>
      <trkpt lat="44.13923" lon="2.97164">
        <ele>588</ele>
        <time>2014-03-18T11:08:02Z</time>
      </trkpt>
      <trkpt lat="44.13927" lon="2.97159">
        <ele>589</ele>
        <time>2014-03-18T11:08:18Z</time>
      </trkpt>
      <trkpt lat="44.13926" lon="2.97153">
        <ele>589</ele>
        <time>2014-03-18T11:08:24Z</time>
      </trkpt>
      <trkpt lat="44.13923" lon="2.97146">
        <ele>589</ele>
        <time>2014-03-18T11:08:29Z</time>
      </trkpt>
      <trkpt lat="44.1392" lon="2.97147">
        <ele>588</ele>
        <time>2014-03-18T11:08:35Z</time>
      </trkpt>
      <trkpt lat="44.13922" lon="2.97158">
        <ele>586</ele>
        <time>2014-03-18T11:08:41Z</time>
      </trkpt>
      <trkpt lat="44.13925" lon="2.97157">
        <ele>584</ele>
        <time>2014-03-18T11:08:55Z</time>
      </trkpt>
      <trkpt lat="44.13924" lon="2.97151">
        <ele>587</ele>
        <time>2014-03-18T11:09:08Z</time>
      </trkpt>
      <trkpt lat="44.13927" lon="2.97144">
        <ele>587</ele>
        <time>2014-03-18T11:09:13Z</time>
      </trkpt>
      <trkpt lat="44.13929" lon="2.97138">
        <ele>587</ele>
        <time>2014-03-18T11:09:17Z</time>
      </trkpt>
      <trkpt lat="44.13928" lon="2.97131">
        <ele>585</ele>
        <time>2014-03-18T11:09:23Z</time>
      </trkpt>
      <trkpt lat="44.13926" lon="2.97125">
        <ele>584</ele>
        <time>2014-03-18T11:09:26Z</time>
      </trkpt>
      <trkpt lat="44.13926" lon="2.97119">
        <ele>582</ele>
        <time>2014-03-18T11:09:29Z</time>
      </trkpt>
      <trkpt lat="44.13926" lon="2.97112">
        <ele>581</ele>
        <time>2014-03-18T11:09:33Z</time>
      </trkpt>
      <trkpt lat="44.13927" lon="2.97104">
        <ele>580</ele>
        <time>2014-03-18T11:09:36Z</time>
      </trkpt>
      <trkpt lat="44.13927" lon="2.97097">
        <ele>579</ele>
        <time>2014-03-18T11:09:40Z</time>
      </trkpt>
      <trkpt lat="44.13926" lon="2.97089">
        <ele>579</ele>
        <time>2014-03-18T11:09:44Z</time>
      </trkpt>
      <trkpt lat="44.13926" lon="2.97082">
        <ele>578</ele>
        <time>2014-03-18T11:09:48Z</time>
      </trkpt>
      <trkpt lat="44.13926" lon="2.97075">
        <ele>578</ele>
        <time>2014-03-18T11:09:51Z</time>
      </trkpt>
      <trkpt lat="44.13927" lon="2.97068">
        <ele>578</ele>
        <time>2014-03-18T11:09:54Z</time>
      </trkpt>
      <trkpt lat="44.13927" lon="2.97061">
        <ele>578</ele>
        <time>2014-03-18T11:09:58Z</time>
      </trkpt>
      <trkpt lat="44.13927" lon="2.97054">
        <ele>578</ele>
        <time>2014-03-18T11:10:01Z</time>
      </trkpt>
      <trkpt lat="44.13928" lon="2.97047">
        <ele>579</ele>
        <time>2014-03-18T11:10:04Z</time>
      </trkpt>
      <trkpt lat="44.13927" lon="2.97039">
        <ele>579</ele>
        <time>2014-03-18T11:10:08Z</time>
      </trkpt>
      <trkpt lat="44.13926" lon="2.97032">
        <ele>578</ele>
        <time>2014-03-18T11:10:12Z</time>
      </trkpt>
      <trkpt lat="44.13925" lon="2.97024">
        <ele>579</ele>
        <time>2014-03-18T11:10:15Z</time>
      </trkpt>
      <trkpt lat="44.13925" lon="2.97016">
        <ele>579</ele>
        <time>2014-03-18T11:10:18Z</time>
      </trkpt>
      <trkpt lat="44.13926" lon="2.97002">
        <ele>580</ele>
        <time>2014-03-18T11:10:26Z</time>
      </trkpt>
      <trkpt lat="44.13927" lon="2.96992">
        <ele>580</ele>
        <time>2014-03-18T11:10:29Z</time>
      </trkpt>
      <trkpt lat="44.13926" lon="2.96985">
        <ele>580</ele>
        <time>2014-03-18T11:10:31Z</time>
      </trkpt>
      <trkpt lat="44.13925" lon="2.96977">
        <ele>580</ele>
        <time>2014-03-18T11:10:34Z</time>
      </trkpt>
      <trkpt lat="44.13924" lon="2.96964">
        <ele>581</ele>
        <time>2014-03-18T11:10:42Z</time>
      </trkpt>
      <trkpt lat="44.13925" lon="2.96957">
        <ele>583</ele>
        <time>2014-03-18T11:10:45Z</time>
      </trkpt>
      <trkpt lat="44.13927" lon="2.9695">
        <ele>584</ele>
        <time>2014-03-18T11:10:48Z</time>
      </trkpt>
      <trkpt lat="44.13928" lon="2.96944">
        <ele>584</ele>
        <time>2014-03-18T11:10:53Z</time>
      </trkpt>
      <trkpt lat="44.13929" lon="2.96938">
        <ele>584</ele>
        <time>2014-03-18T11:10:56Z</time>
      </trkpt>
      <trkpt lat="44.13933" lon="2.9693">
        <ele>583</ele>
        <time>2014-03-18T11:11:01Z</time>
      </trkpt>
      <trkpt lat="44.13934" lon="2.9692">
        <ele>582</ele>
        <time>2014-03-18T11:11:06Z</time>
      </trkpt>
      <trkpt lat="44.13933" lon="2.96913">
        <ele>581</ele>
        <time>2014-03-18T11:11:11Z</time>
      </trkpt>
      <trkpt lat="44.13932" lon="2.96907">
        <ele>577</ele>
        <time>2014-03-18T11:11:16Z</time>
      </trkpt>
      <trkpt lat="44.13933" lon="2.96893">
        <ele>575</ele>
        <time>2014-03-18T11:11:25Z</time>
      </trkpt>
      <trkpt lat="44.13934" lon="2.96886">
        <ele>574</ele>
        <time>2014-03-18T11:11:28Z</time>
      </trkpt>
      <trkpt lat="44.13933" lon="2.96879">
        <ele>573</ele>
        <time>2014-03-18T11:11:31Z</time>
      </trkpt>
      <trkpt lat="44.13933" lon="2.96872">
        <ele>573</ele>
        <time>2014-03-18T11:11:33Z</time>
      </trkpt>
      <trkpt lat="44.13938" lon="2.96867">
        <ele>571</ele>
        <time>2014-03-18T11:11:37Z</time>
      </trkpt>
      <trkpt lat="44.13939" lon="2.9686">
        <ele>570</ele>
        <time>2014-03-18T11:11:41Z</time>
      </trkpt>
      <trkpt lat="44.13938" lon="2.9685">
        <ele>571</ele>
        <time>2014-03-18T11:11:44Z</time>
      </trkpt>
      <trkpt lat="44.13936" lon="2.96843">
        <ele>573</ele>
        <time>2014-03-18T11:11:46Z</time>
      </trkpt>
      <trkpt lat="44.13934" lon="2.96837">
        <ele>574</ele>
        <time>2014-03-18T11:11:48Z</time>
      </trkpt>
      <trkpt lat="44.13934" lon="2.96831">
        <ele>575</ele>
        <time>2014-03-18T11:11:52Z</time>
      </trkpt>
      <trkpt lat="44.13934" lon="2.96822">
        <ele>575</ele>
        <time>2014-03-18T11:11:56Z</time>
      </trkpt>
      <trkpt lat="44.13935" lon="2.96814">
        <ele>575</ele>
        <time>2014-03-18T11:12:00Z</time>
      </trkpt>
      <trkpt lat="44.13936" lon="2.96808">
        <ele>574</ele>
        <time>2014-03-18T11:12:03Z</time>
      </trkpt>
      <trkpt lat="44.13937" lon="2.968">
        <ele>573</ele>
        <time>2014-03-18T11:12:06Z</time>
      </trkpt>
      <trkpt lat="44.13938" lon="2.96793">
        <ele>570</ele>
        <time>2014-03-18T11:12:11Z</time>
      </trkpt>
      <trkpt lat="44.1394" lon="2.96787">
        <ele>569</ele>
        <time>2014-03-18T11:12:16Z</time>
      </trkpt>
      <trkpt lat="44.13939" lon="2.9678">
        <ele>569</ele>
        <time>2014-03-18T11:12:19Z</time>
      </trkpt>
      <trkpt lat="44.13937" lon="2.96773">
        <ele>569</ele>
        <time>2014-03-18T11:12:22Z</time>
      </trkpt>
      <trkpt lat="44.13937" lon="2.96766">
        <ele>570</ele>
        <time>2014-03-18T11:12:25Z</time>
      </trkpt>
      <trkpt lat="44.13936" lon="2.9676">
        <ele>570</ele>
        <time>2014-03-18T11:12:28Z</time>
      </trkpt>
      <trkpt lat="44.13935" lon="2.96752">
        <ele>570</ele>
        <time>2014-03-18T11:12:32Z</time>
      </trkpt>
      <trkpt lat="44.13934" lon="2.96745">
        <ele>569</ele>
        <time>2014-03-18T11:12:35Z</time>
      </trkpt>
      <trkpt lat="44.13934" lon="2.96738">
        <ele>569</ele>
        <time>2014-03-18T11:12:38Z</time>
      </trkpt>
      <trkpt lat="44.13936" lon="2.96731">
        <ele>569</ele>
        <time>2014-03-18T11:12:41Z</time>
      </trkpt>
      <trkpt lat="44.13938" lon="2.96723">
        <ele>569</ele>
        <time>2014-03-18T11:12:44Z</time>
      </trkpt>
      <trkpt lat="44.13939" lon="2.96716">
        <ele>569</ele>
        <time>2014-03-18T11:12:47Z</time>
      </trkpt>
      <trkpt lat="44.13941" lon="2.96707">
        <ele>571</ele>
        <time>2014-03-18T11:12:50Z</time>
      </trkpt>
      <trkpt lat="44.1394" lon="2.96698">
        <ele>573</ele>
        <time>2014-03-18T11:12:53Z</time>
      </trkpt>
      <trkpt lat="44.1394" lon="2.9669">
        <ele>574</ele>
        <time>2014-03-18T11:12:56Z</time>
      </trkpt>
      <trkpt lat="44.1394" lon="2.96683">
        <ele>575</ele>
        <time>2014-03-18T11:12:59Z</time>
      </trkpt>
      <trkpt lat="44.1394" lon="2.96675">
        <ele>575</ele>
        <time>2014-03-18T11:13:03Z</time>
      </trkpt>
      <trkpt lat="44.13938" lon="2.96667">
        <ele>575</ele>
        <time>2014-03-18T11:13:07Z</time>
      </trkpt>
      <trkpt lat="44.13937" lon="2.9666">
        <ele>573</ele>
        <time>2014-03-18T11:13:11Z</time>
      </trkpt>
      <trkpt lat="44.13938" lon="2.96653">
        <ele>572</ele>
        <time>2014-03-18T11:13:16Z</time>
      </trkpt>
      <trkpt lat="44.13941" lon="2.96647">
        <ele>571</ele>
        <time>2014-03-18T11:13:20Z</time>
      </trkpt>
      <trkpt lat="44.13943" lon="2.96641">
        <ele>567</ele>
        <time>2014-03-18T11:13:25Z</time>
      </trkpt>
      <trkpt lat="44.13944" lon="2.96633">
        <ele>565</ele>
        <time>2014-03-18T11:13:30Z</time>
      </trkpt>
      <trkpt lat="44.13943" lon="2.96626">
        <ele>564</ele>
        <time>2014-03-18T11:13:33Z</time>
      </trkpt>
      <trkpt lat="44.13942" lon="2.96618">
        <ele>565</ele>
        <time>2014-03-18T11:13:36Z</time>
      </trkpt>
      <trkpt lat="44.13943" lon="2.96611">
        <ele>565</ele>
        <time>2014-03-18T11:13:38Z</time>
      </trkpt>
      <trkpt lat="44.13944" lon="2.96602">
        <ele>568</ele>
        <time>2014-03-18T11:13:41Z</time>
      </trkpt>
      <trkpt lat="44.13945" lon="2.96596">
        <ele>570</ele>
        <time>2014-03-18T11:13:43Z</time>
      </trkpt>
      <trkpt lat="44.13947" lon="2.9659">
        <ele>571</ele>
        <time>2014-03-18T11:13:45Z</time>
      </trkpt>
      <trkpt lat="44.13949" lon="2.96584">
        <ele>572</ele>
        <time>2014-03-18T11:13:48Z</time>
      </trkpt>
      <trkpt lat="44.1395" lon="2.96577">
        <ele>572</ele>
        <time>2014-03-18T11:13:52Z</time>
      </trkpt>
      <trkpt lat="44.13949" lon="2.9657">
        <ele>573</ele>
        <time>2014-03-18T11:13:54Z</time>
      </trkpt>
      <trkpt lat="44.13949" lon="2.96564">
        <ele>575</ele>
        <time>2014-03-18T11:13:56Z</time>
      </trkpt>
      <trkpt lat="44.13951" lon="2.96556">
        <ele>576</ele>
        <time>2014-03-18T11:13:59Z</time>
      </trkpt>
      <trkpt lat="44.13953" lon="2.9655">
        <ele>578</ele>
        <time>2014-03-18T11:14:04Z</time>
      </trkpt>
      <trkpt lat="44.13955" lon="2.96543">
        <ele>580</ele>
        <time>2014-03-18T11:14:09Z</time>
      </trkpt>
      <trkpt lat="44.13957" lon="2.96536">
        <ele>581</ele>
        <time>2014-03-18T11:14:12Z</time>
      </trkpt>
      <trkpt lat="44.13956" lon="2.96529">
        <ele>580</ele>
        <time>2014-03-18T11:14:18Z</time>
      </trkpt>
      <trkpt lat="44.13958" lon="2.96523">
        <ele>579</ele>
        <time>2014-03-18T11:14:22Z</time>
      </trkpt>
      <trkpt lat="44.13958" lon="2.9651">
        <ele>578</ele>
        <time>2014-03-18T11:14:27Z</time>
      </trkpt>
      <trkpt lat="44.13959" lon="2.96502">
        <ele>578</ele>
        <time>2014-03-18T11:14:30Z</time>
      </trkpt>
      <trkpt lat="44.13961" lon="2.96493">
        <ele>577</ele>
        <time>2014-03-18T11:14:34Z</time>
      </trkpt>
      <trkpt lat="44.1397" lon="2.96436">
        <ele>559</ele>
        <time>2014-03-18T11:15:06Z</time>
      </trkpt>
      <trkpt lat="44.13971" lon="2.9643">
        <ele>558</ele>
        <time>2014-03-18T11:15:09Z</time>
      </trkpt>
      <trkpt lat="44.13969" lon="2.96423">
        <ele>555</ele>
        <time>2014-03-18T11:15:12Z</time>
      </trkpt>
      <trkpt lat="44.13968" lon="2.96416">
        <ele>553</ele>
        <time>2014-03-18T11:15:16Z</time>
      </trkpt>
      <trkpt lat="44.13971" lon="2.96411">
        <ele>551</ele>
        <time>2014-03-18T11:15:22Z</time>
      </trkpt>
      <trkpt lat="44.13976" lon="2.96405">
        <ele>550</ele>
        <time>2014-03-18T11:15:26Z</time>
      </trkpt>
      <trkpt lat="44.13979" lon="2.96401">
        <ele>550</ele>
        <time>2014-03-18T11:15:30Z</time>
      </trkpt>
      <trkpt lat="44.13981" lon="2.96395">
        <ele>550</ele>
        <time>2014-03-18T11:15:34Z</time>
      </trkpt>
      <trkpt lat="44.13981" lon="2.96387">
        <ele>549</ele>
        <time>2014-03-18T11:15:39Z</time>
      </trkpt>
      <trkpt lat="44.1398" lon="2.9638">
        <ele>549</ele>
        <time>2014-03-18T11:15:42Z</time>
      </trkpt>
      <trkpt lat="44.13982" lon="2.96374">
        <ele>549</ele>
        <time>2014-03-18T11:15:47Z</time>
      </trkpt>
      <trkpt lat="44.13984" lon="2.96367">
        <ele>547</ele>
        <time>2014-03-18T11:15:51Z</time>
      </trkpt>
      <trkpt lat="44.13981" lon="2.96362">
        <ele>547</ele>
        <time>2014-03-18T11:15:56Z</time>
      </trkpt>
      <trkpt lat="44.13975" lon="2.9636">
        <ele>543</ele>
        <time>2014-03-18T11:16:11Z</time>
      </trkpt>
      <trkpt lat="44.13972" lon="2.96361">
        <ele>542</ele>
        <time>2014-03-18T11:16:25Z</time>
      </trkpt>
      <trkpt lat="44.13972" lon="2.96367">
        <ele>541</ele>
        <time>2014-03-18T11:16:44Z</time>
      </trkpt>
      <trkpt lat="44.13974" lon="2.96373">
        <ele>540</ele>
        <time>2014-03-18T11:16:50Z</time>
      </trkpt>
      <trkpt lat="44.13978" lon="2.96369">
        <ele>539</ele>
        <time>2014-03-18T11:16:56Z</time>
      </trkpt>
      <trkpt lat="44.13983" lon="2.96365">
        <ele>539</ele>
        <time>2014-03-18T11:17:00Z</time>
      </trkpt>
      <trkpt lat="44.13987" lon="2.9636">
        <ele>538</ele>
        <time>2014-03-18T11:17:03Z</time>
      </trkpt>
      <trkpt lat="44.13991" lon="2.96355">
        <ele>536</ele>
        <time>2014-03-18T11:17:06Z</time>
      </trkpt>
      <trkpt lat="44.13996" lon="2.96352">
        <ele>536</ele>
        <time>2014-03-18T11:17:09Z</time>
      </trkpt>
      <trkpt lat="44.14001" lon="2.96353">
        <ele>535</ele>
        <time>2014-03-18T11:17:14Z</time>
      </trkpt>
      <trkpt lat="44.14004" lon="2.96359">
        <ele>535</ele>
        <time>2014-03-18T11:17:17Z</time>
      </trkpt>
      <trkpt lat="44.14009" lon="2.96357">
        <ele>535</ele>
        <time>2014-03-18T11:17:21Z</time>
      </trkpt>
      <trkpt lat="44.14014" lon="2.96356">
        <ele>534</ele>
        <time>2014-03-18T11:17:24Z</time>
      </trkpt>
      <trkpt lat="44.14019" lon="2.96357">
        <ele>535</ele>
        <time>2014-03-18T11:17:26Z</time>
      </trkpt>
      <trkpt lat="44.14024" lon="2.96358">
        <ele>536</ele>
        <time>2014-03-18T11:17:29Z</time>
      </trkpt>
      <trkpt lat="44.14028" lon="2.96357">
        <ele>535</ele>
        <time>2014-03-18T11:17:36Z</time>
      </trkpt>
      <trkpt lat="44.14033" lon="2.96355">
        <ele>536</ele>
        <time>2014-03-18T11:17:40Z</time>
      </trkpt>
      <trkpt lat="44.14039" lon="2.96354">
        <ele>536</ele>
        <time>2014-03-18T11:17:44Z</time>
      </trkpt>
      <trkpt lat="44.14043" lon="2.96351">
        <ele>535</ele>
        <time>2014-03-18T11:17:49Z</time>
      </trkpt>
      <trkpt lat="44.1405" lon="2.96353">
        <ele>534</ele>
        <time>2014-03-18T11:17:54Z</time>
      </trkpt>
      <trkpt lat="44.14055" lon="2.96351">
        <ele>534</ele>
        <time>2014-03-18T11:17:57Z</time>
      </trkpt>
      <trkpt lat="44.14059" lon="2.96349">
        <ele>534</ele>
        <time>2014-03-18T11:18:00Z</time>
      </trkpt>
      <trkpt lat="44.14064" lon="2.96346">
        <ele>534</ele>
        <time>2014-03-18T11:18:02Z</time>
      </trkpt>
      <trkpt lat="44.14068" lon="2.96341">
        <ele>535</ele>
        <time>2014-03-18T11:18:05Z</time>
      </trkpt>
      <trkpt lat="44.14071" lon="2.96337">
        <ele>536</ele>
        <time>2014-03-18T11:18:09Z</time>
      </trkpt>
      <trkpt lat="44.1407" lon="2.9633">
        <ele>536</ele>
        <time>2014-03-18T11:18:13Z</time>
      </trkpt>
      <trkpt lat="44.14066" lon="2.96326">
        <ele>538</ele>
        <time>2014-03-18T11:18:16Z</time>
      </trkpt>
      <trkpt lat="44.14061" lon="2.96323">
        <ele>539</ele>
        <time>2014-03-18T11:18:19Z</time>
      </trkpt>
      <trkpt lat="44.14055" lon="2.96322">
        <ele>540</ele>
        <time>2014-03-18T11:18:24Z</time>
      </trkpt>
      <trkpt lat="44.14051" lon="2.96317">
        <ele>539</ele>
        <time>2014-03-18T11:18:28Z</time>
      </trkpt>
      <trkpt lat="44.14046" lon="2.96313">
        <ele>539</ele>
        <time>2014-03-18T11:18:31Z</time>
      </trkpt>
      <trkpt lat="44.14041" lon="2.96311">
        <ele>538</ele>
        <time>2014-03-18T11:18:34Z</time>
      </trkpt>
      <trkpt lat="44.14034" lon="2.96309">
        <ele>539</ele>
        <time>2014-03-18T11:18:37Z</time>
      </trkpt>
      <trkpt lat="44.14028" lon="2.96309">
        <ele>540</ele>
        <time>2014-03-18T11:18:39Z</time>
      </trkpt>
      <trkpt lat="44.14024" lon="2.96306">
        <ele>541</ele>
        <time>2014-03-18T11:18:41Z</time>
      </trkpt>
      <trkpt lat="44.14019" lon="2.96304">
        <ele>544</ele>
        <time>2014-03-18T11:18:45Z</time>
      </trkpt>
      <trkpt lat="44.14015" lon="2.96298">
        <ele>545</ele>
        <time>2014-03-18T11:18:49Z</time>
      </trkpt>
      <trkpt lat="44.14012" lon="2.96292">
        <ele>547</ele>
        <time>2014-03-18T11:18:53Z</time>
      </trkpt>
      <trkpt lat="44.14009" lon="2.96286">
        <ele>547</ele>
        <time>2014-03-18T11:18:57Z</time>
      </trkpt>
      <trkpt lat="44.14006" lon="2.9628">
        <ele>547</ele>
        <time>2014-03-18T11:19:00Z</time>
      </trkpt>
      <trkpt lat="44.14" lon="2.96278">
        <ele>548</ele>
        <time>2014-03-18T11:19:04Z</time>
      </trkpt>
      <trkpt lat="44.13995" lon="2.96278">
        <ele>549</ele>
        <time>2014-03-18T11:19:08Z</time>
      </trkpt>
      <trkpt lat="44.1399" lon="2.96276">
        <ele>549</ele>
        <time>2014-03-18T11:19:11Z</time>
      </trkpt>
      <trkpt lat="44.13985" lon="2.96273">
        <ele>550</ele>
        <time>2014-03-18T11:19:15Z</time>
      </trkpt>
      <trkpt lat="44.13981" lon="2.96268">
        <ele>551</ele>
        <time>2014-03-18T11:19:21Z</time>
      </trkpt>
      <trkpt lat="44.13976" lon="2.96263">
        <ele>552</ele>
        <time>2014-03-18T11:19:24Z</time>
      </trkpt>
      <trkpt lat="44.13971" lon="2.96261">
        <ele>554</ele>
        <time>2014-03-18T11:19:27Z</time>
      </trkpt>
      <trkpt lat="44.13968" lon="2.96255">
        <ele>553</ele>
        <time>2014-03-18T11:19:33Z</time>
      </trkpt>
      <trkpt lat="44.13964" lon="2.96252">
        <ele>552</ele>
        <time>2014-03-18T11:19:38Z</time>
      </trkpt>
      <trkpt lat="44.13961" lon="2.96247">
        <ele>551</ele>
        <time>2014-03-18T11:19:43Z</time>
      </trkpt>
      <trkpt lat="44.13957" lon="2.96244">
        <ele>549</ele>
        <time>2014-03-18T11:19:48Z</time>
      </trkpt>
      <trkpt lat="44.13953" lon="2.96238">
        <ele>548</ele>
        <time>2014-03-18T11:19:52Z</time>
      </trkpt>
      <trkpt lat="44.13949" lon="2.96234">
        <ele>548</ele>
        <time>2014-03-18T11:19:55Z</time>
      </trkpt>
      <trkpt lat="44.13945" lon="2.96229">
        <ele>548</ele>
        <time>2014-03-18T11:19:58Z</time>
      </trkpt>
      <trkpt lat="44.1394" lon="2.96226">
        <ele>549</ele>
        <time>2014-03-18T11:20:02Z</time>
      </trkpt>
      <trkpt lat="44.13931" lon="2.96227">
        <ele>550</ele>
        <time>2014-03-18T11:20:08Z</time>
      </trkpt>
      <trkpt lat="44.13926" lon="2.9623">
        <ele>550</ele>
        <time>2014-03-18T11:20:10Z</time>
      </trkpt>
      <trkpt lat="44.13921" lon="2.96227">
        <ele>551</ele>
        <time>2014-03-18T11:20:14Z</time>
      </trkpt>
      <trkpt lat="44.13918" lon="2.96222">
        <ele>553</ele>
        <time>2014-03-18T11:20:19Z</time>
      </trkpt>
      <trkpt lat="44.13912" lon="2.96217">
        <ele>555</ele>
        <time>2014-03-18T11:20:23Z</time>
      </trkpt>
      <trkpt lat="44.13908" lon="2.96213">
        <ele>557</ele>
        <time>2014-03-18T11:20:26Z</time>
      </trkpt>
      <trkpt lat="44.139" lon="2.96209">
        <ele>559</ele>
        <time>2014-03-18T11:20:32Z</time>
      </trkpt>
      <trkpt lat="44.13894" lon="2.96211">
        <ele>562</ele>
        <time>2014-03-18T11:20:40Z</time>
      </trkpt>
      <trkpt lat="44.13892" lon="2.96213">
        <ele>563</ele>
        <time>2014-03-18T11:20:52Z</time>
      </trkpt>
      <trkpt lat="44.13887" lon="2.96212">
        <ele>563</ele>
        <time>2014-03-18T11:20:56Z</time>
      </trkpt>
      <trkpt lat="44.13886" lon="2.96209">
        <ele>563</ele>
        <time>2014-03-18T11:21:13Z</time>
      </trkpt>
      <trkpt lat="44.13881" lon="2.96208">
        <ele>562</ele>
        <time>2014-03-18T11:21:20Z</time>
      </trkpt>
      <trkpt lat="44.1388" lon="2.96216">
        <ele>561</ele>
        <time>2014-03-18T11:21:29Z</time>
      </trkpt>
      <trkpt lat="44.1388" lon="2.96217">
        <ele>558</ele>
        <time>2014-03-18T11:21:53Z</time>
      </trkpt>
      <trkpt lat="44.13874" lon="2.96217">
        <ele>558</ele>
        <time>2014-03-18T11:21:56Z</time>
      </trkpt>
      <trkpt lat="44.13869" lon="2.96216">
        <ele>556</ele>
        <time>2014-03-18T11:22:00Z</time>
      </trkpt>
      <trkpt lat="44.13867" lon="2.9621">
        <ele>557</ele>
        <time>2014-03-18T11:22:03Z</time>
      </trkpt>
      <trkpt lat="44.13862" lon="2.96207">
        <ele>558</ele>
        <time>2014-03-18T11:22:07Z</time>
      </trkpt>
      <trkpt lat="44.13857" lon="2.96208">
        <ele>558</ele>
        <time>2014-03-18T11:22:12Z</time>
      </trkpt>
      <trkpt lat="44.13853" lon="2.96209">
        <ele>556</ele>
        <time>2014-03-18T11:22:15Z</time>
      </trkpt>
      <trkpt lat="44.13848" lon="2.96208">
        <ele>555</ele>
        <time>2014-03-18T11:22:19Z</time>
      </trkpt>
      <trkpt lat="44.13841" lon="2.96207">
        <ele>556</ele>
        <time>2014-03-18T11:22:22Z</time>
      </trkpt>
      <trkpt lat="44.13836" lon="2.96205">
        <ele>557</ele>
        <time>2014-03-18T11:22:24Z</time>
      </trkpt>
      <trkpt lat="44.13832" lon="2.96201">
        <ele>557</ele>
        <time>2014-03-18T11:22:27Z</time>
      </trkpt>
      <trkpt lat="44.13824" lon="2.96199">
        <ele>552</ele>
        <time>2014-03-18T11:22:38Z</time>
      </trkpt>
      <trkpt lat="44.13818" lon="2.96197">
        <ele>550</ele>
        <time>2014-03-18T11:22:41Z</time>
      </trkpt>
      <trkpt lat="44.13813" lon="2.96194">
        <ele>550</ele>
        <time>2014-03-18T11:22:43Z</time>
      </trkpt>
      <trkpt lat="44.13808" lon="2.96192">
        <ele>550</ele>
        <time>2014-03-18T11:22:46Z</time>
      </trkpt>
      <trkpt lat="44.13803" lon="2.96191">
        <ele>549</ele>
        <time>2014-03-18T11:22:49Z</time>
      </trkpt>
      <trkpt lat="44.13797" lon="2.96191">
        <ele>550</ele>
        <time>2014-03-18T11:22:52Z</time>
      </trkpt>
      <trkpt lat="44.13791" lon="2.96192">
        <ele>550</ele>
        <time>2014-03-18T11:22:55Z</time>
      </trkpt>
      <trkpt lat="44.13782" lon="2.96185">
        <ele>550</ele>
        <time>2014-03-18T11:23:00Z</time>
      </trkpt>
      <trkpt lat="44.13774" lon="2.96181">
        <ele>550</ele>
        <time>2014-03-18T11:23:04Z</time>
      </trkpt>
      <trkpt lat="44.13768" lon="2.96184">
        <ele>550</ele>
        <time>2014-03-18T11:23:11Z</time>
      </trkpt>
      <trkpt lat="44.13764" lon="2.9618">
        <ele>549</ele>
        <time>2014-03-18T11:23:14Z</time>
      </trkpt>
      <trkpt lat="44.13761" lon="2.96175">
        <ele>549</ele>
        <time>2014-03-18T11:23:17Z</time>
      </trkpt>
      <trkpt lat="44.13757" lon="2.96171">
        <ele>549</ele>
        <time>2014-03-18T11:23:21Z</time>
      </trkpt>
      <trkpt lat="44.13752" lon="2.96168">
        <ele>550</ele>
        <time>2014-03-18T11:23:26Z</time>
      </trkpt>
      <trkpt lat="44.13749" lon="2.96163">
        <ele>550</ele>
        <time>2014-03-18T11:23:29Z</time>
      </trkpt>
      <trkpt lat="44.13746" lon="2.96158">
        <ele>551</ele>
        <time>2014-03-18T11:23:32Z</time>
      </trkpt>
      <trkpt lat="44.13742" lon="2.96153">
        <ele>551</ele>
        <time>2014-03-18T11:23:35Z</time>
      </trkpt>
      <trkpt lat="44.13737" lon="2.96148">
        <ele>552</ele>
        <time>2014-03-18T11:23:38Z</time>
      </trkpt>
      <trkpt lat="44.13733" lon="2.96144">
        <ele>551</ele>
        <time>2014-03-18T11:23:43Z</time>
      </trkpt>
      <trkpt lat="44.13729" lon="2.9614">
        <ele>552</ele>
        <time>2014-03-18T11:23:46Z</time>
      </trkpt>
      <trkpt lat="44.13724" lon="2.9614">
        <ele>553</ele>
        <time>2014-03-18T11:23:50Z</time>
      </trkpt>
      <trkpt lat="44.13719" lon="2.96141">
        <ele>553</ele>
        <time>2014-03-18T11:23:53Z</time>
      </trkpt>
      <trkpt lat="44.13714" lon="2.96139">
        <ele>553</ele>
        <time>2014-03-18T11:23:56Z</time>
      </trkpt>
      <trkpt lat="44.13709" lon="2.96137">
        <ele>552</ele>
        <time>2014-03-18T11:23:59Z</time>
      </trkpt>
      <trkpt lat="44.13704" lon="2.96134">
        <ele>552</ele>
        <time>2014-03-18T11:24:02Z</time>
      </trkpt>
      <trkpt lat="44.137" lon="2.96132">
        <ele>553</ele>
        <time>2014-03-18T11:24:06Z</time>
      </trkpt>
      <trkpt lat="44.13695" lon="2.96131">
        <ele>553</ele>
        <time>2014-03-18T11:24:09Z</time>
      </trkpt>
      <trkpt lat="44.13689" lon="2.96127">
        <ele>554</ele>
        <time>2014-03-18T11:24:13Z</time>
      </trkpt>
      <trkpt lat="44.13683" lon="2.96124">
        <ele>555</ele>
        <time>2014-03-18T11:24:16Z</time>
      </trkpt>
      <trkpt lat="44.13673" lon="2.96125">
        <ele>555</ele>
        <time>2014-03-18T11:24:21Z</time>
      </trkpt>
      <trkpt lat="44.13669" lon="2.96127">
        <ele>555</ele>
        <time>2014-03-18T11:24:24Z</time>
      </trkpt>
      <trkpt lat="44.13664" lon="2.96131">
        <ele>554</ele>
        <time>2014-03-18T11:24:27Z</time>
      </trkpt>
      <trkpt lat="44.13659" lon="2.96133">
        <ele>553</ele>
        <time>2014-03-18T11:24:30Z</time>
      </trkpt>
      <trkpt lat="44.13655" lon="2.96137">
        <ele>551</ele>
        <time>2014-03-18T11:24:35Z</time>
      </trkpt>
      <trkpt lat="44.1365" lon="2.96138">
        <ele>550</ele>
        <time>2014-03-18T11:24:39Z</time>
      </trkpt>
      <trkpt lat="44.13648" lon="2.96142">
        <ele>548</ele>
        <time>2014-03-18T11:24:49Z</time>
      </trkpt>
      <trkpt lat="44.13643" lon="2.9614">
        <ele>547</ele>
        <time>2014-03-18T11:24:53Z</time>
      </trkpt>
      <trkpt lat="44.13639" lon="2.96137">
        <ele>547</ele>
        <time>2014-03-18T11:24:55Z</time>
      </trkpt>
      <trkpt lat="44.13634" lon="2.96136">
        <ele>546</ele>
        <time>2014-03-18T11:24:58Z</time>
      </trkpt>
      <trkpt lat="44.1363" lon="2.96133">
        <ele>546</ele>
        <time>2014-03-18T11:25:01Z</time>
      </trkpt>
      <trkpt lat="44.13626" lon="2.9613">
        <ele>547</ele>
        <time>2014-03-18T11:25:04Z</time>
      </trkpt>
      <trkpt lat="44.13621" lon="2.96128">
        <ele>547</ele>
        <time>2014-03-18T11:25:07Z</time>
      </trkpt>
      <trkpt lat="44.13616" lon="2.96125">
        <ele>548</ele>
        <time>2014-03-18T11:25:11Z</time>
      </trkpt>
      <trkpt lat="44.13612" lon="2.9612">
        <ele>551</ele>
        <time>2014-03-18T11:25:15Z</time>
      </trkpt>
      <trkpt lat="44.13609" lon="2.96116">
        <ele>553</ele>
        <time>2014-03-18T11:25:25Z</time>
      </trkpt>
      <trkpt lat="44.13604" lon="2.96115">
        <ele>552</ele>
        <time>2014-03-18T11:25:28Z</time>
      </trkpt>
      <trkpt lat="44.136" lon="2.96111">
        <ele>552</ele>
        <time>2014-03-18T11:25:32Z</time>
      </trkpt>
      <trkpt lat="44.13605" lon="2.96104">
        <ele>551</ele>
        <time>2014-03-18T11:25:40Z</time>
      </trkpt>
      <trkpt lat="44.13601" lon="2.96099">
        <ele>550</ele>
        <time>2014-03-18T11:25:48Z</time>
      </trkpt>
      <trkpt lat="44.13601" lon="2.96093">
        <ele>550</ele>
        <time>2014-03-18T11:26:02Z</time>
      </trkpt>
      <trkpt lat="44.13603" lon="2.96087">
        <ele>551</ele>
        <time>2014-03-18T11:26:08Z</time>
      </trkpt>
      <trkpt lat="44.13604" lon="2.9608">
        <ele>552</ele>
        <time>2014-03-18T11:26:19Z</time>
      </trkpt>
      <trkpt lat="44.13603" lon="2.96074">
        <ele>553</ele>
        <time>2014-03-18T11:26:24Z</time>
      </trkpt>
      <trkpt lat="44.136" lon="2.96066">
        <ele>555</ele>
        <time>2014-03-18T11:26:28Z</time>
      </trkpt>
      <trkpt lat="44.13599" lon="2.9606">
        <ele>555</ele>
        <time>2014-03-18T11:26:32Z</time>
      </trkpt>
      <trkpt lat="44.13597" lon="2.96053">
        <ele>555</ele>
        <time>2014-03-18T11:26:37Z</time>
      </trkpt>
      <trkpt lat="44.13591" lon="2.9605">
        <ele>555</ele>
        <time>2014-03-18T11:26:41Z</time>
      </trkpt>
      <trkpt lat="44.13588" lon="2.96046">
        <ele>555</ele>
        <time>2014-03-18T11:26:44Z</time>
      </trkpt>
      <trkpt lat="44.13585" lon="2.9604">
        <ele>556</ele>
        <time>2014-03-18T11:26:49Z</time>
      </trkpt>
      <trkpt lat="44.13585" lon="2.96032">
        <ele>557</ele>
        <time>2014-03-18T11:26:54Z</time>
      </trkpt>
      <trkpt lat="44.13581" lon="2.96026">
        <ele>559</ele>
        <time>2014-03-18T11:26:58Z</time>
      </trkpt>
      <trkpt lat="44.13576" lon="2.96025">
        <ele>560</ele>
        <time>2014-03-18T11:27:03Z</time>
      </trkpt>
      <trkpt lat="44.13573" lon="2.96021">
        <ele>559</ele>
        <time>2014-03-18T11:27:07Z</time>
      </trkpt>
      <trkpt lat="44.13569" lon="2.96017">
        <ele>559</ele>
        <time>2014-03-18T11:27:12Z</time>
      </trkpt>
      <trkpt lat="44.13565" lon="2.96013">
        <ele>560</ele>
        <time>2014-03-18T11:27:15Z</time>
      </trkpt>
      <trkpt lat="44.13563" lon="2.96009">
        <ele>559</ele>
        <time>2014-03-18T11:27:23Z</time>
      </trkpt>
      <trkpt lat="44.13559" lon="2.96007">
        <ele>559</ele>
        <time>2014-03-18T11:27:30Z</time>
      </trkpt>
      <trkpt lat="44.13557" lon="2.96">
        <ele>561</ele>
        <time>2014-03-18T11:27:39Z</time>
      </trkpt>
      <trkpt lat="44.13556" lon="2.95993">
        <ele>561</ele>
        <time>2014-03-18T11:27:46Z</time>
      </trkpt>
      <trkpt lat="44.13552" lon="2.95988">
        <ele>560</ele>
        <time>2014-03-18T11:27:49Z</time>
      </trkpt>
      <trkpt lat="44.13549" lon="2.95984">
        <ele>559</ele>
        <time>2014-03-18T11:27:53Z</time>
      </trkpt>
      <trkpt lat="44.13545" lon="2.95979">
        <ele>558</ele>
        <time>2014-03-18T11:27:57Z</time>
      </trkpt>
      <trkpt lat="44.13544" lon="2.95973">
        <ele>559</ele>
        <time>2014-03-18T11:28:01Z</time>
      </trkpt>
      <trkpt lat="44.13539" lon="2.95971">
        <ele>559</ele>
        <time>2014-03-18T11:28:05Z</time>
      </trkpt>
      <trkpt lat="44.13534" lon="2.95969">
        <ele>560</ele>
        <time>2014-03-18T11:28:10Z</time>
      </trkpt>
      <trkpt lat="44.1353" lon="2.95965">
        <ele>561</ele>
        <time>2014-03-18T11:28:14Z</time>
      </trkpt>
      <trkpt lat="44.13527" lon="2.95958">
        <ele>561</ele>
        <time>2014-03-18T11:28:19Z</time>
      </trkpt>
      <trkpt lat="44.13522" lon="2.95955">
        <ele>560</ele>
        <time>2014-03-18T11:28:23Z</time>
      </trkpt>
      <trkpt lat="44.1352" lon="2.95948">
        <ele>561</ele>
        <time>2014-03-18T11:28:28Z</time>
      </trkpt>
      <trkpt lat="44.13517" lon="2.95943">
        <ele>560</ele>
        <time>2014-03-18T11:28:37Z</time>
      </trkpt>
      <trkpt lat="44.13512" lon="2.95944">
        <ele>561</ele>
        <time>2014-03-18T11:28:40Z</time>
      </trkpt>
      <trkpt lat="44.13507" lon="2.95943">
        <ele>560</ele>
        <time>2014-03-18T11:28:43Z</time>
      </trkpt>
      <trkpt lat="44.13502" lon="2.95944">
        <ele>560</ele>
        <time>2014-03-18T11:28:49Z</time>
      </trkpt>
      <trkpt lat="44.13497" lon="2.9595">
        <ele>561</ele>
        <time>2014-03-18T11:28:51Z</time>
      </trkpt>
      <trkpt lat="44.13493" lon="2.95954">
        <ele>561</ele>
        <time>2014-03-18T11:28:53Z</time>
      </trkpt>
      <trkpt lat="44.1349" lon="2.95956">
        <ele>561</ele>
        <time>2014-03-18T11:28:55Z</time>
      </trkpt>
      <trkpt lat="44.13486" lon="2.95952">
        <ele>561</ele>
        <time>2014-03-18T11:29:00Z</time>
      </trkpt>
      <trkpt lat="44.13481" lon="2.95952">
        <ele>561</ele>
        <time>2014-03-18T11:29:05Z</time>
      </trkpt>
      <trkpt lat="44.13477" lon="2.95955">
        <ele>561</ele>
        <time>2014-03-18T11:29:08Z</time>
      </trkpt>
      <trkpt lat="44.13472" lon="2.95956">
        <ele>561</ele>
        <time>2014-03-18T11:29:12Z</time>
      </trkpt>
      <trkpt lat="44.13467" lon="2.95953">
        <ele>561</ele>
        <time>2014-03-18T11:29:17Z</time>
      </trkpt>
      <trkpt lat="44.13462" lon="2.95951">
        <ele>563</ele>
        <time>2014-03-18T11:29:20Z</time>
      </trkpt>
      <trkpt lat="44.13457" lon="2.9595">
        <ele>563</ele>
        <time>2014-03-18T11:29:26Z</time>
      </trkpt>
      <trkpt lat="44.13454" lon="2.95955">
        <ele>562</ele>
        <time>2014-03-18T11:29:31Z</time>
      </trkpt>
      <trkpt lat="44.13449" lon="2.95955">
        <ele>562</ele>
        <time>2014-03-18T11:29:37Z</time>
      </trkpt>
      <trkpt lat="44.13446" lon="2.9595">
        <ele>561</ele>
        <time>2014-03-18T11:29:41Z</time>
      </trkpt>
      <trkpt lat="44.1344" lon="2.9595">
        <ele>561</ele>
        <time>2014-03-18T11:29:44Z</time>
      </trkpt>
      <trkpt lat="44.13435" lon="2.95952">
        <ele>560</ele>
        <time>2014-03-18T11:29:46Z</time>
      </trkpt>
      <trkpt lat="44.1343" lon="2.95953">
        <ele>559</ele>
        <time>2014-03-18T11:29:49Z</time>
      </trkpt>
      <trkpt lat="44.13425" lon="2.95955">
        <ele>559</ele>
        <time>2014-03-18T11:29:53Z</time>
      </trkpt>
      <trkpt lat="44.1342" lon="2.95957">
        <ele>559</ele>
        <time>2014-03-18T11:29:57Z</time>
      </trkpt>
      <trkpt lat="44.13415" lon="2.95957">
        <ele>560</ele>
        <time>2014-03-18T11:30:02Z</time>
      </trkpt>
      <trkpt lat="44.13409" lon="2.95958">
        <ele>560</ele>
        <time>2014-03-18T11:30:07Z</time>
      </trkpt>
      <trkpt lat="44.13404" lon="2.9596">
        <ele>560</ele>
        <time>2014-03-18T11:30:11Z</time>
      </trkpt>
      <trkpt lat="44.13398" lon="2.95958">
        <ele>560</ele>
        <time>2014-03-18T11:30:16Z</time>
      </trkpt>
      <trkpt lat="44.13393" lon="2.95957">
        <ele>560</ele>
        <time>2014-03-18T11:30:19Z</time>
      </trkpt>
      <trkpt lat="44.13387" lon="2.95957">
        <ele>561</ele>
        <time>2014-03-18T11:30:23Z</time>
      </trkpt>
      <trkpt lat="44.13383" lon="2.95956">
        <ele>560</ele>
        <time>2014-03-18T11:30:29Z</time>
      </trkpt>
      <trkpt lat="44.13375" lon="2.95956">
        <ele>557</ele>
        <time>2014-03-18T11:30:38Z</time>
      </trkpt>
      <trkpt lat="44.1337" lon="2.95953">
        <ele>556</ele>
        <time>2014-03-18T11:30:41Z</time>
      </trkpt>
      <trkpt lat="44.13365" lon="2.95952">
        <ele>555</ele>
        <time>2014-03-18T11:30:45Z</time>
      </trkpt>
      <trkpt lat="44.13359" lon="2.95952">
        <ele>555</ele>
        <time>2014-03-18T11:30:49Z</time>
      </trkpt>
      <trkpt lat="44.13353" lon="2.95952">
        <ele>555</ele>
        <time>2014-03-18T11:30:52Z</time>
      </trkpt>
      <trkpt lat="44.13349" lon="2.95952">
        <ele>555</ele>
        <time>2014-03-18T11:30:55Z</time>
      </trkpt>
      <trkpt lat="44.13344" lon="2.95951">
        <ele>556</ele>
        <time>2014-03-18T11:30:58Z</time>
      </trkpt>
      <trkpt lat="44.13339" lon="2.95949">
        <ele>558</ele>
        <time>2014-03-18T11:31:01Z</time>
      </trkpt>
      <trkpt lat="44.13334" lon="2.95948">
        <ele>560</ele>
        <time>2014-03-18T11:31:04Z</time>
      </trkpt>
      <trkpt lat="44.13327" lon="2.9595">
        <ele>562</ele>
        <time>2014-03-18T11:31:07Z</time>
      </trkpt>
      <trkpt lat="44.13322" lon="2.95954">
        <ele>562</ele>
        <time>2014-03-18T11:31:11Z</time>
      </trkpt>
      <trkpt lat="44.13318" lon="2.95954">
        <ele>561</ele>
        <time>2014-03-18T11:31:21Z</time>
      </trkpt>
      <trkpt lat="44.13314" lon="2.95949">
        <ele>561</ele>
        <time>2014-03-18T11:31:26Z</time>
      </trkpt>
      <trkpt lat="44.1331" lon="2.95947">
        <ele>560</ele>
        <time>2014-03-18T11:31:31Z</time>
      </trkpt>
      <trkpt lat="44.13306" lon="2.95943">
        <ele>560</ele>
        <time>2014-03-18T11:31:37Z</time>
      </trkpt>
      <trkpt lat="44.13304" lon="2.95937">
        <ele>558</ele>
        <time>2014-03-18T11:31:42Z</time>
      </trkpt>
      <trkpt lat="44.13299" lon="2.95931">
        <ele>556</ele>
        <time>2014-03-18T11:31:46Z</time>
      </trkpt>
      <trkpt lat="44.13294" lon="2.95926">
        <ele>556</ele>
        <time>2014-03-18T11:31:49Z</time>
      </trkpt>
      <trkpt lat="44.13289" lon="2.95922">
        <ele>556</ele>
        <time>2014-03-18T11:31:52Z</time>
      </trkpt>
      <trkpt lat="44.13285" lon="2.95917">
        <ele>556</ele>
        <time>2014-03-18T11:31:55Z</time>
      </trkpt>
      <trkpt lat="44.13282" lon="2.95911">
        <ele>558</ele>
        <time>2014-03-18T11:31:59Z</time>
      </trkpt>
      <trkpt lat="44.13277" lon="2.95906">
        <ele>559</ele>
        <time>2014-03-18T11:32:02Z</time>
      </trkpt>
      <trkpt lat="44.13272" lon="2.95904">
        <ele>560</ele>
        <time>2014-03-18T11:32:05Z</time>
      </trkpt>
      <trkpt lat="44.13267" lon="2.95904">
        <ele>560</ele>
        <time>2014-03-18T11:32:08Z</time>
      </trkpt>
      <trkpt lat="44.13263" lon="2.95903">
        <ele>560</ele>
        <time>2014-03-18T11:32:11Z</time>
      </trkpt>
      <trkpt lat="44.13259" lon="2.95899">
        <ele>559</ele>
        <time>2014-03-18T11:32:16Z</time>
      </trkpt>
      <trkpt lat="44.13255" lon="2.95895">
        <ele>558</ele>
        <time>2014-03-18T11:32:19Z</time>
      </trkpt>
      <trkpt lat="44.13253" lon="2.9589">
        <ele>557</ele>
        <time>2014-03-18T11:32:22Z</time>
      </trkpt>
      <trkpt lat="44.13249" lon="2.95885">
        <ele>555</ele>
        <time>2014-03-18T11:32:28Z</time>
      </trkpt>
      <trkpt lat="44.13245" lon="2.95886">
        <ele>554</ele>
        <time>2014-03-18T11:32:31Z</time>
      </trkpt>
      <trkpt lat="44.1324" lon="2.95884">
        <ele>554</ele>
        <time>2014-03-18T11:32:35Z</time>
      </trkpt>
      <trkpt lat="44.13236" lon="2.95882">
        <ele>554</ele>
        <time>2014-03-18T11:32:38Z</time>
      </trkpt>
      <trkpt lat="44.1323" lon="2.95883">
        <ele>553</ele>
        <time>2014-03-18T11:32:41Z</time>
      </trkpt>
      <trkpt lat="44.13224" lon="2.95886">
        <ele>552</ele>
        <time>2014-03-18T11:32:43Z</time>
      </trkpt>
      <trkpt lat="44.13219" lon="2.95883">
        <ele>551</ele>
        <time>2014-03-18T11:32:48Z</time>
      </trkpt>
      <trkpt lat="44.13214" lon="2.95881">
        <ele>552</ele>
        <time>2014-03-18T11:32:51Z</time>
      </trkpt>
      <trkpt lat="44.13211" lon="2.95876">
        <ele>552</ele>
        <time>2014-03-18T11:32:54Z</time>
      </trkpt>
      <trkpt lat="44.13208" lon="2.95871">
        <ele>552</ele>
        <time>2014-03-18T11:32:59Z</time>
      </trkpt>
      <trkpt lat="44.13202" lon="2.95867">
        <ele>551</ele>
        <time>2014-03-18T11:33:03Z</time>
      </trkpt>
      <trkpt lat="44.13195" lon="2.95869">
        <ele>548</ele>
        <time>2014-03-18T11:33:14Z</time>
      </trkpt>
      <trkpt lat="44.13187" lon="2.95864">
        <ele>548</ele>
        <time>2014-03-18T11:33:18Z</time>
      </trkpt>
      <trkpt lat="44.13181" lon="2.95861">
        <ele>548</ele>
        <time>2014-03-18T11:33:20Z</time>
      </trkpt>
      <trkpt lat="44.13176" lon="2.95856">
        <ele>549</ele>
        <time>2014-03-18T11:33:25Z</time>
      </trkpt>
      <trkpt lat="44.13172" lon="2.95852">
        <ele>549</ele>
        <time>2014-03-18T11:33:29Z</time>
      </trkpt>
      <trkpt lat="44.13168" lon="2.95846">
        <ele>549</ele>
        <time>2014-03-18T11:33:33Z</time>
      </trkpt>
      <trkpt lat="44.13164" lon="2.95841">
        <ele>549</ele>
        <time>2014-03-18T11:33:37Z</time>
      </trkpt>
      <trkpt lat="44.1316" lon="2.95837">
        <ele>549</ele>
        <time>2014-03-18T11:33:41Z</time>
      </trkpt>
      <trkpt lat="44.13154" lon="2.95837">
        <ele>548</ele>
        <time>2014-03-18T11:33:45Z</time>
      </trkpt>
      <trkpt lat="44.13149" lon="2.9584">
        <ele>549</ele>
        <time>2014-03-18T11:33:47Z</time>
      </trkpt>
      <trkpt lat="44.13145" lon="2.95836">
        <ele>549</ele>
        <time>2014-03-18T11:33:52Z</time>
      </trkpt>
      <trkpt lat="44.13144" lon="2.9583">
        <ele>550</ele>
        <time>2014-03-18T11:33:55Z</time>
      </trkpt>
      <trkpt lat="44.13142" lon="2.95823">
        <ele>551</ele>
        <time>2014-03-18T11:33:58Z</time>
      </trkpt>
      <trkpt lat="44.1314" lon="2.95817">
        <ele>550</ele>
        <time>2014-03-18T11:34:01Z</time>
      </trkpt>
      <trkpt lat="44.13139" lon="2.95809">
        <ele>550</ele>
        <time>2014-03-18T11:34:04Z</time>
      </trkpt>
      <trkpt lat="44.13138" lon="2.95801">
        <ele>549</ele>
        <time>2014-03-18T11:34:08Z</time>
      </trkpt>
      <trkpt lat="44.13134" lon="2.95797">
        <ele>550</ele>
        <time>2014-03-18T11:34:11Z</time>
      </trkpt>
      <trkpt lat="44.1313" lon="2.95793">
        <ele>550</ele>
        <time>2014-03-18T11:34:13Z</time>
      </trkpt>
      <trkpt lat="44.13127" lon="2.95791">
        <ele>549</ele>
        <time>2014-03-18T11:34:21Z</time>
      </trkpt>
      <trkpt lat="44.13122" lon="2.95787">
        <ele>546</ele>
        <time>2014-03-18T11:34:32Z</time>
      </trkpt>
      <trkpt lat="44.13117" lon="2.95783">
        <ele>546</ele>
        <time>2014-03-18T11:34:36Z</time>
      </trkpt>
      <trkpt lat="44.13112" lon="2.95779">
        <ele>547</ele>
        <time>2014-03-18T11:34:40Z</time>
      </trkpt>
      <trkpt lat="44.13109" lon="2.95775">
        <ele>547</ele>
        <time>2014-03-18T11:34:44Z</time>
      </trkpt>
      <trkpt lat="44.13104" lon="2.9577">
        <ele>547</ele>
        <time>2014-03-18T11:34:49Z</time>
      </trkpt>
      <trkpt lat="44.13101" lon="2.95765">
        <ele>547</ele>
        <time>2014-03-18T11:34:54Z</time>
      </trkpt>
      <trkpt lat="44.131" lon="2.9576">
        <ele>546</ele>
        <time>2014-03-18T11:35:02Z</time>
      </trkpt>
      <trkpt lat="44.13104" lon="2.95756">
        <ele>544</ele>
        <time>2014-03-18T11:35:09Z</time>
      </trkpt>
      <trkpt lat="44.13102" lon="2.9575">
        <ele>542</ele>
        <time>2014-03-18T11:35:13Z</time>
      </trkpt>
      <trkpt lat="44.13098" lon="2.95746">
        <ele>542</ele>
        <time>2014-03-18T11:35:14Z</time>
      </trkpt>
      <trkpt lat="44.13092" lon="2.95744">
        <ele>541</ele>
        <time>2014-03-18T11:35:17Z</time>
      </trkpt>
      <trkpt lat="44.13087" lon="2.95743">
        <ele>541</ele>
        <time>2014-03-18T11:35:19Z</time>
      </trkpt>
      <trkpt lat="44.13083" lon="2.9574">
        <ele>541</ele>
        <time>2014-03-18T11:35:21Z</time>
      </trkpt>
      <trkpt lat="44.13079" lon="2.95736">
        <ele>542</ele>
        <time>2014-03-18T11:35:24Z</time>
      </trkpt>
      <trkpt lat="44.13074" lon="2.95731">
        <ele>542</ele>
        <time>2014-03-18T11:35:27Z</time>
      </trkpt>
      <trkpt lat="44.1307" lon="2.95728">
        <ele>543</ele>
        <time>2014-03-18T11:35:31Z</time>
      </trkpt>
      <trkpt lat="44.13064" lon="2.95726">
        <ele>544</ele>
        <time>2014-03-18T11:35:36Z</time>
      </trkpt>
      <trkpt lat="44.13059" lon="2.95723">
        <ele>544</ele>
        <time>2014-03-18T11:35:39Z</time>
      </trkpt>
      <trkpt lat="44.13055" lon="2.95721">
        <ele>546</ele>
        <time>2014-03-18T11:35:44Z</time>
      </trkpt>
      <trkpt lat="44.13052" lon="2.95721">
        <ele>548</ele>
        <time>2014-03-18T11:35:50Z</time>
      </trkpt>
      <trkpt lat="44.13051" lon="2.95717">
        <ele>548</ele>
        <time>2014-03-18T11:35:59Z</time>
      </trkpt>
      <trkpt lat="44.13056" lon="2.95715">
        <ele>549</ele>
        <time>2014-03-18T11:36:07Z</time>
      </trkpt>
      <trkpt lat="44.1306" lon="2.9571">
        <ele>550</ele>
        <time>2014-03-18T11:36:11Z</time>
      </trkpt>
      <trkpt lat="44.13058" lon="2.95714">
        <ele>552</ele>
        <time>2014-03-18T11:36:57Z</time>
      </trkpt>
      <trkpt lat="44.13055" lon="2.95713">
        <ele>553</ele>
        <time>2014-03-18T11:37:45Z</time>
      </trkpt>
      <trkpt lat="44.13053" lon="2.95713">
        <ele>553</ele>
        <time>2014-03-18T11:38:02Z</time>
      </trkpt>
      <trkpt lat="44.13055" lon="2.9572">
        <ele>553</ele>
        <time>2014-03-18T11:38:17Z</time>
      </trkpt>
      <trkpt lat="44.13052" lon="2.95724">
        <ele>559</ele>
        <time>2014-03-18T11:39:19Z</time>
      </trkpt>
      <trkpt lat="44.13047" lon="2.95722">
        <ele>559</ele>
        <time>2014-03-18T11:39:22Z</time>
      </trkpt>
      <trkpt lat="44.13049" lon="2.95717">
        <ele>563</ele>
        <time>2014-03-18T11:48:57Z</time>
      </trkpt>
      <trkpt lat="44.1305" lon="2.95714">
        <ele>562</ele>
        <time>2014-03-18T11:49:52Z</time>
      </trkpt>
      <trkpt lat="44.1305" lon="2.95711">
        <ele>564</ele>
        <time>2014-03-18T11:59:04Z</time>
      </trkpt>
      <trkpt lat="44.1305" lon="2.95714">
        <ele>565</ele>
        <time>2014-03-18T12:04:40Z</time>
      </trkpt>
      <trkpt lat="44.13049" lon="2.95721">
        <ele>565</ele>
        <time>2014-03-18T12:09:25Z</time>
      </trkpt>
      <trkpt lat="44.1305" lon="2.95721">
        <ele>569</ele>
        <time>2014-03-18T12:10:48Z</time>
      </trkpt>
      <trkpt lat="44.13053" lon="2.95719">
        <ele>570</ele>
        <time>2014-03-18T12:18:22Z</time>
      </trkpt>
      <trkpt lat="44.13053" lon="2.95726">
        <ele>570</ele>
        <time>2014-03-18T12:18:32Z</time>
      </trkpt>
      <trkpt lat="44.13053" lon="2.95733">
        <ele>570</ele>
        <time>2014-03-18T12:18:39Z</time>
      </trkpt>
      <trkpt lat="44.13049" lon="2.95733">
        <ele>572</ele>
        <time>2014-03-18T12:18:59Z</time>
      </trkpt>
      <trkpt lat="44.13045" lon="2.95735">
        <ele>572</ele>
        <time>2014-03-18T12:19:10Z</time>
      </trkpt>
      <trkpt lat="44.13044" lon="2.95733">
        <ele>569</ele>
        <time>2014-03-18T12:19:31Z</time>
      </trkpt>
      <trkpt lat="44.13039" lon="2.95726">
        <ele>567</ele>
        <time>2014-03-18T12:19:33Z</time>
      </trkpt>
      <trkpt lat="44.13033" lon="2.95719">
        <ele>561</ele>
        <time>2014-03-18T12:19:47Z</time>
      </trkpt>
      <trkpt lat="44.13034" lon="2.9572">
        <ele>554</ele>
        <time>2014-03-18T12:20:12Z</time>
      </trkpt>
      <trkpt lat="44.13028" lon="2.95717">
        <ele>554</ele>
        <time>2014-03-18T12:20:18Z</time>
      </trkpt>
      <trkpt lat="44.13024" lon="2.95715">
        <ele>554</ele>
        <time>2014-03-18T12:20:25Z</time>
      </trkpt>
      <trkpt lat="44.13018" lon="2.95712">
        <ele>554</ele>
        <time>2014-03-18T12:20:33Z</time>
      </trkpt>
      <trkpt lat="44.13014" lon="2.95706">
        <ele>554</ele>
        <time>2014-03-18T12:20:36Z</time>
      </trkpt>
      <trkpt lat="44.13015" lon="2.95699">
        <ele>555</ele>
        <time>2014-03-18T12:20:42Z</time>
      </trkpt>
      <trkpt lat="44.13014" lon="2.95696">
        <ele>555</ele>
        <time>2014-03-18T12:20:48Z</time>
      </trkpt>
      <trkpt lat="44.13014" lon="2.95695">
        <ele>554</ele>
        <time>2014-03-18T12:21:15Z</time>
      </trkpt>
      <trkpt lat="44.13016" lon="2.9569">
        <ele>552</ele>
        <time>2014-03-18T12:21:29Z</time>
      </trkpt>
      <trkpt lat="44.1301" lon="2.95687">
        <ele>551</ele>
        <time>2014-03-18T12:21:40Z</time>
      </trkpt>
      <trkpt lat="44.13008" lon="2.95688">
        <ele>551</ele>
        <time>2014-03-18T12:21:46Z</time>
      </trkpt>
      <trkpt lat="44.1301" lon="2.95689">
        <ele>551</ele>
        <time>2014-03-18T12:22:17Z</time>
      </trkpt>
      <trkpt lat="44.13013" lon="2.95689">
        <ele>552</ele>
        <time>2014-03-18T12:22:23Z</time>
      </trkpt>
      <trkpt lat="44.13015" lon="2.95692">
        <ele>554</ele>
        <time>2014-03-18T12:22:41Z</time>
      </trkpt>
      <trkpt lat="44.13017" lon="2.95697">
        <ele>554</ele>
        <time>2014-03-18T12:22:52Z</time>
      </trkpt>
      <trkpt lat="44.13013" lon="2.95699">
        <ele>554</ele>
        <time>2014-03-18T12:22:59Z</time>
      </trkpt>
      <trkpt lat="44.13014" lon="2.95707">
        <ele>553</ele>
        <time>2014-03-18T12:23:13Z</time>
      </trkpt>
      <trkpt lat="44.13015" lon="2.95714">
        <ele>550</ele>
        <time>2014-03-18T12:23:18Z</time>
      </trkpt>
      <trkpt lat="44.13018" lon="2.95725">
        <ele>554</ele>
        <time>2014-03-18T12:23:42Z</time>
      </trkpt>
      <trkpt lat="44.13015" lon="2.95726">
        <ele>558</ele>
        <time>2014-03-18T12:24:07Z</time>
      </trkpt>
      <trkpt lat="44.1301" lon="2.95723">
        <ele>558</ele>
        <time>2014-03-18T12:24:12Z</time>
      </trkpt>
      <trkpt lat="44.13005" lon="2.95721">
        <ele>557</ele>
        <time>2014-03-18T12:24:15Z</time>
      </trkpt>
      <trkpt lat="44.13001" lon="2.95723">
        <ele>554</ele>
        <time>2014-03-18T12:24:21Z</time>
      </trkpt>
      <trkpt lat="44.12996" lon="2.95724">
        <ele>554</ele>
        <time>2014-03-18T12:24:25Z</time>
      </trkpt>
      <trkpt lat="44.12991" lon="2.95721">
        <ele>554</ele>
        <time>2014-03-18T12:24:28Z</time>
      </trkpt>
      <trkpt lat="44.12987" lon="2.95716">
        <ele>554</ele>
        <time>2014-03-18T12:24:30Z</time>
      </trkpt>
      <trkpt lat="44.12981" lon="2.95713">
        <ele>554</ele>
        <time>2014-03-18T12:24:33Z</time>
      </trkpt>
      <trkpt lat="44.12977" lon="2.95712">
        <ele>555</ele>
        <time>2014-03-18T12:24:36Z</time>
      </trkpt>
      <trkpt lat="44.1297" lon="2.95711">
        <ele>556</ele>
        <time>2014-03-18T12:24:37Z</time>
      </trkpt>
      <trkpt lat="44.12965" lon="2.95713">
        <ele>557</ele>
        <time>2014-03-18T12:24:42Z</time>
      </trkpt>
      <trkpt lat="44.1296" lon="2.95712">
        <ele>556</ele>
        <time>2014-03-18T12:24:48Z</time>
      </trkpt>
      <trkpt lat="44.12954" lon="2.95713">
        <ele>556</ele>
        <time>2014-03-18T12:24:53Z</time>
      </trkpt>
      <trkpt lat="44.12949" lon="2.95713">
        <ele>555</ele>
        <time>2014-03-18T12:24:58Z</time>
      </trkpt>
      <trkpt lat="44.12944" lon="2.9571">
        <ele>556</ele>
        <time>2014-03-18T12:25:02Z</time>
      </trkpt>
      <trkpt lat="44.12939" lon="2.95711">
        <ele>557</ele>
        <time>2014-03-18T12:25:07Z</time>
      </trkpt>
      <trkpt lat="44.12934" lon="2.95715">
        <ele>558</ele>
        <time>2014-03-18T12:25:13Z</time>
      </trkpt>
      <trkpt lat="44.12931" lon="2.9572">
        <ele>559</ele>
        <time>2014-03-18T12:25:17Z</time>
      </trkpt>
      <trkpt lat="44.12927" lon="2.95723">
        <ele>558</ele>
        <time>2014-03-18T12:25:22Z</time>
      </trkpt>
      <trkpt lat="44.12922" lon="2.95724">
        <ele>558</ele>
        <time>2014-03-18T12:25:26Z</time>
      </trkpt>
      <trkpt lat="44.12917" lon="2.95724">
        <ele>557</ele>
        <time>2014-03-18T12:25:29Z</time>
      </trkpt>
      <trkpt lat="44.12912" lon="2.95727">
        <ele>557</ele>
        <time>2014-03-18T12:25:34Z</time>
      </trkpt>
      <trkpt lat="44.12907" lon="2.95728">
        <ele>557</ele>
        <time>2014-03-18T12:25:37Z</time>
      </trkpt>
      <trkpt lat="44.12904" lon="2.95734">
        <ele>556</ele>
        <time>2014-03-18T12:25:39Z</time>
      </trkpt>
      <trkpt lat="44.12895" lon="2.95739">
        <ele>550</ele>
        <time>2014-03-18T12:25:51Z</time>
      </trkpt>
      <trkpt lat="44.12892" lon="2.95745">
        <ele>550</ele>
        <time>2014-03-18T12:25:54Z</time>
      </trkpt>
      <trkpt lat="44.12888" lon="2.95747">
        <ele>549</ele>
        <time>2014-03-18T12:25:57Z</time>
      </trkpt>
      <trkpt lat="44.12882" lon="2.95749">
        <ele>549</ele>
        <time>2014-03-18T12:26:01Z</time>
      </trkpt>
      <trkpt lat="44.12877" lon="2.9575">
        <ele>549</ele>
        <time>2014-03-18T12:26:04Z</time>
      </trkpt>
      <trkpt lat="44.12872" lon="2.95754">
        <ele>549</ele>
        <time>2014-03-18T12:26:07Z</time>
      </trkpt>
      <trkpt lat="44.12867" lon="2.95757">
        <ele>547</ele>
        <time>2014-03-18T12:26:12Z</time>
      </trkpt>
      <trkpt lat="44.12863" lon="2.95762">
        <ele>546</ele>
        <time>2014-03-18T12:26:17Z</time>
      </trkpt>
      <trkpt lat="44.12859" lon="2.95766">
        <ele>545</ele>
        <time>2014-03-18T12:26:21Z</time>
      </trkpt>
      <trkpt lat="44.12855" lon="2.95765">
        <ele>544</ele>
        <time>2014-03-18T12:26:29Z</time>
      </trkpt>
      <trkpt lat="44.12849" lon="2.95761">
        <ele>543</ele>
        <time>2014-03-18T12:26:34Z</time>
      </trkpt>
      <trkpt lat="44.12844" lon="2.95762">
        <ele>542</ele>
        <time>2014-03-18T12:26:38Z</time>
      </trkpt>
      <trkpt lat="44.12839" lon="2.95765">
        <ele>541</ele>
        <time>2014-03-18T12:26:44Z</time>
      </trkpt>
      <trkpt lat="44.12834" lon="2.95765">
        <ele>541</ele>
        <time>2014-03-18T12:26:48Z</time>
      </trkpt>
      <trkpt lat="44.12828" lon="2.95765">
        <ele>541</ele>
        <time>2014-03-18T12:26:53Z</time>
      </trkpt>
      <trkpt lat="44.12824" lon="2.95764">
        <ele>541</ele>
        <time>2014-03-18T12:26:56Z</time>
      </trkpt>
      <trkpt lat="44.12819" lon="2.95761">
        <ele>541</ele>
        <time>2014-03-18T12:26:59Z</time>
      </trkpt>
      <trkpt lat="44.12798" lon="2.95755">
        <ele>528</ele>
        <time>2014-03-18T12:27:32Z</time>
      </trkpt>
      <trkpt lat="44.12793" lon="2.95753">
        <ele>526</ele>
        <time>2014-03-18T12:27:39Z</time>
      </trkpt>
      <trkpt lat="44.12789" lon="2.9575">
        <ele>526</ele>
        <time>2014-03-18T12:27:42Z</time>
      </trkpt>
      <trkpt lat="44.12783" lon="2.95748">
        <ele>528</ele>
        <time>2014-03-18T12:27:45Z</time>
      </trkpt>
      <trkpt lat="44.12779" lon="2.95747">
        <ele>528</ele>
        <time>2014-03-18T12:27:47Z</time>
      </trkpt>
      <trkpt lat="44.12773" lon="2.95747">
        <ele>529</ele>
        <time>2014-03-18T12:27:50Z</time>
      </trkpt>
      <trkpt lat="44.12768" lon="2.95745">
        <ele>530</ele>
        <time>2014-03-18T12:27:54Z</time>
      </trkpt>
      <trkpt lat="44.12763" lon="2.95744">
        <ele>530</ele>
        <time>2014-03-18T12:27:58Z</time>
      </trkpt>
      <trkpt lat="44.12757" lon="2.95742">
        <ele>530</ele>
        <time>2014-03-18T12:28:02Z</time>
      </trkpt>
      <trkpt lat="44.12752" lon="2.95742">
        <ele>528</ele>
        <time>2014-03-18T12:28:06Z</time>
      </trkpt>
      <trkpt lat="44.12746" lon="2.95742">
        <ele>527</ele>
        <time>2014-03-18T12:28:10Z</time>
      </trkpt>
      <trkpt lat="44.12742" lon="2.95744">
        <ele>525</ele>
        <time>2014-03-18T12:28:15Z</time>
      </trkpt>
      <trkpt lat="44.12737" lon="2.95746">
        <ele>523</ele>
        <time>2014-03-18T12:28:21Z</time>
      </trkpt>
      <trkpt lat="44.12732" lon="2.95745">
        <ele>523</ele>
        <time>2014-03-18T12:28:26Z</time>
      </trkpt>
      <trkpt lat="44.12727" lon="2.95746">
        <ele>524</ele>
        <time>2014-03-18T12:28:29Z</time>
      </trkpt>
      <trkpt lat="44.12723" lon="2.9575">
        <ele>522</ele>
        <time>2014-03-18T12:28:37Z</time>
      </trkpt>
      <trkpt lat="44.12719" lon="2.95748">
        <ele>522</ele>
        <time>2014-03-18T12:28:44Z</time>
      </trkpt>
      <trkpt lat="44.12714" lon="2.95748">
        <ele>521</ele>
        <time>2014-03-18T12:28:48Z</time>
      </trkpt>
      <trkpt lat="44.12706" lon="2.95748">
        <ele>521</ele>
        <time>2014-03-18T12:28:52Z</time>
      </trkpt>
      <trkpt lat="44.12702" lon="2.95752">
        <ele>521</ele>
        <time>2014-03-18T12:28:56Z</time>
      </trkpt>
      <trkpt lat="44.12698" lon="2.95755">
        <ele>520</ele>
        <time>2014-03-18T12:29:01Z</time>
      </trkpt>
      <trkpt lat="44.12692" lon="2.95754">
        <ele>519</ele>
        <time>2014-03-18T12:29:06Z</time>
      </trkpt>
      <trkpt lat="44.12688" lon="2.95757">
        <ele>517</ele>
        <time>2014-03-18T12:29:11Z</time>
      </trkpt>
      <trkpt lat="44.12683" lon="2.9576">
        <ele>516</ele>
        <time>2014-03-18T12:29:15Z</time>
      </trkpt>
      <trkpt lat="44.12678" lon="2.95765">
        <ele>515</ele>
        <time>2014-03-18T12:29:19Z</time>
      </trkpt>
      <trkpt lat="44.12675" lon="2.95771">
        <ele>515</ele>
        <time>2014-03-18T12:29:23Z</time>
      </trkpt>
      <trkpt lat="44.12673" lon="2.95777">
        <ele>513</ele>
        <time>2014-03-18T12:29:28Z</time>
      </trkpt>
      <trkpt lat="44.12667" lon="2.9578">
        <ele>511</ele>
        <time>2014-03-18T12:29:35Z</time>
      </trkpt>
      <trkpt lat="44.12663" lon="2.9578">
        <ele>511</ele>
        <time>2014-03-18T12:29:38Z</time>
      </trkpt>
      <trkpt lat="44.12658" lon="2.95777">
        <ele>510</ele>
        <time>2014-03-18T12:29:42Z</time>
      </trkpt>
      <trkpt lat="44.12654" lon="2.95774">
        <ele>510</ele>
        <time>2014-03-18T12:29:45Z</time>
      </trkpt>
      <trkpt lat="44.12649" lon="2.95774">
        <ele>511</ele>
        <time>2014-03-18T12:29:48Z</time>
      </trkpt>
      <trkpt lat="44.12645" lon="2.95778">
        <ele>511</ele>
        <time>2014-03-18T12:29:52Z</time>
      </trkpt>
      <trkpt lat="44.1264" lon="2.95779">
        <ele>509</ele>
        <time>2014-03-18T12:29:58Z</time>
      </trkpt>
      <trkpt lat="44.12635" lon="2.9578">
        <ele>508</ele>
        <time>2014-03-18T12:30:03Z</time>
      </trkpt>
      <trkpt lat="44.12631" lon="2.95777">
        <ele>509</ele>
        <time>2014-03-18T12:30:09Z</time>
      </trkpt>
      <trkpt lat="44.12632" lon="2.95771">
        <ele>510</ele>
        <time>2014-03-18T12:30:15Z</time>
      </trkpt>
      <trkpt lat="44.12627" lon="2.9577">
        <ele>511</ele>
        <time>2014-03-18T12:30:24Z</time>
      </trkpt>
      <trkpt lat="44.12624" lon="2.95767">
        <ele>510</ele>
        <time>2014-03-18T12:30:36Z</time>
      </trkpt>
      <trkpt lat="44.12624" lon="2.9576">
        <ele>511</ele>
        <time>2014-03-18T12:30:41Z</time>
      </trkpt>
      <trkpt lat="44.12624" lon="2.95753">
        <ele>511</ele>
        <time>2014-03-18T12:30:44Z</time>
      </trkpt>
      <trkpt lat="44.12621" lon="2.95746">
        <ele>512</ele>
        <time>2014-03-18T12:30:48Z</time>
      </trkpt>
      <trkpt lat="44.12617" lon="2.95743">
        <ele>512</ele>
        <time>2014-03-18T12:30:49Z</time>
      </trkpt>
      <trkpt lat="44.12615" lon="2.95736">
        <ele>512</ele>
        <time>2014-03-18T12:30:52Z</time>
      </trkpt>
      <trkpt lat="44.12616" lon="2.95728">
        <ele>513</ele>
        <time>2014-03-18T12:30:55Z</time>
      </trkpt>
      <trkpt lat="44.12618" lon="2.95722">
        <ele>513</ele>
        <time>2014-03-18T12:30:58Z</time>
      </trkpt>
      <trkpt lat="44.12619" lon="2.95714">
        <ele>512</ele>
        <time>2014-03-18T12:31:02Z</time>
      </trkpt>
      <trkpt lat="44.12618" lon="2.95707">
        <ele>512</ele>
        <time>2014-03-18T12:31:06Z</time>
      </trkpt>
      <trkpt lat="44.12621" lon="2.95702">
        <ele>512</ele>
        <time>2014-03-18T12:31:10Z</time>
      </trkpt>
      <trkpt lat="44.12625" lon="2.95697">
        <ele>511</ele>
        <time>2014-03-18T12:31:14Z</time>
      </trkpt>
      <trkpt lat="44.12627" lon="2.95691">
        <ele>510</ele>
        <time>2014-03-18T12:31:18Z</time>
      </trkpt>
      <trkpt lat="44.12626" lon="2.95684">
        <ele>512</ele>
        <time>2014-03-18T12:31:20Z</time>
      </trkpt>
      <trkpt lat="44.12624" lon="2.95677">
        <ele>515</ele>
        <time>2014-03-18T12:31:23Z</time>
      </trkpt>
      <trkpt lat="44.12625" lon="2.9567">
        <ele>516</ele>
        <time>2014-03-18T12:31:26Z</time>
      </trkpt>
      <trkpt lat="44.12629" lon="2.95664">
        <ele>516</ele>
        <time>2014-03-18T12:31:30Z</time>
      </trkpt>
      <trkpt lat="44.12629" lon="2.95657">
        <ele>515</ele>
        <time>2014-03-18T12:31:34Z</time>
      </trkpt>
      <trkpt lat="44.12628" lon="2.9565">
        <ele>514</ele>
        <time>2014-03-18T12:31:37Z</time>
      </trkpt>
      <trkpt lat="44.12631" lon="2.95644">
        <ele>512</ele>
        <time>2014-03-18T12:31:41Z</time>
      </trkpt>
      <trkpt lat="44.12632" lon="2.95636">
        <ele>510</ele>
        <time>2014-03-18T12:31:44Z</time>
      </trkpt>
      <trkpt lat="44.1263" lon="2.95627">
        <ele>509</ele>
        <time>2014-03-18T12:31:47Z</time>
      </trkpt>
      <trkpt lat="44.12629" lon="2.95619">
        <ele>508</ele>
        <time>2014-03-18T12:31:50Z</time>
      </trkpt>
      <trkpt lat="44.12628" lon="2.95613">
        <ele>507</ele>
        <time>2014-03-18T12:31:53Z</time>
      </trkpt>
      <trkpt lat="44.12626" lon="2.95605">
        <ele>506</ele>
        <time>2014-03-18T12:31:58Z</time>
      </trkpt>
      <trkpt lat="44.12624" lon="2.95599">
        <ele>505</ele>
        <time>2014-03-18T12:32:00Z</time>
      </trkpt>
      <trkpt lat="44.1262" lon="2.95593">
        <ele>506</ele>
        <time>2014-03-18T12:32:04Z</time>
      </trkpt>
      <trkpt lat="44.12617" lon="2.95589">
        <ele>508</ele>
        <time>2014-03-18T12:32:06Z</time>
      </trkpt>
      <trkpt lat="44.12613" lon="2.95585">
        <ele>509</ele>
        <time>2014-03-18T12:32:10Z</time>
      </trkpt>
      <trkpt lat="44.12609" lon="2.95579">
        <ele>511</ele>
        <time>2014-03-18T12:32:14Z</time>
      </trkpt>
      <trkpt lat="44.12607" lon="2.95573">
        <ele>511</ele>
        <time>2014-03-18T12:32:18Z</time>
      </trkpt>
      <trkpt lat="44.12603" lon="2.95566">
        <ele>513</ele>
        <time>2014-03-18T12:32:22Z</time>
      </trkpt>
      <trkpt lat="44.12599" lon="2.95561">
        <ele>514</ele>
        <time>2014-03-18T12:32:25Z</time>
      </trkpt>
      <trkpt lat="44.12596" lon="2.95556">
        <ele>515</ele>
        <time>2014-03-18T12:32:27Z</time>
      </trkpt>
      <trkpt lat="44.12593" lon="2.95551">
        <ele>515</ele>
        <time>2014-03-18T12:32:29Z</time>
      </trkpt>
      <trkpt lat="44.1259" lon="2.95547">
        <ele>514</ele>
        <time>2014-03-18T12:32:31Z</time>
      </trkpt>
      <trkpt lat="44.12585" lon="2.95541">
        <ele>513</ele>
        <time>2014-03-18T12:32:34Z</time>
      </trkpt>
      <trkpt lat="44.1258" lon="2.95537">
        <ele>513</ele>
        <time>2014-03-18T12:32:37Z</time>
      </trkpt>
      <trkpt lat="44.12576" lon="2.95533">
        <ele>513</ele>
        <time>2014-03-18T12:32:43Z</time>
      </trkpt>
      <trkpt lat="44.12572" lon="2.9553">
        <ele>514</ele>
        <time>2014-03-18T12:32:46Z</time>
      </trkpt>
      <trkpt lat="44.12567" lon="2.95527">
        <ele>514</ele>
        <time>2014-03-18T12:32:51Z</time>
      </trkpt>
      <trkpt lat="44.12563" lon="2.95524">
        <ele>515</ele>
        <time>2014-03-18T12:32:59Z</time>
      </trkpt>
      <trkpt lat="44.12563" lon="2.95517">
        <ele>515</ele>
        <time>2014-03-18T12:33:03Z</time>
      </trkpt>
      <trkpt lat="44.12565" lon="2.95509">
        <ele>516</ele>
        <time>2014-03-18T12:33:06Z</time>
      </trkpt>
      <trkpt lat="44.12567" lon="2.95504">
        <ele>517</ele>
        <time>2014-03-18T12:33:08Z</time>
      </trkpt>
      <trkpt lat="44.12569" lon="2.95498">
        <ele>518</ele>
        <time>2014-03-18T12:33:12Z</time>
      </trkpt>
      <trkpt lat="44.12567" lon="2.95491">
        <ele>518</ele>
        <time>2014-03-18T12:33:17Z</time>
      </trkpt>
      <trkpt lat="44.12563" lon="2.95484">
        <ele>518</ele>
        <time>2014-03-18T12:33:24Z</time>
      </trkpt>
      <trkpt lat="44.1256" lon="2.95478">
        <ele>518</ele>
        <time>2014-03-18T12:33:28Z</time>
      </trkpt>
      <trkpt lat="44.12558" lon="2.9547">
        <ele>518</ele>
        <time>2014-03-18T12:33:32Z</time>
      </trkpt>
      <trkpt lat="44.12557" lon="2.95464">
        <ele>519</ele>
        <time>2014-03-18T12:33:36Z</time>
      </trkpt>
      <trkpt lat="44.12562" lon="2.95454">
        <ele>520</ele>
        <time>2014-03-18T12:33:44Z</time>
      </trkpt>
      <trkpt lat="44.12563" lon="2.95447">
        <ele>520</ele>
        <time>2014-03-18T12:33:48Z</time>
      </trkpt>
      <trkpt lat="44.12565" lon="2.9544">
        <ele>520</ele>
        <time>2014-03-18T12:33:51Z</time>
      </trkpt>
      <trkpt lat="44.12565" lon="2.95433">
        <ele>521</ele>
        <time>2014-03-18T12:33:54Z</time>
      </trkpt>
      <trkpt lat="44.12566" lon="2.95425">
        <ele>522</ele>
        <time>2014-03-18T12:33:57Z</time>
      </trkpt>
      <trkpt lat="44.12566" lon="2.95416">
        <ele>523</ele>
        <time>2014-03-18T12:34:01Z</time>
      </trkpt>
      <trkpt lat="44.12566" lon="2.95409">
        <ele>524</ele>
        <time>2014-03-18T12:34:05Z</time>
      </trkpt>
      <trkpt lat="44.12561" lon="2.95406">
        <ele>523</ele>
        <time>2014-03-18T12:34:09Z</time>
      </trkpt>
      <trkpt lat="44.1256" lon="2.95399">
        <ele>523</ele>
        <time>2014-03-18T12:34:14Z</time>
      </trkpt>
      <trkpt lat="44.12561" lon="2.95392">
        <ele>523</ele>
        <time>2014-03-18T12:34:18Z</time>
      </trkpt>
      <trkpt lat="44.1256" lon="2.95384">
        <ele>525</ele>
        <time>2014-03-18T12:34:22Z</time>
      </trkpt>
      <trkpt lat="44.12558" lon="2.95378">
        <ele>526</ele>
        <time>2014-03-18T12:34:26Z</time>
      </trkpt>
      <trkpt lat="44.12559" lon="2.95372">
        <ele>527</ele>
        <time>2014-03-18T12:34:29Z</time>
      </trkpt>
      <trkpt lat="44.12559" lon="2.95366">
        <ele>528</ele>
        <time>2014-03-18T12:34:33Z</time>
      </trkpt>
      <trkpt lat="44.12561" lon="2.9536">
        <ele>528</ele>
        <time>2014-03-18T12:34:39Z</time>
      </trkpt>
      <trkpt lat="44.1256" lon="2.95352">
        <ele>527</ele>
        <time>2014-03-18T12:34:44Z</time>
      </trkpt>
      <trkpt lat="44.12556" lon="2.95349">
        <ele>528</ele>
        <time>2014-03-18T12:34:48Z</time>
      </trkpt>
      <trkpt lat="44.1255" lon="2.95348">
        <ele>530</ele>
        <time>2014-03-18T12:34:52Z</time>
      </trkpt>
      <trkpt lat="44.12551" lon="2.95354">
        <ele>531</ele>
        <time>2014-03-18T12:34:55Z</time>
      </trkpt>
      <trkpt lat="44.12552" lon="2.95362">
        <ele>530</ele>
        <time>2014-03-18T12:35:04Z</time>
      </trkpt>
      <trkpt lat="44.12549" lon="2.95368">
        <ele>530</ele>
        <time>2014-03-18T12:35:07Z</time>
      </trkpt>
      <trkpt lat="44.12545" lon="2.95372">
        <ele>530</ele>
        <time>2014-03-18T12:35:14Z</time>
      </trkpt>
      <trkpt lat="44.1254" lon="2.95371">
        <ele>531</ele>
        <time>2014-03-18T12:35:17Z</time>
      </trkpt>
      <trkpt lat="44.12537" lon="2.95366">
        <ele>532</ele>
        <time>2014-03-18T12:35:22Z</time>
      </trkpt>
      <trkpt lat="44.12534" lon="2.95361">
        <ele>533</ele>
        <time>2014-03-18T12:35:26Z</time>
      </trkpt>
      <trkpt lat="44.1253" lon="2.95356">
        <ele>533</ele>
        <time>2014-03-18T12:35:31Z</time>
      </trkpt>
      <trkpt lat="44.12529" lon="2.9535">
        <ele>534</ele>
        <time>2014-03-18T12:35:35Z</time>
      </trkpt>
      <trkpt lat="44.12525" lon="2.95346">
        <ele>533</ele>
        <time>2014-03-18T12:35:39Z</time>
      </trkpt>
      <trkpt lat="44.12521" lon="2.95341">
        <ele>532</ele>
        <time>2014-03-18T12:35:45Z</time>
      </trkpt>
      <trkpt lat="44.12518" lon="2.95335">
        <ele>533</ele>
        <time>2014-03-18T12:35:49Z</time>
      </trkpt>
      <trkpt lat="44.12515" lon="2.9533">
        <ele>534</ele>
        <time>2014-03-18T12:35:52Z</time>
      </trkpt>
      <trkpt lat="44.12511" lon="2.95325">
        <ele>536</ele>
        <time>2014-03-18T12:35:55Z</time>
      </trkpt>
      <trkpt lat="44.12507" lon="2.95321">
        <ele>537</ele>
        <time>2014-03-18T12:36:00Z</time>
      </trkpt>
      <trkpt lat="44.12502" lon="2.95316">
        <ele>541</ele>
        <time>2014-03-18T12:36:08Z</time>
      </trkpt>
      <trkpt lat="44.12498" lon="2.95311">
        <ele>542</ele>
        <time>2014-03-18T12:36:11Z</time>
      </trkpt>
      <trkpt lat="44.12494" lon="2.95307">
        <ele>542</ele>
        <time>2014-03-18T12:36:14Z</time>
      </trkpt>
      <trkpt lat="44.1249" lon="2.95303">
        <ele>542</ele>
        <time>2014-03-18T12:36:16Z</time>
      </trkpt>
      <trkpt lat="44.12487" lon="2.95295">
        <ele>542</ele>
        <time>2014-03-18T12:36:20Z</time>
      </trkpt>
      <trkpt lat="44.12485" lon="2.95289">
        <ele>543</ele>
        <time>2014-03-18T12:36:24Z</time>
      </trkpt>
      <trkpt lat="44.12484" lon="2.95281">
        <ele>545</ele>
        <time>2014-03-18T12:36:30Z</time>
      </trkpt>
      <trkpt lat="44.12485" lon="2.95274">
        <ele>546</ele>
        <time>2014-03-18T12:36:33Z</time>
      </trkpt>
      <trkpt lat="44.12486" lon="2.95267">
        <ele>547</ele>
        <time>2014-03-18T12:36:38Z</time>
      </trkpt>
      <trkpt lat="44.12487" lon="2.95261">
        <ele>548</ele>
        <time>2014-03-18T12:36:41Z</time>
      </trkpt>
      <trkpt lat="44.12488" lon="2.95254">
        <ele>548</ele>
        <time>2014-03-18T12:36:46Z</time>
      </trkpt>
      <trkpt lat="44.12492" lon="2.95249">
        <ele>548</ele>
        <time>2014-03-18T12:36:49Z</time>
      </trkpt>
      <trkpt lat="44.12492" lon="2.95243">
        <ele>548</ele>
        <time>2014-03-18T12:36:53Z</time>
      </trkpt>
      <trkpt lat="44.12489" lon="2.95238">
        <ele>547</ele>
        <time>2014-03-18T12:37:01Z</time>
      </trkpt>
      <trkpt lat="44.12483" lon="2.95233">
        <ele>547</ele>
        <time>2014-03-18T12:37:04Z</time>
      </trkpt>
      <trkpt lat="44.12479" lon="2.95227">
        <ele>548</ele>
        <time>2014-03-18T12:37:06Z</time>
      </trkpt>
      <trkpt lat="44.12475" lon="2.95221">
        <ele>549</ele>
        <time>2014-03-18T12:37:08Z</time>
      </trkpt>
      <trkpt lat="44.12472" lon="2.95215">
        <ele>550</ele>
        <time>2014-03-18T12:37:11Z</time>
      </trkpt>
      <trkpt lat="44.12468" lon="2.95209">
        <ele>551</ele>
        <time>2014-03-18T12:37:15Z</time>
      </trkpt>
      <trkpt lat="44.12465" lon="2.95205">
        <ele>551</ele>
        <time>2014-03-18T12:37:18Z</time>
      </trkpt>
      <trkpt lat="44.12462" lon="2.95197">
        <ele>551</ele>
        <time>2014-03-18T12:37:23Z</time>
      </trkpt>
      <trkpt lat="44.12461" lon="2.95189">
        <ele>550</ele>
        <time>2014-03-18T12:37:26Z</time>
      </trkpt>
      <trkpt lat="44.12459" lon="2.95182">
        <ele>549</ele>
        <time>2014-03-18T12:37:30Z</time>
      </trkpt>
      <trkpt lat="44.12456" lon="2.95177">
        <ele>549</ele>
        <time>2014-03-18T12:37:33Z</time>
      </trkpt>
      <trkpt lat="44.12449" lon="2.95167">
        <ele>548</ele>
        <time>2014-03-18T12:37:37Z</time>
      </trkpt>
      <trkpt lat="44.12447" lon="2.9516">
        <ele>548</ele>
        <time>2014-03-18T12:37:40Z</time>
      </trkpt>
      <trkpt lat="44.12448" lon="2.95152">
        <ele>548</ele>
        <time>2014-03-18T12:37:45Z</time>
      </trkpt>
      <trkpt lat="44.12446" lon="2.95146">
        <ele>548</ele>
        <time>2014-03-18T12:37:49Z</time>
      </trkpt>
      <trkpt lat="44.12443" lon="2.9514">
        <ele>549</ele>
        <time>2014-03-18T12:37:52Z</time>
      </trkpt>
      <trkpt lat="44.12441" lon="2.95133">
        <ele>550</ele>
        <time>2014-03-18T12:37:55Z</time>
      </trkpt>
      <trkpt lat="44.12441" lon="2.95126">
        <ele>551</ele>
        <time>2014-03-18T12:37:58Z</time>
      </trkpt>
      <trkpt lat="44.12445" lon="2.9512">
        <ele>552</ele>
        <time>2014-03-18T12:38:01Z</time>
      </trkpt>
      <trkpt lat="44.12446" lon="2.95112">
        <ele>553</ele>
        <time>2014-03-18T12:38:04Z</time>
      </trkpt>
      <trkpt lat="44.12442" lon="2.95099">
        <ele>554</ele>
        <time>2014-03-18T12:38:09Z</time>
      </trkpt>
      <trkpt lat="44.12444" lon="2.95091">
        <ele>555</ele>
        <time>2014-03-18T12:38:11Z</time>
      </trkpt>
      <trkpt lat="44.12446" lon="2.95083">
        <ele>557</ele>
        <time>2014-03-18T12:38:14Z</time>
      </trkpt>
      <trkpt lat="44.12447" lon="2.95076">
        <ele>557</ele>
        <time>2014-03-18T12:38:17Z</time>
      </trkpt>
      <trkpt lat="44.12447" lon="2.95069">
        <ele>557</ele>
        <time>2014-03-18T12:38:20Z</time>
      </trkpt>
      <trkpt lat="44.12452" lon="2.95065">
        <ele>557</ele>
        <time>2014-03-18T12:38:25Z</time>
      </trkpt>
      <trkpt lat="44.12457" lon="2.95063">
        <ele>558</ele>
        <time>2014-03-18T12:38:28Z</time>
      </trkpt>
      <trkpt lat="44.12462" lon="2.95058">
        <ele>556</ele>
        <time>2014-03-18T12:38:31Z</time>
      </trkpt>
      <trkpt lat="44.12464" lon="2.95053">
        <ele>554</ele>
        <time>2014-03-18T12:38:35Z</time>
      </trkpt>
      <trkpt lat="44.12468" lon="2.95047">
        <ele>554</ele>
        <time>2014-03-18T12:38:39Z</time>
      </trkpt>
      <trkpt lat="44.12472" lon="2.95043">
        <ele>554</ele>
        <time>2014-03-18T12:38:43Z</time>
      </trkpt>
      <trkpt lat="44.12476" lon="2.95038">
        <ele>556</ele>
        <time>2014-03-18T12:38:47Z</time>
      </trkpt>
      <trkpt lat="44.1248" lon="2.95032">
        <ele>556</ele>
        <time>2014-03-18T12:38:51Z</time>
      </trkpt>
      <trkpt lat="44.12482" lon="2.95025">
        <ele>557</ele>
        <time>2014-03-18T12:38:55Z</time>
      </trkpt>
      <trkpt lat="44.12486" lon="2.9502">
        <ele>556</ele>
        <time>2014-03-18T12:39:01Z</time>
      </trkpt>
      <trkpt lat="44.12491" lon="2.95016">
        <ele>556</ele>
        <time>2014-03-18T12:39:05Z</time>
      </trkpt>
      <trkpt lat="44.12494" lon="2.95011">
        <ele>556</ele>
        <time>2014-03-18T12:39:09Z</time>
      </trkpt>
      <trkpt lat="44.12497" lon="2.95005">
        <ele>557</ele>
        <time>2014-03-18T12:39:12Z</time>
      </trkpt>
      <trkpt lat="44.12499" lon="2.94999">
        <ele>557</ele>
        <time>2014-03-18T12:39:16Z</time>
      </trkpt>
      <trkpt lat="44.125" lon="2.94992">
        <ele>559</ele>
        <time>2014-03-18T12:39:21Z</time>
      </trkpt>
      <trkpt lat="44.125" lon="2.94985">
        <ele>559</ele>
        <time>2014-03-18T12:39:25Z</time>
      </trkpt>
      <trkpt lat="44.12499" lon="2.94978">
        <ele>560</ele>
        <time>2014-03-18T12:39:29Z</time>
      </trkpt>
      <trkpt lat="44.12502" lon="2.94972">
        <ele>562</ele>
        <time>2014-03-18T12:39:33Z</time>
      </trkpt>
      <trkpt lat="44.12507" lon="2.94969">
        <ele>563</ele>
        <time>2014-03-18T12:39:37Z</time>
      </trkpt>
      <trkpt lat="44.12507" lon="2.94961">
        <ele>564</ele>
        <time>2014-03-18T12:39:42Z</time>
      </trkpt>
      <trkpt lat="44.12506" lon="2.94953">
        <ele>565</ele>
        <time>2014-03-18T12:39:45Z</time>
      </trkpt>
      <trkpt lat="44.12503" lon="2.94948">
        <ele>565</ele>
        <time>2014-03-18T12:39:50Z</time>
      </trkpt>
      <trkpt lat="44.12503" lon="2.94942">
        <ele>567</ele>
        <time>2014-03-18T12:39:54Z</time>
      </trkpt>
      <trkpt lat="44.12504" lon="2.94935">
        <ele>569</ele>
        <time>2014-03-18T12:39:59Z</time>
      </trkpt>
      <trkpt lat="44.12509" lon="2.9493">
        <ele>567</ele>
        <time>2014-03-18T12:40:02Z</time>
      </trkpt>
      <trkpt lat="44.12512" lon="2.94923">
        <ele>566</ele>
        <time>2014-03-18T12:40:05Z</time>
      </trkpt>
      <trkpt lat="44.12512" lon="2.94914">
        <ele>566</ele>
        <time>2014-03-18T12:40:08Z</time>
      </trkpt>
      <trkpt lat="44.12512" lon="2.94907">
        <ele>566</ele>
        <time>2014-03-18T12:40:11Z</time>
      </trkpt>
      <trkpt lat="44.12513" lon="2.94901">
        <ele>569</ele>
        <time>2014-03-18T12:40:16Z</time>
      </trkpt>
      <trkpt lat="44.12519" lon="2.94898">
        <ele>571</ele>
        <time>2014-03-18T12:40:22Z</time>
      </trkpt>
      <trkpt lat="44.12524" lon="2.94896">
        <ele>572</ele>
        <time>2014-03-18T12:40:24Z</time>
      </trkpt>
      <trkpt lat="44.1253" lon="2.94895">
        <ele>573</ele>
        <time>2014-03-18T12:40:26Z</time>
      </trkpt>
      <trkpt lat="44.12535" lon="2.94894">
        <ele>573</ele>
        <time>2014-03-18T12:40:30Z</time>
      </trkpt>
      <trkpt lat="44.12539" lon="2.9489">
        <ele>574</ele>
        <time>2014-03-18T12:40:35Z</time>
      </trkpt>
      <trkpt lat="44.12539" lon="2.94882">
        <ele>574</ele>
        <time>2014-03-18T12:40:38Z</time>
      </trkpt>
      <trkpt lat="44.12538" lon="2.94875">
        <ele>575</ele>
        <time>2014-03-18T12:40:41Z</time>
      </trkpt>
      <trkpt lat="44.12539" lon="2.94868">
        <ele>576</ele>
        <time>2014-03-18T12:40:44Z</time>
      </trkpt>
      <trkpt lat="44.12542" lon="2.94863">
        <ele>577</ele>
        <time>2014-03-18T12:40:47Z</time>
      </trkpt>
      <trkpt lat="44.12546" lon="2.9486">
        <ele>577</ele>
        <time>2014-03-18T12:40:50Z</time>
      </trkpt>
      <trkpt lat="44.12546" lon="2.94853">
        <ele>575</ele>
        <time>2014-03-18T12:40:58Z</time>
      </trkpt>
      <trkpt lat="44.12551" lon="2.94846">
        <ele>574</ele>
        <time>2014-03-18T12:41:02Z</time>
      </trkpt>
      <trkpt lat="44.12555" lon="2.9484">
        <ele>573</ele>
        <time>2014-03-18T12:41:05Z</time>
      </trkpt>
      <trkpt lat="44.12562" lon="2.94831">
        <ele>573</ele>
        <time>2014-03-18T12:41:11Z</time>
      </trkpt>
      <trkpt lat="44.12572" lon="2.94827">
        <ele>574</ele>
        <time>2014-03-18T12:41:15Z</time>
      </trkpt>
      <trkpt lat="44.12577" lon="2.94825">
        <ele>574</ele>
        <time>2014-03-18T12:41:18Z</time>
      </trkpt>
      <trkpt lat="44.12582" lon="2.94824">
        <ele>576</ele>
        <time>2014-03-18T12:41:21Z</time>
      </trkpt>
      <trkpt lat="44.12587" lon="2.94824">
        <ele>576</ele>
        <time>2014-03-18T12:41:25Z</time>
      </trkpt>
      <trkpt lat="44.12594" lon="2.94819">
        <ele>578</ele>
        <time>2014-03-18T12:41:31Z</time>
      </trkpt>
      <trkpt lat="44.12599" lon="2.94817">
        <ele>579</ele>
        <time>2014-03-18T12:41:34Z</time>
      </trkpt>
      <trkpt lat="44.12603" lon="2.94815">
        <ele>578</ele>
        <time>2014-03-18T12:41:37Z</time>
      </trkpt>
      <trkpt lat="44.12608" lon="2.94809">
        <ele>577</ele>
        <time>2014-03-18T12:41:41Z</time>
      </trkpt>
      <trkpt lat="44.12612" lon="2.94803">
        <ele>576</ele>
        <time>2014-03-18T12:41:44Z</time>
      </trkpt>
      <trkpt lat="44.12617" lon="2.948">
        <ele>577</ele>
        <time>2014-03-18T12:41:47Z</time>
      </trkpt>
      <trkpt lat="44.12623" lon="2.94798">
        <ele>577</ele>
        <time>2014-03-18T12:41:50Z</time>
      </trkpt>
      <trkpt lat="44.12628" lon="2.94798">
        <ele>578</ele>
        <time>2014-03-18T12:41:52Z</time>
      </trkpt>
      <trkpt lat="44.12634" lon="2.94797">
        <ele>578</ele>
        <time>2014-03-18T12:41:55Z</time>
      </trkpt>
      <trkpt lat="44.12638" lon="2.94794">
        <ele>579</ele>
        <time>2014-03-18T12:42:00Z</time>
      </trkpt>
      <trkpt lat="44.12641" lon="2.94789">
        <ele>579</ele>
        <time>2014-03-18T12:42:04Z</time>
      </trkpt>
      <trkpt lat="44.12642" lon="2.94781">
        <ele>582</ele>
        <time>2014-03-18T12:42:08Z</time>
      </trkpt>
      <trkpt lat="44.12645" lon="2.94775">
        <ele>583</ele>
        <time>2014-03-18T12:42:13Z</time>
      </trkpt>
      <trkpt lat="44.1265" lon="2.94773">
        <ele>583</ele>
        <time>2014-03-18T12:42:15Z</time>
      </trkpt>
      <trkpt lat="44.12654" lon="2.94771">
        <ele>582</ele>
        <time>2014-03-18T12:42:18Z</time>
      </trkpt>
      <trkpt lat="44.12659" lon="2.94772">
        <ele>582</ele>
        <time>2014-03-18T12:42:21Z</time>
      </trkpt>
      <trkpt lat="44.12664" lon="2.94774">
        <ele>582</ele>
        <time>2014-03-18T12:42:24Z</time>
      </trkpt>
      <trkpt lat="44.12669" lon="2.94769">
        <ele>581</ele>
        <time>2014-03-18T12:42:29Z</time>
      </trkpt>
      <trkpt lat="44.12673" lon="2.94768">
        <ele>582</ele>
        <time>2014-03-18T12:42:33Z</time>
      </trkpt>
      <trkpt lat="44.1268" lon="2.94767">
        <ele>583</ele>
        <time>2014-03-18T12:42:36Z</time>
      </trkpt>
      <trkpt lat="44.12685" lon="2.94766">
        <ele>584</ele>
        <time>2014-03-18T12:42:38Z</time>
      </trkpt>
      <trkpt lat="44.1269" lon="2.94766">
        <ele>585</ele>
        <time>2014-03-18T12:42:41Z</time>
      </trkpt>
      <trkpt lat="44.12695" lon="2.94766">
        <ele>585</ele>
        <time>2014-03-18T12:42:44Z</time>
      </trkpt>
      <trkpt lat="44.127" lon="2.94767">
        <ele>584</ele>
        <time>2014-03-18T12:42:49Z</time>
      </trkpt>
      <trkpt lat="44.12704" lon="2.94762">
        <ele>584</ele>
        <time>2014-03-18T12:42:51Z</time>
      </trkpt>
      <trkpt lat="44.12707" lon="2.94757">
        <ele>584</ele>
        <time>2014-03-18T12:42:54Z</time>
      </trkpt>
      <trkpt lat="44.12709" lon="2.94751">
        <ele>583</ele>
        <time>2014-03-18T12:42:58Z</time>
      </trkpt>
      <trkpt lat="44.12711" lon="2.94745">
        <ele>582</ele>
        <time>2014-03-18T12:43:03Z</time>
      </trkpt>
      <trkpt lat="44.12713" lon="2.94739">
        <ele>583</ele>
        <time>2014-03-18T12:43:11Z</time>
      </trkpt>
      <trkpt lat="44.12718" lon="2.94734">
        <ele>583</ele>
        <time>2014-03-18T12:43:14Z</time>
      </trkpt>
      <trkpt lat="44.12723" lon="2.9473">
        <ele>583</ele>
        <time>2014-03-18T12:43:17Z</time>
      </trkpt>
      <trkpt lat="44.12728" lon="2.94724">
        <ele>583</ele>
        <time>2014-03-18T12:43:21Z</time>
      </trkpt>
      <trkpt lat="44.12732" lon="2.94718">
        <ele>582</ele>
        <time>2014-03-18T12:43:25Z</time>
      </trkpt>
      <trkpt lat="44.12737" lon="2.94715">
        <ele>582</ele>
        <time>2014-03-18T12:43:27Z</time>
      </trkpt>
      <trkpt lat="44.12742" lon="2.94712">
        <ele>582</ele>
        <time>2014-03-18T12:43:29Z</time>
      </trkpt>
      <trkpt lat="44.12744" lon="2.94706">
        <ele>582</ele>
        <time>2014-03-18T12:43:33Z</time>
      </trkpt>
      <trkpt lat="44.12744" lon="2.947">
        <ele>582</ele>
        <time>2014-03-18T12:43:36Z</time>
      </trkpt>
      <trkpt lat="44.12744" lon="2.94693">
        <ele>583</ele>
        <time>2014-03-18T12:43:40Z</time>
      </trkpt>
      <trkpt lat="44.12745" lon="2.94698">
        <ele>580</ele>
        <time>2014-03-18T12:44:06Z</time>
      </trkpt>
      <trkpt lat="44.12739" lon="2.947">
        <ele>580</ele>
        <time>2014-03-18T12:44:09Z</time>
      </trkpt>
      <trkpt lat="44.12739" lon="2.94694">
        <ele>579</ele>
        <time>2014-03-18T12:44:14Z</time>
      </trkpt>
      <trkpt lat="44.12743" lon="2.94694">
        <ele>579</ele>
        <time>2014-03-18T12:44:20Z</time>
      </trkpt>
      <trkpt lat="44.12748" lon="2.94697">
        <ele>579</ele>
        <time>2014-03-18T12:44:29Z</time>
      </trkpt>
      <trkpt lat="44.12744" lon="2.94701">
        <ele>579</ele>
        <time>2014-03-18T12:44:43Z</time>
      </trkpt>
      <trkpt lat="44.1274" lon="2.94702">
        <ele>579</ele>
        <time>2014-03-18T12:44:50Z</time>
      </trkpt>
      <trkpt lat="44.1274" lon="2.94702">
        <ele>579</ele>
        <time>2014-03-18T12:45:03Z</time>
      </trkpt>
      <trkpt lat="44.12739" lon="2.94709">
        <ele>579</ele>
        <time>2014-03-18T12:45:23Z</time>
      </trkpt>
      <trkpt lat="44.12738" lon="2.94715">
        <ele>579</ele>
        <time>2014-03-18T12:45:26Z</time>
      </trkpt>
      <trkpt lat="44.12735" lon="2.94721">
        <ele>580</ele>
        <time>2014-03-18T12:45:30Z</time>
      </trkpt>
      <trkpt lat="44.1273" lon="2.94724">
        <ele>580</ele>
        <time>2014-03-18T12:45:34Z</time>
      </trkpt>
      <trkpt lat="44.12727" lon="2.94728">
        <ele>581</ele>
        <time>2014-03-18T12:45:38Z</time>
      </trkpt>
      <trkpt lat="44.12724" lon="2.94735">
        <ele>581</ele>
        <time>2014-03-18T12:45:43Z</time>
      </trkpt>
      <trkpt lat="44.12719" lon="2.94735">
        <ele>579</ele>
        <time>2014-03-18T12:45:47Z</time>
      </trkpt>
      <trkpt lat="44.12718" lon="2.94742">
        <ele>580</ele>
        <time>2014-03-18T12:45:54Z</time>
      </trkpt>
      <trkpt lat="44.12716" lon="2.94748">
        <ele>582</ele>
        <time>2014-03-18T12:46:02Z</time>
      </trkpt>
      <trkpt lat="44.12713" lon="2.94756">
        <ele>582</ele>
        <time>2014-03-18T12:46:06Z</time>
      </trkpt>
      <trkpt lat="44.12709" lon="2.94761">
        <ele>583</ele>
        <time>2014-03-18T12:46:09Z</time>
      </trkpt>
      <trkpt lat="44.12703" lon="2.94762">
        <ele>583</ele>
        <time>2014-03-18T12:46:12Z</time>
      </trkpt>
      <trkpt lat="44.12698" lon="2.94761">
        <ele>583</ele>
        <time>2014-03-18T12:46:15Z</time>
      </trkpt>
      <trkpt lat="44.12693" lon="2.94762">
        <ele>583</ele>
        <time>2014-03-18T12:46:19Z</time>
      </trkpt>
      <trkpt lat="44.12688" lon="2.94763">
        <ele>584</ele>
        <time>2014-03-18T12:46:26Z</time>
      </trkpt>
      <trkpt lat="44.12683" lon="2.94766">
        <ele>584</ele>
        <time>2014-03-18T12:46:30Z</time>
      </trkpt>
      <trkpt lat="44.12678" lon="2.94767">
        <ele>584</ele>
        <time>2014-03-18T12:46:35Z</time>
      </trkpt>
      <trkpt lat="44.12673" lon="2.94771">
        <ele>585</ele>
        <time>2014-03-18T12:46:40Z</time>
      </trkpt>
      <trkpt lat="44.12669" lon="2.94774">
        <ele>586</ele>
        <time>2014-03-18T12:46:43Z</time>
      </trkpt>
      <trkpt lat="44.12667" lon="2.9478">
        <ele>586</ele>
        <time>2014-03-18T12:46:46Z</time>
      </trkpt>
      <trkpt lat="44.12663" lon="2.94785">
        <ele>586</ele>
        <time>2014-03-18T12:46:49Z</time>
      </trkpt>
      <trkpt lat="44.12658" lon="2.9479">
        <ele>587</ele>
        <time>2014-03-18T12:46:52Z</time>
      </trkpt>
      <trkpt lat="44.12653" lon="2.94796">
        <ele>588</ele>
        <time>2014-03-18T12:46:55Z</time>
      </trkpt>
      <trkpt lat="44.1265" lon="2.94792">
        <ele>586</ele>
        <time>2014-03-18T12:47:00Z</time>
      </trkpt>
      <trkpt lat="44.12646" lon="2.94798">
        <ele>587</ele>
        <time>2014-03-18T12:47:05Z</time>
      </trkpt>
      <trkpt lat="44.12644" lon="2.94804">
        <ele>590</ele>
        <time>2014-03-18T12:47:07Z</time>
      </trkpt>
      <trkpt lat="44.1264" lon="2.94807">
        <ele>591</ele>
        <time>2014-03-18T12:47:10Z</time>
      </trkpt>
      <trkpt lat="44.12635" lon="2.94805">
        <ele>590</ele>
        <time>2014-03-18T12:47:14Z</time>
      </trkpt>
      <trkpt lat="44.1263" lon="2.94806">
        <ele>589</ele>
        <time>2014-03-18T12:47:18Z</time>
      </trkpt>
      <trkpt lat="44.12625" lon="2.94807">
        <ele>587</ele>
        <time>2014-03-18T12:47:22Z</time>
      </trkpt>
      <trkpt lat="44.12619" lon="2.9481">
        <ele>586</ele>
        <time>2014-03-18T12:47:26Z</time>
      </trkpt>
      <trkpt lat="44.12614" lon="2.94813">
        <ele>586</ele>
        <time>2014-03-18T12:47:30Z</time>
      </trkpt>
      <trkpt lat="44.12609" lon="2.94814">
        <ele>585</ele>
        <time>2014-03-18T12:47:34Z</time>
      </trkpt>
      <trkpt lat="44.12604" lon="2.94816">
        <ele>584</ele>
        <time>2014-03-18T12:47:38Z</time>
      </trkpt>
      <trkpt lat="44.12598" lon="2.94817">
        <ele>584</ele>
        <time>2014-03-18T12:47:42Z</time>
      </trkpt>
      <trkpt lat="44.12593" lon="2.94818">
        <ele>584</ele>
        <time>2014-03-18T12:47:46Z</time>
      </trkpt>
      <trkpt lat="44.12588" lon="2.94818">
        <ele>583</ele>
        <time>2014-03-18T12:47:50Z</time>
      </trkpt>
      <trkpt lat="44.12582" lon="2.94819">
        <ele>582</ele>
        <time>2014-03-18T12:47:55Z</time>
      </trkpt>
      <trkpt lat="44.12576" lon="2.94822">
        <ele>580</ele>
        <time>2014-03-18T12:47:59Z</time>
      </trkpt>
      <trkpt lat="44.12568" lon="2.94827">
        <ele>580</ele>
        <time>2014-03-18T12:48:04Z</time>
      </trkpt>
      <trkpt lat="44.12564" lon="2.94834">
        <ele>579</ele>
        <time>2014-03-18T12:48:09Z</time>
      </trkpt>
      <trkpt lat="44.1256" lon="2.94838">
        <ele>579</ele>
        <time>2014-03-18T12:48:13Z</time>
      </trkpt>
      <trkpt lat="44.12556" lon="2.94844">
        <ele>579</ele>
        <time>2014-03-18T12:48:16Z</time>
      </trkpt>
      <trkpt lat="44.12552" lon="2.94849">
        <ele>578</ele>
        <time>2014-03-18T12:48:19Z</time>
      </trkpt>
      <trkpt lat="44.12548" lon="2.94852">
        <ele>575</ele>
        <time>2014-03-18T12:48:26Z</time>
      </trkpt>
      <trkpt lat="44.12542" lon="2.94862">
        <ele>574</ele>
        <time>2014-03-18T12:48:31Z</time>
      </trkpt>
      <trkpt lat="44.12539" lon="2.94867">
        <ele>574</ele>
        <time>2014-03-18T12:48:35Z</time>
      </trkpt>
      <trkpt lat="44.12535" lon="2.94872">
        <ele>575</ele>
        <time>2014-03-18T12:48:38Z</time>
      </trkpt>
      <trkpt lat="44.12532" lon="2.94878">
        <ele>575</ele>
        <time>2014-03-18T12:48:41Z</time>
      </trkpt>
      <trkpt lat="44.12529" lon="2.94883">
        <ele>575</ele>
        <time>2014-03-18T12:48:45Z</time>
      </trkpt>
      <trkpt lat="44.12525" lon="2.94888">
        <ele>575</ele>
        <time>2014-03-18T12:48:49Z</time>
      </trkpt>
      <trkpt lat="44.12522" lon="2.94895">
        <ele>574</ele>
        <time>2014-03-18T12:48:53Z</time>
      </trkpt>
      <trkpt lat="44.12519" lon="2.94901">
        <ele>574</ele>
        <time>2014-03-18T12:48:56Z</time>
      </trkpt>
      <trkpt lat="44.12515" lon="2.94908">
        <ele>574</ele>
        <time>2014-03-18T12:48:59Z</time>
      </trkpt>
      <trkpt lat="44.12512" lon="2.94913">
        <ele>575</ele>
        <time>2014-03-18T12:49:02Z</time>
      </trkpt>
      <trkpt lat="44.12507" lon="2.94918">
        <ele>575</ele>
        <time>2014-03-18T12:49:06Z</time>
      </trkpt>
      <trkpt lat="44.12503" lon="2.94924">
        <ele>576</ele>
        <time>2014-03-18T12:49:10Z</time>
      </trkpt>
      <trkpt lat="44.12499" lon="2.9493">
        <ele>578</ele>
        <time>2014-03-18T12:49:13Z</time>
      </trkpt>
      <trkpt lat="44.12495" lon="2.94934">
        <ele>578</ele>
        <time>2014-03-18T12:49:16Z</time>
      </trkpt>
      <trkpt lat="44.12491" lon="2.94938">
        <ele>578</ele>
        <time>2014-03-18T12:49:19Z</time>
      </trkpt>
      <trkpt lat="44.12485" lon="2.94941">
        <ele>578</ele>
        <time>2014-03-18T12:49:23Z</time>
      </trkpt>
      <trkpt lat="44.12481" lon="2.94946">
        <ele>578</ele>
        <time>2014-03-18T12:49:27Z</time>
      </trkpt>
      <trkpt lat="44.12476" lon="2.94948">
        <ele>577</ele>
        <time>2014-03-18T12:49:31Z</time>
      </trkpt>
      <trkpt lat="44.12472" lon="2.94951">
        <ele>576</ele>
        <time>2014-03-18T12:49:34Z</time>
      </trkpt>
      <trkpt lat="44.12467" lon="2.94953">
        <ele>576</ele>
        <time>2014-03-18T12:49:37Z</time>
      </trkpt>
      <trkpt lat="44.12462" lon="2.94955">
        <ele>576</ele>
        <time>2014-03-18T12:49:40Z</time>
      </trkpt>
      <trkpt lat="44.12458" lon="2.94957">
        <ele>576</ele>
        <time>2014-03-18T12:49:43Z</time>
      </trkpt>
      <trkpt lat="44.12452" lon="2.9496">
        <ele>575</ele>
        <time>2014-03-18T12:49:47Z</time>
      </trkpt>
      <trkpt lat="44.12447" lon="2.94963">
        <ele>574</ele>
        <time>2014-03-18T12:49:52Z</time>
      </trkpt>
      <trkpt lat="44.12442" lon="2.94965">
        <ele>573</ele>
        <time>2014-03-18T12:49:56Z</time>
      </trkpt>
      <trkpt lat="44.12439" lon="2.94971">
        <ele>572</ele>
        <time>2014-03-18T12:49:59Z</time>
      </trkpt>
      <trkpt lat="44.12436" lon="2.94976">
        <ele>571</ele>
        <time>2014-03-18T12:50:03Z</time>
      </trkpt>
      <trkpt lat="44.12432" lon="2.94974">
        <ele>571</ele>
        <time>2014-03-18T12:50:16Z</time>
      </trkpt>
      <trkpt lat="44.1243" lon="2.94977">
        <ele>572</ele>
        <time>2014-03-18T12:50:47Z</time>
      </trkpt>
      <trkpt lat="44.12426" lon="2.94984">
        <ele>572</ele>
        <time>2014-03-18T12:50:51Z</time>
      </trkpt>
      <trkpt lat="44.12423" lon="2.94989">
        <ele>573</ele>
        <time>2014-03-18T12:50:54Z</time>
      </trkpt>
      <trkpt lat="44.12419" lon="2.94994">
        <ele>573</ele>
        <time>2014-03-18T12:50:57Z</time>
      </trkpt>
      <trkpt lat="44.12414" lon="2.94997">
        <ele>574</ele>
        <time>2014-03-18T12:51:01Z</time>
      </trkpt>
      <trkpt lat="44.12411" lon="2.95002">
        <ele>574</ele>
        <time>2014-03-18T12:51:06Z</time>
      </trkpt>
      <trkpt lat="44.12408" lon="2.95012">
        <ele>576</ele>
        <time>2014-03-18T12:51:15Z</time>
      </trkpt>
      <trkpt lat="44.12407" lon="2.95018">
        <ele>576</ele>
        <time>2014-03-18T12:51:18Z</time>
      </trkpt>
      <trkpt lat="44.12405" lon="2.95026">
        <ele>576</ele>
        <time>2014-03-18T12:51:21Z</time>
      </trkpt>
      <trkpt lat="44.12403" lon="2.95034">
        <ele>577</ele>
        <time>2014-03-18T12:51:24Z</time>
      </trkpt>
      <trkpt lat="44.12403" lon="2.95042">
        <ele>577</ele>
        <time>2014-03-18T12:51:27Z</time>
      </trkpt>
      <trkpt lat="44.12401" lon="2.95049">
        <ele>578</ele>
        <time>2014-03-18T12:51:30Z</time>
      </trkpt>
      <trkpt lat="44.12398" lon="2.9506">
        <ele>579</ele>
        <time>2014-03-18T12:51:35Z</time>
      </trkpt>
      <trkpt lat="44.12397" lon="2.95067">
        <ele>580</ele>
        <time>2014-03-18T12:51:39Z</time>
      </trkpt>
      <trkpt lat="44.12395" lon="2.95076">
        <ele>582</ele>
        <time>2014-03-18T12:51:42Z</time>
      </trkpt>
      <trkpt lat="44.12394" lon="2.95084">
        <ele>583</ele>
        <time>2014-03-18T12:51:45Z</time>
      </trkpt>
      <trkpt lat="44.12393" lon="2.95091">
        <ele>584</ele>
        <time>2014-03-18T12:51:50Z</time>
      </trkpt>
      <trkpt lat="44.12395" lon="2.95098">
        <ele>583</ele>
        <time>2014-03-18T12:51:53Z</time>
      </trkpt>
      <trkpt lat="44.12395" lon="2.95104">
        <ele>581</ele>
        <time>2014-03-18T12:51:57Z</time>
      </trkpt>
      <trkpt lat="44.12394" lon="2.9511">
        <ele>581</ele>
        <time>2014-03-18T12:52:01Z</time>
      </trkpt>
      <trkpt lat="44.12393" lon="2.95117">
        <ele>580</ele>
        <time>2014-03-18T12:52:06Z</time>
      </trkpt>
      <trkpt lat="44.12392" lon="2.95124">
        <ele>579</ele>
        <time>2014-03-18T12:52:11Z</time>
      </trkpt>
      <trkpt lat="44.12394" lon="2.9514">
        <ele>580</ele>
        <time>2014-03-18T12:52:12Z</time>
      </trkpt>
      <trkpt lat="44.12392" lon="2.95149">
        <ele>583</ele>
        <time>2014-03-18T12:52:15Z</time>
      </trkpt>
      <trkpt lat="44.12392" lon="2.95155">
        <ele>585</ele>
        <time>2014-03-18T12:52:17Z</time>
      </trkpt>
      <trkpt lat="44.12394" lon="2.95159">
        <ele>586</ele>
        <time>2014-03-18T12:52:21Z</time>
      </trkpt>
      <trkpt lat="44.12394" lon="2.95162">
        <ele>586</ele>
        <time>2014-03-18T12:52:24Z</time>
      </trkpt>
      <trkpt lat="44.12394" lon="2.95169">
        <ele>587</ele>
        <time>2014-03-18T12:52:27Z</time>
      </trkpt>
      <trkpt lat="44.12394" lon="2.95176">
        <ele>587</ele>
        <time>2014-03-18T12:52:32Z</time>
      </trkpt>
      <trkpt lat="44.12394" lon="2.95182">
        <ele>587</ele>
        <time>2014-03-18T12:52:36Z</time>
      </trkpt>
      <trkpt lat="44.12394" lon="2.95189">
        <ele>587</ele>
        <time>2014-03-18T12:52:40Z</time>
      </trkpt>
      <trkpt lat="44.12394" lon="2.95197">
        <ele>587</ele>
        <time>2014-03-18T12:52:46Z</time>
      </trkpt>
      <trkpt lat="44.12398" lon="2.95204">
        <ele>587</ele>
        <time>2014-03-18T12:52:49Z</time>
      </trkpt>
      <trkpt lat="44.124" lon="2.95212">
        <ele>586</ele>
        <time>2014-03-18T12:52:51Z</time>
      </trkpt>
      <trkpt lat="44.12401" lon="2.9522">
        <ele>585</ele>
        <time>2014-03-18T12:52:54Z</time>
      </trkpt>
      <trkpt lat="44.124" lon="2.95227">
        <ele>583</ele>
        <time>2014-03-18T12:52:59Z</time>
      </trkpt>
      <trkpt lat="44.12397" lon="2.95232">
        <ele>582</ele>
        <time>2014-03-18T12:53:04Z</time>
      </trkpt>
      <trkpt lat="44.12399" lon="2.9524">
        <ele>582</ele>
        <time>2014-03-18T12:53:09Z</time>
      </trkpt>
      <trkpt lat="44.124" lon="2.95246">
        <ele>581</ele>
        <time>2014-03-18T12:53:14Z</time>
      </trkpt>
      <trkpt lat="44.12399" lon="2.95253">
        <ele>580</ele>
        <time>2014-03-18T12:53:19Z</time>
      </trkpt>
      <trkpt lat="44.124" lon="2.95261">
        <ele>579</ele>
        <time>2014-03-18T12:53:25Z</time>
      </trkpt>
      <trkpt lat="44.12401" lon="2.95268">
        <ele>578</ele>
        <time>2014-03-18T12:53:28Z</time>
      </trkpt>
      <trkpt lat="44.12402" lon="2.95275">
        <ele>577</ele>
        <time>2014-03-18T12:53:32Z</time>
      </trkpt>
      <trkpt lat="44.12403" lon="2.95283">
        <ele>577</ele>
        <time>2014-03-18T12:53:36Z</time>
      </trkpt>
      <trkpt lat="44.12403" lon="2.95289">
        <ele>577</ele>
        <time>2014-03-18T12:53:40Z</time>
      </trkpt>
      <trkpt lat="44.12403" lon="2.95296">
        <ele>577</ele>
        <time>2014-03-18T12:53:43Z</time>
      </trkpt>
      <trkpt lat="44.12405" lon="2.95304">
        <ele>577</ele>
        <time>2014-03-18T12:53:46Z</time>
      </trkpt>
      <trkpt lat="44.12406" lon="2.9531">
        <ele>578</ele>
        <time>2014-03-18T12:53:50Z</time>
      </trkpt>
      <trkpt lat="44.12405" lon="2.95316">
        <ele>578</ele>
        <time>2014-03-18T12:53:54Z</time>
      </trkpt>
      <trkpt lat="44.12402" lon="2.95324">
        <ele>577</ele>
        <time>2014-03-18T12:53:58Z</time>
      </trkpt>
      <trkpt lat="44.124" lon="2.9533">
        <ele>577</ele>
        <time>2014-03-18T12:54:03Z</time>
      </trkpt>
      <trkpt lat="44.12401" lon="2.95339">
        <ele>576</ele>
        <time>2014-03-18T12:54:09Z</time>
      </trkpt>
      <trkpt lat="44.12402" lon="2.95345">
        <ele>576</ele>
        <time>2014-03-18T12:54:11Z</time>
      </trkpt>
      <trkpt lat="44.12402" lon="2.95353">
        <ele>576</ele>
        <time>2014-03-18T12:54:14Z</time>
      </trkpt>
      <trkpt lat="44.12397" lon="2.95359">
        <ele>575</ele>
        <time>2014-03-18T12:54:18Z</time>
      </trkpt>
      <trkpt lat="44.12389" lon="2.95363">
        <ele>574</ele>
        <time>2014-03-18T12:54:23Z</time>
      </trkpt>
      <trkpt lat="44.12383" lon="2.95365">
        <ele>574</ele>
        <time>2014-03-18T12:54:26Z</time>
      </trkpt>
      <trkpt lat="44.12378" lon="2.95367">
        <ele>573</ele>
        <time>2014-03-18T12:54:30Z</time>
      </trkpt>
      <trkpt lat="44.12373" lon="2.95368">
        <ele>572</ele>
        <time>2014-03-18T12:54:35Z</time>
      </trkpt>
      <trkpt lat="44.1237" lon="2.95373">
        <ele>571</ele>
        <time>2014-03-18T12:54:38Z</time>
      </trkpt>
      <trkpt lat="44.12366" lon="2.95377">
        <ele>570</ele>
        <time>2014-03-18T12:54:41Z</time>
      </trkpt>
      <trkpt lat="44.12361" lon="2.95378">
        <ele>570</ele>
        <time>2014-03-18T12:54:44Z</time>
      </trkpt>
      <trkpt lat="44.12356" lon="2.95377">
        <ele>569</ele>
        <time>2014-03-18T12:54:47Z</time>
      </trkpt>
      <trkpt lat="44.12351" lon="2.95377">
        <ele>570</ele>
        <time>2014-03-18T12:54:51Z</time>
      </trkpt>
      <trkpt lat="44.12342" lon="2.95376">
        <ele>571</ele>
        <time>2014-03-18T12:54:58Z</time>
      </trkpt>
      <trkpt lat="44.12338" lon="2.95375">
        <ele>572</ele>
        <time>2014-03-18T12:55:01Z</time>
      </trkpt>
      <trkpt lat="44.12333" lon="2.95374">
        <ele>572</ele>
        <time>2014-03-18T12:55:05Z</time>
      </trkpt>
      <trkpt lat="44.12327" lon="2.95377">
        <ele>572</ele>
        <time>2014-03-18T12:55:08Z</time>
      </trkpt>
      <trkpt lat="44.12323" lon="2.95381">
        <ele>573</ele>
        <time>2014-03-18T12:55:10Z</time>
      </trkpt>
      <trkpt lat="44.12318" lon="2.95384">
        <ele>573</ele>
        <time>2014-03-18T12:55:13Z</time>
      </trkpt>
      <trkpt lat="44.12308" lon="2.95381">
        <ele>566</ele>
        <time>2014-03-18T12:55:23Z</time>
      </trkpt>
      <trkpt lat="44.12303" lon="2.95378">
        <ele>564</ele>
        <time>2014-03-18T12:55:32Z</time>
      </trkpt>
      <trkpt lat="44.12298" lon="2.95383">
        <ele>564</ele>
        <time>2014-03-18T12:55:35Z</time>
      </trkpt>
      <trkpt lat="44.12292" lon="2.9539">
        <ele>563</ele>
        <time>2014-03-18T12:55:39Z</time>
      </trkpt>
      <trkpt lat="44.12287" lon="2.95394">
        <ele>564</ele>
        <time>2014-03-18T12:55:42Z</time>
      </trkpt>
      <trkpt lat="44.12282" lon="2.95396">
        <ele>564</ele>
        <time>2014-03-18T12:55:47Z</time>
      </trkpt>
      <trkpt lat="44.12278" lon="2.95391">
        <ele>564</ele>
        <time>2014-03-18T12:55:53Z</time>
      </trkpt>
      <trkpt lat="44.12273" lon="2.95393">
        <ele>563</ele>
        <time>2014-03-18T12:55:58Z</time>
      </trkpt>
      <trkpt lat="44.12268" lon="2.95391">
        <ele>562</ele>
        <time>2014-03-18T12:56:02Z</time>
      </trkpt>
      <trkpt lat="44.12263" lon="2.9539">
        <ele>561</ele>
        <time>2014-03-18T12:56:06Z</time>
      </trkpt>
      <trkpt lat="44.12259" lon="2.95395">
        <ele>561</ele>
        <time>2014-03-18T12:56:09Z</time>
      </trkpt>
      <trkpt lat="44.12256" lon="2.954">
        <ele>561</ele>
        <time>2014-03-18T12:56:13Z</time>
      </trkpt>
      <trkpt lat="44.12254" lon="2.95408">
        <ele>563</ele>
        <time>2014-03-18T12:56:14Z</time>
      </trkpt>
      <trkpt lat="44.12253" lon="2.95415">
        <ele>565</ele>
        <time>2014-03-18T12:56:16Z</time>
      </trkpt>
      <trkpt lat="44.12251" lon="2.95423">
        <ele>567</ele>
        <time>2014-03-18T12:56:18Z</time>
      </trkpt>
      <trkpt lat="44.12249" lon="2.95431">
        <ele>570</ele>
        <time>2014-03-18T12:56:21Z</time>
      </trkpt>
      <trkpt lat="44.12238" lon="2.95454">
        <ele>578</ele>
        <time>2014-03-18T12:56:34Z</time>
      </trkpt>
      <trkpt lat="44.12235" lon="2.95462">
        <ele>577</ele>
        <time>2014-03-18T12:56:38Z</time>
      </trkpt>
      <trkpt lat="44.12232" lon="2.95468">
        <ele>576</ele>
        <time>2014-03-18T12:56:42Z</time>
      </trkpt>
      <trkpt lat="44.12228" lon="2.95473">
        <ele>575</ele>
        <time>2014-03-18T12:56:46Z</time>
      </trkpt>
      <trkpt lat="44.12225" lon="2.95479">
        <ele>572</ele>
        <time>2014-03-18T12:56:50Z</time>
      </trkpt>
      <trkpt lat="44.12222" lon="2.95485">
        <ele>570</ele>
        <time>2014-03-18T12:56:54Z</time>
      </trkpt>
      <trkpt lat="44.1222" lon="2.95493">
        <ele>571</ele>
        <time>2014-03-18T12:56:58Z</time>
      </trkpt>
      <trkpt lat="44.1222" lon="2.95499">
        <ele>573</ele>
        <time>2014-03-18T12:57:01Z</time>
      </trkpt>
      <trkpt lat="44.12217" lon="2.95506">
        <ele>574</ele>
        <time>2014-03-18T12:57:06Z</time>
      </trkpt>
      <trkpt lat="44.12214" lon="2.95511">
        <ele>574</ele>
        <time>2014-03-18T12:57:10Z</time>
      </trkpt>
      <trkpt lat="44.12211" lon="2.95515">
        <ele>574</ele>
        <time>2014-03-18T12:57:13Z</time>
      </trkpt>
      <trkpt lat="44.12206" lon="2.95516">
        <ele>575</ele>
        <time>2014-03-18T12:57:16Z</time>
      </trkpt>
      <trkpt lat="44.12202" lon="2.95517">
        <ele>576</ele>
        <time>2014-03-18T12:57:19Z</time>
      </trkpt>
      <trkpt lat="44.12198" lon="2.95522">
        <ele>577</ele>
        <time>2014-03-18T12:57:23Z</time>
      </trkpt>
      <trkpt lat="44.12197" lon="2.9553">
        <ele>577</ele>
        <time>2014-03-18T12:57:27Z</time>
      </trkpt>
      <trkpt lat="44.12196" lon="2.95537">
        <ele>576</ele>
        <time>2014-03-18T12:57:30Z</time>
      </trkpt>
      <trkpt lat="44.12194" lon="2.95543">
        <ele>575</ele>
        <time>2014-03-18T12:57:32Z</time>
      </trkpt>
      <trkpt lat="44.1219" lon="2.95548">
        <ele>577</ele>
        <time>2014-03-18T12:57:35Z</time>
      </trkpt>
      <trkpt lat="44.12187" lon="2.95552">
        <ele>578</ele>
        <time>2014-03-18T12:57:38Z</time>
      </trkpt>
      <trkpt lat="44.12183" lon="2.95557">
        <ele>578</ele>
        <time>2014-03-18T12:57:42Z</time>
      </trkpt>
      <trkpt lat="44.12181" lon="2.95564">
        <ele>579</ele>
        <time>2014-03-18T12:57:46Z</time>
      </trkpt>
      <trkpt lat="44.12179" lon="2.95571">
        <ele>580</ele>
        <time>2014-03-18T12:57:50Z</time>
      </trkpt>
      <trkpt lat="44.12176" lon="2.95576">
        <ele>582</ele>
        <time>2014-03-18T12:57:53Z</time>
      </trkpt>
      <trkpt lat="44.12173" lon="2.95581">
        <ele>583</ele>
        <time>2014-03-18T12:57:57Z</time>
      </trkpt>
      <trkpt lat="44.12169" lon="2.95587">
        <ele>583</ele>
        <time>2014-03-18T12:57:59Z</time>
      </trkpt>
      <trkpt lat="44.12166" lon="2.95593">
        <ele>584</ele>
        <time>2014-03-18T12:58:02Z</time>
      </trkpt>
      <trkpt lat="44.12162" lon="2.95597">
        <ele>583</ele>
        <time>2014-03-18T12:58:07Z</time>
      </trkpt>
      <trkpt lat="44.12158" lon="2.956">
        <ele>582</ele>
        <time>2014-03-18T12:58:14Z</time>
      </trkpt>
      <trkpt lat="44.12154" lon="2.95607">
        <ele>581</ele>
        <time>2014-03-18T12:58:20Z</time>
      </trkpt>
      <trkpt lat="44.1215" lon="2.95613">
        <ele>580</ele>
        <time>2014-03-18T12:58:23Z</time>
      </trkpt>
      <trkpt lat="44.12148" lon="2.95619">
        <ele>579</ele>
        <time>2014-03-18T12:58:27Z</time>
      </trkpt>
      <trkpt lat="44.12146" lon="2.95629">
        <ele>579</ele>
        <time>2014-03-18T12:58:31Z</time>
      </trkpt>
      <trkpt lat="44.12142" lon="2.95636">
        <ele>579</ele>
        <time>2014-03-18T12:58:34Z</time>
      </trkpt>
      <trkpt lat="44.1214" lon="2.95642">
        <ele>579</ele>
        <time>2014-03-18T12:58:36Z</time>
      </trkpt>
      <trkpt lat="44.12137" lon="2.95648">
        <ele>578</ele>
        <time>2014-03-18T12:58:39Z</time>
      </trkpt>
      <trkpt lat="44.12136" lon="2.95654">
        <ele>577</ele>
        <time>2014-03-18T12:58:43Z</time>
      </trkpt>
      <trkpt lat="44.12131" lon="2.95658">
        <ele>577</ele>
        <time>2014-03-18T12:58:48Z</time>
      </trkpt>
      <trkpt lat="44.12126" lon="2.95659">
        <ele>577</ele>
        <time>2014-03-18T12:58:50Z</time>
      </trkpt>
      <trkpt lat="44.12122" lon="2.95662">
        <ele>578</ele>
        <time>2014-03-18T12:58:53Z</time>
      </trkpt>
      <trkpt lat="44.12119" lon="2.95667">
        <ele>578</ele>
        <time>2014-03-18T12:58:56Z</time>
      </trkpt>
      <trkpt lat="44.12115" lon="2.95672">
        <ele>578</ele>
        <time>2014-03-18T12:59:00Z</time>
      </trkpt>
      <trkpt lat="44.12111" lon="2.95677">
        <ele>579</ele>
        <time>2014-03-18T12:59:04Z</time>
      </trkpt>
      <trkpt lat="44.12107" lon="2.95681">
        <ele>579</ele>
        <time>2014-03-18T12:59:08Z</time>
      </trkpt>
      <trkpt lat="44.12102" lon="2.95686">
        <ele>580</ele>
        <time>2014-03-18T12:59:12Z</time>
      </trkpt>
      <trkpt lat="44.12098" lon="2.95691">
        <ele>582</ele>
        <time>2014-03-18T12:59:15Z</time>
      </trkpt>
      <trkpt lat="44.12094" lon="2.95696">
        <ele>584</ele>
        <time>2014-03-18T12:59:18Z</time>
      </trkpt>
      <trkpt lat="44.1209" lon="2.95704">
        <ele>586</ele>
        <time>2014-03-18T12:59:21Z</time>
      </trkpt>
      <trkpt lat="44.12087" lon="2.9571">
        <ele>587</ele>
        <time>2014-03-18T12:59:23Z</time>
      </trkpt>
      <trkpt lat="44.12085" lon="2.95714">
        <ele>588</ele>
        <time>2014-03-18T12:59:24Z</time>
      </trkpt>
      <trkpt lat="44.12084" lon="2.95717">
        <ele>588</ele>
        <time>2014-03-18T12:59:25Z</time>
      </trkpt>
      <trkpt lat="44.12083" lon="2.95721">
        <ele>589</ele>
        <time>2014-03-18T12:59:27Z</time>
      </trkpt>
      <trkpt lat="44.12077" lon="2.95724">
        <ele>590</ele>
        <time>2014-03-18T12:59:36Z</time>
      </trkpt>
      <trkpt lat="44.12071" lon="2.95734">
        <ele>591</ele>
        <time>2014-03-18T12:59:43Z</time>
      </trkpt>
      <trkpt lat="44.12063" lon="2.95734">
        <ele>591</ele>
        <time>2014-03-18T12:59:48Z</time>
      </trkpt>
      <trkpt lat="44.12055" lon="2.95734">
        <ele>592</ele>
        <time>2014-03-18T12:59:53Z</time>
      </trkpt>
      <trkpt lat="44.1205" lon="2.95732">
        <ele>593</ele>
        <time>2014-03-18T12:59:57Z</time>
      </trkpt>
      <trkpt lat="44.12045" lon="2.95728">
        <ele>593</ele>
        <time>2014-03-18T13:00:01Z</time>
      </trkpt>
      <trkpt lat="44.1204" lon="2.95728">
        <ele>595</ele>
        <time>2014-03-18T13:00:04Z</time>
      </trkpt>
      <trkpt lat="44.12035" lon="2.9573">
        <ele>596</ele>
        <time>2014-03-18T13:00:07Z</time>
      </trkpt>
      <trkpt lat="44.12031" lon="2.95734">
        <ele>598</ele>
        <time>2014-03-18T13:00:10Z</time>
      </trkpt>
      <trkpt lat="44.12026" lon="2.95739">
        <ele>599</ele>
        <time>2014-03-18T13:00:13Z</time>
      </trkpt>
      <trkpt lat="44.12025" lon="2.95746">
        <ele>599</ele>
        <time>2014-03-18T13:00:19Z</time>
      </trkpt>
      <trkpt lat="44.12028" lon="2.95753">
        <ele>600</ele>
        <time>2014-03-18T13:00:22Z</time>
      </trkpt>
      <trkpt lat="44.1203" lon="2.9576">
        <ele>601</ele>
        <time>2014-03-18T13:00:25Z</time>
      </trkpt>
      <trkpt lat="44.12032" lon="2.95766">
        <ele>601</ele>
        <time>2014-03-18T13:00:28Z</time>
      </trkpt>
      <trkpt lat="44.12034" lon="2.95772">
        <ele>603</ele>
        <time>2014-03-18T13:00:31Z</time>
      </trkpt>
      <trkpt lat="44.12033" lon="2.95779">
        <ele>604</ele>
        <time>2014-03-18T13:00:34Z</time>
      </trkpt>
      <trkpt lat="44.12032" lon="2.95785">
        <ele>605</ele>
        <time>2014-03-18T13:00:37Z</time>
      </trkpt>
      <trkpt lat="44.12032" lon="2.95793">
        <ele>606</ele>
        <time>2014-03-18T13:00:41Z</time>
      </trkpt>
      <trkpt lat="44.12031" lon="2.95801">
        <ele>606</ele>
        <time>2014-03-18T13:00:44Z</time>
      </trkpt>
      <trkpt lat="44.12029" lon="2.95807">
        <ele>606</ele>
        <time>2014-03-18T13:00:48Z</time>
      </trkpt>
      <trkpt lat="44.12028" lon="2.95816">
        <ele>606</ele>
        <time>2014-03-18T13:00:52Z</time>
      </trkpt>
      <trkpt lat="44.12027" lon="2.95823">
        <ele>605</ele>
        <time>2014-03-18T13:00:55Z</time>
      </trkpt>
      <trkpt lat="44.12025" lon="2.9583">
        <ele>604</ele>
        <time>2014-03-18T13:00:59Z</time>
      </trkpt>
      <trkpt lat="44.12021" lon="2.95833">
        <ele>605</ele>
        <time>2014-03-18T13:01:04Z</time>
      </trkpt>
      <trkpt lat="44.1202" lon="2.95842">
        <ele>605</ele>
        <time>2014-03-18T13:01:07Z</time>
      </trkpt>
      <trkpt lat="44.12019" lon="2.9585">
        <ele>606</ele>
        <time>2014-03-18T13:01:10Z</time>
      </trkpt>
      <trkpt lat="44.12019" lon="2.95858">
        <ele>607</ele>
        <time>2014-03-18T13:01:15Z</time>
      </trkpt>
      <trkpt lat="44.12016" lon="2.95864">
        <ele>607</ele>
        <time>2014-03-18T13:01:21Z</time>
      </trkpt>
      <trkpt lat="44.12013" lon="2.95868">
        <ele>606</ele>
        <time>2014-03-18T13:01:25Z</time>
      </trkpt>
      <trkpt lat="44.12016" lon="2.95875">
        <ele>606</ele>
        <time>2014-03-18T13:01:30Z</time>
      </trkpt>
      <trkpt lat="44.12015" lon="2.95881">
        <ele>606</ele>
        <time>2014-03-18T13:01:34Z</time>
      </trkpt>
      <trkpt lat="44.12014" lon="2.9589">
        <ele>606</ele>
        <time>2014-03-18T13:01:38Z</time>
      </trkpt>
      <trkpt lat="44.12012" lon="2.95896">
        <ele>606</ele>
        <time>2014-03-18T13:01:42Z</time>
      </trkpt>
      <trkpt lat="44.12012" lon="2.95903">
        <ele>607</ele>
        <time>2014-03-18T13:01:48Z</time>
      </trkpt>
      <trkpt lat="44.12012" lon="2.95911">
        <ele>607</ele>
        <time>2014-03-18T13:01:51Z</time>
      </trkpt>
      <trkpt lat="44.12013" lon="2.95918">
        <ele>608</ele>
        <time>2014-03-18T13:01:54Z</time>
      </trkpt>
      <trkpt lat="44.12011" lon="2.95925">
        <ele>608</ele>
        <time>2014-03-18T13:01:58Z</time>
      </trkpt>
      <trkpt lat="44.12008" lon="2.9593">
        <ele>608</ele>
        <time>2014-03-18T13:02:01Z</time>
      </trkpt>
      <trkpt lat="44.12006" lon="2.95937">
        <ele>608</ele>
        <time>2014-03-18T13:02:05Z</time>
      </trkpt>
      <trkpt lat="44.12006" lon="2.95944">
        <ele>609</ele>
        <time>2014-03-18T13:02:09Z</time>
      </trkpt>
      <trkpt lat="44.12007" lon="2.95952">
        <ele>611</ele>
        <time>2014-03-18T13:02:13Z</time>
      </trkpt>
      <trkpt lat="44.12007" lon="2.95959">
        <ele>612</ele>
        <time>2014-03-18T13:02:16Z</time>
      </trkpt>
      <trkpt lat="44.12005" lon="2.95966">
        <ele>612</ele>
        <time>2014-03-18T13:02:20Z</time>
      </trkpt>
      <trkpt lat="44.12003" lon="2.95972">
        <ele>611</ele>
        <time>2014-03-18T13:02:25Z</time>
      </trkpt>
      <trkpt lat="44.12001" lon="2.95979">
        <ele>611</ele>
        <time>2014-03-18T13:02:30Z</time>
      </trkpt>
      <trkpt lat="44.12001" lon="2.95986">
        <ele>612</ele>
        <time>2014-03-18T13:02:34Z</time>
      </trkpt>
      <trkpt lat="44.12" lon="2.95993">
        <ele>613</ele>
        <time>2014-03-18T13:02:38Z</time>
      </trkpt>
      <trkpt lat="44.11999" lon="2.96">
        <ele>613</ele>
        <time>2014-03-18T13:02:40Z</time>
      </trkpt>
      <trkpt lat="44.11998" lon="2.96007">
        <ele>615</ele>
        <time>2014-03-18T13:02:43Z</time>
      </trkpt>
      <trkpt lat="44.11998" lon="2.96014">
        <ele>616</ele>
        <time>2014-03-18T13:02:46Z</time>
      </trkpt>
      <trkpt lat="44.11997" lon="2.96021">
        <ele>617</ele>
        <time>2014-03-18T13:02:51Z</time>
      </trkpt>
      <trkpt lat="44.11995" lon="2.96028">
        <ele>617</ele>
        <time>2014-03-18T13:02:56Z</time>
      </trkpt>
      <trkpt lat="44.11996" lon="2.96035">
        <ele>618</ele>
        <time>2014-03-18T13:03:00Z</time>
      </trkpt>
      <trkpt lat="44.11995" lon="2.96043">
        <ele>619</ele>
        <time>2014-03-18T13:03:03Z</time>
      </trkpt>
      <trkpt lat="44.11994" lon="2.96051">
        <ele>620</ele>
        <time>2014-03-18T13:03:07Z</time>
      </trkpt>
      <trkpt lat="44.11991" lon="2.96059">
        <ele>622</ele>
        <time>2014-03-18T13:03:11Z</time>
      </trkpt>
      <trkpt lat="44.1199" lon="2.96066">
        <ele>624</ele>
        <time>2014-03-18T13:03:15Z</time>
      </trkpt>
      <trkpt lat="44.11989" lon="2.96072">
        <ele>625</ele>
        <time>2014-03-18T13:03:19Z</time>
      </trkpt>
      <trkpt lat="44.1199" lon="2.96079">
        <ele>627</ele>
        <time>2014-03-18T13:03:23Z</time>
      </trkpt>
      <trkpt lat="44.11988" lon="2.96086">
        <ele>627</ele>
        <time>2014-03-18T13:03:29Z</time>
      </trkpt>
      <trkpt lat="44.11985" lon="2.96092">
        <ele>628</ele>
        <time>2014-03-18T13:03:34Z</time>
      </trkpt>
      <trkpt lat="44.11984" lon="2.96099">
        <ele>629</ele>
        <time>2014-03-18T13:03:37Z</time>
      </trkpt>
      <trkpt lat="44.11983" lon="2.96105">
        <ele>631</ele>
        <time>2014-03-18T13:03:43Z</time>
      </trkpt>
      <trkpt lat="44.1198" lon="2.96112">
        <ele>632</ele>
        <time>2014-03-18T13:03:47Z</time>
      </trkpt>
      <trkpt lat="44.11979" lon="2.96119">
        <ele>634</ele>
        <time>2014-03-18T13:03:50Z</time>
      </trkpt>
      <trkpt lat="44.11976" lon="2.96126">
        <ele>635</ele>
        <time>2014-03-18T13:03:53Z</time>
      </trkpt>
      <trkpt lat="44.11975" lon="2.96134">
        <ele>637</ele>
        <time>2014-03-18T13:03:56Z</time>
      </trkpt>
      <trkpt lat="44.11974" lon="2.96141">
        <ele>638</ele>
        <time>2014-03-18T13:03:59Z</time>
      </trkpt>
      <trkpt lat="44.11973" lon="2.9615">
        <ele>640</ele>
        <time>2014-03-18T13:04:03Z</time>
      </trkpt>
      <trkpt lat="44.11973" lon="2.96157">
        <ele>641</ele>
        <time>2014-03-18T13:04:06Z</time>
      </trkpt>
      <trkpt lat="44.11968" lon="2.96162">
        <ele>641</ele>
        <time>2014-03-18T13:04:10Z</time>
      </trkpt>
      <trkpt lat="44.11966" lon="2.96167">
        <ele>641</ele>
        <time>2014-03-18T13:04:14Z</time>
      </trkpt>
      <trkpt lat="44.11964" lon="2.96174">
        <ele>641</ele>
        <time>2014-03-18T13:04:17Z</time>
      </trkpt>
      <trkpt lat="44.11961" lon="2.96181">
        <ele>641</ele>
        <time>2014-03-18T13:04:20Z</time>
      </trkpt>
      <trkpt lat="44.11958" lon="2.96185">
        <ele>641</ele>
        <time>2014-03-18T13:04:27Z</time>
      </trkpt>
      <trkpt lat="44.11956" lon="2.96193">
        <ele>642</ele>
        <time>2014-03-18T13:04:31Z</time>
      </trkpt>
      <trkpt lat="44.11952" lon="2.96199">
        <ele>642</ele>
        <time>2014-03-18T13:04:35Z</time>
      </trkpt>
      <trkpt lat="44.1195" lon="2.96206">
        <ele>642</ele>
        <time>2014-03-18T13:04:38Z</time>
      </trkpt>
      <trkpt lat="44.11947" lon="2.96211">
        <ele>642</ele>
        <time>2014-03-18T13:04:41Z</time>
      </trkpt>
      <trkpt lat="44.11942" lon="2.96216">
        <ele>640</ele>
        <time>2014-03-18T13:04:52Z</time>
      </trkpt>
      <trkpt lat="44.11938" lon="2.96221">
        <ele>639</ele>
        <time>2014-03-18T13:04:56Z</time>
      </trkpt>
      <trkpt lat="44.11934" lon="2.96227">
        <ele>640</ele>
        <time>2014-03-18T13:04:59Z</time>
      </trkpt>
      <trkpt lat="44.11931" lon="2.96233">
        <ele>640</ele>
        <time>2014-03-18T13:05:03Z</time>
      </trkpt>
      <trkpt lat="44.11927" lon="2.96237">
        <ele>639</ele>
        <time>2014-03-18T13:05:06Z</time>
      </trkpt>
      <trkpt lat="44.11924" lon="2.96241">
        <ele>638</ele>
        <time>2014-03-18T13:05:09Z</time>
      </trkpt>
      <trkpt lat="44.11921" lon="2.96247">
        <ele>638</ele>
        <time>2014-03-18T13:05:12Z</time>
      </trkpt>
      <trkpt lat="44.11918" lon="2.96253">
        <ele>639</ele>
        <time>2014-03-18T13:05:16Z</time>
      </trkpt>
      <trkpt lat="44.11914" lon="2.96258">
        <ele>642</ele>
        <time>2014-03-18T13:05:21Z</time>
      </trkpt>
      <trkpt lat="44.11912" lon="2.96264">
        <ele>642</ele>
        <time>2014-03-18T13:05:27Z</time>
      </trkpt>
      <trkpt lat="44.1191" lon="2.96271">
        <ele>643</ele>
        <time>2014-03-18T13:05:30Z</time>
      </trkpt>
      <trkpt lat="44.11907" lon="2.96276">
        <ele>644</ele>
        <time>2014-03-18T13:05:34Z</time>
      </trkpt>
      <trkpt lat="44.11906" lon="2.96282">
        <ele>645</ele>
        <time>2014-03-18T13:05:36Z</time>
      </trkpt>
      <trkpt lat="44.11903" lon="2.96288">
        <ele>646</ele>
        <time>2014-03-18T13:05:39Z</time>
      </trkpt>
      <trkpt lat="44.11899" lon="2.96294">
        <ele>648</ele>
        <time>2014-03-18T13:05:43Z</time>
      </trkpt>
      <trkpt lat="44.11896" lon="2.96301">
        <ele>649</ele>
        <time>2014-03-18T13:05:48Z</time>
      </trkpt>
      <trkpt lat="44.11893" lon="2.96307">
        <ele>650</ele>
        <time>2014-03-18T13:05:52Z</time>
      </trkpt>
      <trkpt lat="44.1189" lon="2.96314">
        <ele>651</ele>
        <time>2014-03-18T13:05:55Z</time>
      </trkpt>
      <trkpt lat="44.11888" lon="2.96321">
        <ele>652</ele>
        <time>2014-03-18T13:05:58Z</time>
      </trkpt>
      <trkpt lat="44.11887" lon="2.96328">
        <ele>652</ele>
        <time>2014-03-18T13:06:01Z</time>
      </trkpt>
      <trkpt lat="44.11884" lon="2.96334">
        <ele>652</ele>
        <time>2014-03-18T13:06:07Z</time>
      </trkpt>
      <trkpt lat="44.11881" lon="2.9634">
        <ele>652</ele>
        <time>2014-03-18T13:06:12Z</time>
      </trkpt>
      <trkpt lat="44.11878" lon="2.96346">
        <ele>652</ele>
        <time>2014-03-18T13:06:15Z</time>
      </trkpt>
      <trkpt lat="44.11874" lon="2.96351">
        <ele>653</ele>
        <time>2014-03-18T13:06:19Z</time>
      </trkpt>
      <trkpt lat="44.11871" lon="2.96357">
        <ele>653</ele>
        <time>2014-03-18T13:06:23Z</time>
      </trkpt>
      <trkpt lat="44.11868" lon="2.96362">
        <ele>653</ele>
        <time>2014-03-18T13:06:27Z</time>
      </trkpt>
      <trkpt lat="44.11865" lon="2.96369">
        <ele>653</ele>
        <time>2014-03-18T13:06:32Z</time>
      </trkpt>
      <trkpt lat="44.11862" lon="2.96374">
        <ele>654</ele>
        <time>2014-03-18T13:06:36Z</time>
      </trkpt>
      <trkpt lat="44.11858" lon="2.96379">
        <ele>654</ele>
        <time>2014-03-18T13:06:39Z</time>
      </trkpt>
      <trkpt lat="44.11855" lon="2.96385">
        <ele>654</ele>
        <time>2014-03-18T13:06:43Z</time>
      </trkpt>
      <trkpt lat="44.11851" lon="2.96389">
        <ele>655</ele>
        <time>2014-03-18T13:06:48Z</time>
      </trkpt>
      <trkpt lat="44.11849" lon="2.96395">
        <ele>656</ele>
        <time>2014-03-18T13:06:53Z</time>
      </trkpt>
      <trkpt lat="44.11847" lon="2.96403">
        <ele>659</ele>
        <time>2014-03-18T13:06:57Z</time>
      </trkpt>
      <trkpt lat="44.11846" lon="2.96412">
        <ele>661</ele>
        <time>2014-03-18T13:07:00Z</time>
      </trkpt>
      <trkpt lat="44.11845" lon="2.96418">
        <ele>663</ele>
        <time>2014-03-18T13:07:04Z</time>
      </trkpt>
      <trkpt lat="44.11841" lon="2.96425">
        <ele>663</ele>
        <time>2014-03-18T13:07:09Z</time>
      </trkpt>
      <trkpt lat="44.11838" lon="2.96432">
        <ele>664</ele>
        <time>2014-03-18T13:07:12Z</time>
      </trkpt>
      <trkpt lat="44.11835" lon="2.96438">
        <ele>665</ele>
        <time>2014-03-18T13:07:16Z</time>
      </trkpt>
      <trkpt lat="44.11834" lon="2.96445">
        <ele>665</ele>
        <time>2014-03-18T13:07:20Z</time>
      </trkpt>
      <trkpt lat="44.11832" lon="2.96452">
        <ele>666</ele>
        <time>2014-03-18T13:07:24Z</time>
      </trkpt>
      <trkpt lat="44.11829" lon="2.96457">
        <ele>666</ele>
        <time>2014-03-18T13:07:29Z</time>
      </trkpt>
      <trkpt lat="44.11827" lon="2.96463">
        <ele>666</ele>
        <time>2014-03-18T13:07:32Z</time>
      </trkpt>
      <trkpt lat="44.11824" lon="2.96471">
        <ele>667</ele>
        <time>2014-03-18T13:07:35Z</time>
      </trkpt>
      <trkpt lat="44.11822" lon="2.96477">
        <ele>667</ele>
        <time>2014-03-18T13:07:38Z</time>
      </trkpt>
      <trkpt lat="44.1182" lon="2.96483">
        <ele>667</ele>
        <time>2014-03-18T13:07:43Z</time>
      </trkpt>
      <trkpt lat="44.11817" lon="2.9649">
        <ele>668</ele>
        <time>2014-03-18T13:07:47Z</time>
      </trkpt>
      <trkpt lat="44.11816" lon="2.96496">
        <ele>668</ele>
        <time>2014-03-18T13:07:51Z</time>
      </trkpt>
      <trkpt lat="44.11815" lon="2.96503">
        <ele>668</ele>
        <time>2014-03-18T13:07:54Z</time>
      </trkpt>
      <trkpt lat="44.11813" lon="2.96508">
        <ele>669</ele>
        <time>2014-03-18T13:07:58Z</time>
      </trkpt>
      <trkpt lat="44.11811" lon="2.96515">
        <ele>669</ele>
        <time>2014-03-18T13:08:02Z</time>
      </trkpt>
      <trkpt lat="44.11809" lon="2.9652">
        <ele>670</ele>
        <time>2014-03-18T13:08:06Z</time>
      </trkpt>
      <trkpt lat="44.11805" lon="2.96524">
        <ele>669</ele>
        <time>2014-03-18T13:08:12Z</time>
      </trkpt>
      <trkpt lat="44.11802" lon="2.9653">
        <ele>668</ele>
        <time>2014-03-18T13:08:16Z</time>
      </trkpt>
      <trkpt lat="44.11799" lon="2.96534">
        <ele>668</ele>
        <time>2014-03-18T13:08:20Z</time>
      </trkpt>
      <trkpt lat="44.11796" lon="2.96541">
        <ele>668</ele>
        <time>2014-03-18T13:08:24Z</time>
      </trkpt>
      <trkpt lat="44.11795" lon="2.96548">
        <ele>669</ele>
        <time>2014-03-18T13:08:27Z</time>
      </trkpt>
      <trkpt lat="44.11793" lon="2.96555">
        <ele>669</ele>
        <time>2014-03-18T13:08:30Z</time>
      </trkpt>
      <trkpt lat="44.11791" lon="2.96561">
        <ele>670</ele>
        <time>2014-03-18T13:08:34Z</time>
      </trkpt>
      <trkpt lat="44.1179" lon="2.96567">
        <ele>671</ele>
        <time>2014-03-18T13:08:37Z</time>
      </trkpt>
      <trkpt lat="44.11788" lon="2.96574">
        <ele>673</ele>
        <time>2014-03-18T13:08:40Z</time>
      </trkpt>
      <trkpt lat="44.11787" lon="2.9658">
        <ele>674</ele>
        <time>2014-03-18T13:08:43Z</time>
      </trkpt>
      <trkpt lat="44.11786" lon="2.96589">
        <ele>677</ele>
        <time>2014-03-18T13:08:47Z</time>
      </trkpt>
      <trkpt lat="44.11785" lon="2.96596">
        <ele>679</ele>
        <time>2014-03-18T13:08:50Z</time>
      </trkpt>
      <trkpt lat="44.11781" lon="2.96601">
        <ele>680</ele>
        <time>2014-03-18T13:08:54Z</time>
      </trkpt>
      <trkpt lat="44.11779" lon="2.96607">
        <ele>680</ele>
        <time>2014-03-18T13:08:59Z</time>
      </trkpt>
      <trkpt lat="44.11778" lon="2.96615">
        <ele>682</ele>
        <time>2014-03-18T13:09:02Z</time>
      </trkpt>
      <trkpt lat="44.11775" lon="2.96621">
        <ele>685</ele>
        <time>2014-03-18T13:09:05Z</time>
      </trkpt>
      <trkpt lat="44.11773" lon="2.96628">
        <ele>687</ele>
        <time>2014-03-18T13:09:09Z</time>
      </trkpt>
      <trkpt lat="44.11765" lon="2.96632">
        <ele>687</ele>
        <time>2014-03-18T13:09:13Z</time>
      </trkpt>
      <trkpt lat="44.1176" lon="2.96634">
        <ele>685</ele>
        <time>2014-03-18T13:09:17Z</time>
      </trkpt>
      <trkpt lat="44.11765" lon="2.96642">
        <ele>685</ele>
        <time>2014-03-18T13:09:19Z</time>
      </trkpt>
      <trkpt lat="44.11761" lon="2.96646">
        <ele>687</ele>
        <time>2014-03-18T13:09:23Z</time>
      </trkpt>
      <trkpt lat="44.11758" lon="2.96651">
        <ele>688</ele>
        <time>2014-03-18T13:09:26Z</time>
      </trkpt>
      <trkpt lat="44.11753" lon="2.96648">
        <ele>688</ele>
        <time>2014-03-18T13:09:28Z</time>
      </trkpt>
      <trkpt lat="44.11751" lon="2.96654">
        <ele>689</ele>
        <time>2014-03-18T13:09:32Z</time>
      </trkpt>
      <trkpt lat="44.11749" lon="2.9666">
        <ele>690</ele>
        <time>2014-03-18T13:09:35Z</time>
      </trkpt>
      <trkpt lat="44.11745" lon="2.96664">
        <ele>691</ele>
        <time>2014-03-18T13:09:40Z</time>
      </trkpt>
      <trkpt lat="44.1174" lon="2.96664">
        <ele>692</ele>
        <time>2014-03-18T13:09:42Z</time>
      </trkpt>
      <trkpt lat="44.11735" lon="2.96665">
        <ele>692</ele>
        <time>2014-03-18T13:09:45Z</time>
      </trkpt>
      <trkpt lat="44.11731" lon="2.96671">
        <ele>692</ele>
        <time>2014-03-18T13:09:49Z</time>
      </trkpt>
      <trkpt lat="44.11728" lon="2.96676">
        <ele>692</ele>
        <time>2014-03-18T13:09:52Z</time>
      </trkpt>
      <trkpt lat="44.11724" lon="2.96679">
        <ele>693</ele>
        <time>2014-03-18T13:09:56Z</time>
      </trkpt>
      <trkpt lat="44.11719" lon="2.96682">
        <ele>694</ele>
        <time>2014-03-18T13:10:00Z</time>
      </trkpt>
      <trkpt lat="44.11715" lon="2.96686">
        <ele>695</ele>
        <time>2014-03-18T13:10:04Z</time>
      </trkpt>
      <trkpt lat="44.11711" lon="2.96691">
        <ele>696</ele>
        <time>2014-03-18T13:10:08Z</time>
      </trkpt>
      <trkpt lat="44.11707" lon="2.96693">
        <ele>696</ele>
        <time>2014-03-18T13:10:12Z</time>
      </trkpt>
      <trkpt lat="44.11701" lon="2.96695">
        <ele>694</ele>
        <time>2014-03-18T13:10:19Z</time>
      </trkpt>
      <trkpt lat="44.11695" lon="2.96698">
        <ele>694</ele>
        <time>2014-03-18T13:10:23Z</time>
      </trkpt>
      <trkpt lat="44.11689" lon="2.96702">
        <ele>694</ele>
        <time>2014-03-18T13:10:26Z</time>
      </trkpt>
      <trkpt lat="44.11685" lon="2.96707">
        <ele>693</ele>
        <time>2014-03-18T13:10:30Z</time>
      </trkpt>
      <trkpt lat="44.11682" lon="2.96713">
        <ele>692</ele>
        <time>2014-03-18T13:10:34Z</time>
      </trkpt>
      <trkpt lat="44.11679" lon="2.9672">
        <ele>693</ele>
        <time>2014-03-18T13:10:38Z</time>
      </trkpt>
      <trkpt lat="44.11676" lon="2.96726">
        <ele>694</ele>
        <time>2014-03-18T13:10:42Z</time>
      </trkpt>
      <trkpt lat="44.11674" lon="2.96732">
        <ele>694</ele>
        <time>2014-03-18T13:10:47Z</time>
      </trkpt>
      <trkpt lat="44.11673" lon="2.96738">
        <ele>693</ele>
        <time>2014-03-18T13:10:52Z</time>
      </trkpt>
      <trkpt lat="44.11672" lon="2.96746">
        <ele>693</ele>
        <time>2014-03-18T13:10:55Z</time>
      </trkpt>
      <trkpt lat="44.11671" lon="2.96752">
        <ele>693</ele>
        <time>2014-03-18T13:10:58Z</time>
      </trkpt>
      <trkpt lat="44.11668" lon="2.96759">
        <ele>693</ele>
        <time>2014-03-18T13:11:02Z</time>
      </trkpt>
      <trkpt lat="44.11667" lon="2.96767">
        <ele>694</ele>
        <time>2014-03-18T13:11:06Z</time>
      </trkpt>
      <trkpt lat="44.11665" lon="2.96773">
        <ele>695</ele>
        <time>2014-03-18T13:11:09Z</time>
      </trkpt>
      <trkpt lat="44.11663" lon="2.96779">
        <ele>696</ele>
        <time>2014-03-18T13:11:13Z</time>
      </trkpt>
      <trkpt lat="44.11661" lon="2.96785">
        <ele>696</ele>
        <time>2014-03-18T13:11:15Z</time>
      </trkpt>
      <trkpt lat="44.1166" lon="2.96793">
        <ele>697</ele>
        <time>2014-03-18T13:11:20Z</time>
      </trkpt>
      <trkpt lat="44.11657" lon="2.96797">
        <ele>696</ele>
        <time>2014-03-18T13:11:22Z</time>
      </trkpt>
      <trkpt lat="44.11654" lon="2.96802">
        <ele>695</ele>
        <time>2014-03-18T13:11:26Z</time>
      </trkpt>
      <trkpt lat="44.11652" lon="2.96808">
        <ele>695</ele>
        <time>2014-03-18T13:11:29Z</time>
      </trkpt>
      <trkpt lat="44.1165" lon="2.96815">
        <ele>695</ele>
        <time>2014-03-18T13:11:33Z</time>
      </trkpt>
      <trkpt lat="44.11648" lon="2.96823">
        <ele>696</ele>
        <time>2014-03-18T13:11:37Z</time>
      </trkpt>
      <trkpt lat="44.11647" lon="2.9683">
        <ele>697</ele>
        <time>2014-03-18T13:11:40Z</time>
      </trkpt>
      <trkpt lat="44.1165" lon="2.96836">
        <ele>698</ele>
        <time>2014-03-18T13:11:44Z</time>
      </trkpt>
      <trkpt lat="44.11647" lon="2.96842">
        <ele>698</ele>
        <time>2014-03-18T13:11:50Z</time>
      </trkpt>
      <trkpt lat="44.11644" lon="2.96847">
        <ele>698</ele>
        <time>2014-03-18T13:11:53Z</time>
      </trkpt>
      <trkpt lat="44.11642" lon="2.96853">
        <ele>698</ele>
        <time>2014-03-18T13:11:57Z</time>
      </trkpt>
      <trkpt lat="44.11639" lon="2.96861">
        <ele>699</ele>
        <time>2014-03-18T13:12:00Z</time>
      </trkpt>
      <trkpt lat="44.11637" lon="2.96868">
        <ele>700</ele>
        <time>2014-03-18T13:12:03Z</time>
      </trkpt>
      <trkpt lat="44.11634" lon="2.96874">
        <ele>703</ele>
        <time>2014-03-18T13:12:08Z</time>
      </trkpt>
      <trkpt lat="44.11631" lon="2.9688">
        <ele>704</ele>
        <time>2014-03-18T13:12:11Z</time>
      </trkpt>
      <trkpt lat="44.11627" lon="2.96886">
        <ele>707</ele>
        <time>2014-03-18T13:12:15Z</time>
      </trkpt>
      <trkpt lat="44.11623" lon="2.9689">
        <ele>707</ele>
        <time>2014-03-18T13:12:19Z</time>
      </trkpt>
      <trkpt lat="44.11621" lon="2.96897">
        <ele>708</ele>
        <time>2014-03-18T13:12:23Z</time>
      </trkpt>
      <trkpt lat="44.11618" lon="2.96901">
        <ele>708</ele>
        <time>2014-03-18T13:12:27Z</time>
      </trkpt>
      <trkpt lat="44.11614" lon="2.96904">
        <ele>707</ele>
        <time>2014-03-18T13:12:31Z</time>
      </trkpt>
      <trkpt lat="44.1161" lon="2.96909">
        <ele>707</ele>
        <time>2014-03-18T13:12:35Z</time>
      </trkpt>
      <trkpt lat="44.11606" lon="2.96913">
        <ele>707</ele>
        <time>2014-03-18T13:12:39Z</time>
      </trkpt>
      <trkpt lat="44.11603" lon="2.96918">
        <ele>706</ele>
        <time>2014-03-18T13:12:44Z</time>
      </trkpt>
      <trkpt lat="44.11601" lon="2.96925">
        <ele>707</ele>
        <time>2014-03-18T13:12:46Z</time>
      </trkpt>
      <trkpt lat="44.11598" lon="2.96932">
        <ele>709</ele>
        <time>2014-03-18T13:12:50Z</time>
      </trkpt>
      <trkpt lat="44.11596" lon="2.96939">
        <ele>710</ele>
        <time>2014-03-18T13:12:53Z</time>
      </trkpt>
      <trkpt lat="44.11593" lon="2.96945">
        <ele>710</ele>
        <time>2014-03-18T13:12:57Z</time>
      </trkpt>
      <trkpt lat="44.11594" lon="2.96951">
        <ele>710</ele>
        <time>2014-03-18T13:13:01Z</time>
      </trkpt>
      <trkpt lat="44.11596" lon="2.96956">
        <ele>710</ele>
        <time>2014-03-18T13:13:04Z</time>
      </trkpt>
      <trkpt lat="44.11603" lon="2.96962">
        <ele>711</ele>
        <time>2014-03-18T13:13:09Z</time>
      </trkpt>
      <trkpt lat="44.11608" lon="2.96964">
        <ele>709</ele>
        <time>2014-03-18T13:13:11Z</time>
      </trkpt>
      <trkpt lat="44.11613" lon="2.96968">
        <ele>709</ele>
        <time>2014-03-18T13:13:15Z</time>
      </trkpt>
      <trkpt lat="44.11619" lon="2.96967">
        <ele>710</ele>
        <time>2014-03-18T13:13:19Z</time>
      </trkpt>
      <trkpt lat="44.11624" lon="2.96968">
        <ele>710</ele>
        <time>2014-03-18T13:13:27Z</time>
      </trkpt>
      <trkpt lat="44.11628" lon="2.96965">
        <ele>712</ele>
        <time>2014-03-18T13:13:37Z</time>
      </trkpt>
      <trkpt lat="44.11631" lon="2.96964">
        <ele>712</ele>
        <time>2014-03-18T13:13:43Z</time>
      </trkpt>
      <trkpt lat="44.11631" lon="2.96962">
        <ele>712</ele>
        <time>2014-03-18T13:15:44Z</time>
      </trkpt>
      <trkpt lat="44.11635" lon="2.96959">
        <ele>712</ele>
        <time>2014-03-18T13:15:49Z</time>
      </trkpt>
      <trkpt lat="44.11638" lon="2.96954">
        <ele>712</ele>
        <time>2014-03-18T13:15:54Z</time>
      </trkpt>
      <trkpt lat="44.11643" lon="2.96951">
        <ele>710</ele>
        <time>2014-03-18T13:15:58Z</time>
      </trkpt>
      <trkpt lat="44.11649" lon="2.96947">
        <ele>708</ele>
        <time>2014-03-18T13:16:02Z</time>
      </trkpt>
      <trkpt lat="44.11653" lon="2.96945">
        <ele>707</ele>
        <time>2014-03-18T13:16:05Z</time>
      </trkpt>
      <trkpt lat="44.11658" lon="2.96941">
        <ele>707</ele>
        <time>2014-03-18T13:16:09Z</time>
      </trkpt>
      <trkpt lat="44.11661" lon="2.96936">
        <ele>707</ele>
        <time>2014-03-18T13:16:16Z</time>
      </trkpt>
      <trkpt lat="44.11666" lon="2.96934">
        <ele>707</ele>
        <time>2014-03-18T13:16:19Z</time>
      </trkpt>
      <trkpt lat="44.11672" lon="2.96933">
        <ele>708</ele>
        <time>2014-03-18T13:16:23Z</time>
      </trkpt>
      <trkpt lat="44.11677" lon="2.96932">
        <ele>709</ele>
        <time>2014-03-18T13:16:25Z</time>
      </trkpt>
      <trkpt lat="44.11681" lon="2.96929">
        <ele>710</ele>
        <time>2014-03-18T13:16:29Z</time>
      </trkpt>
      <trkpt lat="44.11685" lon="2.96924">
        <ele>711</ele>
        <time>2014-03-18T13:16:31Z</time>
      </trkpt>
      <trkpt lat="44.11687" lon="2.96919">
        <ele>712</ele>
        <time>2014-03-18T13:16:34Z</time>
      </trkpt>
      <trkpt lat="44.11692" lon="2.96915">
        <ele>713</ele>
        <time>2014-03-18T13:16:40Z</time>
      </trkpt>
      <trkpt lat="44.11697" lon="2.96913">
        <ele>713</ele>
        <time>2014-03-18T13:16:46Z</time>
      </trkpt>
      <trkpt lat="44.11702" lon="2.96912">
        <ele>713</ele>
        <time>2014-03-18T13:16:49Z</time>
      </trkpt>
      <trkpt lat="44.11708" lon="2.96912">
        <ele>714</ele>
        <time>2014-03-18T13:16:52Z</time>
      </trkpt>
      <trkpt lat="44.11713" lon="2.96911">
        <ele>715</ele>
        <time>2014-03-18T13:16:55Z</time>
      </trkpt>
      <trkpt lat="44.11718" lon="2.9691">
        <ele>716</ele>
        <time>2014-03-18T13:16:59Z</time>
      </trkpt>
      <trkpt lat="44.11723" lon="2.96907">
        <ele>716</ele>
        <time>2014-03-18T13:17:02Z</time>
      </trkpt>
      <trkpt lat="44.11728" lon="2.96904">
        <ele>716</ele>
        <time>2014-03-18T13:17:07Z</time>
      </trkpt>
      <trkpt lat="44.11733" lon="2.96903">
        <ele>716</ele>
        <time>2014-03-18T13:17:12Z</time>
      </trkpt>
      <trkpt lat="44.11738" lon="2.969">
        <ele>716</ele>
        <time>2014-03-18T13:17:17Z</time>
      </trkpt>
      <trkpt lat="44.11742" lon="2.96898">
        <ele>716</ele>
        <time>2014-03-18T13:17:21Z</time>
      </trkpt>
      <trkpt lat="44.11747" lon="2.96895">
        <ele>717</ele>
        <time>2014-03-18T13:17:26Z</time>
      </trkpt>
      <trkpt lat="44.11752" lon="2.96893">
        <ele>718</ele>
        <time>2014-03-18T13:17:31Z</time>
      </trkpt>
      <trkpt lat="44.11757" lon="2.96893">
        <ele>718</ele>
        <time>2014-03-18T13:17:37Z</time>
      </trkpt>
      <trkpt lat="44.11762" lon="2.96892">
        <ele>718</ele>
        <time>2014-03-18T13:17:43Z</time>
      </trkpt>
      <trkpt lat="44.11767" lon="2.96891">
        <ele>719</ele>
        <time>2014-03-18T13:17:47Z</time>
      </trkpt>
      <trkpt lat="44.11772" lon="2.96892">
        <ele>719</ele>
        <time>2014-03-18T13:17:53Z</time>
      </trkpt>
      <trkpt lat="44.11777" lon="2.96894">
        <ele>720</ele>
        <time>2014-03-18T13:18:00Z</time>
      </trkpt>
      <trkpt lat="44.11781" lon="2.96896">
        <ele>721</ele>
        <time>2014-03-18T13:18:06Z</time>
      </trkpt>
      <trkpt lat="44.11784" lon="2.96901">
        <ele>721</ele>
        <time>2014-03-18T13:18:22Z</time>
      </trkpt>
      <trkpt lat="44.1179" lon="2.96903">
        <ele>722</ele>
        <time>2014-03-18T13:18:25Z</time>
      </trkpt>
      <trkpt lat="44.11794" lon="2.96898">
        <ele>722</ele>
        <time>2014-03-18T13:18:32Z</time>
      </trkpt>
      <trkpt lat="44.118" lon="2.96897">
        <ele>721</ele>
        <time>2014-03-18T13:18:35Z</time>
      </trkpt>
      <trkpt lat="44.11806" lon="2.969">
        <ele>721</ele>
        <time>2014-03-18T13:18:38Z</time>
      </trkpt>
      <trkpt lat="44.1181" lon="2.96903">
        <ele>722</ele>
        <time>2014-03-18T13:18:41Z</time>
      </trkpt>
      <trkpt lat="44.11814" lon="2.96905">
        <ele>722</ele>
        <time>2014-03-18T13:18:47Z</time>
      </trkpt>
      <trkpt lat="44.11818" lon="2.96909">
        <ele>722</ele>
        <time>2014-03-18T13:18:50Z</time>
      </trkpt>
      <trkpt lat="44.1182" lon="2.96916">
        <ele>719</ele>
        <time>2014-03-18T13:18:56Z</time>
      </trkpt>
      <trkpt lat="44.11821" lon="2.96923">
        <ele>719</ele>
        <time>2014-03-18T13:18:59Z</time>
      </trkpt>
      <trkpt lat="44.11825" lon="2.96929">
        <ele>717</ele>
        <time>2014-03-18T13:19:03Z</time>
      </trkpt>
      <trkpt lat="44.11829" lon="2.96932">
        <ele>715</ele>
        <time>2014-03-18T13:19:06Z</time>
      </trkpt>
      <trkpt lat="44.11832" lon="2.96938">
        <ele>715</ele>
        <time>2014-03-18T13:19:10Z</time>
      </trkpt>
      <trkpt lat="44.11836" lon="2.96942">
        <ele>716</ele>
        <time>2014-03-18T13:19:14Z</time>
      </trkpt>
      <trkpt lat="44.11839" lon="2.96947">
        <ele>716</ele>
        <time>2014-03-18T13:19:19Z</time>
      </trkpt>
      <trkpt lat="44.11844" lon="2.9695">
        <ele>718</ele>
        <time>2014-03-18T13:19:25Z</time>
      </trkpt>
      <trkpt lat="44.11851" lon="2.96948">
        <ele>719</ele>
        <time>2014-03-18T13:19:29Z</time>
      </trkpt>
      <trkpt lat="44.11855" lon="2.96944">
        <ele>718</ele>
        <time>2014-03-18T13:19:33Z</time>
      </trkpt>
      <trkpt lat="44.11857" lon="2.96938">
        <ele>718</ele>
        <time>2014-03-18T13:19:37Z</time>
      </trkpt>
      <trkpt lat="44.11859" lon="2.96932">
        <ele>717</ele>
        <time>2014-03-18T13:19:41Z</time>
      </trkpt>
      <trkpt lat="44.11859" lon="2.96925">
        <ele>717</ele>
        <time>2014-03-18T13:19:44Z</time>
      </trkpt>
      <trkpt lat="44.11859" lon="2.96917">
        <ele>716</ele>
        <time>2014-03-18T13:19:48Z</time>
      </trkpt>
      <trkpt lat="44.11859" lon="2.9691">
        <ele>715</ele>
        <time>2014-03-18T13:19:51Z</time>
      </trkpt>
      <trkpt lat="44.11857" lon="2.96903">
        <ele>715</ele>
        <time>2014-03-18T13:19:56Z</time>
      </trkpt>
      <trkpt lat="44.11856" lon="2.96895">
        <ele>714</ele>
        <time>2014-03-18T13:20:00Z</time>
      </trkpt>
      <trkpt lat="44.11857" lon="2.96888">
        <ele>713</ele>
        <time>2014-03-18T13:20:04Z</time>
      </trkpt>
      <trkpt lat="44.11858" lon="2.9688">
        <ele>712</ele>
        <time>2014-03-18T13:20:08Z</time>
      </trkpt>
      <trkpt lat="44.11859" lon="2.96872">
        <ele>712</ele>
        <time>2014-03-18T13:20:12Z</time>
      </trkpt>
      <trkpt lat="44.11861" lon="2.96866">
        <ele>711</ele>
        <time>2014-03-18T13:20:15Z</time>
      </trkpt>
      <trkpt lat="44.11864" lon="2.96861">
        <ele>710</ele>
        <time>2014-03-18T13:20:19Z</time>
      </trkpt>
      <trkpt lat="44.11868" lon="2.96858">
        <ele>710</ele>
        <time>2014-03-18T13:20:23Z</time>
      </trkpt>
      <trkpt lat="44.1187" lon="2.96851">
        <ele>709</ele>
        <time>2014-03-18T13:20:28Z</time>
      </trkpt>
      <trkpt lat="44.11871" lon="2.96845">
        <ele>709</ele>
        <time>2014-03-18T13:20:32Z</time>
      </trkpt>
      <trkpt lat="44.11874" lon="2.96839">
        <ele>709</ele>
        <time>2014-03-18T13:20:37Z</time>
      </trkpt>
      <trkpt lat="44.11877" lon="2.96833">
        <ele>709</ele>
        <time>2014-03-18T13:20:43Z</time>
      </trkpt>
      <trkpt lat="44.11877" lon="2.96826">
        <ele>709</ele>
        <time>2014-03-18T13:20:48Z</time>
      </trkpt>
      <trkpt lat="44.11879" lon="2.9682">
        <ele>710</ele>
        <time>2014-03-18T13:20:52Z</time>
      </trkpt>
      <trkpt lat="44.11881" lon="2.96813">
        <ele>711</ele>
        <time>2014-03-18T13:20:56Z</time>
      </trkpt>
      <trkpt lat="44.11884" lon="2.96806">
        <ele>712</ele>
        <time>2014-03-18T13:20:59Z</time>
      </trkpt>
      <trkpt lat="44.11885" lon="2.968">
        <ele>713</ele>
        <time>2014-03-18T13:21:02Z</time>
      </trkpt>
      <trkpt lat="44.11886" lon="2.96793">
        <ele>713</ele>
        <time>2014-03-18T13:21:05Z</time>
      </trkpt>
      <trkpt lat="44.11889" lon="2.96786">
        <ele>715</ele>
        <time>2014-03-18T13:21:09Z</time>
      </trkpt>
      <trkpt lat="44.11892" lon="2.96781">
        <ele>715</ele>
        <time>2014-03-18T13:21:13Z</time>
      </trkpt>
      <trkpt lat="44.11893" lon="2.96775">
        <ele>716</ele>
        <time>2014-03-18T13:21:18Z</time>
      </trkpt>
      <trkpt lat="44.11893" lon="2.96767">
        <ele>716</ele>
        <time>2014-03-18T13:21:23Z</time>
      </trkpt>
      <trkpt lat="44.11895" lon="2.96761">
        <ele>717</ele>
        <time>2014-03-18T13:21:28Z</time>
      </trkpt>
      <trkpt lat="44.11896" lon="2.96754">
        <ele>717</ele>
        <time>2014-03-18T13:21:34Z</time>
      </trkpt>
      <trkpt lat="44.11899" lon="2.96748">
        <ele>717</ele>
        <time>2014-03-18T13:21:39Z</time>
      </trkpt>
      <trkpt lat="44.11897" lon="2.96742">
        <ele>718</ele>
        <time>2014-03-18T13:21:44Z</time>
      </trkpt>
      <trkpt lat="44.11896" lon="2.9674">
        <ele>720</ele>
        <time>2014-03-18T13:22:17Z</time>
      </trkpt>
      <trkpt lat="44.11895" lon="2.96745">
        <ele>720</ele>
        <time>2014-03-18T13:23:07Z</time>
      </trkpt>
      <trkpt lat="44.119" lon="2.9675">
        <ele>720</ele>
        <time>2014-03-18T13:23:12Z</time>
      </trkpt>
      <trkpt lat="44.11902" lon="2.96757">
        <ele>723</ele>
        <time>2014-03-18T13:23:20Z</time>
      </trkpt>
      <trkpt lat="44.11901" lon="2.96763">
        <ele>724</ele>
        <time>2014-03-18T13:23:23Z</time>
      </trkpt>
      <trkpt lat="44.119" lon="2.9677">
        <ele>724</ele>
        <time>2014-03-18T13:23:26Z</time>
      </trkpt>
      <trkpt lat="44.11898" lon="2.96776">
        <ele>724</ele>
        <time>2014-03-18T13:23:31Z</time>
      </trkpt>
      <trkpt lat="44.11895" lon="2.96781">
        <ele>723</ele>
        <time>2014-03-18T13:23:36Z</time>
      </trkpt>
      <trkpt lat="44.11892" lon="2.96788">
        <ele>723</ele>
        <time>2014-03-18T13:23:40Z</time>
      </trkpt>
      <trkpt lat="44.1189" lon="2.96795">
        <ele>724</ele>
        <time>2014-03-18T13:23:44Z</time>
      </trkpt>
      <trkpt lat="44.11888" lon="2.96803">
        <ele>725</ele>
        <time>2014-03-18T13:23:47Z</time>
      </trkpt>
      <trkpt lat="44.11886" lon="2.96809">
        <ele>725</ele>
        <time>2014-03-18T13:23:50Z</time>
      </trkpt>
      <trkpt lat="44.11882" lon="2.96813">
        <ele>722</ele>
        <time>2014-03-18T13:23:57Z</time>
      </trkpt>
      <trkpt lat="44.1188" lon="2.9682">
        <ele>721</ele>
        <time>2014-03-18T13:24:02Z</time>
      </trkpt>
      <trkpt lat="44.11879" lon="2.96826">
        <ele>722</ele>
        <time>2014-03-18T13:24:08Z</time>
      </trkpt>
      <trkpt lat="44.11876" lon="2.96832">
        <ele>723</ele>
        <time>2014-03-18T13:24:13Z</time>
      </trkpt>
      <trkpt lat="44.11873" lon="2.96839">
        <ele>724</ele>
        <time>2014-03-18T13:24:17Z</time>
      </trkpt>
      <trkpt lat="44.11877" lon="2.96854">
        <ele>724</ele>
        <time>2014-03-18T13:24:20Z</time>
      </trkpt>
      <trkpt lat="44.11875" lon="2.96855">
        <ele>724</ele>
        <time>2014-03-18T13:24:22Z</time>
      </trkpt>
      <trkpt lat="44.11873" lon="2.96861">
        <ele>722</ele>
        <time>2014-03-18T13:24:27Z</time>
      </trkpt>
      <trkpt lat="44.11871" lon="2.96868">
        <ele>721</ele>
        <time>2014-03-18T13:24:32Z</time>
      </trkpt>
      <trkpt lat="44.11868" lon="2.96873">
        <ele>721</ele>
        <time>2014-03-18T13:24:37Z</time>
      </trkpt>
      <trkpt lat="44.11864" lon="2.96875">
        <ele>721</ele>
        <time>2014-03-18T13:24:43Z</time>
      </trkpt>
      <trkpt lat="44.11861" lon="2.96881">
        <ele>721</ele>
        <time>2014-03-18T13:24:48Z</time>
      </trkpt>
      <trkpt lat="44.11858" lon="2.96888">
        <ele>721</ele>
        <time>2014-03-18T13:24:53Z</time>
      </trkpt>
      <trkpt lat="44.11854" lon="2.96891">
        <ele>721</ele>
        <time>2014-03-18T13:24:57Z</time>
      </trkpt>
      <trkpt lat="44.1185" lon="2.96896">
        <ele>723</ele>
        <time>2014-03-18T13:25:02Z</time>
      </trkpt>
      <trkpt lat="44.11846" lon="2.96901">
        <ele>723</ele>
        <time>2014-03-18T13:25:07Z</time>
      </trkpt>
      <trkpt lat="44.11841" lon="2.96897">
        <ele>722</ele>
        <time>2014-03-18T13:25:11Z</time>
      </trkpt>
      <trkpt lat="44.11836" lon="2.96893">
        <ele>721</ele>
        <time>2014-03-18T13:25:14Z</time>
      </trkpt>
      <trkpt lat="44.11832" lon="2.9689">
        <ele>720</ele>
        <time>2014-03-18T13:25:17Z</time>
      </trkpt>
      <trkpt lat="44.11827" lon="2.96887">
        <ele>719</ele>
        <time>2014-03-18T13:25:21Z</time>
      </trkpt>
      <trkpt lat="44.11823" lon="2.96884">
        <ele>718</ele>
        <time>2014-03-18T13:25:25Z</time>
      </trkpt>
      <trkpt lat="44.11818" lon="2.96882">
        <ele>717</ele>
        <time>2014-03-18T13:25:30Z</time>
      </trkpt>
      <trkpt lat="44.11813" lon="2.96878">
        <ele>715</ele>
        <time>2014-03-18T13:25:35Z</time>
      </trkpt>
      <trkpt lat="44.11811" lon="2.96873">
        <ele>714</ele>
        <time>2014-03-18T13:25:40Z</time>
      </trkpt>
      <trkpt lat="44.11807" lon="2.96869">
        <ele>715</ele>
        <time>2014-03-18T13:25:44Z</time>
      </trkpt>
      <trkpt lat="44.11802" lon="2.96864">
        <ele>715</ele>
        <time>2014-03-18T13:25:47Z</time>
      </trkpt>
      <trkpt lat="44.118" lon="2.96859">
        <ele>715</ele>
        <time>2014-03-18T13:25:51Z</time>
      </trkpt>
      <trkpt lat="44.11796" lon="2.96853">
        <ele>715</ele>
        <time>2014-03-18T13:25:57Z</time>
      </trkpt>
      <trkpt lat="44.11792" lon="2.96851">
        <ele>716</ele>
        <time>2014-03-18T13:26:02Z</time>
      </trkpt>
      <trkpt lat="44.11787" lon="2.96851">
        <ele>715</ele>
        <time>2014-03-18T13:26:04Z</time>
      </trkpt>
      <trkpt lat="44.11783" lon="2.96848">
        <ele>714</ele>
        <time>2014-03-18T13:26:09Z</time>
      </trkpt>
      <trkpt lat="44.11779" lon="2.96843">
        <ele>713</ele>
        <time>2014-03-18T13:26:14Z</time>
      </trkpt>
      <trkpt lat="44.11774" lon="2.96842">
        <ele>712</ele>
        <time>2014-03-18T13:26:18Z</time>
      </trkpt>
      <trkpt lat="44.11769" lon="2.96842">
        <ele>713</ele>
        <time>2014-03-18T13:26:21Z</time>
      </trkpt>
      <trkpt lat="44.11766" lon="2.96846">
        <ele>714</ele>
        <time>2014-03-18T13:26:25Z</time>
      </trkpt>
      <trkpt lat="44.11762" lon="2.96852">
        <ele>714</ele>
        <time>2014-03-18T13:26:27Z</time>
      </trkpt>
      <trkpt lat="44.1176" lon="2.96858">
        <ele>714</ele>
        <time>2014-03-18T13:26:31Z</time>
      </trkpt>
      <trkpt lat="44.11758" lon="2.96865">
        <ele>715</ele>
        <time>2014-03-18T13:26:36Z</time>
      </trkpt>
      <trkpt lat="44.11753" lon="2.96867">
        <ele>716</ele>
        <time>2014-03-18T13:26:40Z</time>
      </trkpt>
      <trkpt lat="44.11747" lon="2.96869">
        <ele>717</ele>
        <time>2014-03-18T13:26:44Z</time>
      </trkpt>
      <trkpt lat="44.11744" lon="2.96874">
        <ele>718</ele>
        <time>2014-03-18T13:26:48Z</time>
      </trkpt>
      <trkpt lat="44.1174" lon="2.96878">
        <ele>719</ele>
        <time>2014-03-18T13:26:52Z</time>
      </trkpt>
      <trkpt lat="44.11736" lon="2.96882">
        <ele>720</ele>
        <time>2014-03-18T13:26:57Z</time>
      </trkpt>
      <trkpt lat="44.11733" lon="2.96886">
        <ele>721</ele>
        <time>2014-03-18T13:26:59Z</time>
      </trkpt>
      <trkpt lat="44.11728" lon="2.9689">
        <ele>722</ele>
        <time>2014-03-18T13:27:02Z</time>
      </trkpt>
      <trkpt lat="44.11724" lon="2.96894">
        <ele>721</ele>
        <time>2014-03-18T13:27:06Z</time>
      </trkpt>
      <trkpt lat="44.11721" lon="2.969">
        <ele>722</ele>
        <time>2014-03-18T13:27:10Z</time>
      </trkpt>
      <trkpt lat="44.11719" lon="2.96907">
        <ele>723</ele>
        <time>2014-03-18T13:27:14Z</time>
      </trkpt>
      <trkpt lat="44.11714" lon="2.96912">
        <ele>725</ele>
        <time>2014-03-18T13:27:19Z</time>
      </trkpt>
      <trkpt lat="44.11709" lon="2.96913">
        <ele>727</ele>
        <time>2014-03-18T13:27:21Z</time>
      </trkpt>
      <trkpt lat="44.11704" lon="2.96914">
        <ele>727</ele>
        <time>2014-03-18T13:27:26Z</time>
      </trkpt>
      <trkpt lat="44.11699" lon="2.96913">
        <ele>728</ele>
        <time>2014-03-18T13:27:31Z</time>
      </trkpt>
      <trkpt lat="44.11694" lon="2.96916">
        <ele>729</ele>
        <time>2014-03-18T13:27:35Z</time>
      </trkpt>
      <trkpt lat="44.11689" lon="2.96918">
        <ele>729</ele>
        <time>2014-03-18T13:27:39Z</time>
      </trkpt>
      <trkpt lat="44.11683" lon="2.96921">
        <ele>729</ele>
        <time>2014-03-18T13:27:42Z</time>
      </trkpt>
      <trkpt lat="44.11678" lon="2.96924">
        <ele>728</ele>
        <time>2014-03-18T13:27:45Z</time>
      </trkpt>
      <trkpt lat="44.11674" lon="2.96927">
        <ele>728</ele>
        <time>2014-03-18T13:27:49Z</time>
      </trkpt>
      <trkpt lat="44.11668" lon="2.9693">
        <ele>727</ele>
        <time>2014-03-18T13:27:52Z</time>
      </trkpt>
      <trkpt lat="44.11664" lon="2.96934">
        <ele>727</ele>
        <time>2014-03-18T13:27:57Z</time>
      </trkpt>
      <trkpt lat="44.1166" lon="2.96938">
        <ele>726</ele>
        <time>2014-03-18T13:28:02Z</time>
      </trkpt>
      <trkpt lat="44.11656" lon="2.96941">
        <ele>725</ele>
        <time>2014-03-18T13:28:05Z</time>
      </trkpt>
      <trkpt lat="44.11652" lon="2.96946">
        <ele>725</ele>
        <time>2014-03-18T13:28:08Z</time>
      </trkpt>
      <trkpt lat="44.11648" lon="2.9695">
        <ele>725</ele>
        <time>2014-03-18T13:28:11Z</time>
      </trkpt>
      <trkpt lat="44.11643" lon="2.96955">
        <ele>725</ele>
        <time>2014-03-18T13:28:15Z</time>
      </trkpt>
      <trkpt lat="44.1164" lon="2.96961">
        <ele>724</ele>
        <time>2014-03-18T13:28:18Z</time>
      </trkpt>
      <trkpt lat="44.11637" lon="2.96966">
        <ele>723</ele>
        <time>2014-03-18T13:28:21Z</time>
      </trkpt>
      <trkpt lat="44.11634" lon="2.96971">
        <ele>723</ele>
        <time>2014-03-18T13:28:24Z</time>
      </trkpt>
      <trkpt lat="44.11631" lon="2.96977">
        <ele>722</ele>
        <time>2014-03-18T13:28:28Z</time>
      </trkpt>
      <trkpt lat="44.11628" lon="2.96983">
        <ele>722</ele>
        <time>2014-03-18T13:28:33Z</time>
      </trkpt>
      <trkpt lat="44.11625" lon="2.96989">
        <ele>722</ele>
        <time>2014-03-18T13:28:36Z</time>
      </trkpt>
      <trkpt lat="44.11623" lon="2.96996">
        <ele>723</ele>
        <time>2014-03-18T13:28:39Z</time>
      </trkpt>
      <trkpt lat="44.1162" lon="2.97001">
        <ele>725</ele>
        <time>2014-03-18T13:28:43Z</time>
      </trkpt>
      <trkpt lat="44.11616" lon="2.97006">
        <ele>727</ele>
        <time>2014-03-18T13:28:48Z</time>
      </trkpt>
      <trkpt lat="44.11613" lon="2.97012">
        <ele>727</ele>
        <time>2014-03-18T13:28:52Z</time>
      </trkpt>
      <trkpt lat="44.1161" lon="2.97018">
        <ele>727</ele>
        <time>2014-03-18T13:28:56Z</time>
      </trkpt>
      <trkpt lat="44.11608" lon="2.97025">
        <ele>725</ele>
        <time>2014-03-18T13:29:02Z</time>
      </trkpt>
      <trkpt lat="44.11608" lon="2.97032">
        <ele>724</ele>
        <time>2014-03-18T13:29:05Z</time>
      </trkpt>
      <trkpt lat="44.11605" lon="2.97039">
        <ele>724</ele>
        <time>2014-03-18T13:29:09Z</time>
      </trkpt>
      <trkpt lat="44.11602" lon="2.97044">
        <ele>724</ele>
        <time>2014-03-18T13:29:14Z</time>
      </trkpt>
      <trkpt lat="44.11598" lon="2.97049">
        <ele>725</ele>
        <time>2014-03-18T13:29:17Z</time>
      </trkpt>
      <trkpt lat="44.11596" lon="2.97055">
        <ele>724</ele>
        <time>2014-03-18T13:29:21Z</time>
      </trkpt>
      <trkpt lat="44.11593" lon="2.97061">
        <ele>723</ele>
        <time>2014-03-18T13:29:24Z</time>
      </trkpt>
      <trkpt lat="44.1159" lon="2.97069">
        <ele>723</ele>
        <time>2014-03-18T13:29:28Z</time>
      </trkpt>
      <trkpt lat="44.11588" lon="2.97075">
        <ele>723</ele>
        <time>2014-03-18T13:29:30Z</time>
      </trkpt>
      <trkpt lat="44.11585" lon="2.9708">
        <ele>723</ele>
        <time>2014-03-18T13:29:33Z</time>
      </trkpt>
      <trkpt lat="44.11582" lon="2.97085">
        <ele>723</ele>
        <time>2014-03-18T13:29:39Z</time>
      </trkpt>
      <trkpt lat="44.11579" lon="2.97091">
        <ele>724</ele>
        <time>2014-03-18T13:29:43Z</time>
      </trkpt>
      <trkpt lat="44.11578" lon="2.971">
        <ele>725</ele>
        <time>2014-03-18T13:29:51Z</time>
      </trkpt>
      <trkpt lat="44.11576" lon="2.97107">
        <ele>725</ele>
        <time>2014-03-18T13:29:54Z</time>
      </trkpt>
      <trkpt lat="44.11574" lon="2.97113">
        <ele>725</ele>
        <time>2014-03-18T13:29:57Z</time>
      </trkpt>
      <trkpt lat="44.11573" lon="2.9712">
        <ele>725</ele>
        <time>2014-03-18T13:30:01Z</time>
      </trkpt>
      <trkpt lat="44.11572" lon="2.97126">
        <ele>726</ele>
        <time>2014-03-18T13:30:03Z</time>
      </trkpt>
      <trkpt lat="44.11571" lon="2.97134">
        <ele>726</ele>
        <time>2014-03-18T13:30:05Z</time>
      </trkpt>
      <trkpt lat="44.11571" lon="2.97143">
        <ele>726</ele>
        <time>2014-03-18T13:30:07Z</time>
      </trkpt>
      <trkpt lat="44.1157" lon="2.97149">
        <ele>728</ele>
        <time>2014-03-18T13:30:10Z</time>
      </trkpt>
      <trkpt lat="44.11568" lon="2.97151">
        <ele>729</ele>
        <time>2014-03-18T13:30:11Z</time>
      </trkpt>
      <trkpt lat="44.11564" lon="2.97157">
        <ele>730</ele>
        <time>2014-03-18T13:30:17Z</time>
      </trkpt>
      <trkpt lat="44.11561" lon="2.97164">
        <ele>732</ele>
        <time>2014-03-18T13:30:21Z</time>
      </trkpt>
      <trkpt lat="44.11558" lon="2.9717">
        <ele>731</ele>
        <time>2014-03-18T13:30:25Z</time>
      </trkpt>
      <trkpt lat="44.11558" lon="2.97177">
        <ele>731</ele>
        <time>2014-03-18T13:30:30Z</time>
      </trkpt>
      <trkpt lat="44.11556" lon="2.97184">
        <ele>731</ele>
        <time>2014-03-18T13:30:34Z</time>
      </trkpt>
      <trkpt lat="44.11555" lon="2.97191">
        <ele>730</ele>
        <time>2014-03-18T13:30:38Z</time>
      </trkpt>
      <trkpt lat="44.11553" lon="2.97198">
        <ele>730</ele>
        <time>2014-03-18T13:30:41Z</time>
      </trkpt>
      <trkpt lat="44.11549" lon="2.97204">
        <ele>729</ele>
        <time>2014-03-18T13:30:45Z</time>
      </trkpt>
      <trkpt lat="44.11547" lon="2.97211">
        <ele>729</ele>
        <time>2014-03-18T13:30:49Z</time>
      </trkpt>
      <trkpt lat="44.11545" lon="2.97217">
        <ele>728</ele>
        <time>2014-03-18T13:30:51Z</time>
      </trkpt>
      <trkpt lat="44.11542" lon="2.97223">
        <ele>728</ele>
        <time>2014-03-18T13:30:54Z</time>
      </trkpt>
      <trkpt lat="44.1154" lon="2.9723">
        <ele>727</ele>
        <time>2014-03-18T13:30:58Z</time>
      </trkpt>
      <trkpt lat="44.11538" lon="2.97236">
        <ele>728</ele>
        <time>2014-03-18T13:31:01Z</time>
      </trkpt>
      <trkpt lat="44.11537" lon="2.97243">
        <ele>729</ele>
        <time>2014-03-18T13:31:06Z</time>
      </trkpt>
      <trkpt lat="44.11534" lon="2.97249">
        <ele>730</ele>
        <time>2014-03-18T13:31:10Z</time>
      </trkpt>
      <trkpt lat="44.11533" lon="2.97255">
        <ele>730</ele>
        <time>2014-03-18T13:31:13Z</time>
      </trkpt>
      <trkpt lat="44.11531" lon="2.97262">
        <ele>732</ele>
        <time>2014-03-18T13:31:16Z</time>
      </trkpt>
      <trkpt lat="44.1153" lon="2.97269">
        <ele>733</ele>
        <time>2014-03-18T13:31:19Z</time>
      </trkpt>
      <trkpt lat="44.11528" lon="2.97275">
        <ele>733</ele>
        <time>2014-03-18T13:31:23Z</time>
      </trkpt>
      <trkpt lat="44.11526" lon="2.97281">
        <ele>733</ele>
        <time>2014-03-18T13:31:29Z</time>
      </trkpt>
      <trkpt lat="44.11523" lon="2.97288">
        <ele>733</ele>
        <time>2014-03-18T13:31:32Z</time>
      </trkpt>
      <trkpt lat="44.11522" lon="2.97294">
        <ele>734</ele>
        <time>2014-03-18T13:31:36Z</time>
      </trkpt>
      <trkpt lat="44.1152" lon="2.973">
        <ele>734</ele>
        <time>2014-03-18T13:31:39Z</time>
      </trkpt>
      <trkpt lat="44.11518" lon="2.97307">
        <ele>735</ele>
        <time>2014-03-18T13:31:43Z</time>
      </trkpt>
      <trkpt lat="44.11516" lon="2.97312">
        <ele>735</ele>
        <time>2014-03-18T13:31:45Z</time>
      </trkpt>
      <trkpt lat="44.11513" lon="2.9732">
        <ele>736</ele>
        <time>2014-03-18T13:31:49Z</time>
      </trkpt>
      <trkpt lat="44.1151" lon="2.97326">
        <ele>737</ele>
        <time>2014-03-18T13:31:53Z</time>
      </trkpt>
      <trkpt lat="44.11508" lon="2.97332">
        <ele>738</ele>
        <time>2014-03-18T13:31:57Z</time>
      </trkpt>
      <trkpt lat="44.11506" lon="2.97339">
        <ele>740</ele>
        <time>2014-03-18T13:32:02Z</time>
      </trkpt>
      <trkpt lat="44.11504" lon="2.97345">
        <ele>740</ele>
        <time>2014-03-18T13:32:05Z</time>
      </trkpt>
      <trkpt lat="44.11504" lon="2.97352">
        <ele>741</ele>
        <time>2014-03-18T13:32:09Z</time>
      </trkpt>
      <trkpt lat="44.115" lon="2.97358">
        <ele>741</ele>
        <time>2014-03-18T13:32:13Z</time>
      </trkpt>
      <trkpt lat="44.11499" lon="2.97364">
        <ele>740</ele>
        <time>2014-03-18T13:32:17Z</time>
      </trkpt>
      <trkpt lat="44.11499" lon="2.97371">
        <ele>740</ele>
        <time>2014-03-18T13:32:20Z</time>
      </trkpt>
      <trkpt lat="44.11493" lon="2.97373">
        <ele>740</ele>
        <time>2014-03-18T13:32:25Z</time>
      </trkpt>
      <trkpt lat="44.11489" lon="2.9737">
        <ele>740</ele>
        <time>2014-03-18T13:32:29Z</time>
      </trkpt>
      <trkpt lat="44.11484" lon="2.97367">
        <ele>743</ele>
        <time>2014-03-18T13:32:33Z</time>
      </trkpt>
      <trkpt lat="44.11485" lon="2.97369">
        <ele>744</ele>
        <time>2014-03-18T13:35:24Z</time>
      </trkpt>
      <trkpt lat="44.1149" lon="2.97368">
        <ele>744</ele>
        <time>2014-03-18T13:35:38Z</time>
      </trkpt>
      <trkpt lat="44.11489" lon="2.97368">
        <ele>742</ele>
        <time>2014-03-18T13:37:09Z</time>
      </trkpt>
      <trkpt lat="44.11486" lon="2.97364">
        <ele>742</ele>
        <time>2014-03-18T13:37:13Z</time>
      </trkpt>
      <trkpt lat="44.1148" lon="2.97365">
        <ele>742</ele>
        <time>2014-03-18T13:37:18Z</time>
      </trkpt>
      <trkpt lat="44.11476" lon="2.9736">
        <ele>743</ele>
        <time>2014-03-18T13:37:22Z</time>
      </trkpt>
      <trkpt lat="44.11471" lon="2.97358">
        <ele>744</ele>
        <time>2014-03-18T13:37:25Z</time>
      </trkpt>
      <trkpt lat="44.11466" lon="2.97357">
        <ele>744</ele>
        <time>2014-03-18T13:37:29Z</time>
      </trkpt>
      <trkpt lat="44.11461" lon="2.97355">
        <ele>745</ele>
        <time>2014-03-18T13:37:33Z</time>
      </trkpt>
      <trkpt lat="44.11456" lon="2.97352">
        <ele>745</ele>
        <time>2014-03-18T13:37:36Z</time>
      </trkpt>
      <trkpt lat="44.11452" lon="2.97347">
        <ele>744</ele>
        <time>2014-03-18T13:37:40Z</time>
      </trkpt>
      <trkpt lat="44.11448" lon="2.97341">
        <ele>744</ele>
        <time>2014-03-18T13:37:42Z</time>
      </trkpt>
      <trkpt lat="44.11444" lon="2.97337">
        <ele>744</ele>
        <time>2014-03-18T13:37:46Z</time>
      </trkpt>
      <trkpt lat="44.11439" lon="2.97334">
        <ele>744</ele>
        <time>2014-03-18T13:37:49Z</time>
      </trkpt>
      <trkpt lat="44.11433" lon="2.97331">
        <ele>745</ele>
        <time>2014-03-18T13:37:53Z</time>
      </trkpt>
      <trkpt lat="44.11429" lon="2.97328">
        <ele>746</ele>
        <time>2014-03-18T13:37:56Z</time>
      </trkpt>
      <trkpt lat="44.11424" lon="2.97324">
        <ele>746</ele>
        <time>2014-03-18T13:37:59Z</time>
      </trkpt>
      <trkpt lat="44.11419" lon="2.9732">
        <ele>747</ele>
        <time>2014-03-18T13:38:03Z</time>
      </trkpt>
      <trkpt lat="44.11414" lon="2.97319">
        <ele>747</ele>
        <time>2014-03-18T13:38:07Z</time>
      </trkpt>
      <trkpt lat="44.11409" lon="2.97317">
        <ele>747</ele>
        <time>2014-03-18T13:38:11Z</time>
      </trkpt>
      <trkpt lat="44.11403" lon="2.97315">
        <ele>748</ele>
        <time>2014-03-18T13:38:15Z</time>
      </trkpt>
      <trkpt lat="44.11398" lon="2.97312">
        <ele>748</ele>
        <time>2014-03-18T13:38:19Z</time>
      </trkpt>
      <trkpt lat="44.11394" lon="2.9731">
        <ele>747</ele>
        <time>2014-03-18T13:38:22Z</time>
      </trkpt>
      <trkpt lat="44.11388" lon="2.97308">
        <ele>747</ele>
        <time>2014-03-18T13:38:26Z</time>
      </trkpt>
      <trkpt lat="44.11384" lon="2.97304">
        <ele>747</ele>
        <time>2014-03-18T13:38:29Z</time>
      </trkpt>
      <trkpt lat="44.11379" lon="2.97301">
        <ele>747</ele>
        <time>2014-03-18T13:38:32Z</time>
      </trkpt>
      <trkpt lat="44.11374" lon="2.97296">
        <ele>748</ele>
        <time>2014-03-18T13:38:35Z</time>
      </trkpt>
      <trkpt lat="44.1137" lon="2.97291">
        <ele>748</ele>
        <time>2014-03-18T13:38:39Z</time>
      </trkpt>
      <trkpt lat="44.11366" lon="2.97288">
        <ele>748</ele>
        <time>2014-03-18T13:38:41Z</time>
      </trkpt>
      <trkpt lat="44.11362" lon="2.97284">
        <ele>747</ele>
        <time>2014-03-18T13:38:45Z</time>
      </trkpt>
      <trkpt lat="44.11357" lon="2.97282">
        <ele>747</ele>
        <time>2014-03-18T13:38:49Z</time>
      </trkpt>
      <trkpt lat="44.11353" lon="2.97279">
        <ele>747</ele>
        <time>2014-03-18T13:38:53Z</time>
      </trkpt>
      <trkpt lat="44.11347" lon="2.97277">
        <ele>747</ele>
        <time>2014-03-18T13:38:57Z</time>
      </trkpt>
      <trkpt lat="44.11341" lon="2.97274">
        <ele>747</ele>
        <time>2014-03-18T13:39:00Z</time>
      </trkpt>
      <trkpt lat="44.11337" lon="2.97271">
        <ele>745</ele>
        <time>2014-03-18T13:39:03Z</time>
      </trkpt>
      <trkpt lat="44.11332" lon="2.9727">
        <ele>745</ele>
        <time>2014-03-18T13:39:06Z</time>
      </trkpt>
      <trkpt lat="44.11327" lon="2.9727">
        <ele>744</ele>
        <time>2014-03-18T13:39:09Z</time>
      </trkpt>
      <trkpt lat="44.11323" lon="2.97267">
        <ele>744</ele>
        <time>2014-03-18T13:39:12Z</time>
      </trkpt>
      <trkpt lat="44.11318" lon="2.97264">
        <ele>745</ele>
        <time>2014-03-18T13:39:15Z</time>
      </trkpt>
      <trkpt lat="44.11313" lon="2.97265">
        <ele>746</ele>
        <time>2014-03-18T13:39:18Z</time>
      </trkpt>
      <trkpt lat="44.11308" lon="2.97264">
        <ele>746</ele>
        <time>2014-03-18T13:39:22Z</time>
      </trkpt>
      <trkpt lat="44.11304" lon="2.9726">
        <ele>747</ele>
        <time>2014-03-18T13:39:25Z</time>
      </trkpt>
      <trkpt lat="44.113" lon="2.97258">
        <ele>747</ele>
        <time>2014-03-18T13:39:29Z</time>
      </trkpt>
      <trkpt lat="44.11295" lon="2.97256">
        <ele>748</ele>
        <time>2014-03-18T13:39:32Z</time>
      </trkpt>
      <trkpt lat="44.11291" lon="2.97251">
        <ele>748</ele>
        <time>2014-03-18T13:39:35Z</time>
      </trkpt>
      <trkpt lat="44.11286" lon="2.97249">
        <ele>748</ele>
        <time>2014-03-18T13:39:40Z</time>
      </trkpt>
      <trkpt lat="44.11281" lon="2.97248">
        <ele>747</ele>
        <time>2014-03-18T13:39:43Z</time>
      </trkpt>
      <trkpt lat="44.11276" lon="2.97248">
        <ele>747</ele>
        <time>2014-03-18T13:39:47Z</time>
      </trkpt>
      <trkpt lat="44.11271" lon="2.97249">
        <ele>746</ele>
        <time>2014-03-18T13:39:50Z</time>
      </trkpt>
      <trkpt lat="44.11266" lon="2.97249">
        <ele>744</ele>
        <time>2014-03-18T13:39:54Z</time>
      </trkpt>
      <trkpt lat="44.11261" lon="2.97248">
        <ele>744</ele>
        <time>2014-03-18T13:39:57Z</time>
      </trkpt>
      <trkpt lat="44.11256" lon="2.9725">
        <ele>742</ele>
        <time>2014-03-18T13:40:01Z</time>
      </trkpt>
      <trkpt lat="44.11251" lon="2.9725">
        <ele>741</ele>
        <time>2014-03-18T13:40:05Z</time>
      </trkpt>
      <trkpt lat="44.11245" lon="2.97251">
        <ele>740</ele>
        <time>2014-03-18T13:40:09Z</time>
      </trkpt>
      <trkpt lat="44.1124" lon="2.97251">
        <ele>739</ele>
        <time>2014-03-18T13:40:12Z</time>
      </trkpt>
      <trkpt lat="44.11235" lon="2.97248">
        <ele>736</ele>
        <time>2014-03-18T13:40:15Z</time>
      </trkpt>
      <trkpt lat="44.11231" lon="2.97244">
        <ele>736</ele>
        <time>2014-03-18T13:40:18Z</time>
      </trkpt>
      <trkpt lat="44.11226" lon="2.97241">
        <ele>734</ele>
        <time>2014-03-18T13:40:22Z</time>
      </trkpt>
      <trkpt lat="44.11221" lon="2.97237">
        <ele>734</ele>
        <time>2014-03-18T13:40:25Z</time>
      </trkpt>
      <trkpt lat="44.11216" lon="2.97235">
        <ele>733</ele>
        <time>2014-03-18T13:40:27Z</time>
      </trkpt>
      <trkpt lat="44.11212" lon="2.97233">
        <ele>733</ele>
        <time>2014-03-18T13:40:29Z</time>
      </trkpt>
      <trkpt lat="44.11208" lon="2.97232">
        <ele>733</ele>
        <time>2014-03-18T13:40:31Z</time>
      </trkpt>
      <trkpt lat="44.11205" lon="2.97231">
        <ele>733</ele>
        <time>2014-03-18T13:40:33Z</time>
      </trkpt>
      <trkpt lat="44.11202" lon="2.9723">
        <ele>733</ele>
        <time>2014-03-18T13:40:35Z</time>
      </trkpt>
      <trkpt lat="44.11198" lon="2.97225">
        <ele>733</ele>
        <time>2014-03-18T13:40:39Z</time>
      </trkpt>
      <trkpt lat="44.11194" lon="2.97219">
        <ele>732</ele>
        <time>2014-03-18T13:40:44Z</time>
      </trkpt>
      <trkpt lat="44.11193" lon="2.97213">
        <ele>732</ele>
        <time>2014-03-18T13:40:46Z</time>
      </trkpt>
      <trkpt lat="44.1119" lon="2.97207">
        <ele>731</ele>
        <time>2014-03-18T13:40:48Z</time>
      </trkpt>
      <trkpt lat="44.11184" lon="2.97205">
        <ele>730</ele>
        <time>2014-03-18T13:40:53Z</time>
      </trkpt>
      <trkpt lat="44.11184" lon="2.97212">
        <ele>729</ele>
        <time>2014-03-18T13:40:58Z</time>
      </trkpt>
      <trkpt lat="44.1118" lon="2.97217">
        <ele>728</ele>
        <time>2014-03-18T13:41:04Z</time>
      </trkpt>
      <trkpt lat="44.11175" lon="2.97217">
        <ele>727</ele>
        <time>2014-03-18T13:41:10Z</time>
      </trkpt>
      <trkpt lat="44.1117" lon="2.97221">
        <ele>726</ele>
        <time>2014-03-18T13:41:15Z</time>
      </trkpt>
      <trkpt lat="44.11165" lon="2.97226">
        <ele>726</ele>
        <time>2014-03-18T13:41:19Z</time>
      </trkpt>
      <trkpt lat="44.1116" lon="2.97231">
        <ele>726</ele>
        <time>2014-03-18T13:41:22Z</time>
      </trkpt>
      <trkpt lat="44.11156" lon="2.97235">
        <ele>727</ele>
        <time>2014-03-18T13:41:25Z</time>
      </trkpt>
      <trkpt lat="44.11152" lon="2.97239">
        <ele>727</ele>
        <time>2014-03-18T13:41:30Z</time>
      </trkpt>
      <trkpt lat="44.11149" lon="2.97246">
        <ele>727</ele>
        <time>2014-03-18T13:41:34Z</time>
      </trkpt>
      <trkpt lat="44.11145" lon="2.97251">
        <ele>727</ele>
        <time>2014-03-18T13:41:38Z</time>
      </trkpt>
      <trkpt lat="44.11142" lon="2.97256">
        <ele>725</ele>
        <time>2014-03-18T13:41:41Z</time>
      </trkpt>
      <trkpt lat="44.11138" lon="2.97262">
        <ele>722</ele>
        <time>2014-03-18T13:41:46Z</time>
      </trkpt>
      <trkpt lat="44.11134" lon="2.97267">
        <ele>721</ele>
        <time>2014-03-18T13:41:49Z</time>
      </trkpt>
      <trkpt lat="44.1113" lon="2.97272">
        <ele>720</ele>
        <time>2014-03-18T13:41:54Z</time>
      </trkpt>
      <trkpt lat="44.11128" lon="2.97279">
        <ele>719</ele>
        <time>2014-03-18T13:41:57Z</time>
      </trkpt>
      <trkpt lat="44.11126" lon="2.97284">
        <ele>718</ele>
        <time>2014-03-18T13:42:00Z</time>
      </trkpt>
      <trkpt lat="44.11122" lon="2.97289">
        <ele>719</ele>
        <time>2014-03-18T13:42:06Z</time>
      </trkpt>
      <trkpt lat="44.11117" lon="2.9729">
        <ele>720</ele>
        <time>2014-03-18T13:42:08Z</time>
      </trkpt>
      <trkpt lat="44.11112" lon="2.97291">
        <ele>721</ele>
        <time>2014-03-18T13:42:11Z</time>
      </trkpt>
      <trkpt lat="44.1111" lon="2.97295">
        <ele>721</ele>
        <time>2014-03-18T13:42:20Z</time>
      </trkpt>
      <trkpt lat="44.11107" lon="2.97301">
        <ele>721</ele>
        <time>2014-03-18T13:42:31Z</time>
      </trkpt>
      <trkpt lat="44.11107" lon="2.97307">
        <ele>720</ele>
        <time>2014-03-18T13:42:36Z</time>
      </trkpt>
      <trkpt lat="44.11102" lon="2.97303">
        <ele>719</ele>
        <time>2014-03-18T13:42:53Z</time>
      </trkpt>
      <trkpt lat="44.111" lon="2.97311">
        <ele>718</ele>
        <time>2014-03-18T13:42:59Z</time>
      </trkpt>
      <trkpt lat="44.111" lon="2.97317">
        <ele>718</ele>
        <time>2014-03-18T13:43:01Z</time>
      </trkpt>
      <trkpt lat="44.111" lon="2.97324">
        <ele>718</ele>
        <time>2014-03-18T13:43:04Z</time>
      </trkpt>
      <trkpt lat="44.11098" lon="2.97332">
        <ele>718</ele>
        <time>2014-03-18T13:43:08Z</time>
      </trkpt>
      <trkpt lat="44.11094" lon="2.97337">
        <ele>718</ele>
        <time>2014-03-18T13:43:12Z</time>
      </trkpt>
      <trkpt lat="44.1109" lon="2.97342">
        <ele>719</ele>
        <time>2014-03-18T13:43:16Z</time>
      </trkpt>
      <trkpt lat="44.11086" lon="2.97345">
        <ele>720</ele>
        <time>2014-03-18T13:43:19Z</time>
      </trkpt>
      <trkpt lat="44.11082" lon="2.9735">
        <ele>720</ele>
        <time>2014-03-18T13:43:22Z</time>
      </trkpt>
      <trkpt lat="44.11077" lon="2.97353">
        <ele>718</ele>
        <time>2014-03-18T13:43:26Z</time>
      </trkpt>
      <trkpt lat="44.11072" lon="2.97354">
        <ele>718</ele>
        <time>2014-03-18T13:43:29Z</time>
      </trkpt>
      <trkpt lat="44.11067" lon="2.97355">
        <ele>715</ele>
        <time>2014-03-18T13:43:35Z</time>
      </trkpt>
      <trkpt lat="44.11062" lon="2.97359">
        <ele>715</ele>
        <time>2014-03-18T13:43:40Z</time>
      </trkpt>
      <trkpt lat="44.11055" lon="2.97358">
        <ele>715</ele>
        <time>2014-03-18T13:43:43Z</time>
      </trkpt>
      <trkpt lat="44.11049" lon="2.97357">
        <ele>716</ele>
        <time>2014-03-18T13:43:46Z</time>
      </trkpt>
      <trkpt lat="44.11045" lon="2.97355">
        <ele>716</ele>
        <time>2014-03-18T13:43:50Z</time>
      </trkpt>
      <trkpt lat="44.11039" lon="2.97354">
        <ele>717</ele>
        <time>2014-03-18T13:43:54Z</time>
      </trkpt>
      <trkpt lat="44.11033" lon="2.97352">
        <ele>716</ele>
        <time>2014-03-18T13:43:57Z</time>
      </trkpt>
      <trkpt lat="44.11028" lon="2.9735">
        <ele>716</ele>
        <time>2014-03-18T13:44:00Z</time>
      </trkpt>
      <trkpt lat="44.11025" lon="2.97343">
        <ele>714</ele>
        <time>2014-03-18T13:44:04Z</time>
      </trkpt>
      <trkpt lat="44.11021" lon="2.97338">
        <ele>713</ele>
        <time>2014-03-18T13:44:08Z</time>
      </trkpt>
      <trkpt lat="44.11017" lon="2.97334">
        <ele>713</ele>
        <time>2014-03-18T13:44:11Z</time>
      </trkpt>
      <trkpt lat="44.11012" lon="2.97333">
        <ele>713</ele>
        <time>2014-03-18T13:44:14Z</time>
      </trkpt>
      <trkpt lat="44.11007" lon="2.97337">
        <ele>711</ele>
        <time>2014-03-18T13:44:18Z</time>
      </trkpt>
      <trkpt lat="44.11002" lon="2.97338">
        <ele>710</ele>
        <time>2014-03-18T13:44:24Z</time>
      </trkpt>
      <trkpt lat="44.10997" lon="2.97341">
        <ele>707</ele>
        <time>2014-03-18T13:44:29Z</time>
      </trkpt>
      <trkpt lat="44.10991" lon="2.9734">
        <ele>706</ele>
        <time>2014-03-18T13:44:33Z</time>
      </trkpt>
      <trkpt lat="44.10987" lon="2.97339">
        <ele>705</ele>
        <time>2014-03-18T13:44:36Z</time>
      </trkpt>
      <trkpt lat="44.10982" lon="2.97339">
        <ele>703</ele>
        <time>2014-03-18T13:44:41Z</time>
      </trkpt>
      <trkpt lat="44.10977" lon="2.97338">
        <ele>702</ele>
        <time>2014-03-18T13:44:46Z</time>
      </trkpt>
      <trkpt lat="44.10972" lon="2.9734">
        <ele>701</ele>
        <time>2014-03-18T13:44:49Z</time>
      </trkpt>
      <trkpt lat="44.10968" lon="2.97343">
        <ele>699</ele>
        <time>2014-03-18T13:44:53Z</time>
      </trkpt>
      <trkpt lat="44.10963" lon="2.97345">
        <ele>699</ele>
        <time>2014-03-18T13:44:58Z</time>
      </trkpt>
      <trkpt lat="44.10958" lon="2.97345">
        <ele>698</ele>
        <time>2014-03-18T13:45:02Z</time>
      </trkpt>
      <trkpt lat="44.10953" lon="2.97348">
        <ele>697</ele>
        <time>2014-03-18T13:45:06Z</time>
      </trkpt>
      <trkpt lat="44.1095" lon="2.97355">
        <ele>696</ele>
        <time>2014-03-18T13:45:09Z</time>
      </trkpt>
      <trkpt lat="44.10947" lon="2.97362">
        <ele>695</ele>
        <time>2014-03-18T13:45:12Z</time>
      </trkpt>
      <trkpt lat="44.10944" lon="2.9737">
        <ele>695</ele>
        <time>2014-03-18T13:45:16Z</time>
      </trkpt>
      <trkpt lat="44.10943" lon="2.97376">
        <ele>695</ele>
        <time>2014-03-18T13:45:18Z</time>
      </trkpt>
      <trkpt lat="44.10942" lon="2.97385">
        <ele>696</ele>
        <time>2014-03-18T13:45:21Z</time>
      </trkpt>
      <trkpt lat="44.10941" lon="2.97392">
        <ele>696</ele>
        <time>2014-03-18T13:45:23Z</time>
      </trkpt>
      <trkpt lat="44.10941" lon="2.97398">
        <ele>694</ele>
        <time>2014-03-18T13:45:27Z</time>
      </trkpt>
      <trkpt lat="44.10943" lon="2.97405">
        <ele>693</ele>
        <time>2014-03-18T13:45:30Z</time>
      </trkpt>
      <trkpt lat="44.10945" lon="2.9741">
        <ele>692</ele>
        <time>2014-03-18T13:45:33Z</time>
      </trkpt>
      <trkpt lat="44.1095" lon="2.97413">
        <ele>690</ele>
        <time>2014-03-18T13:45:36Z</time>
      </trkpt>
      <trkpt lat="44.10955" lon="2.97416">
        <ele>688</ele>
        <time>2014-03-18T13:45:39Z</time>
      </trkpt>
      <trkpt lat="44.10958" lon="2.97421">
        <ele>688</ele>
        <time>2014-03-18T13:45:42Z</time>
      </trkpt>
      <trkpt lat="44.10961" lon="2.97426">
        <ele>688</ele>
        <time>2014-03-18T13:45:46Z</time>
      </trkpt>
      <trkpt lat="44.10966" lon="2.97425">
        <ele>687</ele>
        <time>2014-03-18T13:45:50Z</time>
      </trkpt>
      <trkpt lat="44.10968" lon="2.97431">
        <ele>686</ele>
        <time>2014-03-18T13:45:54Z</time>
      </trkpt>
      <trkpt lat="44.10971" lon="2.97436">
        <ele>686</ele>
        <time>2014-03-18T13:45:58Z</time>
      </trkpt>
      <trkpt lat="44.10973" lon="2.97443">
        <ele>685</ele>
        <time>2014-03-18T13:46:01Z</time>
      </trkpt>
      <trkpt lat="44.10975" lon="2.9745">
        <ele>684</ele>
        <time>2014-03-18T13:46:06Z</time>
      </trkpt>
      <trkpt lat="44.10979" lon="2.97454">
        <ele>683</ele>
        <time>2014-03-18T13:46:09Z</time>
      </trkpt>
      <trkpt lat="44.10984" lon="2.97453">
        <ele>680</ele>
        <time>2014-03-18T13:46:14Z</time>
      </trkpt>
      <trkpt lat="44.10989" lon="2.97455">
        <ele>678</ele>
        <time>2014-03-18T13:46:18Z</time>
      </trkpt>
      <trkpt lat="44.10993" lon="2.9746">
        <ele>677</ele>
        <time>2014-03-18T13:46:21Z</time>
      </trkpt>
      <trkpt lat="44.10998" lon="2.97464">
        <ele>676</ele>
        <time>2014-03-18T13:46:24Z</time>
      </trkpt>
      <trkpt lat="44.11002" lon="2.97469">
        <ele>675</ele>
        <time>2014-03-18T13:46:27Z</time>
      </trkpt>
      <trkpt lat="44.11008" lon="2.97472">
        <ele>675</ele>
        <time>2014-03-18T13:46:30Z</time>
      </trkpt>
      <trkpt lat="44.11013" lon="2.97475">
        <ele>675</ele>
        <time>2014-03-18T13:46:34Z</time>
      </trkpt>
      <trkpt lat="44.11017" lon="2.97476">
        <ele>674</ele>
        <time>2014-03-18T13:46:36Z</time>
      </trkpt>
      <trkpt lat="44.11022" lon="2.97478">
        <ele>674</ele>
        <time>2014-03-18T13:46:40Z</time>
      </trkpt>
      <trkpt lat="44.11028" lon="2.97483">
        <ele>674</ele>
        <time>2014-03-18T13:46:42Z</time>
      </trkpt>
      <trkpt lat="44.11034" lon="2.97484">
        <ele>673</ele>
        <time>2014-03-18T13:46:46Z</time>
      </trkpt>
      <trkpt lat="44.1104" lon="2.97489">
        <ele>672</ele>
        <time>2014-03-18T13:46:51Z</time>
      </trkpt>
      <trkpt lat="44.11045" lon="2.97493">
        <ele>672</ele>
        <time>2014-03-18T13:46:55Z</time>
      </trkpt>
      <trkpt lat="44.11048" lon="2.97498">
        <ele>671</ele>
        <time>2014-03-18T13:46:58Z</time>
      </trkpt>
      <trkpt lat="44.11051" lon="2.97504">
        <ele>670</ele>
        <time>2014-03-18T13:47:03Z</time>
      </trkpt>
      <trkpt lat="44.11055" lon="2.97509">
        <ele>670</ele>
        <time>2014-03-18T13:47:07Z</time>
      </trkpt>
      <trkpt lat="44.11059" lon="2.97516">
        <ele>670</ele>
        <time>2014-03-18T13:47:11Z</time>
      </trkpt>
      <trkpt lat="44.11061" lon="2.97522">
        <ele>671</ele>
        <time>2014-03-18T13:47:15Z</time>
      </trkpt>
      <trkpt lat="44.11063" lon="2.9753">
        <ele>672</ele>
        <time>2014-03-18T13:47:17Z</time>
      </trkpt>
      <trkpt lat="44.11065" lon="2.97538">
        <ele>673</ele>
        <time>2014-03-18T13:47:20Z</time>
      </trkpt>
      <trkpt lat="44.11066" lon="2.97545">
        <ele>673</ele>
        <time>2014-03-18T13:47:24Z</time>
      </trkpt>
      <trkpt lat="44.11066" lon="2.97553">
        <ele>674</ele>
        <time>2014-03-18T13:47:26Z</time>
      </trkpt>
      <trkpt lat="44.11067" lon="2.97559">
        <ele>674</ele>
        <time>2014-03-18T13:47:29Z</time>
      </trkpt>
      <trkpt lat="44.11067" lon="2.97572">
        <ele>675</ele>
        <time>2014-03-18T13:47:36Z</time>
      </trkpt>
      <trkpt lat="44.11062" lon="2.97582">
        <ele>679</ele>
        <time>2014-03-18T13:47:46Z</time>
      </trkpt>
      <trkpt lat="44.11059" lon="2.97587">
        <ele>681</ele>
        <time>2014-03-18T13:47:48Z</time>
      </trkpt>
      <trkpt lat="44.11056" lon="2.97594">
        <ele>683</ele>
        <time>2014-03-18T13:47:51Z</time>
      </trkpt>
      <trkpt lat="44.11052" lon="2.97598">
        <ele>686</ele>
        <time>2014-03-18T13:47:56Z</time>
      </trkpt>
      <trkpt lat="44.11048" lon="2.97602">
        <ele>686</ele>
        <time>2014-03-18T13:47:59Z</time>
      </trkpt>
      <trkpt lat="44.11047" lon="2.97608">
        <ele>687</ele>
        <time>2014-03-18T13:48:03Z</time>
      </trkpt>
      <trkpt lat="44.11044" lon="2.97614">
        <ele>687</ele>
        <time>2014-03-18T13:48:07Z</time>
      </trkpt>
      <trkpt lat="44.11041" lon="2.9762">
        <ele>686</ele>
        <time>2014-03-18T13:48:10Z</time>
      </trkpt>
      <trkpt lat="44.11038" lon="2.97626">
        <ele>686</ele>
        <time>2014-03-18T13:48:13Z</time>
      </trkpt>
      <trkpt lat="44.11033" lon="2.97632">
        <ele>685</ele>
        <time>2014-03-18T13:48:16Z</time>
      </trkpt>
      <trkpt lat="44.11029" lon="2.97638">
        <ele>685</ele>
        <time>2014-03-18T13:48:20Z</time>
      </trkpt>
      <trkpt lat="44.11025" lon="2.97641">
        <ele>684</ele>
        <time>2014-03-18T13:48:23Z</time>
      </trkpt>
      <trkpt lat="44.11022" lon="2.97642">
        <ele>680</ele>
        <time>2014-03-18T13:48:34Z</time>
      </trkpt>
      <trkpt lat="44.1102" lon="2.9765">
        <ele>678</ele>
        <time>2014-03-18T13:48:36Z</time>
      </trkpt>
      <trkpt lat="44.11018" lon="2.97657">
        <ele>677</ele>
        <time>2014-03-18T13:48:38Z</time>
      </trkpt>
      <trkpt lat="44.11015" lon="2.97665">
        <ele>677</ele>
        <time>2014-03-18T13:48:40Z</time>
      </trkpt>
      <trkpt lat="44.11013" lon="2.97671">
        <ele>677</ele>
        <time>2014-03-18T13:48:42Z</time>
      </trkpt>
      <trkpt lat="44.11011" lon="2.97677">
        <ele>677</ele>
        <time>2014-03-18T13:48:45Z</time>
      </trkpt>
      <trkpt lat="44.11009" lon="2.97684">
        <ele>676</ele>
        <time>2014-03-18T13:48:48Z</time>
      </trkpt>
      <trkpt lat="44.11007" lon="2.9769">
        <ele>676</ele>
        <time>2014-03-18T13:48:51Z</time>
      </trkpt>
      <trkpt lat="44.11005" lon="2.97697">
        <ele>675</ele>
        <time>2014-03-18T13:48:54Z</time>
      </trkpt>
      <trkpt lat="44.11003" lon="2.97703">
        <ele>674</ele>
        <time>2014-03-18T13:48:57Z</time>
      </trkpt>
      <trkpt lat="44.11001" lon="2.9771">
        <ele>674</ele>
        <time>2014-03-18T13:49:01Z</time>
      </trkpt>
      <trkpt lat="44.10999" lon="2.97715">
        <ele>675</ele>
        <time>2014-03-18T13:49:04Z</time>
      </trkpt>
      <trkpt lat="44.10998" lon="2.97723">
        <ele>676</ele>
        <time>2014-03-18T13:49:08Z</time>
      </trkpt>
      <trkpt lat="44.10999" lon="2.9773">
        <ele>675</ele>
        <time>2014-03-18T13:49:10Z</time>
      </trkpt>
      <trkpt lat="44.11002" lon="2.97736">
        <ele>674</ele>
        <time>2014-03-18T13:49:13Z</time>
      </trkpt>
      <trkpt lat="44.11005" lon="2.97742">
        <ele>671</ele>
        <time>2014-03-18T13:49:16Z</time>
      </trkpt>
      <trkpt lat="44.11006" lon="2.97748">
        <ele>670</ele>
        <time>2014-03-18T13:49:18Z</time>
      </trkpt>
      <trkpt lat="44.11007" lon="2.97757">
        <ele>668</ele>
        <time>2014-03-18T13:49:22Z</time>
      </trkpt>
      <trkpt lat="44.11009" lon="2.97763">
        <ele>668</ele>
        <time>2014-03-18T13:49:24Z</time>
      </trkpt>
      <trkpt lat="44.1101" lon="2.97771">
        <ele>666</ele>
        <time>2014-03-18T13:49:28Z</time>
      </trkpt>
      <trkpt lat="44.11012" lon="2.97779">
        <ele>665</ele>
        <time>2014-03-18T13:49:32Z</time>
      </trkpt>
      <trkpt lat="44.11014" lon="2.97785">
        <ele>666</ele>
        <time>2014-03-18T13:49:34Z</time>
      </trkpt>
      <trkpt lat="44.11018" lon="2.97791">
        <ele>667</ele>
        <time>2014-03-18T13:49:38Z</time>
      </trkpt>
      <trkpt lat="44.11022" lon="2.97796">
        <ele>666</ele>
        <time>2014-03-18T13:49:40Z</time>
      </trkpt>
      <trkpt lat="44.11026" lon="2.97799">
        <ele>665</ele>
        <time>2014-03-18T13:49:43Z</time>
      </trkpt>
      <trkpt lat="44.1103" lon="2.97803">
        <ele>664</ele>
        <time>2014-03-18T13:49:46Z</time>
      </trkpt>
      <trkpt lat="44.11033" lon="2.97808">
        <ele>664</ele>
        <time>2014-03-18T13:49:50Z</time>
      </trkpt>
      <trkpt lat="44.11039" lon="2.97811">
        <ele>664</ele>
        <time>2014-03-18T13:49:53Z</time>
      </trkpt>
      <trkpt lat="44.11044" lon="2.97815">
        <ele>664</ele>
        <time>2014-03-18T13:49:57Z</time>
      </trkpt>
      <trkpt lat="44.11049" lon="2.97818">
        <ele>665</ele>
        <time>2014-03-18T13:50:00Z</time>
      </trkpt>
      <trkpt lat="44.11054" lon="2.97819">
        <ele>666</ele>
        <time>2014-03-18T13:50:02Z</time>
      </trkpt>
      <trkpt lat="44.11057" lon="2.97824">
        <ele>665</ele>
        <time>2014-03-18T13:50:07Z</time>
      </trkpt>
      <trkpt lat="44.11062" lon="2.97827">
        <ele>665</ele>
        <time>2014-03-18T13:50:11Z</time>
      </trkpt>
      <trkpt lat="44.11066" lon="2.97829">
        <ele>664</ele>
        <time>2014-03-18T13:50:15Z</time>
      </trkpt>
      <trkpt lat="44.11071" lon="2.97833">
        <ele>664</ele>
        <time>2014-03-18T13:50:18Z</time>
      </trkpt>
      <trkpt lat="44.11077" lon="2.97836">
        <ele>664</ele>
        <time>2014-03-18T13:50:21Z</time>
      </trkpt>
      <trkpt lat="44.11081" lon="2.9784">
        <ele>665</ele>
        <time>2014-03-18T13:50:24Z</time>
      </trkpt>
      <trkpt lat="44.11085" lon="2.97846">
        <ele>666</ele>
        <time>2014-03-18T13:50:29Z</time>
      </trkpt>
      <trkpt lat="44.1109" lon="2.9785">
        <ele>665</ele>
        <time>2014-03-18T13:50:32Z</time>
      </trkpt>
      <trkpt lat="44.11094" lon="2.97853">
        <ele>665</ele>
        <time>2014-03-18T13:50:35Z</time>
      </trkpt>
      <trkpt lat="44.111" lon="2.97857">
        <ele>664</ele>
        <time>2014-03-18T13:50:39Z</time>
      </trkpt>
      <trkpt lat="44.11104" lon="2.97861">
        <ele>662</ele>
        <time>2014-03-18T13:50:43Z</time>
      </trkpt>
      <trkpt lat="44.1111" lon="2.97863">
        <ele>661</ele>
        <time>2014-03-18T13:50:46Z</time>
      </trkpt>
      <trkpt lat="44.11115" lon="2.97868">
        <ele>661</ele>
        <time>2014-03-18T13:50:50Z</time>
      </trkpt>
      <trkpt lat="44.11118" lon="2.97875">
        <ele>660</ele>
        <time>2014-03-18T13:50:52Z</time>
      </trkpt>
      <trkpt lat="44.1112" lon="2.97881">
        <ele>659</ele>
        <time>2014-03-18T13:50:55Z</time>
      </trkpt>
      <trkpt lat="44.11121" lon="2.97888">
        <ele>659</ele>
        <time>2014-03-18T13:50:58Z</time>
      </trkpt>
      <trkpt lat="44.1112" lon="2.97894">
        <ele>659</ele>
        <time>2014-03-18T13:51:00Z</time>
      </trkpt>
      <trkpt lat="44.11118" lon="2.97902">
        <ele>660</ele>
        <time>2014-03-18T13:51:02Z</time>
      </trkpt>
      <trkpt lat="44.11117" lon="2.97905">
        <ele>660</ele>
        <time>2014-03-18T13:51:03Z</time>
      </trkpt>
      <trkpt lat="44.11116" lon="2.9791">
        <ele>660</ele>
        <time>2014-03-18T13:51:05Z</time>
      </trkpt>
      <trkpt lat="44.11115" lon="2.97913">
        <ele>661</ele>
        <time>2014-03-18T13:51:07Z</time>
      </trkpt>
      <trkpt lat="44.11111" lon="2.97917">
        <ele>661</ele>
        <time>2014-03-18T13:51:11Z</time>
      </trkpt>
      <trkpt lat="44.11106" lon="2.97918">
        <ele>661</ele>
        <time>2014-03-18T13:51:15Z</time>
      </trkpt>
      <trkpt lat="44.11101" lon="2.9792">
        <ele>661</ele>
        <time>2014-03-18T13:51:19Z</time>
      </trkpt>
      <trkpt lat="44.11097" lon="2.97922">
        <ele>662</ele>
        <time>2014-03-18T13:51:22Z</time>
      </trkpt>
      <trkpt lat="44.11091" lon="2.97924">
        <ele>663</ele>
        <time>2014-03-18T13:51:26Z</time>
      </trkpt>
      <trkpt lat="44.11086" lon="2.97922">
        <ele>665</ele>
        <time>2014-03-18T13:51:29Z</time>
      </trkpt>
      <trkpt lat="44.1108" lon="2.97926">
        <ele>666</ele>
        <time>2014-03-18T13:51:32Z</time>
      </trkpt>
      <trkpt lat="44.11075" lon="2.97929">
        <ele>667</ele>
        <time>2014-03-18T13:51:34Z</time>
      </trkpt>
      <trkpt lat="44.11072" lon="2.97931">
        <ele>668</ele>
        <time>2014-03-18T13:51:36Z</time>
      </trkpt>
      <trkpt lat="44.1107" lon="2.97933">
        <ele>668</ele>
        <time>2014-03-18T13:51:38Z</time>
      </trkpt>
      <trkpt lat="44.11065" lon="2.9794">
        <ele>668</ele>
        <time>2014-03-18T13:51:43Z</time>
      </trkpt>
      <trkpt lat="44.11061" lon="2.97944">
        <ele>669</ele>
        <time>2014-03-18T13:51:46Z</time>
      </trkpt>
      <trkpt lat="44.11057" lon="2.97948">
        <ele>670</ele>
        <time>2014-03-18T13:51:49Z</time>
      </trkpt>
      <trkpt lat="44.11053" lon="2.97952">
        <ele>670</ele>
        <time>2014-03-18T13:51:53Z</time>
      </trkpt>
      <trkpt lat="44.11049" lon="2.97956">
        <ele>670</ele>
        <time>2014-03-18T13:51:56Z</time>
      </trkpt>
      <trkpt lat="44.11045" lon="2.9796">
        <ele>669</ele>
        <time>2014-03-18T13:52:00Z</time>
      </trkpt>
      <trkpt lat="44.11041" lon="2.97963">
        <ele>668</ele>
        <time>2014-03-18T13:52:05Z</time>
      </trkpt>
      <trkpt lat="44.11036" lon="2.97966">
        <ele>667</ele>
        <time>2014-03-18T13:52:09Z</time>
      </trkpt>
      <trkpt lat="44.11031" lon="2.97967">
        <ele>665</ele>
        <time>2014-03-18T13:52:14Z</time>
      </trkpt>
      <trkpt lat="44.11027" lon="2.9797">
        <ele>665</ele>
        <time>2014-03-18T13:52:17Z</time>
      </trkpt>
      <trkpt lat="44.11023" lon="2.97974">
        <ele>665</ele>
        <time>2014-03-18T13:52:20Z</time>
      </trkpt>
      <trkpt lat="44.11019" lon="2.97977">
        <ele>665</ele>
        <time>2014-03-18T13:52:23Z</time>
      </trkpt>
      <trkpt lat="44.11014" lon="2.97979">
        <ele>665</ele>
        <time>2014-03-18T13:52:28Z</time>
      </trkpt>
      <trkpt lat="44.11008" lon="2.9798">
        <ele>665</ele>
        <time>2014-03-18T13:52:32Z</time>
      </trkpt>
      <trkpt lat="44.11004" lon="2.97978">
        <ele>668</ele>
        <time>2014-03-18T13:52:37Z</time>
      </trkpt>
      <trkpt lat="44.10999" lon="2.97979">
        <ele>669</ele>
        <time>2014-03-18T13:52:41Z</time>
      </trkpt>
      <trkpt lat="44.10994" lon="2.97982">
        <ele>670</ele>
        <time>2014-03-18T13:52:43Z</time>
      </trkpt>
      <trkpt lat="44.10988" lon="2.97984">
        <ele>670</ele>
        <time>2014-03-18T13:52:46Z</time>
      </trkpt>
      <trkpt lat="44.10984" lon="2.97987">
        <ele>671</ele>
        <time>2014-03-18T13:52:50Z</time>
      </trkpt>
      <trkpt lat="44.10979" lon="2.9799">
        <ele>671</ele>
        <time>2014-03-18T13:52:54Z</time>
      </trkpt>
      <trkpt lat="44.10973" lon="2.97992">
        <ele>671</ele>
        <time>2014-03-18T13:52:57Z</time>
      </trkpt>
      <trkpt lat="44.10967" lon="2.97994">
        <ele>671</ele>
        <time>2014-03-18T13:53:00Z</time>
      </trkpt>
      <trkpt lat="44.10962" lon="2.97994">
        <ele>671</ele>
        <time>2014-03-18T13:53:02Z</time>
      </trkpt>
      <trkpt lat="44.10955" lon="2.97994">
        <ele>671</ele>
        <time>2014-03-18T13:53:05Z</time>
      </trkpt>
      <trkpt lat="44.10945" lon="2.97999">
        <ele>671</ele>
        <time>2014-03-18T13:53:12Z</time>
      </trkpt>
      <trkpt lat="44.10941" lon="2.98001">
        <ele>670</ele>
        <time>2014-03-18T13:53:15Z</time>
      </trkpt>
      <trkpt lat="44.10936" lon="2.98003">
        <ele>669</ele>
        <time>2014-03-18T13:53:20Z</time>
      </trkpt>
      <trkpt lat="44.10931" lon="2.98005">
        <ele>668</ele>
        <time>2014-03-18T13:53:23Z</time>
      </trkpt>
      <trkpt lat="44.10926" lon="2.98006">
        <ele>668</ele>
        <time>2014-03-18T13:53:27Z</time>
      </trkpt>
      <trkpt lat="44.10922" lon="2.98004">
        <ele>668</ele>
        <time>2014-03-18T13:53:31Z</time>
      </trkpt>
      <trkpt lat="44.10917" lon="2.98003">
        <ele>668</ele>
        <time>2014-03-18T13:53:34Z</time>
      </trkpt>
      <trkpt lat="44.10912" lon="2.98004">
        <ele>668</ele>
        <time>2014-03-18T13:53:38Z</time>
      </trkpt>
      <trkpt lat="44.10907" lon="2.98004">
        <ele>668</ele>
        <time>2014-03-18T13:53:41Z</time>
      </trkpt>
      <trkpt lat="44.10901" lon="2.98005">
        <ele>669</ele>
        <time>2014-03-18T13:53:45Z</time>
      </trkpt>
      <trkpt lat="44.10896" lon="2.98007">
        <ele>669</ele>
        <time>2014-03-18T13:53:49Z</time>
      </trkpt>
      <trkpt lat="44.1089" lon="2.98009">
        <ele>670</ele>
        <time>2014-03-18T13:53:53Z</time>
      </trkpt>
      <trkpt lat="44.10885" lon="2.98011">
        <ele>671</ele>
        <time>2014-03-18T13:53:56Z</time>
      </trkpt>
      <trkpt lat="44.10879" lon="2.98012">
        <ele>672</ele>
        <time>2014-03-18T13:53:59Z</time>
      </trkpt>
      <trkpt lat="44.10873" lon="2.9801">
        <ele>673</ele>
        <time>2014-03-18T13:54:02Z</time>
      </trkpt>
      <trkpt lat="44.10868" lon="2.9801">
        <ele>673</ele>
        <time>2014-03-18T13:54:06Z</time>
      </trkpt>
      <trkpt lat="44.10863" lon="2.98011">
        <ele>672</ele>
        <time>2014-03-18T13:54:10Z</time>
      </trkpt>
      <trkpt lat="44.10859" lon="2.98014">
        <ele>671</ele>
        <time>2014-03-18T13:54:16Z</time>
      </trkpt>
      <trkpt lat="44.10854" lon="2.98017">
        <ele>671</ele>
        <time>2014-03-18T13:54:21Z</time>
      </trkpt>
      <trkpt lat="44.1085" lon="2.9802">
        <ele>671</ele>
        <time>2014-03-18T13:54:25Z</time>
      </trkpt>
      <trkpt lat="44.10846" lon="2.98023">
        <ele>671</ele>
        <time>2014-03-18T13:54:29Z</time>
      </trkpt>
      <trkpt lat="44.1084" lon="2.98025">
        <ele>671</ele>
        <time>2014-03-18T13:54:34Z</time>
      </trkpt>
      <trkpt lat="44.10836" lon="2.98028">
        <ele>671</ele>
        <time>2014-03-18T13:54:38Z</time>
      </trkpt>
      <trkpt lat="44.10831" lon="2.9803">
        <ele>671</ele>
        <time>2014-03-18T13:54:43Z</time>
      </trkpt>
      <trkpt lat="44.10827" lon="2.98034">
        <ele>671</ele>
        <time>2014-03-18T13:54:45Z</time>
      </trkpt>
      <trkpt lat="44.10822" lon="2.98037">
        <ele>671</ele>
        <time>2014-03-18T13:54:49Z</time>
      </trkpt>
      <trkpt lat="44.10817" lon="2.98039">
        <ele>673</ele>
        <time>2014-03-18T13:54:52Z</time>
      </trkpt>
      <trkpt lat="44.10811" lon="2.98042">
        <ele>673</ele>
        <time>2014-03-18T13:54:56Z</time>
      </trkpt>
      <trkpt lat="44.10808" lon="2.98047">
        <ele>672</ele>
        <time>2014-03-18T13:54:59Z</time>
      </trkpt>
      <trkpt lat="44.10804" lon="2.98051">
        <ele>672</ele>
        <time>2014-03-18T13:55:02Z</time>
      </trkpt>
      <trkpt lat="44.10799" lon="2.98053">
        <ele>673</ele>
        <time>2014-03-18T13:55:05Z</time>
      </trkpt>
      <trkpt lat="44.10793" lon="2.98055">
        <ele>673</ele>
        <time>2014-03-18T13:55:09Z</time>
      </trkpt>
      <trkpt lat="44.10789" lon="2.98058">
        <ele>673</ele>
        <time>2014-03-18T13:55:13Z</time>
      </trkpt>
      <trkpt lat="44.10784" lon="2.9806">
        <ele>674</ele>
        <time>2014-03-18T13:55:19Z</time>
      </trkpt>
      <trkpt lat="44.10779" lon="2.98062">
        <ele>675</ele>
        <time>2014-03-18T13:55:23Z</time>
      </trkpt>
      <trkpt lat="44.10774" lon="2.98066">
        <ele>675</ele>
        <time>2014-03-18T13:55:27Z</time>
      </trkpt>
      <trkpt lat="44.1077" lon="2.98069">
        <ele>676</ele>
        <time>2014-03-18T13:55:30Z</time>
      </trkpt>
      <trkpt lat="44.10766" lon="2.98073">
        <ele>676</ele>
        <time>2014-03-18T13:55:33Z</time>
      </trkpt>
      <trkpt lat="44.10761" lon="2.98076">
        <ele>677</ele>
        <time>2014-03-18T13:55:36Z</time>
      </trkpt>
      <trkpt lat="44.10756" lon="2.98079">
        <ele>677</ele>
        <time>2014-03-18T13:55:40Z</time>
      </trkpt>
      <trkpt lat="44.10751" lon="2.98082">
        <ele>678</ele>
        <time>2014-03-18T13:55:44Z</time>
      </trkpt>
      <trkpt lat="44.10747" lon="2.98087">
        <ele>678</ele>
        <time>2014-03-18T13:55:48Z</time>
      </trkpt>
      <trkpt lat="44.10741" lon="2.9809">
        <ele>678</ele>
        <time>2014-03-18T13:55:51Z</time>
      </trkpt>
      <trkpt lat="44.10737" lon="2.98093">
        <ele>678</ele>
        <time>2014-03-18T13:55:53Z</time>
      </trkpt>
      <trkpt lat="44.10732" lon="2.98096">
        <ele>677</ele>
        <time>2014-03-18T13:55:56Z</time>
      </trkpt>
      <trkpt lat="44.10726" lon="2.981">
        <ele>674</ele>
        <time>2014-03-18T13:56:00Z</time>
      </trkpt>
      <trkpt lat="44.10722" lon="2.98104">
        <ele>673</ele>
        <time>2014-03-18T13:56:01Z</time>
      </trkpt>
      <trkpt lat="44.10716" lon="2.98108">
        <ele>670</ele>
        <time>2014-03-18T13:56:04Z</time>
      </trkpt>
      <trkpt lat="44.10713" lon="2.98113">
        <ele>669</ele>
        <time>2014-03-18T13:56:07Z</time>
      </trkpt>
      <trkpt lat="44.10709" lon="2.98118">
        <ele>666</ele>
        <time>2014-03-18T13:56:11Z</time>
      </trkpt>
      <trkpt lat="44.10705" lon="2.98121">
        <ele>664</ele>
        <time>2014-03-18T13:56:15Z</time>
      </trkpt>
      <trkpt lat="44.10702" lon="2.98126">
        <ele>662</ele>
        <time>2014-03-18T13:56:20Z</time>
      </trkpt>
      <trkpt lat="44.10699" lon="2.98134">
        <ele>661</ele>
        <time>2014-03-18T13:56:24Z</time>
      </trkpt>
      <trkpt lat="44.10698" lon="2.98142">
        <ele>659</ele>
        <time>2014-03-18T13:56:28Z</time>
      </trkpt>
      <trkpt lat="44.10697" lon="2.98149">
        <ele>657</ele>
        <time>2014-03-18T13:56:32Z</time>
      </trkpt>
      <trkpt lat="44.10695" lon="2.98154">
        <ele>656</ele>
        <time>2014-03-18T13:56:34Z</time>
      </trkpt>
      <trkpt lat="44.10691" lon="2.9816">
        <ele>655</ele>
        <time>2014-03-18T13:56:37Z</time>
      </trkpt>
      <trkpt lat="44.10688" lon="2.98166">
        <ele>653</ele>
        <time>2014-03-18T13:56:41Z</time>
      </trkpt>
      <trkpt lat="44.10688" lon="2.98174">
        <ele>653</ele>
        <time>2014-03-18T13:56:46Z</time>
      </trkpt>
      <trkpt lat="44.1069" lon="2.9818">
        <ele>653</ele>
        <time>2014-03-18T13:56:49Z</time>
      </trkpt>
      <trkpt lat="44.10693" lon="2.98185">
        <ele>653</ele>
        <time>2014-03-18T13:56:52Z</time>
      </trkpt>
      <trkpt lat="44.10696" lon="2.98193">
        <ele>654</ele>
        <time>2014-03-18T13:56:56Z</time>
      </trkpt>
      <trkpt lat="44.10701" lon="2.98195">
        <ele>654</ele>
        <time>2014-03-18T13:56:58Z</time>
      </trkpt>
      <trkpt lat="44.10705" lon="2.98197">
        <ele>654</ele>
        <time>2014-03-18T13:57:01Z</time>
      </trkpt>
      <trkpt lat="44.1071" lon="2.98203">
        <ele>654</ele>
        <time>2014-03-18T13:57:07Z</time>
      </trkpt>
      <trkpt lat="44.10714" lon="2.98206">
        <ele>655</ele>
        <time>2014-03-18T13:57:10Z</time>
      </trkpt>
      <trkpt lat="44.10718" lon="2.98209">
        <ele>656</ele>
        <time>2014-03-18T13:57:13Z</time>
      </trkpt>
      <trkpt lat="44.10724" lon="2.98213">
        <ele>656</ele>
        <time>2014-03-18T13:57:18Z</time>
      </trkpt>
      <trkpt lat="44.10731" lon="2.98217">
        <ele>655</ele>
        <time>2014-03-18T13:57:21Z</time>
      </trkpt>
      <trkpt lat="44.10736" lon="2.9822">
        <ele>656</ele>
        <time>2014-03-18T13:57:24Z</time>
      </trkpt>
      <trkpt lat="44.10739" lon="2.98226">
        <ele>656</ele>
        <time>2014-03-18T13:57:28Z</time>
      </trkpt>
      <trkpt lat="44.10742" lon="2.98232">
        <ele>656</ele>
        <time>2014-03-18T13:57:32Z</time>
      </trkpt>
      <trkpt lat="44.10745" lon="2.98239">
        <ele>656</ele>
        <time>2014-03-18T13:57:36Z</time>
      </trkpt>
      <trkpt lat="44.10749" lon="2.98245">
        <ele>655</ele>
        <time>2014-03-18T13:57:41Z</time>
      </trkpt>
      <trkpt lat="44.10753" lon="2.98251">
        <ele>655</ele>
        <time>2014-03-18T13:57:44Z</time>
      </trkpt>
      <trkpt lat="44.10757" lon="2.98256">
        <ele>655</ele>
        <time>2014-03-18T13:57:46Z</time>
      </trkpt>
      <trkpt lat="44.10762" lon="2.9826">
        <ele>656</ele>
        <time>2014-03-18T13:57:49Z</time>
      </trkpt>
      <trkpt lat="44.10765" lon="2.98266">
        <ele>656</ele>
        <time>2014-03-18T13:57:52Z</time>
      </trkpt>
      <trkpt lat="44.10768" lon="2.98273">
        <ele>657</ele>
        <time>2014-03-18T13:57:55Z</time>
      </trkpt>
      <trkpt lat="44.10772" lon="2.98277">
        <ele>657</ele>
        <time>2014-03-18T13:57:58Z</time>
      </trkpt>
      <trkpt lat="44.10776" lon="2.98281">
        <ele>658</ele>
        <time>2014-03-18T13:58:02Z</time>
      </trkpt>
      <trkpt lat="44.10777" lon="2.98287">
        <ele>659</ele>
        <time>2014-03-18T13:58:04Z</time>
      </trkpt>
      <trkpt lat="44.10781" lon="2.98292">
        <ele>660</ele>
        <time>2014-03-18T13:58:08Z</time>
      </trkpt>
      <trkpt lat="44.10782" lon="2.98299">
        <ele>660</ele>
        <time>2014-03-18T13:58:14Z</time>
      </trkpt>
      <trkpt lat="44.10786" lon="2.98305">
        <ele>659</ele>
        <time>2014-03-18T13:58:18Z</time>
      </trkpt>
      <trkpt lat="44.10788" lon="2.98311">
        <ele>659</ele>
        <time>2014-03-18T13:58:22Z</time>
      </trkpt>
      <trkpt lat="44.10787" lon="2.98318">
        <ele>658</ele>
        <time>2014-03-18T13:58:25Z</time>
      </trkpt>
      <trkpt lat="44.10786" lon="2.98325">
        <ele>658</ele>
        <time>2014-03-18T13:58:27Z</time>
      </trkpt>
      <trkpt lat="44.10786" lon="2.98333">
        <ele>657</ele>
        <time>2014-03-18T13:58:30Z</time>
      </trkpt>
      <trkpt lat="44.10789" lon="2.9834">
        <ele>657</ele>
        <time>2014-03-18T13:58:34Z</time>
      </trkpt>
      <trkpt lat="44.10792" lon="2.98347">
        <ele>657</ele>
        <time>2014-03-18T13:58:38Z</time>
      </trkpt>
      <trkpt lat="44.10794" lon="2.98353">
        <ele>658</ele>
        <time>2014-03-18T13:58:41Z</time>
      </trkpt>
      <trkpt lat="44.10798" lon="2.98356">
        <ele>659</ele>
        <time>2014-03-18T13:58:43Z</time>
      </trkpt>
      <trkpt lat="44.10802" lon="2.98359">
        <ele>660</ele>
        <time>2014-03-18T13:58:45Z</time>
      </trkpt>
      <trkpt lat="44.10806" lon="2.98362">
        <ele>659</ele>
        <time>2014-03-18T13:58:49Z</time>
      </trkpt>
      <trkpt lat="44.10807" lon="2.98369">
        <ele>659</ele>
        <time>2014-03-18T13:58:52Z</time>
      </trkpt>
      <trkpt lat="44.10807" lon="2.98376">
        <ele>659</ele>
        <time>2014-03-18T13:58:56Z</time>
      </trkpt>
      <trkpt lat="44.10804" lon="2.98382">
        <ele>659</ele>
        <time>2014-03-18T13:58:58Z</time>
      </trkpt>
      <trkpt lat="44.10802" lon="2.98388">
        <ele>659</ele>
        <time>2014-03-18T13:59:01Z</time>
      </trkpt>
      <trkpt lat="44.10804" lon="2.98394">
        <ele>659</ele>
        <time>2014-03-18T13:59:05Z</time>
      </trkpt>
      <trkpt lat="44.10808" lon="2.98403">
        <ele>658</ele>
        <time>2014-03-18T13:59:09Z</time>
      </trkpt>
      <trkpt lat="44.10809" lon="2.9841">
        <ele>658</ele>
        <time>2014-03-18T13:59:13Z</time>
      </trkpt>
      <trkpt lat="44.10812" lon="2.98416">
        <ele>657</ele>
        <time>2014-03-18T13:59:16Z</time>
      </trkpt>
      <trkpt lat="44.10815" lon="2.9842">
        <ele>656</ele>
        <time>2014-03-18T13:59:21Z</time>
      </trkpt>
      <trkpt lat="44.10819" lon="2.98425">
        <ele>656</ele>
        <time>2014-03-18T13:59:24Z</time>
      </trkpt>
      <trkpt lat="44.10823" lon="2.98431">
        <ele>657</ele>
        <time>2014-03-18T13:59:26Z</time>
      </trkpt>
      <trkpt lat="44.10824" lon="2.98438">
        <ele>657</ele>
        <time>2014-03-18T13:59:32Z</time>
      </trkpt>
      <trkpt lat="44.10825" lon="2.98444">
        <ele>656</ele>
        <time>2014-03-18T13:59:36Z</time>
      </trkpt>
      <trkpt lat="44.10824" lon="2.9845">
        <ele>656</ele>
        <time>2014-03-18T13:59:41Z</time>
      </trkpt>
      <trkpt lat="44.1082" lon="2.98452">
        <ele>657</ele>
        <time>2014-03-18T13:59:56Z</time>
      </trkpt>
      <trkpt lat="44.10816" lon="2.9845">
        <ele>661</ele>
        <time>2014-03-18T14:01:01Z</time>
      </trkpt>
      <trkpt lat="44.10812" lon="2.98454">
        <ele>660</ele>
        <time>2014-03-18T14:02:17Z</time>
      </trkpt>
      <trkpt lat="44.10815" lon="2.98459">
        <ele>660</ele>
        <time>2014-03-18T14:03:18Z</time>
      </trkpt>
      <trkpt lat="44.10814" lon="2.98463">
        <ele>658</ele>
        <time>2014-03-18T14:04:24Z</time>
      </trkpt>
      <trkpt lat="44.10811" lon="2.9847">
        <ele>656</ele>
        <time>2014-03-18T14:04:32Z</time>
      </trkpt>
      <trkpt lat="44.10807" lon="2.98482">
        <ele>650</ele>
        <time>2014-03-18T14:04:41Z</time>
      </trkpt>
      <trkpt lat="44.10803" lon="2.98487">
        <ele>649</ele>
        <time>2014-03-18T14:04:44Z</time>
      </trkpt>
      <trkpt lat="44.10798" lon="2.9849">
        <ele>649</ele>
        <time>2014-03-18T14:04:48Z</time>
      </trkpt>
      <trkpt lat="44.10794" lon="2.98495">
        <ele>646</ele>
        <time>2014-03-18T14:04:53Z</time>
      </trkpt>
      <trkpt lat="44.1079" lon="2.98498">
        <ele>644</ele>
        <time>2014-03-18T14:04:56Z</time>
      </trkpt>
      <trkpt lat="44.10786" lon="2.985">
        <ele>645</ele>
        <time>2014-03-18T14:05:01Z</time>
      </trkpt>
      <trkpt lat="44.10781" lon="2.98504">
        <ele>645</ele>
        <time>2014-03-18T14:05:08Z</time>
      </trkpt>
      <trkpt lat="44.10776" lon="2.98508">
        <ele>646</ele>
        <time>2014-03-18T14:05:11Z</time>
      </trkpt>
      <trkpt lat="44.10772" lon="2.98511">
        <ele>646</ele>
        <time>2014-03-18T14:05:14Z</time>
      </trkpt>
      <trkpt lat="44.10767" lon="2.98516">
        <ele>646</ele>
        <time>2014-03-18T14:05:16Z</time>
      </trkpt>
      <trkpt lat="44.1076" lon="2.98519">
        <ele>645</ele>
        <time>2014-03-18T14:05:18Z</time>
      </trkpt>
      <trkpt lat="44.10755" lon="2.98521">
        <ele>644</ele>
        <time>2014-03-18T14:05:20Z</time>
      </trkpt>
      <trkpt lat="44.10749" lon="2.98522">
        <ele>643</ele>
        <time>2014-03-18T14:05:26Z</time>
      </trkpt>
      <trkpt lat="44.10744" lon="2.98526">
        <ele>642</ele>
        <time>2014-03-18T14:05:28Z</time>
      </trkpt>
      <trkpt lat="44.10741" lon="2.9853">
        <ele>642</ele>
        <time>2014-03-18T14:05:32Z</time>
      </trkpt>
      <trkpt lat="44.10736" lon="2.98536">
        <ele>641</ele>
        <time>2014-03-18T14:05:38Z</time>
      </trkpt>
      <trkpt lat="44.10731" lon="2.98541">
        <ele>641</ele>
        <time>2014-03-18T14:05:42Z</time>
      </trkpt>
      <trkpt lat="44.10726" lon="2.98546">
        <ele>642</ele>
        <time>2014-03-18T14:05:45Z</time>
      </trkpt>
      <trkpt lat="44.10722" lon="2.98549">
        <ele>642</ele>
        <time>2014-03-18T14:05:47Z</time>
      </trkpt>
      <trkpt lat="44.10717" lon="2.98551">
        <ele>641</ele>
        <time>2014-03-18T14:05:51Z</time>
      </trkpt>
      <trkpt lat="44.10712" lon="2.98555">
        <ele>641</ele>
        <time>2014-03-18T14:05:54Z</time>
      </trkpt>
      <trkpt lat="44.10709" lon="2.9856">
        <ele>641</ele>
        <time>2014-03-18T14:05:57Z</time>
      </trkpt>
      <trkpt lat="44.10704" lon="2.98564">
        <ele>641</ele>
        <time>2014-03-18T14:06:03Z</time>
      </trkpt>
      <trkpt lat="44.107" lon="2.9857">
        <ele>641</ele>
        <time>2014-03-18T14:06:08Z</time>
      </trkpt>
      <trkpt lat="44.10696" lon="2.98574">
        <ele>641</ele>
        <time>2014-03-18T14:06:10Z</time>
      </trkpt>
      <trkpt lat="44.10691" lon="2.98577">
        <ele>640</ele>
        <time>2014-03-18T14:06:14Z</time>
      </trkpt>
      <trkpt lat="44.10687" lon="2.98581">
        <ele>640</ele>
        <time>2014-03-18T14:06:19Z</time>
      </trkpt>
      <trkpt lat="44.10682" lon="2.98585">
        <ele>639</ele>
        <time>2014-03-18T14:06:25Z</time>
      </trkpt>
      <trkpt lat="44.10677" lon="2.98588">
        <ele>640</ele>
        <time>2014-03-18T14:06:29Z</time>
      </trkpt>
      <trkpt lat="44.10673" lon="2.98593">
        <ele>639</ele>
        <time>2014-03-18T14:06:32Z</time>
      </trkpt>
      <trkpt lat="44.10668" lon="2.98598">
        <ele>639</ele>
        <time>2014-03-18T14:06:36Z</time>
      </trkpt>
      <trkpt lat="44.10664" lon="2.98602">
        <ele>639</ele>
        <time>2014-03-18T14:06:38Z</time>
      </trkpt>
      <trkpt lat="44.10659" lon="2.98607">
        <ele>639</ele>
        <time>2014-03-18T14:06:41Z</time>
      </trkpt>
      <trkpt lat="44.10654" lon="2.98609">
        <ele>638</ele>
        <time>2014-03-18T14:06:43Z</time>
      </trkpt>
      <trkpt lat="44.10649" lon="2.98612">
        <ele>638</ele>
        <time>2014-03-18T14:06:46Z</time>
      </trkpt>
      <trkpt lat="44.10644" lon="2.98615">
        <ele>637</ele>
        <time>2014-03-18T14:06:52Z</time>
      </trkpt>
      <trkpt lat="44.1064" lon="2.9862">
        <ele>636</ele>
        <time>2014-03-18T14:06:56Z</time>
      </trkpt>
      <trkpt lat="44.10635" lon="2.98624">
        <ele>635</ele>
        <time>2014-03-18T14:06:58Z</time>
      </trkpt>
      <trkpt lat="44.10629" lon="2.98625">
        <ele>633</ele>
        <time>2014-03-18T14:07:06Z</time>
      </trkpt>
      <trkpt lat="44.10623" lon="2.98627">
        <ele>633</ele>
        <time>2014-03-18T14:07:10Z</time>
      </trkpt>
      <trkpt lat="44.10618" lon="2.98628">
        <ele>633</ele>
        <time>2014-03-18T14:07:14Z</time>
      </trkpt>
      <trkpt lat="44.10612" lon="2.98629">
        <ele>633</ele>
        <time>2014-03-18T14:07:17Z</time>
      </trkpt>
      <trkpt lat="44.10607" lon="2.98632">
        <ele>633</ele>
        <time>2014-03-18T14:07:20Z</time>
      </trkpt>
      <trkpt lat="44.10601" lon="2.98636">
        <ele>633</ele>
        <time>2014-03-18T14:07:22Z</time>
      </trkpt>
      <trkpt lat="44.10597" lon="2.9864">
        <ele>633</ele>
        <time>2014-03-18T14:07:25Z</time>
      </trkpt>
      <trkpt lat="44.10592" lon="2.98645">
        <ele>633</ele>
        <time>2014-03-18T14:07:28Z</time>
      </trkpt>
      <trkpt lat="44.10587" lon="2.98649">
        <ele>633</ele>
        <time>2014-03-18T14:07:31Z</time>
      </trkpt>
      <trkpt lat="44.10584" lon="2.98654">
        <ele>631</ele>
        <time>2014-03-18T14:07:34Z</time>
      </trkpt>
      <trkpt lat="44.10581" lon="2.9866">
        <ele>630</ele>
        <time>2014-03-18T14:07:38Z</time>
      </trkpt>
      <trkpt lat="44.10576" lon="2.98661">
        <ele>630</ele>
        <time>2014-03-18T14:07:42Z</time>
      </trkpt>
      <trkpt lat="44.10571" lon="2.9866">
        <ele>630</ele>
        <time>2014-03-18T14:07:45Z</time>
      </trkpt>
      <trkpt lat="44.10566" lon="2.98658">
        <ele>633</ele>
        <time>2014-03-18T14:07:53Z</time>
      </trkpt>
      <trkpt lat="44.10562" lon="2.98663">
        <ele>634</ele>
        <time>2014-03-18T14:07:57Z</time>
      </trkpt>
      <trkpt lat="44.10556" lon="2.98667">
        <ele>635</ele>
        <time>2014-03-18T14:08:01Z</time>
      </trkpt>
      <trkpt lat="44.10551" lon="2.9867">
        <ele>636</ele>
        <time>2014-03-18T14:08:04Z</time>
      </trkpt>
      <trkpt lat="44.10546" lon="2.98672">
        <ele>636</ele>
        <time>2014-03-18T14:08:07Z</time>
      </trkpt>
      <trkpt lat="44.10541" lon="2.98673">
        <ele>636</ele>
        <time>2014-03-18T14:08:10Z</time>
      </trkpt>
      <trkpt lat="44.10536" lon="2.98673">
        <ele>636</ele>
        <time>2014-03-18T14:08:14Z</time>
      </trkpt>
      <trkpt lat="44.10531" lon="2.98675">
        <ele>635</ele>
        <time>2014-03-18T14:08:18Z</time>
      </trkpt>
      <trkpt lat="44.10526" lon="2.98677">
        <ele>635</ele>
        <time>2014-03-18T14:08:21Z</time>
      </trkpt>
      <trkpt lat="44.1052" lon="2.98681">
        <ele>635</ele>
        <time>2014-03-18T14:08:23Z</time>
      </trkpt>
      <trkpt lat="44.10515" lon="2.98684">
        <ele>634</ele>
        <time>2014-03-18T14:08:25Z</time>
      </trkpt>
      <trkpt lat="44.1051" lon="2.98687">
        <ele>634</ele>
        <time>2014-03-18T14:08:29Z</time>
      </trkpt>
      <trkpt lat="44.10505" lon="2.98688">
        <ele>634</ele>
        <time>2014-03-18T14:08:31Z</time>
      </trkpt>
      <trkpt lat="44.105" lon="2.98688">
        <ele>634</ele>
        <time>2014-03-18T14:08:35Z</time>
      </trkpt>
      <trkpt lat="44.10496" lon="2.98683">
        <ele>634</ele>
        <time>2014-03-18T14:08:39Z</time>
      </trkpt>
      <trkpt lat="44.10492" lon="2.98683">
        <ele>633</ele>
        <time>2014-03-18T14:08:43Z</time>
      </trkpt>
      <trkpt lat="44.10486" lon="2.98684">
        <ele>632</ele>
        <time>2014-03-18T14:08:48Z</time>
      </trkpt>
      <trkpt lat="44.1048" lon="2.98687">
        <ele>631</ele>
        <time>2014-03-18T14:08:52Z</time>
      </trkpt>
      <trkpt lat="44.10475" lon="2.98687">
        <ele>629</ele>
        <time>2014-03-18T14:08:55Z</time>
      </trkpt>
      <trkpt lat="44.1047" lon="2.98688">
        <ele>628</ele>
        <time>2014-03-18T14:08:59Z</time>
      </trkpt>
      <trkpt lat="44.10464" lon="2.98687">
        <ele>627</ele>
        <time>2014-03-18T14:09:03Z</time>
      </trkpt>
      <trkpt lat="44.10459" lon="2.98687">
        <ele>625</ele>
        <time>2014-03-18T14:09:08Z</time>
      </trkpt>
      <trkpt lat="44.10454" lon="2.98686">
        <ele>623</ele>
        <time>2014-03-18T14:09:13Z</time>
      </trkpt>
      <trkpt lat="44.10449" lon="2.98688">
        <ele>622</ele>
        <time>2014-03-18T14:09:19Z</time>
      </trkpt>
      <trkpt lat="44.10443" lon="2.98688">
        <ele>620</ele>
        <time>2014-03-18T14:09:22Z</time>
      </trkpt>
      <trkpt lat="44.10438" lon="2.98692">
        <ele>618</ele>
        <time>2014-03-18T14:09:26Z</time>
      </trkpt>
      <trkpt lat="44.10433" lon="2.98695">
        <ele>617</ele>
        <time>2014-03-18T14:09:29Z</time>
      </trkpt>
      <trkpt lat="44.10428" lon="2.98696">
        <ele>615</ele>
        <time>2014-03-18T14:09:32Z</time>
      </trkpt>
      <trkpt lat="44.10424" lon="2.98698">
        <ele>614</ele>
        <time>2014-03-18T14:09:36Z</time>
      </trkpt>
      <trkpt lat="44.10419" lon="2.98702">
        <ele>612</ele>
        <time>2014-03-18T14:09:39Z</time>
      </trkpt>
      <trkpt lat="44.10413" lon="2.98707">
        <ele>610</ele>
        <time>2014-03-18T14:09:42Z</time>
      </trkpt>
      <trkpt lat="44.10409" lon="2.98711">
        <ele>608</ele>
        <time>2014-03-18T14:09:44Z</time>
      </trkpt>
      <trkpt lat="44.10405" lon="2.98714">
        <ele>607</ele>
        <time>2014-03-18T14:09:47Z</time>
      </trkpt>
      <trkpt lat="44.10402" lon="2.9872">
        <ele>606</ele>
        <time>2014-03-18T14:09:50Z</time>
      </trkpt>
      <trkpt lat="44.10397" lon="2.98725">
        <ele>605</ele>
        <time>2014-03-18T14:09:53Z</time>
      </trkpt>
      <trkpt lat="44.10393" lon="2.98726">
        <ele>605</ele>
        <time>2014-03-18T14:09:56Z</time>
      </trkpt>
      <trkpt lat="44.10387" lon="2.98727">
        <ele>605</ele>
        <time>2014-03-18T14:09:59Z</time>
      </trkpt>
      <trkpt lat="44.10382" lon="2.98727">
        <ele>604</ele>
        <time>2014-03-18T14:10:02Z</time>
      </trkpt>
      <trkpt lat="44.10377" lon="2.98726">
        <ele>604</ele>
        <time>2014-03-18T14:10:06Z</time>
      </trkpt>
      <trkpt lat="44.10371" lon="2.98724">
        <ele>604</ele>
        <time>2014-03-18T14:10:09Z</time>
      </trkpt>
      <trkpt lat="44.10365" lon="2.98726">
        <ele>604</ele>
        <time>2014-03-18T14:10:13Z</time>
      </trkpt>
      <trkpt lat="44.10364" lon="2.98721">
        <ele>598</ele>
        <time>2014-03-18T14:10:42Z</time>
      </trkpt>
      <trkpt lat="44.10366" lon="2.98717">
        <ele>599</ele>
        <time>2014-03-18T14:10:59Z</time>
      </trkpt>
      <trkpt lat="44.10365" lon="2.98717">
        <ele>603</ele>
        <time>2014-03-18T14:12:02Z</time>
      </trkpt>
      <trkpt lat="44.10361" lon="2.98717">
        <ele>603</ele>
        <time>2014-03-18T14:12:05Z</time>
      </trkpt>
      <trkpt lat="44.10356" lon="2.98718">
        <ele>601</ele>
        <time>2014-03-18T14:12:08Z</time>
      </trkpt>
      <trkpt lat="44.1035" lon="2.98718">
        <ele>601</ele>
        <time>2014-03-18T14:12:12Z</time>
      </trkpt>
      <trkpt lat="44.10345" lon="2.98719">
        <ele>600</ele>
        <time>2014-03-18T14:12:15Z</time>
      </trkpt>
      <trkpt lat="44.1034" lon="2.98722">
        <ele>599</ele>
        <time>2014-03-18T14:12:19Z</time>
      </trkpt>
      <trkpt lat="44.10334" lon="2.98722">
        <ele>598</ele>
        <time>2014-03-18T14:12:23Z</time>
      </trkpt>
      <trkpt lat="44.10327" lon="2.9872">
        <ele>598</ele>
        <time>2014-03-18T14:12:26Z</time>
      </trkpt>
      <trkpt lat="44.10321" lon="2.98719">
        <ele>598</ele>
        <time>2014-03-18T14:12:29Z</time>
      </trkpt>
      <trkpt lat="44.10317" lon="2.98715">
        <ele>598</ele>
        <time>2014-03-18T14:12:33Z</time>
      </trkpt>
      <trkpt lat="44.10311" lon="2.98713">
        <ele>598</ele>
        <time>2014-03-18T14:12:37Z</time>
      </trkpt>
      <trkpt lat="44.10307" lon="2.98715">
        <ele>599</ele>
        <time>2014-03-18T14:12:40Z</time>
      </trkpt>
      <trkpt lat="44.10302" lon="2.98715">
        <ele>599</ele>
        <time>2014-03-18T14:12:43Z</time>
      </trkpt>
      <trkpt lat="44.10297" lon="2.98713">
        <ele>599</ele>
        <time>2014-03-18T14:12:46Z</time>
      </trkpt>
      <trkpt lat="44.10293" lon="2.9871">
        <ele>600</ele>
        <time>2014-03-18T14:12:49Z</time>
      </trkpt>
      <trkpt lat="44.10288" lon="2.98708">
        <ele>600</ele>
        <time>2014-03-18T14:12:52Z</time>
      </trkpt>
      <trkpt lat="44.10283" lon="2.98706">
        <ele>600</ele>
        <time>2014-03-18T14:12:55Z</time>
      </trkpt>
      <trkpt lat="44.10278" lon="2.98707">
        <ele>599</ele>
        <time>2014-03-18T14:12:59Z</time>
      </trkpt>
      <trkpt lat="44.10273" lon="2.98709">
        <ele>599</ele>
        <time>2014-03-18T14:13:04Z</time>
      </trkpt>
      <trkpt lat="44.10268" lon="2.98709">
        <ele>599</ele>
        <time>2014-03-18T14:13:08Z</time>
      </trkpt>
      <trkpt lat="44.10262" lon="2.98709">
        <ele>598</ele>
        <time>2014-03-18T14:13:12Z</time>
      </trkpt>
      <trkpt lat="44.10257" lon="2.98713">
        <ele>598</ele>
        <time>2014-03-18T14:13:15Z</time>
      </trkpt>
      <trkpt lat="44.10251" lon="2.98716">
        <ele>599</ele>
        <time>2014-03-18T14:13:18Z</time>
      </trkpt>
      <trkpt lat="44.10246" lon="2.98719">
        <ele>600</ele>
        <time>2014-03-18T14:13:21Z</time>
      </trkpt>
      <trkpt lat="44.10241" lon="2.98723">
        <ele>600</ele>
        <time>2014-03-18T14:13:24Z</time>
      </trkpt>
      <trkpt lat="44.10236" lon="2.98727">
        <ele>600</ele>
        <time>2014-03-18T14:13:27Z</time>
      </trkpt>
      <trkpt lat="44.10231" lon="2.98731">
        <ele>601</ele>
        <time>2014-03-18T14:13:29Z</time>
      </trkpt>
      <trkpt lat="44.10226" lon="2.98735">
        <ele>601</ele>
        <time>2014-03-18T14:13:31Z</time>
      </trkpt>
      <trkpt lat="44.10223" lon="2.98734">
        <ele>600</ele>
        <time>2014-03-18T14:13:33Z</time>
      </trkpt>
      <trkpt lat="44.10217" lon="2.98732">
        <ele>600</ele>
        <time>2014-03-18T14:13:42Z</time>
      </trkpt>
      <trkpt lat="44.10214" lon="2.98737">
        <ele>599</ele>
        <time>2014-03-18T14:13:45Z</time>
      </trkpt>
      <trkpt lat="44.10209" lon="2.98741">
        <ele>600</ele>
        <time>2014-03-18T14:13:52Z</time>
      </trkpt>
      <trkpt lat="44.10206" lon="2.98746">
        <ele>601</ele>
        <time>2014-03-18T14:13:56Z</time>
      </trkpt>
      <trkpt lat="44.10201" lon="2.98749">
        <ele>602</ele>
        <time>2014-03-18T14:14:00Z</time>
      </trkpt>
      <trkpt lat="44.10197" lon="2.98753">
        <ele>602</ele>
        <time>2014-03-18T14:14:06Z</time>
      </trkpt>
      <trkpt lat="44.10193" lon="2.98759">
        <ele>602</ele>
        <time>2014-03-18T14:14:10Z</time>
      </trkpt>
      <trkpt lat="44.10188" lon="2.98764">
        <ele>601</ele>
        <time>2014-03-18T14:14:11Z</time>
      </trkpt>
      <trkpt lat="44.10184" lon="2.98767">
        <ele>599</ele>
        <time>2014-03-18T14:14:13Z</time>
      </trkpt>
      <trkpt lat="44.10179" lon="2.98771">
        <ele>597</ele>
        <time>2014-03-18T14:14:16Z</time>
      </trkpt>
      <trkpt lat="44.10175" lon="2.98775">
        <ele>596</ele>
        <time>2014-03-18T14:14:19Z</time>
      </trkpt>
      <trkpt lat="44.10171" lon="2.98779">
        <ele>595</ele>
        <time>2014-03-18T14:14:24Z</time>
      </trkpt>
      <trkpt lat="44.10168" lon="2.98784">
        <ele>596</ele>
        <time>2014-03-18T14:14:31Z</time>
      </trkpt>
      <trkpt lat="44.10163" lon="2.98787">
        <ele>596</ele>
        <time>2014-03-18T14:14:36Z</time>
      </trkpt>
      <trkpt lat="44.10159" lon="2.98792">
        <ele>595</ele>
        <time>2014-03-18T14:14:38Z</time>
      </trkpt>
      <trkpt lat="44.10154" lon="2.98796">
        <ele>595</ele>
        <time>2014-03-18T14:14:42Z</time>
      </trkpt>
      <trkpt lat="44.1015" lon="2.98802">
        <ele>594</ele>
        <time>2014-03-18T14:14:48Z</time>
      </trkpt>
      <trkpt lat="44.10145" lon="2.98807">
        <ele>595</ele>
        <time>2014-03-18T14:14:51Z</time>
      </trkpt>
      <trkpt lat="44.1014" lon="2.98811">
        <ele>595</ele>
        <time>2014-03-18T14:14:54Z</time>
      </trkpt>
      <trkpt lat="44.10137" lon="2.98816">
        <ele>595</ele>
        <time>2014-03-18T14:14:57Z</time>
      </trkpt>
      <trkpt lat="44.10133" lon="2.98821">
        <ele>593</ele>
        <time>2014-03-18T14:15:01Z</time>
      </trkpt>
      <trkpt lat="44.1013" lon="2.98827">
        <ele>593</ele>
        <time>2014-03-18T14:15:06Z</time>
      </trkpt>
      <trkpt lat="44.10125" lon="2.98836">
        <ele>592</ele>
        <time>2014-03-18T14:15:12Z</time>
      </trkpt>
      <trkpt lat="44.1012" lon="2.98841">
        <ele>594</ele>
        <time>2014-03-18T14:15:13Z</time>
      </trkpt>
      <trkpt lat="44.10116" lon="2.98844">
        <ele>594</ele>
        <time>2014-03-18T14:15:17Z</time>
      </trkpt>
      <trkpt lat="44.10111" lon="2.98845">
        <ele>592</ele>
        <time>2014-03-18T14:15:22Z</time>
      </trkpt>
      <trkpt lat="44.10106" lon="2.98848">
        <ele>592</ele>
        <time>2014-03-18T14:15:26Z</time>
      </trkpt>
      <trkpt lat="44.10101" lon="2.98851">
        <ele>592</ele>
        <time>2014-03-18T14:15:31Z</time>
      </trkpt>
      <trkpt lat="44.10097" lon="2.98855">
        <ele>589</ele>
        <time>2014-03-18T14:15:38Z</time>
      </trkpt>
      <trkpt lat="44.10091" lon="2.98856">
        <ele>587</ele>
        <time>2014-03-18T14:15:43Z</time>
      </trkpt>
      <trkpt lat="44.10088" lon="2.98859">
        <ele>586</ele>
        <time>2014-03-18T14:15:48Z</time>
      </trkpt>
      <trkpt lat="44.10082" lon="2.98863">
        <ele>583</ele>
        <time>2014-03-18T14:15:53Z</time>
      </trkpt>
      <trkpt lat="44.10076" lon="2.98875">
        <ele>578</ele>
        <time>2014-03-18T14:16:02Z</time>
      </trkpt>
      <trkpt lat="44.10073" lon="2.98881">
        <ele>577</ele>
        <time>2014-03-18T14:16:05Z</time>
      </trkpt>
      <trkpt lat="44.10069" lon="2.98885">
        <ele>577</ele>
        <time>2014-03-18T14:16:09Z</time>
      </trkpt>
      <trkpt lat="44.10064" lon="2.98887">
        <ele>577</ele>
        <time>2014-03-18T14:16:12Z</time>
      </trkpt>
      <trkpt lat="44.10059" lon="2.98893">
        <ele>577</ele>
        <time>2014-03-18T14:16:15Z</time>
      </trkpt>
      <trkpt lat="44.10056" lon="2.98899">
        <ele>577</ele>
        <time>2014-03-18T14:16:18Z</time>
      </trkpt>
      <trkpt lat="44.10051" lon="2.98903">
        <ele>578</ele>
        <time>2014-03-18T14:16:22Z</time>
      </trkpt>
      <trkpt lat="44.10047" lon="2.98906">
        <ele>579</ele>
        <time>2014-03-18T14:16:25Z</time>
      </trkpt>
      <trkpt lat="44.10042" lon="2.98907">
        <ele>578</ele>
        <time>2014-03-18T14:16:28Z</time>
      </trkpt>
      <trkpt lat="44.10036" lon="2.98908">
        <ele>578</ele>
        <time>2014-03-18T14:16:32Z</time>
      </trkpt>
      <trkpt lat="44.10031" lon="2.9891">
        <ele>578</ele>
        <time>2014-03-18T14:16:35Z</time>
      </trkpt>
      <trkpt lat="44.10026" lon="2.98912">
        <ele>579</ele>
        <time>2014-03-18T14:16:38Z</time>
      </trkpt>
      <trkpt lat="44.1002" lon="2.98915">
        <ele>579</ele>
        <time>2014-03-18T14:16:41Z</time>
      </trkpt>
      <trkpt lat="44.10016" lon="2.9892">
        <ele>579</ele>
        <time>2014-03-18T14:16:44Z</time>
      </trkpt>
      <trkpt lat="44.10012" lon="2.98923">
        <ele>579</ele>
        <time>2014-03-18T14:16:48Z</time>
      </trkpt>
      <trkpt lat="44.10006" lon="2.98926">
        <ele>578</ele>
        <time>2014-03-18T14:16:54Z</time>
      </trkpt>
      <trkpt lat="44.10003" lon="2.98932">
        <ele>579</ele>
        <time>2014-03-18T14:16:56Z</time>
      </trkpt>
      <trkpt lat="44.09999" lon="2.98937">
        <ele>580</ele>
        <time>2014-03-18T14:16:58Z</time>
      </trkpt>
      <trkpt lat="44.09995" lon="2.9894">
        <ele>581</ele>
        <time>2014-03-18T14:17:01Z</time>
      </trkpt>
      <trkpt lat="44.09992" lon="2.98935">
        <ele>582</ele>
        <time>2014-03-18T14:17:03Z</time>
      </trkpt>
      <trkpt lat="44.09988" lon="2.98931">
        <ele>581</ele>
        <time>2014-03-18T14:17:08Z</time>
      </trkpt>
      <trkpt lat="44.09983" lon="2.98932">
        <ele>581</ele>
        <time>2014-03-18T14:17:12Z</time>
      </trkpt>
      <trkpt lat="44.09978" lon="2.98935">
        <ele>580</ele>
        <time>2014-03-18T14:17:17Z</time>
      </trkpt>
      <trkpt lat="44.09974" lon="2.98937">
        <ele>580</ele>
        <time>2014-03-18T14:17:20Z</time>
      </trkpt>
      <trkpt lat="44.09969" lon="2.98942">
        <ele>580</ele>
        <time>2014-03-18T14:17:24Z</time>
      </trkpt>
      <trkpt lat="44.09965" lon="2.98946">
        <ele>578</ele>
        <time>2014-03-18T14:17:30Z</time>
      </trkpt>
      <trkpt lat="44.09964" lon="2.98954">
        <ele>576</ele>
        <time>2014-03-18T14:17:36Z</time>
      </trkpt>
      <trkpt lat="44.09964" lon="2.98961">
        <ele>575</ele>
        <time>2014-03-18T14:17:38Z</time>
      </trkpt>
      <trkpt lat="44.0996" lon="2.98967">
        <ele>574</ele>
        <time>2014-03-18T14:17:42Z</time>
      </trkpt>
      <trkpt lat="44.09955" lon="2.98969">
        <ele>574</ele>
        <time>2014-03-18T14:17:45Z</time>
      </trkpt>
      <trkpt lat="44.0995" lon="2.9897">
        <ele>573</ele>
        <time>2014-03-18T14:17:48Z</time>
      </trkpt>
      <trkpt lat="44.09946" lon="2.98969">
        <ele>567</ele>
        <time>2014-03-18T14:18:00Z</time>
      </trkpt>
      <trkpt lat="44.09941" lon="2.9897">
        <ele>564</ele>
        <time>2014-03-18T14:18:04Z</time>
      </trkpt>
      <trkpt lat="44.09937" lon="2.98975">
        <ele>564</ele>
        <time>2014-03-18T14:18:07Z</time>
      </trkpt>
      <trkpt lat="44.09932" lon="2.98979">
        <ele>564</ele>
        <time>2014-03-18T14:18:10Z</time>
      </trkpt>
      <trkpt lat="44.09927" lon="2.98981">
        <ele>564</ele>
        <time>2014-03-18T14:18:13Z</time>
      </trkpt>
      <trkpt lat="44.09921" lon="2.98984">
        <ele>564</ele>
        <time>2014-03-18T14:18:15Z</time>
      </trkpt>
      <trkpt lat="44.09917" lon="2.98986">
        <ele>564</ele>
        <time>2014-03-18T14:18:18Z</time>
      </trkpt>
      <trkpt lat="44.09912" lon="2.98988">
        <ele>564</ele>
        <time>2014-03-18T14:18:24Z</time>
      </trkpt>
      <trkpt lat="44.09908" lon="2.98984">
        <ele>564</ele>
        <time>2014-03-18T14:18:28Z</time>
      </trkpt>
      <trkpt lat="44.09904" lon="2.98982">
        <ele>565</ele>
        <time>2014-03-18T14:18:32Z</time>
      </trkpt>
      <trkpt lat="44.09903" lon="2.98977">
        <ele>567</ele>
        <time>2014-03-18T14:18:43Z</time>
      </trkpt>
      <trkpt lat="44.09898" lon="2.98978">
        <ele>568</ele>
        <time>2014-03-18T14:18:46Z</time>
      </trkpt>
      <trkpt lat="44.09893" lon="2.98978">
        <ele>567</ele>
        <time>2014-03-18T14:18:50Z</time>
      </trkpt>
      <trkpt lat="44.09887" lon="2.98977">
        <ele>564</ele>
        <time>2014-03-18T14:18:54Z</time>
      </trkpt>
      <trkpt lat="44.09883" lon="2.98975">
        <ele>563</ele>
        <time>2014-03-18T14:18:57Z</time>
      </trkpt>
      <trkpt lat="44.09878" lon="2.98974">
        <ele>562</ele>
        <time>2014-03-18T14:19:00Z</time>
      </trkpt>
      <trkpt lat="44.09873" lon="2.98973">
        <ele>561</ele>
        <time>2014-03-18T14:19:04Z</time>
      </trkpt>
      <trkpt lat="44.09868" lon="2.98972">
        <ele>558</ele>
        <time>2014-03-18T14:19:08Z</time>
      </trkpt>
      <trkpt lat="44.09863" lon="2.9897">
        <ele>557</ele>
        <time>2014-03-18T14:19:13Z</time>
      </trkpt>
      <trkpt lat="44.09858" lon="2.98968">
        <ele>557</ele>
        <time>2014-03-18T14:19:18Z</time>
      </trkpt>
      <trkpt lat="44.09853" lon="2.98966">
        <ele>556</ele>
        <time>2014-03-18T14:19:23Z</time>
      </trkpt>
      <trkpt lat="44.09847" lon="2.98968">
        <ele>554</ele>
        <time>2014-03-18T14:19:28Z</time>
      </trkpt>
      <trkpt lat="44.0984" lon="2.98973">
        <ele>549</ele>
        <time>2014-03-18T14:19:48Z</time>
      </trkpt>
      <trkpt lat="44.09838" lon="2.98982">
        <ele>545</ele>
        <time>2014-03-18T14:20:01Z</time>
      </trkpt>
      <trkpt lat="44.09834" lon="2.98989">
        <ele>544</ele>
        <time>2014-03-18T14:20:05Z</time>
      </trkpt>
      <trkpt lat="44.0983" lon="2.98997">
        <ele>543</ele>
        <time>2014-03-18T14:20:09Z</time>
      </trkpt>
      <trkpt lat="44.09829" lon="2.99005">
        <ele>544</ele>
        <time>2014-03-18T14:20:12Z</time>
      </trkpt>
      <trkpt lat="44.09827" lon="2.99015">
        <ele>544</ele>
        <time>2014-03-18T14:20:15Z</time>
      </trkpt>
      <trkpt lat="44.09827" lon="2.99023">
        <ele>544</ele>
        <time>2014-03-18T14:20:18Z</time>
      </trkpt>
      <trkpt lat="44.09826" lon="2.99029">
        <ele>544</ele>
        <time>2014-03-18T14:20:22Z</time>
      </trkpt>
      <trkpt lat="44.09823" lon="2.99032">
        <ele>544</ele>
        <time>2014-03-18T14:20:29Z</time>
      </trkpt>
      <trkpt lat="44.09821" lon="2.99039">
        <ele>543</ele>
        <time>2014-03-18T14:20:35Z</time>
      </trkpt>
      <trkpt lat="44.09819" lon="2.99045">
        <ele>541</ele>
        <time>2014-03-18T14:20:39Z</time>
      </trkpt>
      <trkpt lat="44.09818" lon="2.99054">
        <ele>539</ele>
        <time>2014-03-18T14:20:49Z</time>
      </trkpt>
      <trkpt lat="44.09817" lon="2.99062">
        <ele>537</ele>
        <time>2014-03-18T14:20:53Z</time>
      </trkpt>
      <trkpt lat="44.09813" lon="2.99068">
        <ele>534</ele>
        <time>2014-03-18T14:20:59Z</time>
      </trkpt>
      <trkpt lat="44.09805" lon="2.99076">
        <ele>528</ele>
        <time>2014-03-18T14:21:08Z</time>
      </trkpt>
      <trkpt lat="44.09802" lon="2.99082">
        <ele>527</ele>
        <time>2014-03-18T14:21:11Z</time>
      </trkpt>
      <trkpt lat="44.09798" lon="2.99086">
        <ele>526</ele>
        <time>2014-03-18T14:21:14Z</time>
      </trkpt>
      <trkpt lat="44.09794" lon="2.99091">
        <ele>526</ele>
        <time>2014-03-18T14:21:18Z</time>
      </trkpt>
      <trkpt lat="44.09791" lon="2.99097">
        <ele>526</ele>
        <time>2014-03-18T14:21:21Z</time>
      </trkpt>
      <trkpt lat="44.09789" lon="2.99103">
        <ele>525</ele>
        <time>2014-03-18T14:21:24Z</time>
      </trkpt>
      <trkpt lat="44.09788" lon="2.99109">
        <ele>525</ele>
        <time>2014-03-18T14:21:28Z</time>
      </trkpt>
      <trkpt lat="44.09786" lon="2.99116">
        <ele>525</ele>
        <time>2014-03-18T14:21:33Z</time>
      </trkpt>
      <trkpt lat="44.09785" lon="2.99123">
        <ele>526</ele>
        <time>2014-03-18T14:21:37Z</time>
      </trkpt>
      <trkpt lat="44.09784" lon="2.99129">
        <ele>527</ele>
        <time>2014-03-18T14:21:41Z</time>
      </trkpt>
      <trkpt lat="44.09782" lon="2.99137">
        <ele>528</ele>
        <time>2014-03-18T14:21:45Z</time>
      </trkpt>
      <trkpt lat="44.09778" lon="2.99142">
        <ele>528</ele>
        <time>2014-03-18T14:21:49Z</time>
      </trkpt>
      <trkpt lat="44.09777" lon="2.99148">
        <ele>527</ele>
        <time>2014-03-18T14:21:55Z</time>
      </trkpt>
      <trkpt lat="44.09777" lon="2.99156">
        <ele>527</ele>
        <time>2014-03-18T14:21:59Z</time>
      </trkpt>
      <trkpt lat="44.09776" lon="2.99164">
        <ele>525</ele>
        <time>2014-03-18T14:22:04Z</time>
      </trkpt>
      <trkpt lat="44.09774" lon="2.9917">
        <ele>525</ele>
        <time>2014-03-18T14:22:10Z</time>
      </trkpt>
      <trkpt lat="44.09773" lon="2.99176">
        <ele>524</ele>
        <time>2014-03-18T14:22:13Z</time>
      </trkpt>
      <trkpt lat="44.09775" lon="2.99183">
        <ele>522</ele>
        <time>2014-03-18T14:22:18Z</time>
      </trkpt>
      <trkpt lat="44.09778" lon="2.99186">
        <ele>519</ele>
        <time>2014-03-18T14:22:24Z</time>
      </trkpt>
      <trkpt lat="44.09784" lon="2.99187">
        <ele>518</ele>
        <time>2014-03-18T14:22:29Z</time>
      </trkpt>
      <trkpt lat="44.09789" lon="2.99186">
        <ele>519</ele>
        <time>2014-03-18T14:22:33Z</time>
      </trkpt>
      <trkpt lat="44.09792" lon="2.9918">
        <ele>519</ele>
        <time>2014-03-18T14:22:38Z</time>
      </trkpt>
      <trkpt lat="44.09794" lon="2.99183">
        <ele>514</ele>
        <time>2014-03-18T14:22:48Z</time>
      </trkpt>
      <trkpt lat="44.09786" lon="2.99209">
        <ele>505</ele>
        <time>2014-03-18T14:23:09Z</time>
      </trkpt>
      <trkpt lat="44.09785" lon="2.99217">
        <ele>505</ele>
        <time>2014-03-18T14:23:14Z</time>
      </trkpt>
      <trkpt lat="44.09785" lon="2.99223">
        <ele>505</ele>
        <time>2014-03-18T14:23:17Z</time>
      </trkpt>
      <trkpt lat="44.09784" lon="2.99232">
        <ele>506</ele>
        <time>2014-03-18T14:23:20Z</time>
      </trkpt>
      <trkpt lat="44.09782" lon="2.99239">
        <ele>507</ele>
        <time>2014-03-18T14:23:23Z</time>
      </trkpt>
      <trkpt lat="44.09779" lon="2.99245">
        <ele>506</ele>
        <time>2014-03-18T14:23:27Z</time>
      </trkpt>
      <trkpt lat="44.09783" lon="2.99251">
        <ele>507</ele>
        <time>2014-03-18T14:23:33Z</time>
      </trkpt>
      <trkpt lat="44.09784" lon="2.99258">
        <ele>506</ele>
        <time>2014-03-18T14:23:39Z</time>
      </trkpt>
      <trkpt lat="44.09783" lon="2.99266">
        <ele>505</ele>
        <time>2014-03-18T14:23:44Z</time>
      </trkpt>
      <trkpt lat="44.09782" lon="2.99273">
        <ele>504</ele>
        <time>2014-03-18T14:23:48Z</time>
      </trkpt>
      <trkpt lat="44.0978" lon="2.9928">
        <ele>503</ele>
        <time>2014-03-18T14:23:53Z</time>
      </trkpt>
      <trkpt lat="44.09782" lon="2.99288">
        <ele>502</ele>
        <time>2014-03-18T14:23:57Z</time>
      </trkpt>
      <trkpt lat="44.09783" lon="2.99294">
        <ele>501</ele>
        <time>2014-03-18T14:24:02Z</time>
      </trkpt>
      <trkpt lat="44.09781" lon="2.99336">
        <ele>483</ele>
        <time>2014-03-18T14:24:34Z</time>
      </trkpt>
      <trkpt lat="44.09781" lon="2.99342">
        <ele>480</ele>
        <time>2014-03-18T14:24:40Z</time>
      </trkpt>
      <trkpt lat="44.09781" lon="2.99349">
        <ele>479</ele>
        <time>2014-03-18T14:24:44Z</time>
      </trkpt>
      <trkpt lat="44.09778" lon="2.99357">
        <ele>478</ele>
        <time>2014-03-18T14:24:48Z</time>
      </trkpt>
      <trkpt lat="44.09777" lon="2.99364">
        <ele>478</ele>
        <time>2014-03-18T14:24:51Z</time>
      </trkpt>
      <trkpt lat="44.09775" lon="2.99372">
        <ele>477</ele>
        <time>2014-03-18T14:24:55Z</time>
      </trkpt>
      <trkpt lat="44.09772" lon="2.99378">
        <ele>475</ele>
        <time>2014-03-18T14:25:00Z</time>
      </trkpt>
      <trkpt lat="44.09773" lon="2.99387">
        <ele>472</ele>
        <time>2014-03-18T14:25:10Z</time>
      </trkpt>
      <trkpt lat="44.09771" lon="2.99393">
        <ele>471</ele>
        <time>2014-03-18T14:25:13Z</time>
      </trkpt>
      <trkpt lat="44.09768" lon="2.99401">
        <ele>469</ele>
        <time>2014-03-18T14:25:16Z</time>
      </trkpt>
      <trkpt lat="44.09766" lon="2.99408">
        <ele>469</ele>
        <time>2014-03-18T14:25:19Z</time>
      </trkpt>
      <trkpt lat="44.09764" lon="2.99414">
        <ele>469</ele>
        <time>2014-03-18T14:25:22Z</time>
      </trkpt>
      <trkpt lat="44.09762" lon="2.9942">
        <ele>469</ele>
        <time>2014-03-18T14:25:26Z</time>
      </trkpt>
      <trkpt lat="44.09761" lon="2.99426">
        <ele>470</ele>
        <time>2014-03-18T14:25:29Z</time>
      </trkpt>
      <trkpt lat="44.09758" lon="2.99432">
        <ele>470</ele>
        <time>2014-03-18T14:25:32Z</time>
      </trkpt>
      <trkpt lat="44.09756" lon="2.99438">
        <ele>470</ele>
        <time>2014-03-18T14:25:35Z</time>
      </trkpt>
      <trkpt lat="44.09753" lon="2.99445">
        <ele>470</ele>
        <time>2014-03-18T14:25:38Z</time>
      </trkpt>
      <trkpt lat="44.09751" lon="2.99452">
        <ele>470</ele>
        <time>2014-03-18T14:25:41Z</time>
      </trkpt>
      <trkpt lat="44.09748" lon="2.99458">
        <ele>469</ele>
        <time>2014-03-18T14:25:47Z</time>
      </trkpt>
      <trkpt lat="44.09745" lon="2.99463">
        <ele>470</ele>
        <time>2014-03-18T14:25:52Z</time>
      </trkpt>
      <trkpt lat="44.09742" lon="2.99469">
        <ele>469</ele>
        <time>2014-03-18T14:25:56Z</time>
      </trkpt>
      <trkpt lat="44.09738" lon="2.99474">
        <ele>469</ele>
        <time>2014-03-18T14:26:00Z</time>
      </trkpt>
      <trkpt lat="44.09734" lon="2.99478">
        <ele>469</ele>
        <time>2014-03-18T14:26:05Z</time>
      </trkpt>
      <trkpt lat="44.09729" lon="2.99483">
        <ele>470</ele>
        <time>2014-03-18T14:26:07Z</time>
      </trkpt>
      <trkpt lat="44.09726" lon="2.9949">
        <ele>471</ele>
        <time>2014-03-18T14:26:09Z</time>
      </trkpt>
      <trkpt lat="44.09723" lon="2.99496">
        <ele>472</ele>
        <time>2014-03-18T14:26:11Z</time>
      </trkpt>
      <trkpt lat="44.0972" lon="2.99502">
        <ele>473</ele>
        <time>2014-03-18T14:26:13Z</time>
      </trkpt>
      <trkpt lat="44.09718" lon="2.99504">
        <ele>474</ele>
        <time>2014-03-18T14:26:14Z</time>
      </trkpt>
      <trkpt lat="44.09715" lon="2.99507">
        <ele>474</ele>
        <time>2014-03-18T14:26:16Z</time>
      </trkpt>
      <trkpt lat="44.09713" lon="2.99509">
        <ele>475</ele>
        <time>2014-03-18T14:26:18Z</time>
      </trkpt>
      <trkpt lat="44.09711" lon="2.99517">
        <ele>475</ele>
        <time>2014-03-18T14:26:22Z</time>
      </trkpt>
      <trkpt lat="44.09707" lon="2.9952">
        <ele>474</ele>
        <time>2014-03-18T14:26:29Z</time>
      </trkpt>
      <trkpt lat="44.09702" lon="2.99524">
        <ele>473</ele>
        <time>2014-03-18T14:26:32Z</time>
      </trkpt>
      <trkpt lat="44.09698" lon="2.99523">
        <ele>471</ele>
        <time>2014-03-18T14:26:37Z</time>
      </trkpt>
      <trkpt lat="44.09692" lon="2.99525">
        <ele>468</ele>
        <time>2014-03-18T14:26:41Z</time>
      </trkpt>
      <trkpt lat="44.09687" lon="2.9953">
        <ele>468</ele>
        <time>2014-03-18T14:26:44Z</time>
      </trkpt>
      <trkpt lat="44.09684" lon="2.99534">
        <ele>467</ele>
        <time>2014-03-18T14:26:48Z</time>
      </trkpt>
      <trkpt lat="44.09666" lon="2.99549">
        <ele>457</ele>
        <time>2014-03-18T14:27:15Z</time>
      </trkpt>
      <trkpt lat="44.09662" lon="2.99553">
        <ele>457</ele>
        <time>2014-03-18T14:27:18Z</time>
      </trkpt>
      <trkpt lat="44.09658" lon="2.9956">
        <ele>458</ele>
        <time>2014-03-18T14:27:21Z</time>
      </trkpt>
      <trkpt lat="44.09655" lon="2.99565">
        <ele>457</ele>
        <time>2014-03-18T14:27:25Z</time>
      </trkpt>
      <trkpt lat="44.09652" lon="2.9957">
        <ele>457</ele>
        <time>2014-03-18T14:27:28Z</time>
      </trkpt>
      <trkpt lat="44.09649" lon="2.99576">
        <ele>459</ele>
        <time>2014-03-18T14:27:31Z</time>
      </trkpt>
      <trkpt lat="44.09644" lon="2.99578">
        <ele>460</ele>
        <time>2014-03-18T14:27:35Z</time>
      </trkpt>
      <trkpt lat="44.09639" lon="2.99582">
        <ele>459</ele>
        <time>2014-03-18T14:27:40Z</time>
      </trkpt>
      <trkpt lat="44.09636" lon="2.99587">
        <ele>457</ele>
        <time>2014-03-18T14:27:45Z</time>
      </trkpt>
      <trkpt lat="44.09633" lon="2.99592">
        <ele>454</ele>
        <time>2014-03-18T14:27:49Z</time>
      </trkpt>
      <trkpt lat="44.09629" lon="2.99599">
        <ele>453</ele>
        <time>2014-03-18T14:27:53Z</time>
      </trkpt>
      <trkpt lat="44.09625" lon="2.99604">
        <ele>453</ele>
        <time>2014-03-18T14:27:56Z</time>
      </trkpt>
      <trkpt lat="44.09621" lon="2.99608">
        <ele>452</ele>
        <time>2014-03-18T14:27:59Z</time>
      </trkpt>
      <trkpt lat="44.09611" lon="2.99607">
        <ele>447</ele>
        <time>2014-03-18T14:28:10Z</time>
      </trkpt>
      <trkpt lat="44.09607" lon="2.99612">
        <ele>445</ele>
        <time>2014-03-18T14:28:14Z</time>
      </trkpt>
      <trkpt lat="44.09603" lon="2.99614">
        <ele>445</ele>
        <time>2014-03-18T14:28:18Z</time>
      </trkpt>
      <trkpt lat="44.09606" lon="2.99602">
        <ele>444</ele>
        <time>2014-03-18T14:28:26Z</time>
      </trkpt>
      <trkpt lat="44.09597" lon="2.99604">
        <ele>444</ele>
        <time>2014-03-18T14:28:31Z</time>
      </trkpt>
      <trkpt lat="44.09592" lon="2.99607">
        <ele>443</ele>
        <time>2014-03-18T14:28:34Z</time>
      </trkpt>
      <trkpt lat="44.09588" lon="2.9961">
        <ele>442</ele>
        <time>2014-03-18T14:28:38Z</time>
      </trkpt>
      <trkpt lat="44.09584" lon="2.99613">
        <ele>442</ele>
        <time>2014-03-18T14:28:43Z</time>
      </trkpt>
      <trkpt lat="44.09578" lon="2.99613">
        <ele>441</ele>
        <time>2014-03-18T14:28:47Z</time>
      </trkpt>
      <trkpt lat="44.09577" lon="2.99614">
        <ele>439</ele>
        <time>2014-03-18T14:29:25Z</time>
      </trkpt>
      <trkpt lat="44.09575" lon="2.99619">
        <ele>442</ele>
        <time>2014-03-18T14:31:44Z</time>
      </trkpt>
      <trkpt lat="44.09576" lon="2.99613">
        <ele>443</ele>
        <time>2014-03-18T14:32:31Z</time>
      </trkpt>
      <trkpt lat="44.09571" lon="2.99612">
        <ele>443</ele>
        <time>2014-03-18T14:32:40Z</time>
      </trkpt>
      <trkpt lat="44.09571" lon="2.99617">
        <ele>448</ele>
        <time>2014-03-18T14:32:53Z</time>
      </trkpt>
      <trkpt lat="44.09574" lon="2.9962">
        <ele>452</ele>
        <time>2014-03-18T14:33:15Z</time>
      </trkpt>
      <trkpt lat="44.09579" lon="2.99608">
        <ele>446</ele>
        <time>2014-03-18T14:33:29Z</time>
      </trkpt>
      <trkpt lat="44.09576" lon="2.99613">
        <ele>445</ele>
        <time>2014-03-18T14:33:47Z</time>
      </trkpt>
      <trkpt lat="44.09577" lon="2.99618">
        <ele>442</ele>
        <time>2014-03-18T14:34:51Z</time>
      </trkpt>
      <trkpt lat="44.09573" lon="2.99622">
        <ele>443</ele>
        <time>2014-03-18T14:34:56Z</time>
      </trkpt>
      <trkpt lat="44.09569" lon="2.99612">
        <ele>444</ele>
        <time>2014-03-18T14:35:53Z</time>
      </trkpt>
      <trkpt lat="44.0957" lon="2.99617">
        <ele>444</ele>
        <time>2014-03-18T14:36:08Z</time>
      </trkpt>
      <trkpt lat="44.09566" lon="2.99622">
        <ele>445</ele>
        <time>2014-03-18T14:36:13Z</time>
      </trkpt>
      <trkpt lat="44.09567" lon="2.99617">
        <ele>445</ele>
        <time>2014-03-18T14:36:35Z</time>
      </trkpt>
      <trkpt lat="44.09564" lon="2.99621">
        <ele>444</ele>
        <time>2014-03-18T14:36:52Z</time>
      </trkpt>
      <trkpt lat="44.09561" lon="2.99625">
        <ele>444</ele>
        <time>2014-03-18T14:36:55Z</time>
      </trkpt>
      <trkpt lat="44.09556" lon="2.99623">
        <ele>445</ele>
        <time>2014-03-18T14:37:02Z</time>
      </trkpt>
      <trkpt lat="44.09551" lon="2.9962">
        <ele>445</ele>
        <time>2014-03-18T14:37:05Z</time>
      </trkpt>
      <trkpt lat="44.09548" lon="2.99616">
        <ele>445</ele>
        <time>2014-03-18T14:37:08Z</time>
      </trkpt>
      <trkpt lat="44.09543" lon="2.99614">
        <ele>445</ele>
        <time>2014-03-18T14:37:12Z</time>
      </trkpt>
      <trkpt lat="44.09537" lon="2.99615">
        <ele>446</ele>
        <time>2014-03-18T14:37:15Z</time>
      </trkpt>
      <trkpt lat="44.09532" lon="2.99614">
        <ele>446</ele>
        <time>2014-03-18T14:37:18Z</time>
      </trkpt>
      <trkpt lat="44.09527" lon="2.99613">
        <ele>444</ele>
        <time>2014-03-18T14:37:23Z</time>
      </trkpt>
      <trkpt lat="44.09522" lon="2.99613">
        <ele>443</ele>
        <time>2014-03-18T14:37:27Z</time>
      </trkpt>
      <trkpt lat="44.09517" lon="2.99614">
        <ele>443</ele>
        <time>2014-03-18T14:37:34Z</time>
      </trkpt>
      <trkpt lat="44.09513" lon="2.99619">
        <ele>442</ele>
        <time>2014-03-18T14:37:38Z</time>
      </trkpt>
      <trkpt lat="44.09508" lon="2.99621">
        <ele>442</ele>
        <time>2014-03-18T14:37:41Z</time>
      </trkpt>
      <trkpt lat="44.09503" lon="2.99623">
        <ele>442</ele>
        <time>2014-03-18T14:37:44Z</time>
      </trkpt>
      <trkpt lat="44.09497" lon="2.99627">
        <ele>443</ele>
        <time>2014-03-18T14:37:47Z</time>
      </trkpt>
      <trkpt lat="44.09492" lon="2.99629">
        <ele>443</ele>
        <time>2014-03-18T14:37:50Z</time>
      </trkpt>
      <trkpt lat="44.09486" lon="2.99631">
        <ele>444</ele>
        <time>2014-03-18T14:37:53Z</time>
      </trkpt>
      <trkpt lat="44.0948" lon="2.99634">
        <ele>444</ele>
        <time>2014-03-18T14:37:56Z</time>
      </trkpt>
      <trkpt lat="44.09476" lon="2.99635">
        <ele>444</ele>
        <time>2014-03-18T14:37:59Z</time>
      </trkpt>
      <trkpt lat="44.09471" lon="2.99638">
        <ele>444</ele>
        <time>2014-03-18T14:38:05Z</time>
      </trkpt>
      <trkpt lat="44.09468" lon="2.99643">
        <ele>444</ele>
        <time>2014-03-18T14:38:09Z</time>
      </trkpt>
      <trkpt lat="44.09464" lon="2.99648">
        <ele>444</ele>
        <time>2014-03-18T14:38:14Z</time>
      </trkpt>
      <trkpt lat="44.09462" lon="2.99656">
        <ele>443</ele>
        <time>2014-03-18T14:38:26Z</time>
      </trkpt>
      <trkpt lat="44.09459" lon="2.99662">
        <ele>442</ele>
        <time>2014-03-18T14:38:30Z</time>
      </trkpt>
      <trkpt lat="44.09457" lon="2.99669">
        <ele>440</ele>
        <time>2014-03-18T14:38:36Z</time>
      </trkpt>
      <trkpt lat="44.09455" lon="2.99674">
        <ele>439</ele>
        <time>2014-03-18T14:38:39Z</time>
      </trkpt>
      <trkpt lat="44.09451" lon="2.99679">
        <ele>438</ele>
        <time>2014-03-18T14:38:44Z</time>
      </trkpt>
      <trkpt lat="44.09447" lon="2.99683">
        <ele>437</ele>
        <time>2014-03-18T14:38:46Z</time>
      </trkpt>
      <trkpt lat="44.09443" lon="2.99688">
        <ele>436</ele>
        <time>2014-03-18T14:38:49Z</time>
      </trkpt>
      <trkpt lat="44.09441" lon="2.99694">
        <ele>436</ele>
        <time>2014-03-18T14:38:52Z</time>
      </trkpt>
      <trkpt lat="44.09439" lon="2.99701">
        <ele>433</ele>
        <time>2014-03-18T14:38:58Z</time>
      </trkpt>
      <trkpt lat="44.09438" lon="2.99708">
        <ele>433</ele>
        <time>2014-03-18T14:39:01Z</time>
      </trkpt>
      <trkpt lat="44.09436" lon="2.99715">
        <ele>432</ele>
        <time>2014-03-18T14:39:07Z</time>
      </trkpt>
      <trkpt lat="44.09432" lon="2.99721">
        <ele>431</ele>
        <time>2014-03-18T14:39:13Z</time>
      </trkpt>
      <trkpt lat="44.09431" lon="2.99727">
        <ele>431</ele>
        <time>2014-03-18T14:39:17Z</time>
      </trkpt>
      <trkpt lat="44.0943" lon="2.99734">
        <ele>430</ele>
        <time>2014-03-18T14:39:20Z</time>
      </trkpt>
      <trkpt lat="44.0943" lon="2.99741">
        <ele>429</ele>
        <time>2014-03-18T14:39:25Z</time>
      </trkpt>
      <trkpt lat="44.09434" lon="2.99746">
        <ele>428</ele>
        <time>2014-03-18T14:39:30Z</time>
      </trkpt>
      <trkpt lat="44.09431" lon="2.99752">
        <ele>426</ele>
        <time>2014-03-18T14:39:35Z</time>
      </trkpt>
      <trkpt lat="44.09427" lon="2.99757">
        <ele>426</ele>
        <time>2014-03-18T14:39:39Z</time>
      </trkpt>
      <trkpt lat="44.09423" lon="2.99763">
        <ele>426</ele>
        <time>2014-03-18T14:39:42Z</time>
      </trkpt>
      <trkpt lat="44.09418" lon="2.99767">
        <ele>426</ele>
        <time>2014-03-18T14:39:44Z</time>
      </trkpt>
      <trkpt lat="44.09414" lon="2.9977">
        <ele>427</ele>
        <time>2014-03-18T14:39:46Z</time>
      </trkpt>
      <trkpt lat="44.0941" lon="2.99772">
        <ele>427</ele>
        <time>2014-03-18T14:39:48Z</time>
      </trkpt>
      <trkpt lat="44.09405" lon="2.99775">
        <ele>427</ele>
        <time>2014-03-18T14:39:52Z</time>
      </trkpt>
      <trkpt lat="44.094" lon="2.99777">
        <ele>426</ele>
        <time>2014-03-18T14:39:57Z</time>
      </trkpt>
      <trkpt lat="44.09395" lon="2.9978">
        <ele>425</ele>
        <time>2014-03-18T14:40:02Z</time>
      </trkpt>
      <trkpt lat="44.0939" lon="2.99782">
        <ele>424</ele>
        <time>2014-03-18T14:40:04Z</time>
      </trkpt>
      <trkpt lat="44.09386" lon="2.99783">
        <ele>424</ele>
        <time>2014-03-18T14:40:06Z</time>
      </trkpt>
      <trkpt lat="44.09381" lon="2.99784">
        <ele>423</ele>
        <time>2014-03-18T14:40:11Z</time>
      </trkpt>
      <trkpt lat="44.09376" lon="2.99785">
        <ele>424</ele>
        <time>2014-03-18T14:40:15Z</time>
      </trkpt>
      <trkpt lat="44.09371" lon="2.99786">
        <ele>425</ele>
        <time>2014-03-18T14:40:20Z</time>
      </trkpt>
      <trkpt lat="44.09365" lon="2.99787">
        <ele>426</ele>
        <time>2014-03-18T14:40:23Z</time>
      </trkpt>
      <trkpt lat="44.0936" lon="2.99786">
        <ele>425</ele>
        <time>2014-03-18T14:40:26Z</time>
      </trkpt>
      <trkpt lat="44.09355" lon="2.99787">
        <ele>425</ele>
        <time>2014-03-18T14:40:30Z</time>
      </trkpt>
      <trkpt lat="44.09351" lon="2.99787">
        <ele>424</ele>
        <time>2014-03-18T14:40:35Z</time>
      </trkpt>
      <trkpt lat="44.09346" lon="2.99785">
        <ele>423</ele>
        <time>2014-03-18T14:40:40Z</time>
      </trkpt>
      <trkpt lat="44.0934" lon="2.99782">
        <ele>422</ele>
        <time>2014-03-18T14:40:45Z</time>
      </trkpt>
      <trkpt lat="44.09335" lon="2.99781">
        <ele>423</ele>
        <time>2014-03-18T14:40:49Z</time>
      </trkpt>
      <trkpt lat="44.09329" lon="2.99779">
        <ele>425</ele>
        <time>2014-03-18T14:40:53Z</time>
      </trkpt>
      <trkpt lat="44.09324" lon="2.99776">
        <ele>427</ele>
        <time>2014-03-18T14:40:56Z</time>
      </trkpt>
      <trkpt lat="44.09319" lon="2.99776">
        <ele>428</ele>
        <time>2014-03-18T14:41:01Z</time>
      </trkpt>
      <trkpt lat="44.09313" lon="2.99779">
        <ele>428</ele>
        <time>2014-03-18T14:41:05Z</time>
      </trkpt>
      <trkpt lat="44.09308" lon="2.99779">
        <ele>429</ele>
        <time>2014-03-18T14:41:09Z</time>
      </trkpt>
      <trkpt lat="44.09304" lon="2.99782">
        <ele>429</ele>
        <time>2014-03-18T14:41:13Z</time>
      </trkpt>
      <trkpt lat="44.09299" lon="2.99785">
        <ele>428</ele>
        <time>2014-03-18T14:41:18Z</time>
      </trkpt>
      <trkpt lat="44.09295" lon="2.99791">
        <ele>429</ele>
        <time>2014-03-18T14:41:21Z</time>
      </trkpt>
      <trkpt lat="44.09291" lon="2.99796">
        <ele>430</ele>
        <time>2014-03-18T14:41:24Z</time>
      </trkpt>
      <trkpt lat="44.09287" lon="2.99801">
        <ele>430</ele>
        <time>2014-03-18T14:41:27Z</time>
      </trkpt>
      <trkpt lat="44.09285" lon="2.99807">
        <ele>430</ele>
        <time>2014-03-18T14:41:30Z</time>
      </trkpt>
      <trkpt lat="44.09282" lon="2.99813">
        <ele>431</ele>
        <time>2014-03-18T14:41:34Z</time>
      </trkpt>
      <trkpt lat="44.09279" lon="2.99819">
        <ele>429</ele>
        <time>2014-03-18T14:41:38Z</time>
      </trkpt>
      <trkpt lat="44.09278" lon="2.99827">
        <ele>428</ele>
        <time>2014-03-18T14:41:43Z</time>
      </trkpt>
      <trkpt lat="44.09278" lon="2.99834">
        <ele>427</ele>
        <time>2014-03-18T14:41:47Z</time>
      </trkpt>
      <trkpt lat="44.09277" lon="2.99842">
        <ele>426</ele>
        <time>2014-03-18T14:41:51Z</time>
      </trkpt>
      <trkpt lat="44.09274" lon="2.99847">
        <ele>425</ele>
        <time>2014-03-18T14:41:55Z</time>
      </trkpt>
      <trkpt lat="44.09275" lon="2.99853">
        <ele>426</ele>
        <time>2014-03-18T14:42:00Z</time>
      </trkpt>
      <trkpt lat="44.09271" lon="2.99857">
        <ele>424</ele>
        <time>2014-03-18T14:42:22Z</time>
      </trkpt>
      <trkpt lat="44.09273" lon="2.99861">
        <ele>420</ele>
        <time>2014-03-18T14:42:47Z</time>
      </trkpt>
      <trkpt lat="44.09275" lon="2.99867">
        <ele>420</ele>
        <time>2014-03-18T14:42:54Z</time>
      </trkpt>
      <trkpt lat="44.09279" lon="2.99872">
        <ele>417</ele>
        <time>2014-03-18T14:42:58Z</time>
      </trkpt>
      <trkpt lat="44.09285" lon="2.99876">
        <ele>417</ele>
        <time>2014-03-18T14:43:02Z</time>
      </trkpt>
      <trkpt lat="44.09289" lon="2.99878">
        <ele>417</ele>
        <time>2014-03-18T14:43:05Z</time>
      </trkpt>
      <trkpt lat="44.09292" lon="2.99883">
        <ele>417</ele>
        <time>2014-03-18T14:43:09Z</time>
      </trkpt>
      <trkpt lat="44.09297" lon="2.99888">
        <ele>417</ele>
        <time>2014-03-18T14:43:14Z</time>
      </trkpt>
      <trkpt lat="44.09299" lon="2.99894">
        <ele>417</ele>
        <time>2014-03-18T14:43:17Z</time>
      </trkpt>
      <trkpt lat="44.09297" lon="2.99896">
        <ele>418</ele>
        <time>2014-03-18T14:43:30Z</time>
      </trkpt>
      <trkpt lat="44.09299" lon="2.99903">
        <ele>417</ele>
        <time>2014-03-18T14:43:40Z</time>
      </trkpt>
      <trkpt lat="44.09298" lon="2.99911">
        <ele>415</ele>
        <time>2014-03-18T14:43:46Z</time>
      </trkpt>
      <trkpt lat="44.09301" lon="2.99916">
        <ele>413</ele>
        <time>2014-03-18T14:43:50Z</time>
      </trkpt>
      <trkpt lat="44.09303" lon="2.99922">
        <ele>412</ele>
        <time>2014-03-18T14:43:54Z</time>
      </trkpt>
      <trkpt lat="44.09304" lon="2.99927">
        <ele>409</ele>
        <time>2014-03-18T14:44:02Z</time>
      </trkpt>
      <trkpt lat="44.09306" lon="2.99933">
        <ele>408</ele>
        <time>2014-03-18T14:44:07Z</time>
      </trkpt>
      <trkpt lat="44.09308" lon="2.99939">
        <ele>406</ele>
        <time>2014-03-18T14:44:11Z</time>
      </trkpt>
      <trkpt lat="44.0931" lon="2.99945">
        <ele>404</ele>
        <time>2014-03-18T14:44:15Z</time>
      </trkpt>
      <trkpt lat="44.0931" lon="2.99953">
        <ele>403</ele>
        <time>2014-03-18T14:44:18Z</time>
      </trkpt>
      <trkpt lat="44.09309" lon="2.99961">
        <ele>403</ele>
        <time>2014-03-18T14:44:21Z</time>
      </trkpt>
      <trkpt lat="44.09308" lon="2.99969">
        <ele>403</ele>
        <time>2014-03-18T14:44:25Z</time>
      </trkpt>
      <trkpt lat="44.09309" lon="2.99975">
        <ele>401</ele>
        <time>2014-03-18T14:44:30Z</time>
      </trkpt>
      <trkpt lat="44.09314" lon="2.99977">
        <ele>398</ele>
        <time>2014-03-18T14:44:37Z</time>
      </trkpt>
      <trkpt lat="44.09315" lon="2.99984">
        <ele>396</ele>
        <time>2014-03-18T14:44:40Z</time>
      </trkpt>
      <trkpt lat="44.09313" lon="2.99993">
        <ele>396</ele>
        <time>2014-03-18T14:44:43Z</time>
      </trkpt>
      <trkpt lat="44.09313" lon="3">
        <ele>395</ele>
        <time>2014-03-18T14:44:47Z</time>
      </trkpt>
      <trkpt lat="44.09318" lon="3.00003">
        <ele>394</ele>
        <time>2014-03-18T14:44:51Z</time>
      </trkpt>
      <trkpt lat="44.0932" lon="3.00009">
        <ele>394</ele>
        <time>2014-03-18T14:44:55Z</time>
      </trkpt>
      <trkpt lat="44.09316" lon="3.00013">
        <ele>396</ele>
        <time>2014-03-18T14:45:05Z</time>
      </trkpt>
      <trkpt lat="44.09317" lon="3.00015">
        <ele>397</ele>
        <time>2014-03-18T14:45:26Z</time>
      </trkpt>
      <trkpt lat="44.09321" lon="3.0002">
        <ele>397</ele>
        <time>2014-03-18T14:45:31Z</time>
      </trkpt>
      <trkpt lat="44.09322" lon="3.00027">
        <ele>397</ele>
        <time>2014-03-18T14:45:37Z</time>
      </trkpt>
      <trkpt lat="44.09324" lon="3.00033">
        <ele>399</ele>
        <time>2014-03-18T14:45:42Z</time>
      </trkpt>
      <trkpt lat="44.09322" lon="3.00039">
        <ele>399</ele>
        <time>2014-03-18T14:45:47Z</time>
      </trkpt>
      <trkpt lat="44.09319" lon="3.00045">
        <ele>400</ele>
        <time>2014-03-18T14:45:52Z</time>
      </trkpt>
      <trkpt lat="44.09316" lon="3.00051">
        <ele>400</ele>
        <time>2014-03-18T14:45:55Z</time>
      </trkpt>
      <trkpt lat="44.09312" lon="3.00055">
        <ele>400</ele>
        <time>2014-03-18T14:45:58Z</time>
      </trkpt>
      <trkpt lat="44.09308" lon="3.0006">
        <ele>399</ele>
        <time>2014-03-18T14:46:02Z</time>
      </trkpt>
      <trkpt lat="44.09303" lon="3.00062">
        <ele>399</ele>
        <time>2014-03-18T14:46:05Z</time>
      </trkpt>
      <trkpt lat="44.09298" lon="3.00065">
        <ele>399</ele>
        <time>2014-03-18T14:46:09Z</time>
      </trkpt>
      <trkpt lat="44.09293" lon="3.00068">
        <ele>399</ele>
        <time>2014-03-18T14:46:13Z</time>
      </trkpt>
      <trkpt lat="44.09288" lon="3.00069">
        <ele>399</ele>
        <time>2014-03-18T14:46:19Z</time>
      </trkpt>
      <trkpt lat="44.09284" lon="3.00073">
        <ele>399</ele>
        <time>2014-03-18T14:46:22Z</time>
      </trkpt>
      <trkpt lat="44.09282" lon="3.00079">
        <ele>398</ele>
        <time>2014-03-18T14:46:25Z</time>
      </trkpt>
      <trkpt lat="44.0928" lon="3.00085">
        <ele>398</ele>
        <time>2014-03-18T14:46:28Z</time>
      </trkpt>
      <trkpt lat="44.09277" lon="3.0009">
        <ele>397</ele>
        <time>2014-03-18T14:46:32Z</time>
      </trkpt>
      <trkpt lat="44.09273" lon="3.00095">
        <ele>395</ele>
        <time>2014-03-18T14:46:36Z</time>
      </trkpt>
      <trkpt lat="44.0927" lon="3.00101">
        <ele>394</ele>
        <time>2014-03-18T14:46:41Z</time>
      </trkpt>
      <trkpt lat="44.09267" lon="3.00106">
        <ele>393</ele>
        <time>2014-03-18T14:46:45Z</time>
      </trkpt>
      <trkpt lat="44.09263" lon="3.0011">
        <ele>392</ele>
        <time>2014-03-18T14:46:50Z</time>
      </trkpt>
      <trkpt lat="44.09259" lon="3.00114">
        <ele>392</ele>
        <time>2014-03-18T14:46:54Z</time>
      </trkpt>
      <trkpt lat="44.09257" lon="3.0012">
        <ele>392</ele>
        <time>2014-03-18T14:46:57Z</time>
      </trkpt>
      <trkpt lat="44.09255" lon="3.00127">
        <ele>391</ele>
        <time>2014-03-18T14:47:00Z</time>
      </trkpt>
      <trkpt lat="44.09254" lon="3.00134">
        <ele>389</ele>
        <time>2014-03-18T14:47:05Z</time>
      </trkpt>
      <trkpt lat="44.09253" lon="3.0014">
        <ele>387</ele>
        <time>2014-03-18T14:47:08Z</time>
      </trkpt>
      <trkpt lat="44.0925" lon="3.00145">
        <ele>387</ele>
        <time>2014-03-18T14:47:12Z</time>
      </trkpt>
      <trkpt lat="44.09247" lon="3.0015">
        <ele>387</ele>
        <time>2014-03-18T14:47:16Z</time>
      </trkpt>
      <trkpt lat="44.09242" lon="3.00156">
        <ele>387</ele>
        <time>2014-03-18T14:47:21Z</time>
      </trkpt>
      <trkpt lat="44.0924" lon="3.00161">
        <ele>387</ele>
        <time>2014-03-18T14:47:25Z</time>
      </trkpt>
      <trkpt lat="44.09237" lon="3.00168">
        <ele>387</ele>
        <time>2014-03-18T14:47:29Z</time>
      </trkpt>
      <trkpt lat="44.09234" lon="3.00175">
        <ele>386</ele>
        <time>2014-03-18T14:47:34Z</time>
      </trkpt>
      <trkpt lat="44.09231" lon="3.00181">
        <ele>385</ele>
        <time>2014-03-18T14:47:37Z</time>
      </trkpt>
      <trkpt lat="44.09229" lon="3.00186">
        <ele>384</ele>
        <time>2014-03-18T14:47:41Z</time>
      </trkpt>
      <trkpt lat="44.09226" lon="3.00193">
        <ele>384</ele>
        <time>2014-03-18T14:47:45Z</time>
      </trkpt>
      <trkpt lat="44.09224" lon="3.00198">
        <ele>384</ele>
        <time>2014-03-18T14:47:49Z</time>
      </trkpt>
      <trkpt lat="44.09219" lon="3.00203">
        <ele>384</ele>
        <time>2014-03-18T14:47:54Z</time>
      </trkpt>
      <trkpt lat="44.09215" lon="3.00208">
        <ele>384</ele>
        <time>2014-03-18T14:47:57Z</time>
      </trkpt>
      <trkpt lat="44.09212" lon="3.00212">
        <ele>384</ele>
        <time>2014-03-18T14:48:03Z</time>
      </trkpt>
      <trkpt lat="44.09209" lon="3.00219">
        <ele>383</ele>
        <time>2014-03-18T14:48:08Z</time>
      </trkpt>
      <trkpt lat="44.09206" lon="3.00226">
        <ele>382</ele>
        <time>2014-03-18T14:48:12Z</time>
      </trkpt>
      <trkpt lat="44.09204" lon="3.00232">
        <ele>381</ele>
        <time>2014-03-18T14:48:15Z</time>
      </trkpt>
      <trkpt lat="44.09201" lon="3.00238">
        <ele>380</ele>
        <time>2014-03-18T14:48:19Z</time>
      </trkpt>
      <trkpt lat="44.092" lon="3.00245">
        <ele>378</ele>
        <time>2014-03-18T14:48:24Z</time>
      </trkpt>
      <trkpt lat="44.09198" lon="3.00252">
        <ele>377</ele>
        <time>2014-03-18T14:48:28Z</time>
      </trkpt>
      <trkpt lat="44.09196" lon="3.00258">
        <ele>375</ele>
        <time>2014-03-18T14:48:32Z</time>
      </trkpt>
      <trkpt lat="44.09195" lon="3.00266">
        <ele>375</ele>
        <time>2014-03-18T14:48:36Z</time>
      </trkpt>
      <trkpt lat="44.09194" lon="3.00273">
        <ele>374</ele>
        <time>2014-03-18T14:48:41Z</time>
      </trkpt>
      <trkpt lat="44.09192" lon="3.00279">
        <ele>372</ele>
        <time>2014-03-18T14:48:46Z</time>
      </trkpt>
      <trkpt lat="44.0919" lon="3.00286">
        <ele>372</ele>
        <time>2014-03-18T14:48:50Z</time>
      </trkpt>
      <trkpt lat="44.09188" lon="3.00292">
        <ele>373</ele>
        <time>2014-03-18T14:48:54Z</time>
      </trkpt>
      <trkpt lat="44.09185" lon="3.00298">
        <ele>373</ele>
        <time>2014-03-18T14:48:58Z</time>
      </trkpt>
      <trkpt lat="44.09183" lon="3.00304">
        <ele>372</ele>
        <time>2014-03-18T14:49:03Z</time>
      </trkpt>
      <trkpt lat="44.09183" lon="3.00311">
        <ele>372</ele>
        <time>2014-03-18T14:49:06Z</time>
      </trkpt>
      <trkpt lat="44.09184" lon="3.00317">
        <ele>372</ele>
        <time>2014-03-18T14:49:11Z</time>
      </trkpt>
      <trkpt lat="44.09181" lon="3.00319">
        <ele>371</ele>
        <time>2014-03-18T14:49:20Z</time>
      </trkpt>
      <trkpt lat="44.09183" lon="3.00323">
        <ele>368</ele>
        <time>2014-03-18T14:49:31Z</time>
      </trkpt>
      <trkpt lat="44.09184" lon="3.0033">
        <ele>367</ele>
        <time>2014-03-18T14:49:36Z</time>
      </trkpt>
      <trkpt lat="44.09183" lon="3.00329">
        <ele>363</ele>
        <time>2014-03-18T14:49:49Z</time>
      </trkpt>
      <trkpt lat="44.0918" lon="3.00323">
        <ele>361</ele>
        <time>2014-03-18T14:49:55Z</time>
      </trkpt>
      <trkpt lat="44.09175" lon="3.00321">
        <ele>358</ele>
        <time>2014-03-18T14:50:00Z</time>
      </trkpt>
      <trkpt lat="44.09171" lon="3.00325">
        <ele>356</ele>
        <time>2014-03-18T14:50:03Z</time>
      </trkpt>
      <trkpt lat="44.09167" lon="3.00332">
        <ele>355</ele>
        <time>2014-03-18T14:50:07Z</time>
      </trkpt>
      <trkpt lat="44.09168" lon="3.00329">
        <ele>354</ele>
        <time>2014-03-18T14:51:06Z</time>
      </trkpt>
      <trkpt lat="44.09163" lon="3.00327">
        <ele>353</ele>
        <time>2014-03-18T14:51:22Z</time>
      </trkpt>
      <trkpt lat="44.09163" lon="3.0033">
        <ele>353</ele>
        <time>2014-03-18T14:51:34Z</time>
      </trkpt>
      <trkpt lat="44.09161" lon="3.00334">
        <ele>352</ele>
        <time>2014-03-18T14:52:02Z</time>
      </trkpt>
      <trkpt lat="44.09158" lon="3.00329">
        <ele>350</ele>
        <time>2014-03-18T14:52:09Z</time>
      </trkpt>
      <trkpt lat="44.09154" lon="3.00324">
        <ele>348</ele>
        <time>2014-03-18T14:52:15Z</time>
      </trkpt>
      <trkpt lat="44.09149" lon="3.00321">
        <ele>347</ele>
        <time>2014-03-18T14:52:20Z</time>
      </trkpt>
      <trkpt lat="44.09145" lon="3.00318">
        <ele>347</ele>
        <time>2014-03-18T14:52:24Z</time>
      </trkpt>
      <trkpt lat="44.09141" lon="3.00315">
        <ele>347</ele>
        <time>2014-03-18T14:52:28Z</time>
      </trkpt>
      <trkpt lat="44.09137" lon="3.0031">
        <ele>347</ele>
        <time>2014-03-18T14:52:34Z</time>
      </trkpt>
      <trkpt lat="44.09133" lon="3.00306">
        <ele>348</ele>
        <time>2014-03-18T14:52:37Z</time>
      </trkpt>
      <trkpt lat="44.0913" lon="3.00301">
        <ele>346</ele>
        <time>2014-03-18T14:52:43Z</time>
      </trkpt>
      <trkpt lat="44.09124" lon="3.00299">
        <ele>344</ele>
        <time>2014-03-18T14:52:48Z</time>
      </trkpt>
      <trkpt lat="44.09119" lon="3.00298">
        <ele>344</ele>
        <time>2014-03-18T14:52:52Z</time>
      </trkpt>
      <trkpt lat="44.09113" lon="3.00298">
        <ele>344</ele>
        <time>2014-03-18T14:52:56Z</time>
      </trkpt>
      <trkpt lat="44.09108" lon="3.00297">
        <ele>344</ele>
        <time>2014-03-18T14:53:00Z</time>
      </trkpt>
      <trkpt lat="44.09103" lon="3.00297">
        <ele>344</ele>
        <time>2014-03-18T14:53:05Z</time>
      </trkpt>
      <trkpt lat="44.09097" lon="3.00296">
        <ele>345</ele>
        <time>2014-03-18T14:53:11Z</time>
      </trkpt>
      <trkpt lat="44.09093" lon="3.00296">
        <ele>345</ele>
        <time>2014-03-18T14:53:14Z</time>
      </trkpt>
      <trkpt lat="44.09088" lon="3.00292">
        <ele>344</ele>
        <time>2014-03-18T14:53:18Z</time>
      </trkpt>
      <trkpt lat="44.09084" lon="3.00289">
        <ele>345</ele>
        <time>2014-03-18T14:53:22Z</time>
      </trkpt>
      <trkpt lat="44.09081" lon="3.00282">
        <ele>345</ele>
        <time>2014-03-18T14:53:26Z</time>
      </trkpt>
      <trkpt lat="44.09079" lon="3.00276">
        <ele>345</ele>
        <time>2014-03-18T14:53:29Z</time>
      </trkpt>
      <trkpt lat="44.09078" lon="3.00269">
        <ele>345</ele>
        <time>2014-03-18T14:53:33Z</time>
      </trkpt>
      <trkpt lat="44.0908" lon="3.00262">
        <ele>345</ele>
        <time>2014-03-18T14:53:39Z</time>
      </trkpt>
      <trkpt lat="44.09082" lon="3.00257">
        <ele>345</ele>
        <time>2014-03-18T14:53:43Z</time>
      </trkpt>
      <trkpt lat="44.09085" lon="3.00251">
        <ele>345</ele>
        <time>2014-03-18T14:53:47Z</time>
      </trkpt>
      <trkpt lat="44.09088" lon="3.00246">
        <ele>345</ele>
        <time>2014-03-18T14:53:51Z</time>
      </trkpt>
      <trkpt lat="44.0909" lon="3.0024">
        <ele>346</ele>
        <time>2014-03-18T14:53:55Z</time>
      </trkpt>
      <trkpt lat="44.09092" lon="3.00235">
        <ele>346</ele>
        <time>2014-03-18T14:53:59Z</time>
      </trkpt>
      <trkpt lat="44.09094" lon="3.00228">
        <ele>347</ele>
        <time>2014-03-18T14:54:03Z</time>
      </trkpt>
      <trkpt lat="44.09094" lon="3.0022">
        <ele>347</ele>
        <time>2014-03-18T14:54:08Z</time>
      </trkpt>
      <trkpt lat="44.09096" lon="3.00213">
        <ele>348</ele>
        <time>2014-03-18T14:54:13Z</time>
      </trkpt>
      <trkpt lat="44.09097" lon="3.00207">
        <ele>349</ele>
        <time>2014-03-18T14:54:16Z</time>
      </trkpt>
      <trkpt lat="44.091" lon="3.002">
        <ele>349</ele>
        <time>2014-03-18T14:54:21Z</time>
      </trkpt>
      <trkpt lat="44.09103" lon="3.00196">
        <ele>349</ele>
        <time>2014-03-18T14:54:25Z</time>
      </trkpt>
      <trkpt lat="44.09106" lon="3.00191">
        <ele>349</ele>
        <time>2014-03-18T14:54:30Z</time>
      </trkpt>
      <trkpt lat="44.09109" lon="3.00185">
        <ele>349</ele>
        <time>2014-03-18T14:54:34Z</time>
      </trkpt>
      <trkpt lat="44.09112" lon="3.0018">
        <ele>349</ele>
        <time>2014-03-18T14:54:38Z</time>
      </trkpt>
      <trkpt lat="44.09115" lon="3.00174">
        <ele>349</ele>
        <time>2014-03-18T14:54:42Z</time>
      </trkpt>
      <trkpt lat="44.09117" lon="3.00168">
        <ele>349</ele>
        <time>2014-03-18T14:54:46Z</time>
      </trkpt>
      <trkpt lat="44.0912" lon="3.00162">
        <ele>350</ele>
        <time>2014-03-18T14:54:50Z</time>
      </trkpt>
      <trkpt lat="44.09122" lon="3.00154">
        <ele>351</ele>
        <time>2014-03-18T14:54:54Z</time>
      </trkpt>
      <trkpt lat="44.09125" lon="3.00148">
        <ele>351</ele>
        <time>2014-03-18T14:54:58Z</time>
      </trkpt>
      <trkpt lat="44.09127" lon="3.00142">
        <ele>352</ele>
        <time>2014-03-18T14:55:02Z</time>
      </trkpt>
      <trkpt lat="44.09129" lon="3.00136">
        <ele>353</ele>
        <time>2014-03-18T14:55:06Z</time>
      </trkpt>
      <trkpt lat="44.0913" lon="3.00129">
        <ele>354</ele>
        <time>2014-03-18T14:55:11Z</time>
      </trkpt>
      <trkpt lat="44.09132" lon="3.00123">
        <ele>354</ele>
        <time>2014-03-18T14:55:16Z</time>
      </trkpt>
      <trkpt lat="44.09134" lon="3.00117">
        <ele>355</ele>
        <time>2014-03-18T14:55:21Z</time>
      </trkpt>
      <trkpt lat="44.09135" lon="3.00111">
        <ele>355</ele>
        <time>2014-03-18T14:55:25Z</time>
      </trkpt>
      <trkpt lat="44.09138" lon="3.00105">
        <ele>355</ele>
        <time>2014-03-18T14:55:29Z</time>
      </trkpt>
      <trkpt lat="44.09139" lon="3.00099">
        <ele>356</ele>
        <time>2014-03-18T14:55:33Z</time>
      </trkpt>
      <trkpt lat="44.09141" lon="3.00092">
        <ele>356</ele>
        <time>2014-03-18T14:55:38Z</time>
      </trkpt>
      <trkpt lat="44.09144" lon="3.00087">
        <ele>356</ele>
        <time>2014-03-18T14:55:44Z</time>
      </trkpt>
      <trkpt lat="44.09147" lon="3.00082">
        <ele>356</ele>
        <time>2014-03-18T14:55:49Z</time>
      </trkpt>
      <trkpt lat="44.09147" lon="3.00075">
        <ele>356</ele>
        <time>2014-03-18T14:55:54Z</time>
      </trkpt>
      <trkpt lat="44.09149" lon="3.00068">
        <ele>356</ele>
        <time>2014-03-18T14:55:58Z</time>
      </trkpt>
      <trkpt lat="44.09151" lon="3.00062">
        <ele>355</ele>
        <time>2014-03-18T14:56:02Z</time>
      </trkpt>
      <trkpt lat="44.09152" lon="3.00055">
        <ele>354</ele>
        <time>2014-03-18T14:56:06Z</time>
      </trkpt>
      <trkpt lat="44.09154" lon="3.00049">
        <ele>354</ele>
        <time>2014-03-18T14:56:10Z</time>
      </trkpt>
      <trkpt lat="44.09156" lon="3.00042">
        <ele>352</ele>
        <time>2014-03-18T14:56:14Z</time>
      </trkpt>
      <trkpt lat="44.09157" lon="3.00036">
        <ele>351</ele>
        <time>2014-03-18T14:56:18Z</time>
      </trkpt>
      <trkpt lat="44.09157" lon="3.00028">
        <ele>349</ele>
        <time>2014-03-18T14:56:22Z</time>
      </trkpt>
      <trkpt lat="44.09158" lon="3.00022">
        <ele>349</ele>
        <time>2014-03-18T14:56:25Z</time>
      </trkpt>
      <trkpt lat="44.09159" lon="3.00015">
        <ele>349</ele>
        <time>2014-03-18T14:56:29Z</time>
      </trkpt>
      <trkpt lat="44.09162" lon="3.00009">
        <ele>349</ele>
        <time>2014-03-18T14:56:33Z</time>
      </trkpt>
      <trkpt lat="44.0916" lon="3.00002">
        <ele>349</ele>
        <time>2014-03-18T14:56:37Z</time>
      </trkpt>
      <trkpt lat="44.09159" lon="2.99995">
        <ele>349</ele>
        <time>2014-03-18T14:56:41Z</time>
      </trkpt>
      <trkpt lat="44.09157" lon="2.99988">
        <ele>349</ele>
        <time>2014-03-18T14:56:45Z</time>
      </trkpt>
      <trkpt lat="44.09155" lon="2.99981">
        <ele>350</ele>
        <time>2014-03-18T14:56:50Z</time>
      </trkpt>
      <trkpt lat="44.09154" lon="2.99973">
        <ele>350</ele>
        <time>2014-03-18T14:56:54Z</time>
      </trkpt>
      <trkpt lat="44.09151" lon="2.99968">
        <ele>351</ele>
        <time>2014-03-18T14:56:58Z</time>
      </trkpt>
      <trkpt lat="44.09146" lon="2.99963">
        <ele>352</ele>
        <time>2014-03-18T14:57:02Z</time>
      </trkpt>
      <trkpt lat="44.09142" lon="2.99962">
        <ele>352</ele>
        <time>2014-03-18T14:57:05Z</time>
      </trkpt>
      <trkpt lat="44.09135" lon="2.99962">
        <ele>353</ele>
        <time>2014-03-18T14:57:09Z</time>
      </trkpt>
      <trkpt lat="44.0913" lon="2.99962">
        <ele>353</ele>
        <time>2014-03-18T14:57:12Z</time>
      </trkpt>
      <trkpt lat="44.09126" lon="2.99957">
        <ele>353</ele>
        <time>2014-03-18T14:57:17Z</time>
      </trkpt>
      <trkpt lat="44.09127" lon="2.9995">
        <ele>353</ele>
        <time>2014-03-18T14:57:19Z</time>
      </trkpt>
      <trkpt lat="44.09129" lon="2.99942">
        <ele>353</ele>
        <time>2014-03-18T14:57:22Z</time>
      </trkpt>
      <trkpt lat="44.09128" lon="2.99935">
        <ele>353</ele>
        <time>2014-03-18T14:57:25Z</time>
      </trkpt>
      <trkpt lat="44.09127" lon="2.99928">
        <ele>352</ele>
        <time>2014-03-18T14:57:28Z</time>
      </trkpt>
      <trkpt lat="44.09125" lon="2.99922">
        <ele>351</ele>
        <time>2014-03-18T14:57:32Z</time>
      </trkpt>
      <trkpt lat="44.09122" lon="2.99916">
        <ele>349</ele>
        <time>2014-03-18T14:57:37Z</time>
      </trkpt>
      <trkpt lat="44.0912" lon="2.99909">
        <ele>346</ele>
        <time>2014-03-18T14:57:42Z</time>
      </trkpt>
      <trkpt lat="44.09117" lon="2.99904">
        <ele>345</ele>
        <time>2014-03-18T14:57:45Z</time>
      </trkpt>
      <trkpt lat="44.09114" lon="2.99898">
        <ele>345</ele>
        <time>2014-03-18T14:57:48Z</time>
      </trkpt>
      <trkpt lat="44.09111" lon="2.99893">
        <ele>345</ele>
        <time>2014-03-18T14:57:51Z</time>
      </trkpt>
      <trkpt lat="44.09107" lon="2.99889">
        <ele>346</ele>
        <time>2014-03-18T14:57:54Z</time>
      </trkpt>
      <trkpt lat="44.09103" lon="2.99885">
        <ele>346</ele>
        <time>2014-03-18T14:57:57Z</time>
      </trkpt>
      <trkpt lat="44.09099" lon="2.9988">
        <ele>347</ele>
        <time>2014-03-18T14:58:00Z</time>
      </trkpt>
      <trkpt lat="44.09095" lon="2.99876">
        <ele>347</ele>
        <time>2014-03-18T14:58:03Z</time>
      </trkpt>
      <trkpt lat="44.09092" lon="2.99871">
        <ele>349</ele>
        <time>2014-03-18T14:58:06Z</time>
      </trkpt>
      <trkpt lat="44.09089" lon="2.99865">
        <ele>350</ele>
        <time>2014-03-18T14:58:09Z</time>
      </trkpt>
      <trkpt lat="44.09085" lon="2.99859">
        <ele>351</ele>
        <time>2014-03-18T14:58:13Z</time>
      </trkpt>
      <trkpt lat="44.09081" lon="2.99854">
        <ele>353</ele>
        <time>2014-03-18T14:58:17Z</time>
      </trkpt>
      <trkpt lat="44.09076" lon="2.99849">
        <ele>353</ele>
        <time>2014-03-18T14:58:21Z</time>
      </trkpt>
      <trkpt lat="44.09072" lon="2.99845">
        <ele>353</ele>
        <time>2014-03-18T14:58:25Z</time>
      </trkpt>
      <trkpt lat="44.09068" lon="2.99839">
        <ele>353</ele>
        <time>2014-03-18T14:58:29Z</time>
      </trkpt>
      <trkpt lat="44.09063" lon="2.99835">
        <ele>353</ele>
        <time>2014-03-18T14:58:33Z</time>
      </trkpt>
      <trkpt lat="44.0906" lon="2.9983">
        <ele>353</ele>
        <time>2014-03-18T14:58:36Z</time>
      </trkpt>
      <trkpt lat="44.09058" lon="2.99824">
        <ele>352</ele>
        <time>2014-03-18T14:58:40Z</time>
      </trkpt>
      <trkpt lat="44.09053" lon="2.99821">
        <ele>352</ele>
        <time>2014-03-18T14:58:44Z</time>
      </trkpt>
      <trkpt lat="44.09049" lon="2.99819">
        <ele>352</ele>
        <time>2014-03-18T14:58:47Z</time>
      </trkpt>
      <trkpt lat="44.09046" lon="2.99813">
        <ele>351</ele>
        <time>2014-03-18T14:58:52Z</time>
      </trkpt>
      <trkpt lat="44.09046" lon="2.99806">
        <ele>351</ele>
        <time>2014-03-18T14:58:54Z</time>
      </trkpt>
      <trkpt lat="44.0904" lon="2.99804">
        <ele>351</ele>
        <time>2014-03-18T14:58:59Z</time>
      </trkpt>
      <trkpt lat="44.09034" lon="2.99805">
        <ele>351</ele>
        <time>2014-03-18T14:59:02Z</time>
      </trkpt>
      <trkpt lat="44.0903" lon="2.99801">
        <ele>351</ele>
        <time>2014-03-18T14:59:06Z</time>
      </trkpt>
      <trkpt lat="44.09025" lon="2.99798">
        <ele>351</ele>
        <time>2014-03-18T14:59:10Z</time>
      </trkpt>
      <trkpt lat="44.09021" lon="2.99794">
        <ele>352</ele>
        <time>2014-03-18T14:59:14Z</time>
      </trkpt>
      <trkpt lat="44.09017" lon="2.99789">
        <ele>352</ele>
        <time>2014-03-18T14:59:17Z</time>
      </trkpt>
      <trkpt lat="44.09015" lon="2.99784">
        <ele>352</ele>
        <time>2014-03-18T14:59:20Z</time>
      </trkpt>
      <trkpt lat="44.09013" lon="2.99777">
        <ele>353</ele>
        <time>2014-03-18T14:59:23Z</time>
      </trkpt>
      <trkpt lat="44.09012" lon="2.99771">
        <ele>353</ele>
        <time>2014-03-18T14:59:26Z</time>
      </trkpt>
      <trkpt lat="44.09011" lon="2.99765">
        <ele>354</ele>
        <time>2014-03-18T14:59:29Z</time>
      </trkpt>
      <trkpt lat="44.09005" lon="2.99761">
        <ele>355</ele>
        <time>2014-03-18T14:59:33Z</time>
      </trkpt>
      <trkpt lat="44.09" lon="2.99759">
        <ele>355</ele>
        <time>2014-03-18T14:59:36Z</time>
      </trkpt>
      <trkpt lat="44.08996" lon="2.99757">
        <ele>355</ele>
        <time>2014-03-18T14:59:40Z</time>
      </trkpt>
      <trkpt lat="44.08992" lon="2.99751">
        <ele>355</ele>
        <time>2014-03-18T14:59:45Z</time>
      </trkpt>
      <trkpt lat="44.08989" lon="2.99747">
        <ele>355</ele>
        <time>2014-03-18T14:59:48Z</time>
      </trkpt>
      <trkpt lat="44.08985" lon="2.99743">
        <ele>356</ele>
        <time>2014-03-18T14:59:51Z</time>
      </trkpt>
      <trkpt lat="44.08981" lon="2.99738">
        <ele>356</ele>
        <time>2014-03-18T14:59:56Z</time>
      </trkpt>
      <trkpt lat="44.08979" lon="2.99731">
        <ele>355</ele>
        <time>2014-03-18T14:59:59Z</time>
      </trkpt>
      <trkpt lat="44.08977" lon="2.99725">
        <ele>356</ele>
        <time>2014-03-18T15:00:03Z</time>
      </trkpt>
      <trkpt lat="44.08973" lon="2.99722">
        <ele>357</ele>
        <time>2014-03-18T15:00:09Z</time>
      </trkpt>
      <trkpt lat="44.08968" lon="2.99719">
        <ele>357</ele>
        <time>2014-03-18T15:00:14Z</time>
      </trkpt>
      <trkpt lat="44.08964" lon="2.99717">
        <ele>356</ele>
        <time>2014-03-18T15:00:20Z</time>
      </trkpt>
      <trkpt lat="44.08959" lon="2.99713">
        <ele>353</ele>
        <time>2014-03-18T15:00:25Z</time>
      </trkpt>
      <trkpt lat="44.08954" lon="2.99711">
        <ele>352</ele>
        <time>2014-03-18T15:00:28Z</time>
      </trkpt>
      <trkpt lat="44.08949" lon="2.99707">
        <ele>353</ele>
        <time>2014-03-18T15:00:31Z</time>
      </trkpt>
      <trkpt lat="44.08944" lon="2.99704">
        <ele>353</ele>
        <time>2014-03-18T15:00:34Z</time>
      </trkpt>
      <trkpt lat="44.0894" lon="2.99701">
        <ele>353</ele>
        <time>2014-03-18T15:00:37Z</time>
      </trkpt>
      <trkpt lat="44.08936" lon="2.99696">
        <ele>352</ele>
        <time>2014-03-18T15:00:41Z</time>
      </trkpt>
      <trkpt lat="44.08931" lon="2.99692">
        <ele>352</ele>
        <time>2014-03-18T15:00:45Z</time>
      </trkpt>
      <trkpt lat="44.08928" lon="2.99687">
        <ele>352</ele>
        <time>2014-03-18T15:00:49Z</time>
      </trkpt>
      <trkpt lat="44.08923" lon="2.99684">
        <ele>352</ele>
        <time>2014-03-18T15:00:53Z</time>
      </trkpt>
      <trkpt lat="44.08919" lon="2.9968">
        <ele>352</ele>
        <time>2014-03-18T15:00:57Z</time>
      </trkpt>
      <trkpt lat="44.08914" lon="2.99676">
        <ele>352</ele>
        <time>2014-03-18T15:01:00Z</time>
      </trkpt>
      <trkpt lat="44.0891" lon="2.99672">
        <ele>351</ele>
        <time>2014-03-18T15:01:03Z</time>
      </trkpt>
      <trkpt lat="44.08906" lon="2.99669">
        <ele>351</ele>
        <time>2014-03-18T15:01:06Z</time>
      </trkpt>
      <trkpt lat="44.08901" lon="2.99666">
        <ele>352</ele>
        <time>2014-03-18T15:01:09Z</time>
      </trkpt>
      <trkpt lat="44.08897" lon="2.99664">
        <ele>352</ele>
        <time>2014-03-18T15:01:13Z</time>
      </trkpt>
      <trkpt lat="44.08892" lon="2.99665">
        <ele>352</ele>
        <time>2014-03-18T15:01:18Z</time>
      </trkpt>
      <trkpt lat="44.08887" lon="2.99663">
        <ele>351</ele>
        <time>2014-03-18T15:01:23Z</time>
      </trkpt>
      <trkpt lat="44.08885" lon="2.99656">
        <ele>350</ele>
        <time>2014-03-18T15:01:28Z</time>
      </trkpt>
      <trkpt lat="44.08882" lon="2.99651">
        <ele>349</ele>
        <time>2014-03-18T15:01:32Z</time>
      </trkpt>
      <trkpt lat="44.08878" lon="2.99645">
        <ele>347</ele>
        <time>2014-03-18T15:01:36Z</time>
      </trkpt>
      <trkpt lat="44.08874" lon="2.9964">
        <ele>347</ele>
        <time>2014-03-18T15:01:39Z</time>
      </trkpt>
      <trkpt lat="44.08871" lon="2.99635">
        <ele>344</ele>
        <time>2014-03-18T15:01:44Z</time>
      </trkpt>
      <trkpt lat="44.08868" lon="2.9963">
        <ele>343</ele>
        <time>2014-03-18T15:01:48Z</time>
      </trkpt>
      <trkpt lat="44.08864" lon="2.99625">
        <ele>343</ele>
        <time>2014-03-18T15:01:52Z</time>
      </trkpt>
      <trkpt lat="44.0886" lon="2.9962">
        <ele>343</ele>
        <time>2014-03-18T15:01:55Z</time>
      </trkpt>
      <trkpt lat="44.08857" lon="2.99615">
        <ele>343</ele>
        <time>2014-03-18T15:01:58Z</time>
      </trkpt>
      <trkpt lat="44.08854" lon="2.99608">
        <ele>343</ele>
        <time>2014-03-18T15:02:05Z</time>
      </trkpt>
      <trkpt lat="44.08851" lon="2.99602">
        <ele>343</ele>
        <time>2014-03-18T15:02:08Z</time>
      </trkpt>
      <trkpt lat="44.08848" lon="2.99596">
        <ele>344</ele>
        <time>2014-03-18T15:02:11Z</time>
      </trkpt>
      <trkpt lat="44.08845" lon="2.9959">
        <ele>345</ele>
        <time>2014-03-18T15:02:14Z</time>
      </trkpt>
      <trkpt lat="44.08842" lon="2.99583">
        <ele>347</ele>
        <time>2014-03-18T15:02:18Z</time>
      </trkpt>
      <trkpt lat="44.08839" lon="2.99577">
        <ele>348</ele>
        <time>2014-03-18T15:02:21Z</time>
      </trkpt>
      <trkpt lat="44.08837" lon="2.99571">
        <ele>349</ele>
        <time>2014-03-18T15:02:25Z</time>
      </trkpt>
      <trkpt lat="44.08836" lon="2.99564">
        <ele>348</ele>
        <time>2014-03-18T15:02:30Z</time>
      </trkpt>
      <trkpt lat="44.08834" lon="2.99558">
        <ele>348</ele>
        <time>2014-03-18T15:02:33Z</time>
      </trkpt>
      <trkpt lat="44.08832" lon="2.99552">
        <ele>348</ele>
        <time>2014-03-18T15:02:36Z</time>
      </trkpt>
      <trkpt lat="44.0883" lon="2.99545">
        <ele>349</ele>
        <time>2014-03-18T15:02:40Z</time>
      </trkpt>
      <trkpt lat="44.08827" lon="2.99539">
        <ele>349</ele>
        <time>2014-03-18T15:02:44Z</time>
      </trkpt>
      <trkpt lat="44.08823" lon="2.99533">
        <ele>349</ele>
        <time>2014-03-18T15:02:48Z</time>
      </trkpt>
      <trkpt lat="44.08821" lon="2.99527">
        <ele>348</ele>
        <time>2014-03-18T15:02:52Z</time>
      </trkpt>
      <trkpt lat="44.08819" lon="2.9952">
        <ele>346</ele>
        <time>2014-03-18T15:03:01Z</time>
      </trkpt>
      <trkpt lat="44.08817" lon="2.99513">
        <ele>345</ele>
        <time>2014-03-18T15:03:05Z</time>
      </trkpt>
      <trkpt lat="44.08817" lon="2.99506">
        <ele>343</ele>
        <time>2014-03-18T15:03:11Z</time>
      </trkpt>
      <trkpt lat="44.08814" lon="2.995">
        <ele>341</ele>
        <time>2014-03-18T15:03:16Z</time>
      </trkpt>
      <trkpt lat="44.08815" lon="2.99494">
        <ele>341</ele>
        <time>2014-03-18T15:03:22Z</time>
      </trkpt>
      <trkpt lat="44.08813" lon="2.99487">
        <ele>340</ele>
        <time>2014-03-18T15:03:27Z</time>
      </trkpt>
      <trkpt lat="44.0881" lon="2.99482">
        <ele>339</ele>
        <time>2014-03-18T15:03:33Z</time>
      </trkpt>
    </trkseg>
  </trk>
</gpx>